<?xml version="1.0" encoding="UTF-8"?>
<gpx xmlns="http://www.topografix.com/GPX/1/1" xmlns:gpsies="http://www.gpsies.com/GPX/1/0" creator="GPSies http://www.gpsies.com - Ride452150029" version="1.1" xmlns:xsi="http://www.w3.org/2001/XMLSchema-instance" xsi:schemaLocation="http://www.topografix.com/GPX/1/1 http://www.topografix.com/GPX/1/1/gpx.xsd http://www.gpsies.com/GPX/1/0 http://www.gpsies.com/gpsies.xsd">
  <metadata>
    <name>Ride452150029</name>
    <link href="http://www.gpsies.com/">
      <text>Ride452150029 on GPSies.com</text>
    </link>
    <time>2016-02-05T18:07:38Z</time>
  </metadata>
  <trk>
    <name>Ride452150029 on GPSies.com</name>
    <trkseg>
      <trkpt lat="30.85002000" lon="34.78269000">
        <ele>480.00000</ele>
        <time>2015-12-18T05:21:57Z</time>
      </trkpt>
      <trkpt lat="30.85013000" lon="34.78265000">
        <ele>481.00000</ele>
        <time>2015-12-18T05:22:00Z</time>
      </trkpt>
      <trkpt lat="30.85025000" lon="34.78260000">
        <ele>481.00000</ele>
        <time>2015-12-18T05:22:03Z</time>
      </trkpt>
      <trkpt lat="30.85035000" lon="34.78250000">
        <ele>481.00000</ele>
        <time>2015-12-18T05:22:06Z</time>
      </trkpt>
      <trkpt lat="30.85034000" lon="34.78235000">
        <ele>481.00000</ele>
        <time>2015-12-18T05:22:09Z</time>
      </trkpt>
      <trkpt lat="30.85031000" lon="34.78220000">
        <ele>482.00000</ele>
        <time>2015-12-18T05:22:12Z</time>
      </trkpt>
      <trkpt lat="30.85028000" lon="34.78204000">
        <ele>482.00000</ele>
        <time>2015-12-18T05:22:15Z</time>
      </trkpt>
      <trkpt lat="30.85025000" lon="34.78187000">
        <ele>482.00000</ele>
        <time>2015-12-18T05:22:18Z</time>
      </trkpt>
      <trkpt lat="30.85022000" lon="34.78170000">
        <ele>483.00000</ele>
        <time>2015-12-18T05:22:21Z</time>
      </trkpt>
      <trkpt lat="30.85019000" lon="34.78152000">
        <ele>483.00000</ele>
        <time>2015-12-18T05:22:24Z</time>
      </trkpt>
      <trkpt lat="30.85016000" lon="34.78134000">
        <ele>483.00000</ele>
        <time>2015-12-18T05:22:27Z</time>
      </trkpt>
      <trkpt lat="30.85013000" lon="34.78115000">
        <ele>483.00000</ele>
        <time>2015-12-18T05:22:30Z</time>
      </trkpt>
      <trkpt lat="30.85010000" lon="34.78097000">
        <ele>483.00000</ele>
        <time>2015-12-18T05:22:33Z</time>
      </trkpt>
      <trkpt lat="30.85006000" lon="34.78079000">
        <ele>483.00000</ele>
        <time>2015-12-18T05:22:36Z</time>
      </trkpt>
      <trkpt lat="30.85003000" lon="34.78061000">
        <ele>483.00000</ele>
        <time>2015-12-18T05:22:39Z</time>
      </trkpt>
      <trkpt lat="30.84999000" lon="34.78043000">
        <ele>483.00000</ele>
        <time>2015-12-18T05:22:42Z</time>
      </trkpt>
      <trkpt lat="30.84996000" lon="34.78023000">
        <ele>482.00000</ele>
        <time>2015-12-18T05:22:45Z</time>
      </trkpt>
      <trkpt lat="30.84994000" lon="34.78003000">
        <ele>481.00000</ele>
        <time>2015-12-18T05:22:48Z</time>
      </trkpt>
      <trkpt lat="30.84994000" lon="34.77982000">
        <ele>481.00000</ele>
        <time>2015-12-18T05:22:51Z</time>
      </trkpt>
      <trkpt lat="30.84996000" lon="34.77962000">
        <ele>480.00000</ele>
        <time>2015-12-18T05:22:54Z</time>
      </trkpt>
      <trkpt lat="30.85003000" lon="34.77943000">
        <ele>480.00000</ele>
        <time>2015-12-18T05:22:57Z</time>
      </trkpt>
      <trkpt lat="30.85013000" lon="34.77927000">
        <ele>480.00000</ele>
        <time>2015-12-18T05:23:00Z</time>
      </trkpt>
      <trkpt lat="30.85017000" lon="34.77911000">
        <ele>480.00000</ele>
        <time>2015-12-18T05:23:03Z</time>
      </trkpt>
      <trkpt lat="30.85019000" lon="34.77894000">
        <ele>481.00000</ele>
        <time>2015-12-18T05:23:06Z</time>
      </trkpt>
      <trkpt lat="30.85024000" lon="34.77879000">
        <ele>481.00000</ele>
        <time>2015-12-18T05:23:09Z</time>
      </trkpt>
      <trkpt lat="30.85033000" lon="34.77867000">
        <ele>481.00000</ele>
        <time>2015-12-18T05:23:12Z</time>
      </trkpt>
      <trkpt lat="30.85042000" lon="34.77853000">
        <ele>481.00000</ele>
        <time>2015-12-18T05:23:15Z</time>
      </trkpt>
      <trkpt lat="30.85052000" lon="34.77838000">
        <ele>481.00000</ele>
        <time>2015-12-18T05:23:18Z</time>
      </trkpt>
      <trkpt lat="30.85062000" lon="34.77822000">
        <ele>481.00000</ele>
        <time>2015-12-18T05:23:21Z</time>
      </trkpt>
      <trkpt lat="30.85073000" lon="34.77807000">
        <ele>480.00000</ele>
        <time>2015-12-18T05:23:24Z</time>
      </trkpt>
      <trkpt lat="30.85083000" lon="34.77792000">
        <ele>480.00000</ele>
        <time>2015-12-18T05:23:27Z</time>
      </trkpt>
      <trkpt lat="30.85095000" lon="34.77777000">
        <ele>480.00000</ele>
        <time>2015-12-18T05:23:30Z</time>
      </trkpt>
      <trkpt lat="30.85106000" lon="34.77762000">
        <ele>479.00000</ele>
        <time>2015-12-18T05:23:33Z</time>
      </trkpt>
      <trkpt lat="30.85116000" lon="34.77745000">
        <ele>479.00000</ele>
        <time>2015-12-18T05:23:36Z</time>
      </trkpt>
      <trkpt lat="30.85128000" lon="34.77727000">
        <ele>479.00000</ele>
        <time>2015-12-18T05:23:39Z</time>
      </trkpt>
      <trkpt lat="30.85139000" lon="34.77711000">
        <ele>479.00000</ele>
        <time>2015-12-18T05:23:42Z</time>
      </trkpt>
      <trkpt lat="30.85150000" lon="34.77694000">
        <ele>478.00000</ele>
        <time>2015-12-18T05:23:45Z</time>
      </trkpt>
      <trkpt lat="30.85162000" lon="34.77677000">
        <ele>478.00000</ele>
        <time>2015-12-18T05:23:48Z</time>
      </trkpt>
      <trkpt lat="30.85173000" lon="34.77660000">
        <ele>478.00000</ele>
        <time>2015-12-18T05:23:51Z</time>
      </trkpt>
      <trkpt lat="30.85184000" lon="34.77644000">
        <ele>478.00000</ele>
        <time>2015-12-18T05:23:54Z</time>
      </trkpt>
      <trkpt lat="30.85195000" lon="34.77628000">
        <ele>478.00000</ele>
        <time>2015-12-18T05:23:57Z</time>
      </trkpt>
      <trkpt lat="30.85205000" lon="34.77611000">
        <ele>479.00000</ele>
        <time>2015-12-18T05:24:00Z</time>
      </trkpt>
      <trkpt lat="30.85216000" lon="34.77596000">
        <ele>479.00000</ele>
        <time>2015-12-18T05:24:03Z</time>
      </trkpt>
      <trkpt lat="30.85227000" lon="34.77580000">
        <ele>479.00000</ele>
        <time>2015-12-18T05:24:06Z</time>
      </trkpt>
      <trkpt lat="30.85237000" lon="34.77563000">
        <ele>479.00000</ele>
        <time>2015-12-18T05:24:09Z</time>
      </trkpt>
      <trkpt lat="30.85247000" lon="34.77548000">
        <ele>479.00000</ele>
        <time>2015-12-18T05:24:12Z</time>
      </trkpt>
      <trkpt lat="30.85256000" lon="34.77534000">
        <ele>480.00000</ele>
        <time>2015-12-18T05:24:15Z</time>
      </trkpt>
      <trkpt lat="30.85264000" lon="34.77521000">
        <ele>481.00000</ele>
        <time>2015-12-18T05:24:18Z</time>
      </trkpt>
      <trkpt lat="30.85272000" lon="34.77508000">
        <ele>482.00000</ele>
        <time>2015-12-18T05:24:21Z</time>
      </trkpt>
      <trkpt lat="30.85280000" lon="34.77494000">
        <ele>482.00000</ele>
        <time>2015-12-18T05:24:24Z</time>
      </trkpt>
      <trkpt lat="30.85287000" lon="34.77480000">
        <ele>483.00000</ele>
        <time>2015-12-18T05:24:27Z</time>
      </trkpt>
      <trkpt lat="30.85295000" lon="34.77465000">
        <ele>484.00000</ele>
        <time>2015-12-18T05:24:30Z</time>
      </trkpt>
      <trkpt lat="30.85302000" lon="34.77449000">
        <ele>484.00000</ele>
        <time>2015-12-18T05:24:33Z</time>
      </trkpt>
      <trkpt lat="30.85309000" lon="34.77433000">
        <ele>484.00000</ele>
        <time>2015-12-18T05:24:36Z</time>
      </trkpt>
      <trkpt lat="30.85315000" lon="34.77417000">
        <ele>484.00000</ele>
        <time>2015-12-18T05:24:39Z</time>
      </trkpt>
      <trkpt lat="30.85320000" lon="34.77400000">
        <ele>484.00000</ele>
        <time>2015-12-18T05:24:42Z</time>
      </trkpt>
      <trkpt lat="30.85325000" lon="34.77383000">
        <ele>484.00000</ele>
        <time>2015-12-18T05:24:45Z</time>
      </trkpt>
      <trkpt lat="30.85329000" lon="34.77365000">
        <ele>484.00000</ele>
        <time>2015-12-18T05:24:48Z</time>
      </trkpt>
      <trkpt lat="30.85333000" lon="34.77347000">
        <ele>484.00000</ele>
        <time>2015-12-18T05:24:51Z</time>
      </trkpt>
      <trkpt lat="30.85337000" lon="34.77330000">
        <ele>485.00000</ele>
        <time>2015-12-18T05:24:54Z</time>
      </trkpt>
      <trkpt lat="30.85342000" lon="34.77313000">
        <ele>485.00000</ele>
        <time>2015-12-18T05:24:57Z</time>
      </trkpt>
      <trkpt lat="30.85346000" lon="34.77295000">
        <ele>485.00000</ele>
        <time>2015-12-18T05:25:00Z</time>
      </trkpt>
      <trkpt lat="30.85350000" lon="34.77278000">
        <ele>486.00000</ele>
        <time>2015-12-18T05:25:03Z</time>
      </trkpt>
      <trkpt lat="30.85354000" lon="34.77261000">
        <ele>486.00000</ele>
        <time>2015-12-18T05:25:06Z</time>
      </trkpt>
      <trkpt lat="30.85358000" lon="34.77244000">
        <ele>486.00000</ele>
        <time>2015-12-18T05:25:09Z</time>
      </trkpt>
      <trkpt lat="30.85362000" lon="34.77226000">
        <ele>487.00000</ele>
        <time>2015-12-18T05:25:12Z</time>
      </trkpt>
      <trkpt lat="30.85366000" lon="34.77210000">
        <ele>488.00000</ele>
        <time>2015-12-18T05:25:15Z</time>
      </trkpt>
      <trkpt lat="30.85370000" lon="34.77193000">
        <ele>488.00000</ele>
        <time>2015-12-18T05:25:18Z</time>
      </trkpt>
      <trkpt lat="30.85374000" lon="34.77176000">
        <ele>489.00000</ele>
        <time>2015-12-18T05:25:21Z</time>
      </trkpt>
      <trkpt lat="30.85378000" lon="34.77159000">
        <ele>489.00000</ele>
        <time>2015-12-18T05:25:24Z</time>
      </trkpt>
      <trkpt lat="30.85382000" lon="34.77144000">
        <ele>490.00000</ele>
        <time>2015-12-18T05:25:27Z</time>
      </trkpt>
      <trkpt lat="30.85386000" lon="34.77128000">
        <ele>490.00000</ele>
        <time>2015-12-18T05:25:30Z</time>
      </trkpt>
      <trkpt lat="30.85390000" lon="34.77112000">
        <ele>491.00000</ele>
        <time>2015-12-18T05:25:33Z</time>
      </trkpt>
      <trkpt lat="30.85394000" lon="34.77097000">
        <ele>492.00000</ele>
        <time>2015-12-18T05:25:36Z</time>
      </trkpt>
      <trkpt lat="30.85397000" lon="34.77081000">
        <ele>493.00000</ele>
        <time>2015-12-18T05:25:39Z</time>
      </trkpt>
      <trkpt lat="30.85401000" lon="34.77066000">
        <ele>494.00000</ele>
        <time>2015-12-18T05:25:42Z</time>
      </trkpt>
      <trkpt lat="30.85402000" lon="34.77060000">
        <ele>494.00000</ele>
        <time>2015-12-18T05:25:45Z</time>
      </trkpt>
      <trkpt lat="30.85401000" lon="34.77064000">
        <ele>494.00000</ele>
        <time>2015-12-18T05:25:48Z</time>
      </trkpt>
      <trkpt lat="30.85399000" lon="34.77067000">
        <ele>494.00000</ele>
        <time>2015-12-18T05:25:51Z</time>
      </trkpt>
      <trkpt lat="30.85402000" lon="34.77074000">
        <ele>494.00000</ele>
        <time>2015-12-18T05:25:54Z</time>
      </trkpt>
      <trkpt lat="30.85411000" lon="34.77077000">
        <ele>494.00000</ele>
        <time>2015-12-18T05:25:57Z</time>
      </trkpt>
      <trkpt lat="30.85415000" lon="34.77066000">
        <ele>495.00000</ele>
        <time>2015-12-18T05:26:00Z</time>
      </trkpt>
      <trkpt lat="30.85415000" lon="34.77050000">
        <ele>496.00000</ele>
        <time>2015-12-18T05:26:03Z</time>
      </trkpt>
      <trkpt lat="30.85411000" lon="34.77035000">
        <ele>496.00000</ele>
        <time>2015-12-18T05:26:06Z</time>
      </trkpt>
      <trkpt lat="30.85406000" lon="34.77021000">
        <ele>496.00000</ele>
        <time>2015-12-18T05:26:09Z</time>
      </trkpt>
      <trkpt lat="30.85403000" lon="34.77004000">
        <ele>496.00000</ele>
        <time>2015-12-18T05:26:12Z</time>
      </trkpt>
      <trkpt lat="30.85398000" lon="34.76991000">
        <ele>496.00000</ele>
        <time>2015-12-18T05:26:15Z</time>
      </trkpt>
      <trkpt lat="30.85384000" lon="34.76984000">
        <ele>496.00000</ele>
        <time>2015-12-18T05:26:18Z</time>
      </trkpt>
      <trkpt lat="30.85370000" lon="34.76976000">
        <ele>495.00000</ele>
        <time>2015-12-18T05:26:21Z</time>
      </trkpt>
      <trkpt lat="30.85357000" lon="34.76965000">
        <ele>495.00000</ele>
        <time>2015-12-18T05:26:24Z</time>
      </trkpt>
      <trkpt lat="30.85343000" lon="34.76954000">
        <ele>495.00000</ele>
        <time>2015-12-18T05:26:27Z</time>
      </trkpt>
      <trkpt lat="30.85331000" lon="34.76943000">
        <ele>496.00000</ele>
        <time>2015-12-18T05:26:30Z</time>
      </trkpt>
      <trkpt lat="30.85318000" lon="34.76932000">
        <ele>496.00000</ele>
        <time>2015-12-18T05:26:33Z</time>
      </trkpt>
      <trkpt lat="30.85305000" lon="34.76922000">
        <ele>497.00000</ele>
        <time>2015-12-18T05:26:36Z</time>
      </trkpt>
      <trkpt lat="30.85292000" lon="34.76912000">
        <ele>497.00000</ele>
        <time>2015-12-18T05:26:39Z</time>
      </trkpt>
      <trkpt lat="30.85280000" lon="34.76904000">
        <ele>497.00000</ele>
        <time>2015-12-18T05:26:42Z</time>
      </trkpt>
      <trkpt lat="30.85270000" lon="34.76896000">
        <ele>498.00000</ele>
        <time>2015-12-18T05:26:45Z</time>
      </trkpt>
      <trkpt lat="30.85264000" lon="34.76883000">
        <ele>498.00000</ele>
        <time>2015-12-18T05:26:48Z</time>
      </trkpt>
      <trkpt lat="30.85264000" lon="34.76868000">
        <ele>499.00000</ele>
        <time>2015-12-18T05:26:51Z</time>
      </trkpt>
      <trkpt lat="30.85269000" lon="34.76855000">
        <ele>500.00000</ele>
        <time>2015-12-18T05:26:54Z</time>
      </trkpt>
      <trkpt lat="30.85275000" lon="34.76843000">
        <ele>501.00000</ele>
        <time>2015-12-18T05:26:57Z</time>
      </trkpt>
      <trkpt lat="30.85281000" lon="34.76831000">
        <ele>502.00000</ele>
        <time>2015-12-18T05:27:00Z</time>
      </trkpt>
      <trkpt lat="30.85286000" lon="34.76819000">
        <ele>503.00000</ele>
        <time>2015-12-18T05:27:03Z</time>
      </trkpt>
      <trkpt lat="30.85289000" lon="34.76807000">
        <ele>503.00000</ele>
        <time>2015-12-18T05:27:06Z</time>
      </trkpt>
      <trkpt lat="30.85291000" lon="34.76796000">
        <ele>504.00000</ele>
        <time>2015-12-18T05:27:09Z</time>
      </trkpt>
      <trkpt lat="30.85292000" lon="34.76785000">
        <ele>504.00000</ele>
        <time>2015-12-18T05:27:12Z</time>
      </trkpt>
      <trkpt lat="30.85294000" lon="34.76773000">
        <ele>504.00000</ele>
        <time>2015-12-18T05:27:15Z</time>
      </trkpt>
      <trkpt lat="30.85295000" lon="34.76759000">
        <ele>504.00000</ele>
        <time>2015-12-18T05:27:18Z</time>
      </trkpt>
      <trkpt lat="30.85297000" lon="34.76746000">
        <ele>505.00000</ele>
        <time>2015-12-18T05:27:21Z</time>
      </trkpt>
      <trkpt lat="30.85298000" lon="34.76732000">
        <ele>505.00000</ele>
        <time>2015-12-18T05:27:24Z</time>
      </trkpt>
      <trkpt lat="30.85300000" lon="34.76719000">
        <ele>505.00000</ele>
        <time>2015-12-18T05:27:27Z</time>
      </trkpt>
      <trkpt lat="30.85302000" lon="34.76706000">
        <ele>505.00000</ele>
        <time>2015-12-18T05:27:30Z</time>
      </trkpt>
      <trkpt lat="30.85304000" lon="34.76693000">
        <ele>506.00000</ele>
        <time>2015-12-18T05:27:33Z</time>
      </trkpt>
      <trkpt lat="30.85306000" lon="34.76681000">
        <ele>507.00000</ele>
        <time>2015-12-18T05:27:36Z</time>
      </trkpt>
      <trkpt lat="30.85308000" lon="34.76668000">
        <ele>507.00000</ele>
        <time>2015-12-18T05:27:39Z</time>
      </trkpt>
      <trkpt lat="30.85310000" lon="34.76655000">
        <ele>508.00000</ele>
        <time>2015-12-18T05:27:42Z</time>
      </trkpt>
      <trkpt lat="30.85312000" lon="34.76641000">
        <ele>508.00000</ele>
        <time>2015-12-18T05:27:45Z</time>
      </trkpt>
      <trkpt lat="30.85314000" lon="34.76628000">
        <ele>509.00000</ele>
        <time>2015-12-18T05:27:48Z</time>
      </trkpt>
      <trkpt lat="30.85316000" lon="34.76615000">
        <ele>509.00000</ele>
        <time>2015-12-18T05:27:51Z</time>
      </trkpt>
      <trkpt lat="30.85318000" lon="34.76601000">
        <ele>510.00000</ele>
        <time>2015-12-18T05:27:54Z</time>
      </trkpt>
      <trkpt lat="30.85321000" lon="34.76587000">
        <ele>511.00000</ele>
        <time>2015-12-18T05:27:57Z</time>
      </trkpt>
      <trkpt lat="30.85323000" lon="34.76572000">
        <ele>512.00000</ele>
        <time>2015-12-18T05:28:00Z</time>
      </trkpt>
      <trkpt lat="30.85323000" lon="34.76559000">
        <ele>512.00000</ele>
        <time>2015-12-18T05:28:03Z</time>
      </trkpt>
      <trkpt lat="30.85321000" lon="34.76548000">
        <ele>513.00000</ele>
        <time>2015-12-18T05:28:06Z</time>
      </trkpt>
      <trkpt lat="30.85318000" lon="34.76537000">
        <ele>513.00000</ele>
        <time>2015-12-18T05:28:09Z</time>
      </trkpt>
      <trkpt lat="30.85316000" lon="34.76524000">
        <ele>514.00000</ele>
        <time>2015-12-18T05:28:12Z</time>
      </trkpt>
      <trkpt lat="30.85316000" lon="34.76512000">
        <ele>515.00000</ele>
        <time>2015-12-18T05:28:15Z</time>
      </trkpt>
      <trkpt lat="30.85317000" lon="34.76499000">
        <ele>516.00000</ele>
        <time>2015-12-18T05:28:18Z</time>
      </trkpt>
      <trkpt lat="30.85318000" lon="34.76486000">
        <ele>518.00000</ele>
        <time>2015-12-18T05:28:21Z</time>
      </trkpt>
      <trkpt lat="30.85316000" lon="34.76473000">
        <ele>518.00000</ele>
        <time>2015-12-18T05:28:24Z</time>
      </trkpt>
      <trkpt lat="30.85313000" lon="34.76462000">
        <ele>519.00000</ele>
        <time>2015-12-18T05:28:27Z</time>
      </trkpt>
      <trkpt lat="30.85312000" lon="34.76450000">
        <ele>519.00000</ele>
        <time>2015-12-18T05:28:30Z</time>
      </trkpt>
      <trkpt lat="30.85313000" lon="34.76438000">
        <ele>520.00000</ele>
        <time>2015-12-18T05:28:33Z</time>
      </trkpt>
      <trkpt lat="30.85315000" lon="34.76425000">
        <ele>521.00000</ele>
        <time>2015-12-18T05:28:36Z</time>
      </trkpt>
      <trkpt lat="30.85316000" lon="34.76413000">
        <ele>522.00000</ele>
        <time>2015-12-18T05:28:39Z</time>
      </trkpt>
      <trkpt lat="30.85318000" lon="34.76401000">
        <ele>523.00000</ele>
        <time>2015-12-18T05:28:42Z</time>
      </trkpt>
      <trkpt lat="30.85318000" lon="34.76390000">
        <ele>524.00000</ele>
        <time>2015-12-18T05:28:45Z</time>
      </trkpt>
      <trkpt lat="30.85316000" lon="34.76378000">
        <ele>524.00000</ele>
        <time>2015-12-18T05:28:48Z</time>
      </trkpt>
      <trkpt lat="30.85314000" lon="34.76365000">
        <ele>524.00000</ele>
        <time>2015-12-18T05:28:51Z</time>
      </trkpt>
      <trkpt lat="30.85315000" lon="34.76353000">
        <ele>524.00000</ele>
        <time>2015-12-18T05:28:54Z</time>
      </trkpt>
      <trkpt lat="30.85319000" lon="34.76342000">
        <ele>525.00000</ele>
        <time>2015-12-18T05:28:57Z</time>
      </trkpt>
      <trkpt lat="30.85323000" lon="34.76331000">
        <ele>526.00000</ele>
        <time>2015-12-18T05:29:00Z</time>
      </trkpt>
      <trkpt lat="30.85326000" lon="34.76320000">
        <ele>527.00000</ele>
        <time>2015-12-18T05:29:03Z</time>
      </trkpt>
      <trkpt lat="30.85328000" lon="34.76308000">
        <ele>528.00000</ele>
        <time>2015-12-18T05:29:06Z</time>
      </trkpt>
      <trkpt lat="30.85329000" lon="34.76297000">
        <ele>528.00000</ele>
        <time>2015-12-18T05:29:09Z</time>
      </trkpt>
      <trkpt lat="30.85329000" lon="34.76285000">
        <ele>528.00000</ele>
        <time>2015-12-18T05:29:12Z</time>
      </trkpt>
      <trkpt lat="30.85329000" lon="34.76273000">
        <ele>528.00000</ele>
        <time>2015-12-18T05:29:15Z</time>
      </trkpt>
      <trkpt lat="30.85329000" lon="34.76261000">
        <ele>528.00000</ele>
        <time>2015-12-18T05:29:18Z</time>
      </trkpt>
      <trkpt lat="30.85329000" lon="34.76249000">
        <ele>527.00000</ele>
        <time>2015-12-18T05:29:21Z</time>
      </trkpt>
      <trkpt lat="30.85332000" lon="34.76237000">
        <ele>527.00000</ele>
        <time>2015-12-18T05:29:24Z</time>
      </trkpt>
      <trkpt lat="30.85336000" lon="34.76226000">
        <ele>527.00000</ele>
        <time>2015-12-18T05:29:27Z</time>
      </trkpt>
      <trkpt lat="30.85340000" lon="34.76216000">
        <ele>527.00000</ele>
        <time>2015-12-18T05:29:30Z</time>
      </trkpt>
      <trkpt lat="30.85342000" lon="34.76205000">
        <ele>527.00000</ele>
        <time>2015-12-18T05:29:33Z</time>
      </trkpt>
      <trkpt lat="30.85343000" lon="34.76195000">
        <ele>529.00000</ele>
        <time>2015-12-18T05:29:36Z</time>
      </trkpt>
      <trkpt lat="30.85348000" lon="34.76185000">
        <ele>531.00000</ele>
        <time>2015-12-18T05:29:39Z</time>
      </trkpt>
      <trkpt lat="30.85356000" lon="34.76176000">
        <ele>532.00000</ele>
        <time>2015-12-18T05:29:42Z</time>
      </trkpt>
      <trkpt lat="30.85364000" lon="34.76171000">
        <ele>533.00000</ele>
        <time>2015-12-18T05:29:45Z</time>
      </trkpt>
      <trkpt lat="30.85371000" lon="34.76165000">
        <ele>535.00000</ele>
        <time>2015-12-18T05:29:48Z</time>
      </trkpt>
      <trkpt lat="30.85379000" lon="34.76161000">
        <ele>536.00000</ele>
        <time>2015-12-18T05:29:51Z</time>
      </trkpt>
      <trkpt lat="30.85386000" lon="34.76157000">
        <ele>536.00000</ele>
        <time>2015-12-18T05:29:54Z</time>
      </trkpt>
      <trkpt lat="30.85393000" lon="34.76154000">
        <ele>537.00000</ele>
        <time>2015-12-18T05:29:57Z</time>
      </trkpt>
      <trkpt lat="30.85400000" lon="34.76151000">
        <ele>537.00000</ele>
        <time>2015-12-18T05:30:00Z</time>
      </trkpt>
      <trkpt lat="30.85407000" lon="34.76147000">
        <ele>538.00000</ele>
        <time>2015-12-18T05:30:03Z</time>
      </trkpt>
      <trkpt lat="30.85413000" lon="34.76144000">
        <ele>538.00000</ele>
        <time>2015-12-18T05:30:06Z</time>
      </trkpt>
      <trkpt lat="30.85420000" lon="34.76140000">
        <ele>538.00000</ele>
        <time>2015-12-18T05:30:09Z</time>
      </trkpt>
      <trkpt lat="30.85426000" lon="34.76135000">
        <ele>539.00000</ele>
        <time>2015-12-18T05:30:12Z</time>
      </trkpt>
      <trkpt lat="30.85433000" lon="34.76132000">
        <ele>539.00000</ele>
        <time>2015-12-18T05:30:15Z</time>
      </trkpt>
      <trkpt lat="30.85440000" lon="34.76129000">
        <ele>539.00000</ele>
        <time>2015-12-18T05:30:18Z</time>
      </trkpt>
      <trkpt lat="30.85446000" lon="34.76125000">
        <ele>539.00000</ele>
        <time>2015-12-18T05:30:21Z</time>
      </trkpt>
      <trkpt lat="30.85453000" lon="34.76121000">
        <ele>539.00000</ele>
        <time>2015-12-18T05:30:24Z</time>
      </trkpt>
      <trkpt lat="30.85459000" lon="34.76117000">
        <ele>539.00000</ele>
        <time>2015-12-18T05:30:27Z</time>
      </trkpt>
      <trkpt lat="30.85464000" lon="34.76112000">
        <ele>540.00000</ele>
        <time>2015-12-18T05:30:30Z</time>
      </trkpt>
      <trkpt lat="30.85469000" lon="34.76106000">
        <ele>541.00000</ele>
        <time>2015-12-18T05:30:33Z</time>
      </trkpt>
      <trkpt lat="30.85475000" lon="34.76100000">
        <ele>542.00000</ele>
        <time>2015-12-18T05:30:36Z</time>
      </trkpt>
      <trkpt lat="30.85480000" lon="34.76093000">
        <ele>543.00000</ele>
        <time>2015-12-18T05:30:39Z</time>
      </trkpt>
      <trkpt lat="30.85486000" lon="34.76089000">
        <ele>544.00000</ele>
        <time>2015-12-18T05:30:42Z</time>
      </trkpt>
      <trkpt lat="30.85494000" lon="34.76085000">
        <ele>545.00000</ele>
        <time>2015-12-18T05:30:45Z</time>
      </trkpt>
      <trkpt lat="30.85502000" lon="34.76082000">
        <ele>545.00000</ele>
        <time>2015-12-18T05:30:48Z</time>
      </trkpt>
      <trkpt lat="30.85509000" lon="34.76082000">
        <ele>545.00000</ele>
        <time>2015-12-18T05:30:51Z</time>
      </trkpt>
      <trkpt lat="30.85515000" lon="34.76079000">
        <ele>545.00000</ele>
        <time>2015-12-18T05:30:54Z</time>
      </trkpt>
      <trkpt lat="30.85521000" lon="34.76076000">
        <ele>546.00000</ele>
        <time>2015-12-18T05:30:57Z</time>
      </trkpt>
      <trkpt lat="30.85528000" lon="34.76073000">
        <ele>546.00000</ele>
        <time>2015-12-18T05:31:00Z</time>
      </trkpt>
      <trkpt lat="30.85535000" lon="34.76071000">
        <ele>546.00000</ele>
        <time>2015-12-18T05:31:03Z</time>
      </trkpt>
      <trkpt lat="30.85542000" lon="34.76070000">
        <ele>546.00000</ele>
        <time>2015-12-18T05:31:06Z</time>
      </trkpt>
      <trkpt lat="30.85549000" lon="34.76070000">
        <ele>546.00000</ele>
        <time>2015-12-18T05:31:09Z</time>
      </trkpt>
      <trkpt lat="30.85556000" lon="34.76069000">
        <ele>546.00000</ele>
        <time>2015-12-18T05:31:12Z</time>
      </trkpt>
      <trkpt lat="30.85561000" lon="34.76070000">
        <ele>546.00000</ele>
        <time>2015-12-18T05:31:15Z</time>
      </trkpt>
      <trkpt lat="30.85565000" lon="34.76076000">
        <ele>546.00000</ele>
        <time>2015-12-18T05:31:18Z</time>
      </trkpt>
      <trkpt lat="30.85567000" lon="34.76085000">
        <ele>545.00000</ele>
        <time>2015-12-18T05:31:21Z</time>
      </trkpt>
      <trkpt lat="30.85569000" lon="34.76094000">
        <ele>545.00000</ele>
        <time>2015-12-18T05:31:24Z</time>
      </trkpt>
      <trkpt lat="30.85570000" lon="34.76104000">
        <ele>544.00000</ele>
        <time>2015-12-18T05:31:27Z</time>
      </trkpt>
      <trkpt lat="30.85571000" lon="34.76114000">
        <ele>544.00000</ele>
        <time>2015-12-18T05:31:30Z</time>
      </trkpt>
      <trkpt lat="30.85572000" lon="34.76124000">
        <ele>544.00000</ele>
        <time>2015-12-18T05:31:33Z</time>
      </trkpt>
      <trkpt lat="30.85572000" lon="34.76133000">
        <ele>544.00000</ele>
        <time>2015-12-18T05:31:36Z</time>
      </trkpt>
      <trkpt lat="30.85573000" lon="34.76142000">
        <ele>544.00000</ele>
        <time>2015-12-18T05:31:39Z</time>
      </trkpt>
      <trkpt lat="30.85577000" lon="34.76150000">
        <ele>544.00000</ele>
        <time>2015-12-18T05:31:42Z</time>
      </trkpt>
      <trkpt lat="30.85580000" lon="34.76158000">
        <ele>544.00000</ele>
        <time>2015-12-18T05:31:45Z</time>
      </trkpt>
      <trkpt lat="30.85585000" lon="34.76163000">
        <ele>544.00000</ele>
        <time>2015-12-18T05:31:48Z</time>
      </trkpt>
      <trkpt lat="30.85591000" lon="34.76166000">
        <ele>544.00000</ele>
        <time>2015-12-18T05:31:51Z</time>
      </trkpt>
      <trkpt lat="30.85597000" lon="34.76167000">
        <ele>544.00000</ele>
        <time>2015-12-18T05:31:54Z</time>
      </trkpt>
      <trkpt lat="30.85601000" lon="34.76168000">
        <ele>544.00000</ele>
        <time>2015-12-18T05:31:57Z</time>
      </trkpt>
      <trkpt lat="30.85603000" lon="34.76171000">
        <ele>544.00000</ele>
        <time>2015-12-18T05:32:00Z</time>
      </trkpt>
      <trkpt lat="30.85602000" lon="34.76174000">
        <ele>544.00000</ele>
        <time>2015-12-18T05:32:03Z</time>
      </trkpt>
      <trkpt lat="30.85601000" lon="34.76177000">
        <ele>544.00000</ele>
        <time>2015-12-18T05:32:06Z</time>
      </trkpt>
      <trkpt lat="30.85600000" lon="34.76178000">
        <ele>544.00000</ele>
        <time>2015-12-18T05:32:09Z</time>
      </trkpt>
      <trkpt lat="30.85599000" lon="34.76179000">
        <ele>544.00000</ele>
        <time>2015-12-18T05:32:12Z</time>
      </trkpt>
      <trkpt lat="30.85598000" lon="34.76177000">
        <ele>544.00000</ele>
        <time>2015-12-18T05:32:15Z</time>
      </trkpt>
      <trkpt lat="30.85598000" lon="34.76173000">
        <ele>544.00000</ele>
        <time>2015-12-18T05:32:18Z</time>
      </trkpt>
      <trkpt lat="30.85601000" lon="34.76171000">
        <ele>544.00000</ele>
        <time>2015-12-18T05:32:21Z</time>
      </trkpt>
      <trkpt lat="30.85603000" lon="34.76169000">
        <ele>544.00000</ele>
        <time>2015-12-18T05:32:24Z</time>
      </trkpt>
      <trkpt lat="30.85605000" lon="34.76167000">
        <ele>544.00000</ele>
        <time>2015-12-18T05:32:27Z</time>
      </trkpt>
      <trkpt lat="30.85604000" lon="34.76164000">
        <ele>544.00000</ele>
        <time>2015-12-18T05:32:30Z</time>
      </trkpt>
      <trkpt lat="30.85603000" lon="34.76163000">
        <ele>544.00000</ele>
        <time>2015-12-18T05:32:33Z</time>
      </trkpt>
      <trkpt lat="30.85603000" lon="34.76166000">
        <ele>544.00000</ele>
        <time>2015-12-18T05:32:36Z</time>
      </trkpt>
      <trkpt lat="30.85603000" lon="34.76168000">
        <ele>544.00000</ele>
        <time>2015-12-18T05:32:39Z</time>
      </trkpt>
      <trkpt lat="30.85604000" lon="34.76169000">
        <ele>544.00000</ele>
        <time>2015-12-18T05:32:42Z</time>
      </trkpt>
      <trkpt lat="30.85604000" lon="34.76171000">
        <ele>544.00000</ele>
        <time>2015-12-18T05:32:45Z</time>
      </trkpt>
      <trkpt lat="30.85607000" lon="34.76174000">
        <ele>544.00000</ele>
        <time>2015-12-18T05:32:48Z</time>
      </trkpt>
      <trkpt lat="30.85609000" lon="34.76177000">
        <ele>544.00000</ele>
        <time>2015-12-18T05:32:51Z</time>
      </trkpt>
      <trkpt lat="30.85610000" lon="34.76179000">
        <ele>544.00000</ele>
        <time>2015-12-18T05:32:54Z</time>
      </trkpt>
      <trkpt lat="30.85611000" lon="34.76182000">
        <ele>544.00000</ele>
        <time>2015-12-18T05:32:57Z</time>
      </trkpt>
      <trkpt lat="30.85612000" lon="34.76184000">
        <ele>544.00000</ele>
        <time>2015-12-18T05:33:00Z</time>
      </trkpt>
      <trkpt lat="30.85613000" lon="34.76187000">
        <ele>544.00000</ele>
        <time>2015-12-18T05:33:03Z</time>
      </trkpt>
      <trkpt lat="30.85613000" lon="34.76190000">
        <ele>544.00000</ele>
        <time>2015-12-18T05:33:06Z</time>
      </trkpt>
      <trkpt lat="30.85613000" lon="34.76194000">
        <ele>544.00000</ele>
        <time>2015-12-18T05:33:09Z</time>
      </trkpt>
      <trkpt lat="30.85612000" lon="34.76198000">
        <ele>544.00000</ele>
        <time>2015-12-18T05:33:12Z</time>
      </trkpt>
      <trkpt lat="30.85610000" lon="34.76197000">
        <ele>544.00000</ele>
        <time>2015-12-18T05:33:15Z</time>
      </trkpt>
      <trkpt lat="30.85608000" lon="34.76195000">
        <ele>544.00000</ele>
        <time>2015-12-18T05:33:18Z</time>
      </trkpt>
      <trkpt lat="30.85608000" lon="34.76191000">
        <ele>544.00000</ele>
        <time>2015-12-18T05:33:21Z</time>
      </trkpt>
      <trkpt lat="30.85609000" lon="34.76187000">
        <ele>544.00000</ele>
        <time>2015-12-18T05:33:24Z</time>
      </trkpt>
      <trkpt lat="30.85613000" lon="34.76190000">
        <ele>544.00000</ele>
        <time>2015-12-18T05:33:45Z</time>
      </trkpt>
      <trkpt lat="30.85616000" lon="34.76199000">
        <ele>543.00000</ele>
        <time>2015-12-18T05:33:48Z</time>
      </trkpt>
      <trkpt lat="30.85621000" lon="34.76211000">
        <ele>543.00000</ele>
        <time>2015-12-18T05:33:51Z</time>
      </trkpt>
      <trkpt lat="30.85627000" lon="34.76225000">
        <ele>545.00000</ele>
        <time>2015-12-18T05:33:54Z</time>
      </trkpt>
      <trkpt lat="30.85633000" lon="34.76240000">
        <ele>546.00000</ele>
        <time>2015-12-18T05:33:57Z</time>
      </trkpt>
      <trkpt lat="30.85640000" lon="34.76256000">
        <ele>547.00000</ele>
        <time>2015-12-18T05:34:00Z</time>
      </trkpt>
      <trkpt lat="30.85647000" lon="34.76269000">
        <ele>549.00000</ele>
        <time>2015-12-18T05:34:03Z</time>
      </trkpt>
      <trkpt lat="30.85657000" lon="34.76272000">
        <ele>549.00000</ele>
        <time>2015-12-18T05:34:06Z</time>
      </trkpt>
      <trkpt lat="30.85666000" lon="34.76275000">
        <ele>550.00000</ele>
        <time>2015-12-18T05:34:09Z</time>
      </trkpt>
      <trkpt lat="30.85674000" lon="34.76283000">
        <ele>550.00000</ele>
        <time>2015-12-18T05:34:12Z</time>
      </trkpt>
      <trkpt lat="30.85688000" lon="34.76281000">
        <ele>551.00000</ele>
        <time>2015-12-18T05:34:15Z</time>
      </trkpt>
      <trkpt lat="30.85701000" lon="34.76283000">
        <ele>551.00000</ele>
        <time>2015-12-18T05:34:18Z</time>
      </trkpt>
      <trkpt lat="30.85711000" lon="34.76294000">
        <ele>552.00000</ele>
        <time>2015-12-18T05:34:21Z</time>
      </trkpt>
      <trkpt lat="30.85719000" lon="34.76302000">
        <ele>552.00000</ele>
        <time>2015-12-18T05:34:24Z</time>
      </trkpt>
      <trkpt lat="30.85729000" lon="34.76309000">
        <ele>552.00000</ele>
        <time>2015-12-18T05:34:27Z</time>
      </trkpt>
      <trkpt lat="30.85740000" lon="34.76313000">
        <ele>552.00000</ele>
        <time>2015-12-18T05:34:30Z</time>
      </trkpt>
      <trkpt lat="30.85751000" lon="34.76318000">
        <ele>552.00000</ele>
        <time>2015-12-18T05:34:33Z</time>
      </trkpt>
      <trkpt lat="30.85760000" lon="34.76321000">
        <ele>552.00000</ele>
        <time>2015-12-18T05:34:36Z</time>
      </trkpt>
      <trkpt lat="30.85765000" lon="34.76321000">
        <ele>551.00000</ele>
        <time>2015-12-18T05:34:39Z</time>
      </trkpt>
      <trkpt lat="30.85768000" lon="34.76322000">
        <ele>551.00000</ele>
        <time>2015-12-18T05:34:42Z</time>
      </trkpt>
      <trkpt lat="30.85774000" lon="34.76326000">
        <ele>551.00000</ele>
        <time>2015-12-18T05:34:45Z</time>
      </trkpt>
      <trkpt lat="30.85779000" lon="34.76335000">
        <ele>551.00000</ele>
        <time>2015-12-18T05:34:48Z</time>
      </trkpt>
      <trkpt lat="30.85789000" lon="34.76343000">
        <ele>551.00000</ele>
        <time>2015-12-18T05:34:51Z</time>
      </trkpt>
      <trkpt lat="30.85798000" lon="34.76348000">
        <ele>550.00000</ele>
        <time>2015-12-18T05:34:54Z</time>
      </trkpt>
      <trkpt lat="30.85806000" lon="34.76354000">
        <ele>550.00000</ele>
        <time>2015-12-18T05:34:57Z</time>
      </trkpt>
      <trkpt lat="30.85813000" lon="34.76362000">
        <ele>550.00000</ele>
        <time>2015-12-18T05:35:00Z</time>
      </trkpt>
      <trkpt lat="30.85821000" lon="34.76369000">
        <ele>550.00000</ele>
        <time>2015-12-18T05:35:03Z</time>
      </trkpt>
      <trkpt lat="30.85831000" lon="34.76377000">
        <ele>550.00000</ele>
        <time>2015-12-18T05:35:06Z</time>
      </trkpt>
      <trkpt lat="30.85838000" lon="34.76384000">
        <ele>550.00000</ele>
        <time>2015-12-18T05:35:09Z</time>
      </trkpt>
      <trkpt lat="30.85845000" lon="34.76394000">
        <ele>550.00000</ele>
        <time>2015-12-18T05:35:12Z</time>
      </trkpt>
      <trkpt lat="30.85854000" lon="34.76403000">
        <ele>549.00000</ele>
        <time>2015-12-18T05:35:15Z</time>
      </trkpt>
      <trkpt lat="30.85862000" lon="34.76411000">
        <ele>549.00000</ele>
        <time>2015-12-18T05:35:18Z</time>
      </trkpt>
      <trkpt lat="30.85866000" lon="34.76422000">
        <ele>549.00000</ele>
        <time>2015-12-18T05:35:21Z</time>
      </trkpt>
      <trkpt lat="30.85864000" lon="34.76436000">
        <ele>550.00000</ele>
        <time>2015-12-18T05:35:24Z</time>
      </trkpt>
      <trkpt lat="30.85860000" lon="34.76450000">
        <ele>550.00000</ele>
        <time>2015-12-18T05:35:27Z</time>
      </trkpt>
      <trkpt lat="30.85851000" lon="34.76462000">
        <ele>551.00000</ele>
        <time>2015-12-18T05:35:30Z</time>
      </trkpt>
      <trkpt lat="30.85847000" lon="34.76475000">
        <ele>550.00000</ele>
        <time>2015-12-18T05:35:33Z</time>
      </trkpt>
      <trkpt lat="30.85846000" lon="34.76496000">
        <ele>548.00000</ele>
        <time>2015-12-18T05:35:36Z</time>
      </trkpt>
      <trkpt lat="30.85851000" lon="34.76514000">
        <ele>546.00000</ele>
        <time>2015-12-18T05:35:39Z</time>
      </trkpt>
      <trkpt lat="30.85863000" lon="34.76521000">
        <ele>545.00000</ele>
        <time>2015-12-18T05:35:42Z</time>
      </trkpt>
      <trkpt lat="30.85880000" lon="34.76517000">
        <ele>545.00000</ele>
        <time>2015-12-18T05:35:45Z</time>
      </trkpt>
      <trkpt lat="30.85901000" lon="34.76510000">
        <ele>545.00000</ele>
        <time>2015-12-18T05:35:48Z</time>
      </trkpt>
      <trkpt lat="30.85927000" lon="34.76505000">
        <ele>544.00000</ele>
        <time>2015-12-18T05:35:51Z</time>
      </trkpt>
      <trkpt lat="30.85954000" lon="34.76502000">
        <ele>543.00000</ele>
        <time>2015-12-18T05:35:54Z</time>
      </trkpt>
      <trkpt lat="30.85979000" lon="34.76503000">
        <ele>543.00000</ele>
        <time>2015-12-18T05:35:57Z</time>
      </trkpt>
      <trkpt lat="30.86000000" lon="34.76504000">
        <ele>541.00000</ele>
        <time>2015-12-18T05:36:00Z</time>
      </trkpt>
      <trkpt lat="30.86020000" lon="34.76509000">
        <ele>540.00000</ele>
        <time>2015-12-18T05:36:03Z</time>
      </trkpt>
      <trkpt lat="30.86037000" lon="34.76509000">
        <ele>539.00000</ele>
        <time>2015-12-18T05:36:06Z</time>
      </trkpt>
      <trkpt lat="30.86053000" lon="34.76512000">
        <ele>538.00000</ele>
        <time>2015-12-18T05:36:09Z</time>
      </trkpt>
      <trkpt lat="30.86072000" lon="34.76512000">
        <ele>538.00000</ele>
        <time>2015-12-18T05:36:12Z</time>
      </trkpt>
      <trkpt lat="30.86092000" lon="34.76513000">
        <ele>537.00000</ele>
        <time>2015-12-18T05:36:15Z</time>
      </trkpt>
      <trkpt lat="30.86111000" lon="34.76512000">
        <ele>537.00000</ele>
        <time>2015-12-18T05:36:18Z</time>
      </trkpt>
      <trkpt lat="30.86127000" lon="34.76507000">
        <ele>537.00000</ele>
        <time>2015-12-18T05:36:21Z</time>
      </trkpt>
      <trkpt lat="30.86145000" lon="34.76501000">
        <ele>536.00000</ele>
        <time>2015-12-18T05:36:24Z</time>
      </trkpt>
      <trkpt lat="30.86160000" lon="34.76497000">
        <ele>536.00000</ele>
        <time>2015-12-18T05:36:27Z</time>
      </trkpt>
      <trkpt lat="30.86177000" lon="34.76495000">
        <ele>535.00000</ele>
        <time>2015-12-18T05:36:30Z</time>
      </trkpt>
      <trkpt lat="30.86193000" lon="34.76497000">
        <ele>533.00000</ele>
        <time>2015-12-18T05:36:33Z</time>
      </trkpt>
      <trkpt lat="30.86210000" lon="34.76499000">
        <ele>532.00000</ele>
        <time>2015-12-18T05:36:36Z</time>
      </trkpt>
      <trkpt lat="30.86229000" lon="34.76500000">
        <ele>531.00000</ele>
        <time>2015-12-18T05:36:39Z</time>
      </trkpt>
      <trkpt lat="30.86247000" lon="34.76500000">
        <ele>530.00000</ele>
        <time>2015-12-18T05:36:42Z</time>
      </trkpt>
      <trkpt lat="30.86262000" lon="34.76499000">
        <ele>529.00000</ele>
        <time>2015-12-18T05:36:45Z</time>
      </trkpt>
      <trkpt lat="30.86276000" lon="34.76497000">
        <ele>528.00000</ele>
        <time>2015-12-18T05:36:48Z</time>
      </trkpt>
      <trkpt lat="30.86291000" lon="34.76492000">
        <ele>527.00000</ele>
        <time>2015-12-18T05:36:51Z</time>
      </trkpt>
      <trkpt lat="30.86304000" lon="34.76485000">
        <ele>526.00000</ele>
        <time>2015-12-18T05:36:54Z</time>
      </trkpt>
      <trkpt lat="30.86316000" lon="34.76476000">
        <ele>526.00000</ele>
        <time>2015-12-18T05:36:57Z</time>
      </trkpt>
      <trkpt lat="30.86328000" lon="34.76463000">
        <ele>525.00000</ele>
        <time>2015-12-18T05:37:00Z</time>
      </trkpt>
      <trkpt lat="30.86344000" lon="34.76448000">
        <ele>525.00000</ele>
        <time>2015-12-18T05:37:03Z</time>
      </trkpt>
      <trkpt lat="30.86359000" lon="34.76434000">
        <ele>525.00000</ele>
        <time>2015-12-18T05:37:06Z</time>
      </trkpt>
      <trkpt lat="30.86375000" lon="34.76424000">
        <ele>526.00000</ele>
        <time>2015-12-18T05:37:09Z</time>
      </trkpt>
      <trkpt lat="30.86394000" lon="34.76421000">
        <ele>525.00000</ele>
        <time>2015-12-18T05:37:12Z</time>
      </trkpt>
      <trkpt lat="30.86412000" lon="34.76416000">
        <ele>525.00000</ele>
        <time>2015-12-18T05:37:15Z</time>
      </trkpt>
      <trkpt lat="30.86428000" lon="34.76414000">
        <ele>525.00000</ele>
        <time>2015-12-18T05:37:18Z</time>
      </trkpt>
      <trkpt lat="30.86442000" lon="34.76414000">
        <ele>524.00000</ele>
        <time>2015-12-18T05:37:21Z</time>
      </trkpt>
      <trkpt lat="30.86459000" lon="34.76410000">
        <ele>524.00000</ele>
        <time>2015-12-18T05:37:24Z</time>
      </trkpt>
      <trkpt lat="30.86475000" lon="34.76405000">
        <ele>523.00000</ele>
        <time>2015-12-18T05:37:27Z</time>
      </trkpt>
      <trkpt lat="30.86492000" lon="34.76398000">
        <ele>523.00000</ele>
        <time>2015-12-18T05:37:30Z</time>
      </trkpt>
      <trkpt lat="30.86510000" lon="34.76395000">
        <ele>523.00000</ele>
        <time>2015-12-18T05:37:33Z</time>
      </trkpt>
      <trkpt lat="30.86527000" lon="34.76396000">
        <ele>522.00000</ele>
        <time>2015-12-18T05:37:36Z</time>
      </trkpt>
      <trkpt lat="30.86543000" lon="34.76399000">
        <ele>521.00000</ele>
        <time>2015-12-18T05:37:39Z</time>
      </trkpt>
      <trkpt lat="30.86558000" lon="34.76405000">
        <ele>519.00000</ele>
        <time>2015-12-18T05:37:42Z</time>
      </trkpt>
      <trkpt lat="30.86574000" lon="34.76412000">
        <ele>517.00000</ele>
        <time>2015-12-18T05:37:45Z</time>
      </trkpt>
      <trkpt lat="30.86591000" lon="34.76413000">
        <ele>516.00000</ele>
        <time>2015-12-18T05:37:48Z</time>
      </trkpt>
      <trkpt lat="30.86609000" lon="34.76407000">
        <ele>515.00000</ele>
        <time>2015-12-18T05:37:51Z</time>
      </trkpt>
      <trkpt lat="30.86626000" lon="34.76401000">
        <ele>514.00000</ele>
        <time>2015-12-18T05:37:54Z</time>
      </trkpt>
      <trkpt lat="30.86641000" lon="34.76398000">
        <ele>513.00000</ele>
        <time>2015-12-18T05:37:57Z</time>
      </trkpt>
      <trkpt lat="30.86656000" lon="34.76398000">
        <ele>513.00000</ele>
        <time>2015-12-18T05:38:00Z</time>
      </trkpt>
      <trkpt lat="30.86671000" lon="34.76394000">
        <ele>512.00000</ele>
        <time>2015-12-18T05:38:03Z</time>
      </trkpt>
      <trkpt lat="30.86683000" lon="34.76386000">
        <ele>511.00000</ele>
        <time>2015-12-18T05:38:06Z</time>
      </trkpt>
      <trkpt lat="30.86693000" lon="34.76371000">
        <ele>509.00000</ele>
        <time>2015-12-18T05:38:09Z</time>
      </trkpt>
      <trkpt lat="30.86699000" lon="34.76351000">
        <ele>509.00000</ele>
        <time>2015-12-18T05:38:12Z</time>
      </trkpt>
      <trkpt lat="30.86708000" lon="34.76335000">
        <ele>509.00000</ele>
        <time>2015-12-18T05:38:15Z</time>
      </trkpt>
      <trkpt lat="30.86718000" lon="34.76318000">
        <ele>509.00000</ele>
        <time>2015-12-18T05:38:18Z</time>
      </trkpt>
      <trkpt lat="30.86728000" lon="34.76305000">
        <ele>509.00000</ele>
        <time>2015-12-18T05:38:21Z</time>
      </trkpt>
      <trkpt lat="30.86742000" lon="34.76303000">
        <ele>508.00000</ele>
        <time>2015-12-18T05:38:24Z</time>
      </trkpt>
      <trkpt lat="30.86757000" lon="34.76297000">
        <ele>507.00000</ele>
        <time>2015-12-18T05:38:27Z</time>
      </trkpt>
      <trkpt lat="30.86769000" lon="34.76287000">
        <ele>507.00000</ele>
        <time>2015-12-18T05:38:30Z</time>
      </trkpt>
      <trkpt lat="30.86774000" lon="34.76275000">
        <ele>507.00000</ele>
        <time>2015-12-18T05:38:33Z</time>
      </trkpt>
      <trkpt lat="30.86780000" lon="34.76262000">
        <ele>508.00000</ele>
        <time>2015-12-18T05:38:36Z</time>
      </trkpt>
      <trkpt lat="30.86790000" lon="34.76249000">
        <ele>508.00000</ele>
        <time>2015-12-18T05:38:39Z</time>
      </trkpt>
      <trkpt lat="30.86802000" lon="34.76237000">
        <ele>508.00000</ele>
        <time>2015-12-18T05:38:42Z</time>
      </trkpt>
      <trkpt lat="30.86816000" lon="34.76231000">
        <ele>508.00000</ele>
        <time>2015-12-18T05:38:45Z</time>
      </trkpt>
      <trkpt lat="30.86834000" lon="34.76228000">
        <ele>507.00000</ele>
        <time>2015-12-18T05:38:48Z</time>
      </trkpt>
      <trkpt lat="30.86851000" lon="34.76225000">
        <ele>506.00000</ele>
        <time>2015-12-18T05:38:51Z</time>
      </trkpt>
      <trkpt lat="30.86866000" lon="34.76225000">
        <ele>506.00000</ele>
        <time>2015-12-18T05:38:54Z</time>
      </trkpt>
      <trkpt lat="30.86881000" lon="34.76220000">
        <ele>505.00000</ele>
        <time>2015-12-18T05:38:57Z</time>
      </trkpt>
      <trkpt lat="30.86896000" lon="34.76217000">
        <ele>505.00000</ele>
        <time>2015-12-18T05:39:00Z</time>
      </trkpt>
      <trkpt lat="30.86913000" lon="34.76219000">
        <ele>505.00000</ele>
        <time>2015-12-18T05:39:03Z</time>
      </trkpt>
      <trkpt lat="30.86929000" lon="34.76222000">
        <ele>505.00000</ele>
        <time>2015-12-18T05:39:06Z</time>
      </trkpt>
      <trkpt lat="30.86946000" lon="34.76225000">
        <ele>504.00000</ele>
        <time>2015-12-18T05:39:09Z</time>
      </trkpt>
      <trkpt lat="30.86962000" lon="34.76232000">
        <ele>503.00000</ele>
        <time>2015-12-18T05:39:12Z</time>
      </trkpt>
      <trkpt lat="30.86979000" lon="34.76240000">
        <ele>502.00000</ele>
        <time>2015-12-18T05:39:15Z</time>
      </trkpt>
      <trkpt lat="30.86994000" lon="34.76250000">
        <ele>501.00000</ele>
        <time>2015-12-18T05:39:18Z</time>
      </trkpt>
      <trkpt lat="30.87009000" lon="34.76263000">
        <ele>499.00000</ele>
        <time>2015-12-18T05:39:21Z</time>
      </trkpt>
      <trkpt lat="30.87026000" lon="34.76271000">
        <ele>498.00000</ele>
        <time>2015-12-18T05:39:24Z</time>
      </trkpt>
      <trkpt lat="30.87043000" lon="34.76272000">
        <ele>497.00000</ele>
        <time>2015-12-18T05:39:27Z</time>
      </trkpt>
      <trkpt lat="30.87059000" lon="34.76272000">
        <ele>497.00000</ele>
        <time>2015-12-18T05:39:30Z</time>
      </trkpt>
      <trkpt lat="30.87075000" lon="34.76271000">
        <ele>497.00000</ele>
        <time>2015-12-18T05:39:33Z</time>
      </trkpt>
      <trkpt lat="30.87090000" lon="34.76269000">
        <ele>497.00000</ele>
        <time>2015-12-18T05:39:36Z</time>
      </trkpt>
      <trkpt lat="30.87107000" lon="34.76266000">
        <ele>497.00000</ele>
        <time>2015-12-18T05:39:39Z</time>
      </trkpt>
      <trkpt lat="30.87126000" lon="34.76268000">
        <ele>497.00000</ele>
        <time>2015-12-18T05:39:42Z</time>
      </trkpt>
      <trkpt lat="30.87146000" lon="34.76270000">
        <ele>497.00000</ele>
        <time>2015-12-18T05:39:45Z</time>
      </trkpt>
      <trkpt lat="30.87166000" lon="34.76269000">
        <ele>496.00000</ele>
        <time>2015-12-18T05:39:48Z</time>
      </trkpt>
      <trkpt lat="30.87187000" lon="34.76266000">
        <ele>496.00000</ele>
        <time>2015-12-18T05:39:51Z</time>
      </trkpt>
      <trkpt lat="30.87206000" lon="34.76266000">
        <ele>496.00000</ele>
        <time>2015-12-18T05:39:54Z</time>
      </trkpt>
      <trkpt lat="30.87223000" lon="34.76277000">
        <ele>495.00000</ele>
        <time>2015-12-18T05:39:57Z</time>
      </trkpt>
      <trkpt lat="30.87235000" lon="34.76291000">
        <ele>495.00000</ele>
        <time>2015-12-18T05:40:00Z</time>
      </trkpt>
      <trkpt lat="30.87239000" lon="34.76310000">
        <ele>494.00000</ele>
        <time>2015-12-18T05:40:03Z</time>
      </trkpt>
      <trkpt lat="30.87238000" lon="34.76325000">
        <ele>493.00000</ele>
        <time>2015-12-18T05:40:06Z</time>
      </trkpt>
      <trkpt lat="30.87234000" lon="34.76325000">
        <ele>493.00000</ele>
        <time>2015-12-18T05:40:09Z</time>
      </trkpt>
      <trkpt lat="30.87233000" lon="34.76323000">
        <ele>493.00000</ele>
        <time>2015-12-18T05:40:12Z</time>
      </trkpt>
      <trkpt lat="30.87233000" lon="34.76319000">
        <ele>493.00000</ele>
        <time>2015-12-18T05:40:15Z</time>
      </trkpt>
      <trkpt lat="30.87233000" lon="34.76320000">
        <ele>493.00000</ele>
        <time>2015-12-18T05:40:54Z</time>
      </trkpt>
      <trkpt lat="30.87234000" lon="34.76320000">
        <ele>493.00000</ele>
        <time>2015-12-18T05:41:09Z</time>
      </trkpt>
      <trkpt lat="30.87234000" lon="34.76321000">
        <ele>493.00000</ele>
        <time>2015-12-18T05:41:39Z</time>
      </trkpt>
      <trkpt lat="30.87234000" lon="34.76322000">
        <ele>493.00000</ele>
        <time>2015-12-18T05:42:27Z</time>
      </trkpt>
      <trkpt lat="30.87235000" lon="34.76322000">
        <ele>493.00000</ele>
        <time>2015-12-18T05:42:30Z</time>
      </trkpt>
      <trkpt lat="30.87235000" lon="34.76323000">
        <ele>493.00000</ele>
        <time>2015-12-18T05:43:12Z</time>
      </trkpt>
      <trkpt lat="30.87236000" lon="34.76323000">
        <ele>493.00000</ele>
        <time>2015-12-18T05:43:51Z</time>
      </trkpt>
      <trkpt lat="30.87236000" lon="34.76324000">
        <ele>493.00000</ele>
        <time>2015-12-18T05:43:57Z</time>
      </trkpt>
      <trkpt lat="30.87236000" lon="34.76325000">
        <ele>493.00000</ele>
        <time>2015-12-18T05:44:42Z</time>
      </trkpt>
      <trkpt lat="30.87237000" lon="34.76325000">
        <ele>493.00000</ele>
        <time>2015-12-18T05:45:12Z</time>
      </trkpt>
      <trkpt lat="30.87237000" lon="34.76326000">
        <ele>493.00000</ele>
        <time>2015-12-18T05:45:27Z</time>
      </trkpt>
      <trkpt lat="30.87242000" lon="34.76331000">
        <ele>492.00000</ele>
        <time>2015-12-18T05:45:57Z</time>
      </trkpt>
      <trkpt lat="30.87254000" lon="34.76338000">
        <ele>492.00000</ele>
        <time>2015-12-18T05:46:00Z</time>
      </trkpt>
      <trkpt lat="30.87264000" lon="34.76347000">
        <ele>491.00000</ele>
        <time>2015-12-18T05:46:03Z</time>
      </trkpt>
      <trkpt lat="30.87280000" lon="34.76351000">
        <ele>490.00000</ele>
        <time>2015-12-18T05:46:06Z</time>
      </trkpt>
      <trkpt lat="30.87300000" lon="34.76352000">
        <ele>490.00000</ele>
        <time>2015-12-18T05:46:09Z</time>
      </trkpt>
      <trkpt lat="30.87319000" lon="34.76357000">
        <ele>489.00000</ele>
        <time>2015-12-18T05:46:12Z</time>
      </trkpt>
      <trkpt lat="30.87336000" lon="34.76360000">
        <ele>488.00000</ele>
        <time>2015-12-18T05:46:15Z</time>
      </trkpt>
      <trkpt lat="30.87349000" lon="34.76363000">
        <ele>487.00000</ele>
        <time>2015-12-18T05:46:18Z</time>
      </trkpt>
      <trkpt lat="30.87363000" lon="34.76369000">
        <ele>487.00000</ele>
        <time>2015-12-18T05:46:21Z</time>
      </trkpt>
      <trkpt lat="30.87378000" lon="34.76377000">
        <ele>486.00000</ele>
        <time>2015-12-18T05:46:24Z</time>
      </trkpt>
      <trkpt lat="30.87396000" lon="34.76389000">
        <ele>485.00000</ele>
        <time>2015-12-18T05:46:27Z</time>
      </trkpt>
      <trkpt lat="30.87417000" lon="34.76394000">
        <ele>485.00000</ele>
        <time>2015-12-18T05:46:30Z</time>
      </trkpt>
      <trkpt lat="30.87437000" lon="34.76392000">
        <ele>484.00000</ele>
        <time>2015-12-18T05:46:33Z</time>
      </trkpt>
      <trkpt lat="30.87459000" lon="34.76386000">
        <ele>484.00000</ele>
        <time>2015-12-18T05:46:36Z</time>
      </trkpt>
      <trkpt lat="30.87480000" lon="34.76385000">
        <ele>485.00000</ele>
        <time>2015-12-18T05:46:39Z</time>
      </trkpt>
      <trkpt lat="30.87492000" lon="34.76400000">
        <ele>485.00000</ele>
        <time>2015-12-18T05:46:42Z</time>
      </trkpt>
      <trkpt lat="30.87502000" lon="34.76413000">
        <ele>485.00000</ele>
        <time>2015-12-18T05:46:45Z</time>
      </trkpt>
      <trkpt lat="30.87511000" lon="34.76425000">
        <ele>485.00000</ele>
        <time>2015-12-18T05:46:48Z</time>
      </trkpt>
      <trkpt lat="30.87519000" lon="34.76444000">
        <ele>484.00000</ele>
        <time>2015-12-18T05:46:51Z</time>
      </trkpt>
      <trkpt lat="30.87525000" lon="34.76469000">
        <ele>483.00000</ele>
        <time>2015-12-18T05:46:54Z</time>
      </trkpt>
      <trkpt lat="30.87537000" lon="34.76493000">
        <ele>482.00000</ele>
        <time>2015-12-18T05:46:57Z</time>
      </trkpt>
      <trkpt lat="30.87551000" lon="34.76510000">
        <ele>480.00000</ele>
        <time>2015-12-18T05:47:00Z</time>
      </trkpt>
      <trkpt lat="30.87562000" lon="34.76524000">
        <ele>479.00000</ele>
        <time>2015-12-18T05:47:03Z</time>
      </trkpt>
      <trkpt lat="30.87561000" lon="34.76543000">
        <ele>478.00000</ele>
        <time>2015-12-18T05:47:06Z</time>
      </trkpt>
      <trkpt lat="30.87568000" lon="34.76560000">
        <ele>478.00000</ele>
        <time>2015-12-18T05:47:09Z</time>
      </trkpt>
      <trkpt lat="30.87577000" lon="34.76574000">
        <ele>477.00000</ele>
        <time>2015-12-18T05:47:12Z</time>
      </trkpt>
      <trkpt lat="30.87594000" lon="34.76582000">
        <ele>477.00000</ele>
        <time>2015-12-18T05:47:15Z</time>
      </trkpt>
      <trkpt lat="30.87616000" lon="34.76590000">
        <ele>477.00000</ele>
        <time>2015-12-18T05:47:18Z</time>
      </trkpt>
      <trkpt lat="30.87636000" lon="34.76604000">
        <ele>476.00000</ele>
        <time>2015-12-18T05:47:21Z</time>
      </trkpt>
      <trkpt lat="30.87654000" lon="34.76618000">
        <ele>475.00000</ele>
        <time>2015-12-18T05:47:24Z</time>
      </trkpt>
      <trkpt lat="30.87670000" lon="34.76635000">
        <ele>475.00000</ele>
        <time>2015-12-18T05:47:27Z</time>
      </trkpt>
      <trkpt lat="30.87686000" lon="34.76646000">
        <ele>475.00000</ele>
        <time>2015-12-18T05:47:30Z</time>
      </trkpt>
      <trkpt lat="30.87698000" lon="34.76664000">
        <ele>475.00000</ele>
        <time>2015-12-18T05:47:33Z</time>
      </trkpt>
      <trkpt lat="30.87704000" lon="34.76687000">
        <ele>475.00000</ele>
        <time>2015-12-18T05:47:36Z</time>
      </trkpt>
      <trkpt lat="30.87711000" lon="34.76710000">
        <ele>475.00000</ele>
        <time>2015-12-18T05:47:39Z</time>
      </trkpt>
      <trkpt lat="30.87711000" lon="34.76729000">
        <ele>477.00000</ele>
        <time>2015-12-18T05:47:42Z</time>
      </trkpt>
      <trkpt lat="30.87710000" lon="34.76745000">
        <ele>477.00000</ele>
        <time>2015-12-18T05:47:45Z</time>
      </trkpt>
      <trkpt lat="30.87714000" lon="34.76758000">
        <ele>478.00000</ele>
        <time>2015-12-18T05:47:48Z</time>
      </trkpt>
      <trkpt lat="30.87723000" lon="34.76768000">
        <ele>479.00000</ele>
        <time>2015-12-18T05:47:51Z</time>
      </trkpt>
      <trkpt lat="30.87734000" lon="34.76774000">
        <ele>480.00000</ele>
        <time>2015-12-18T05:47:54Z</time>
      </trkpt>
      <trkpt lat="30.87744000" lon="34.76783000">
        <ele>481.00000</ele>
        <time>2015-12-18T05:47:57Z</time>
      </trkpt>
      <trkpt lat="30.87757000" lon="34.76793000">
        <ele>482.00000</ele>
        <time>2015-12-18T05:48:00Z</time>
      </trkpt>
      <trkpt lat="30.87772000" lon="34.76796000">
        <ele>483.00000</ele>
        <time>2015-12-18T05:48:03Z</time>
      </trkpt>
      <trkpt lat="30.87788000" lon="34.76792000">
        <ele>484.00000</ele>
        <time>2015-12-18T05:48:06Z</time>
      </trkpt>
      <trkpt lat="30.87800000" lon="34.76787000">
        <ele>484.00000</ele>
        <time>2015-12-18T05:48:09Z</time>
      </trkpt>
      <trkpt lat="30.87811000" lon="34.76790000">
        <ele>485.00000</ele>
        <time>2015-12-18T05:48:12Z</time>
      </trkpt>
      <trkpt lat="30.87821000" lon="34.76792000">
        <ele>486.00000</ele>
        <time>2015-12-18T05:48:15Z</time>
      </trkpt>
      <trkpt lat="30.87830000" lon="34.76797000">
        <ele>486.00000</ele>
        <time>2015-12-18T05:48:18Z</time>
      </trkpt>
      <trkpt lat="30.87841000" lon="34.76805000">
        <ele>487.00000</ele>
        <time>2015-12-18T05:48:21Z</time>
      </trkpt>
      <trkpt lat="30.87850000" lon="34.76817000">
        <ele>487.00000</ele>
        <time>2015-12-18T05:48:24Z</time>
      </trkpt>
      <trkpt lat="30.87860000" lon="34.76828000">
        <ele>487.00000</ele>
        <time>2015-12-18T05:48:27Z</time>
      </trkpt>
      <trkpt lat="30.87872000" lon="34.76835000">
        <ele>488.00000</ele>
        <time>2015-12-18T05:48:30Z</time>
      </trkpt>
      <trkpt lat="30.87886000" lon="34.76841000">
        <ele>488.00000</ele>
        <time>2015-12-18T05:48:33Z</time>
      </trkpt>
      <trkpt lat="30.87898000" lon="34.76842000">
        <ele>489.00000</ele>
        <time>2015-12-18T05:48:36Z</time>
      </trkpt>
      <trkpt lat="30.87910000" lon="34.76841000">
        <ele>489.00000</ele>
        <time>2015-12-18T05:48:39Z</time>
      </trkpt>
      <trkpt lat="30.87922000" lon="34.76842000">
        <ele>490.00000</ele>
        <time>2015-12-18T05:48:42Z</time>
      </trkpt>
      <trkpt lat="30.87934000" lon="34.76845000">
        <ele>490.00000</ele>
        <time>2015-12-18T05:48:45Z</time>
      </trkpt>
      <trkpt lat="30.87946000" lon="34.76850000">
        <ele>491.00000</ele>
        <time>2015-12-18T05:48:48Z</time>
      </trkpt>
      <trkpt lat="30.87957000" lon="34.76857000">
        <ele>492.00000</ele>
        <time>2015-12-18T05:48:51Z</time>
      </trkpt>
      <trkpt lat="30.87968000" lon="34.76864000">
        <ele>491.00000</ele>
        <time>2015-12-18T05:48:54Z</time>
      </trkpt>
      <trkpt lat="30.87979000" lon="34.76871000">
        <ele>491.00000</ele>
        <time>2015-12-18T05:48:57Z</time>
      </trkpt>
      <trkpt lat="30.87987000" lon="34.76882000">
        <ele>490.00000</ele>
        <time>2015-12-18T05:49:00Z</time>
      </trkpt>
      <trkpt lat="30.87993000" lon="34.76893000">
        <ele>490.00000</ele>
        <time>2015-12-18T05:49:03Z</time>
      </trkpt>
      <trkpt lat="30.88001000" lon="34.76903000">
        <ele>490.00000</ele>
        <time>2015-12-18T05:49:06Z</time>
      </trkpt>
      <trkpt lat="30.88007000" lon="34.76912000">
        <ele>490.00000</ele>
        <time>2015-12-18T05:49:09Z</time>
      </trkpt>
      <trkpt lat="30.88013000" lon="34.76920000">
        <ele>490.00000</ele>
        <time>2015-12-18T05:49:12Z</time>
      </trkpt>
      <trkpt lat="30.88021000" lon="34.76925000">
        <ele>490.00000</ele>
        <time>2015-12-18T05:49:15Z</time>
      </trkpt>
      <trkpt lat="30.88026000" lon="34.76931000">
        <ele>491.00000</ele>
        <time>2015-12-18T05:49:18Z</time>
      </trkpt>
      <trkpt lat="30.88030000" lon="34.76934000">
        <ele>491.00000</ele>
        <time>2015-12-18T05:49:21Z</time>
      </trkpt>
      <trkpt lat="30.88034000" lon="34.76938000">
        <ele>491.00000</ele>
        <time>2015-12-18T05:49:24Z</time>
      </trkpt>
      <trkpt lat="30.88039000" lon="34.76942000">
        <ele>491.00000</ele>
        <time>2015-12-18T05:49:27Z</time>
      </trkpt>
      <trkpt lat="30.88042000" lon="34.76947000">
        <ele>491.00000</ele>
        <time>2015-12-18T05:49:30Z</time>
      </trkpt>
      <trkpt lat="30.88045000" lon="34.76952000">
        <ele>492.00000</ele>
        <time>2015-12-18T05:49:33Z</time>
      </trkpt>
      <trkpt lat="30.88048000" lon="34.76958000">
        <ele>492.00000</ele>
        <time>2015-12-18T05:49:36Z</time>
      </trkpt>
      <trkpt lat="30.88052000" lon="34.76964000">
        <ele>493.00000</ele>
        <time>2015-12-18T05:49:39Z</time>
      </trkpt>
      <trkpt lat="30.88058000" lon="34.76971000">
        <ele>493.00000</ele>
        <time>2015-12-18T05:49:42Z</time>
      </trkpt>
      <trkpt lat="30.88067000" lon="34.76981000">
        <ele>493.00000</ele>
        <time>2015-12-18T05:49:45Z</time>
      </trkpt>
      <trkpt lat="30.88075000" lon="34.76990000">
        <ele>494.00000</ele>
        <time>2015-12-18T05:49:48Z</time>
      </trkpt>
      <trkpt lat="30.88081000" lon="34.76999000">
        <ele>494.00000</ele>
        <time>2015-12-18T05:49:51Z</time>
      </trkpt>
      <trkpt lat="30.88087000" lon="34.77005000">
        <ele>494.00000</ele>
        <time>2015-12-18T05:49:54Z</time>
      </trkpt>
      <trkpt lat="30.88095000" lon="34.77010000">
        <ele>495.00000</ele>
        <time>2015-12-18T05:49:57Z</time>
      </trkpt>
      <trkpt lat="30.88102000" lon="34.77015000">
        <ele>495.00000</ele>
        <time>2015-12-18T05:50:00Z</time>
      </trkpt>
      <trkpt lat="30.88108000" lon="34.77020000">
        <ele>495.00000</ele>
        <time>2015-12-18T05:50:03Z</time>
      </trkpt>
      <trkpt lat="30.88115000" lon="34.77022000">
        <ele>495.00000</ele>
        <time>2015-12-18T05:50:06Z</time>
      </trkpt>
      <trkpt lat="30.88120000" lon="34.77023000">
        <ele>495.00000</ele>
        <time>2015-12-18T05:50:09Z</time>
      </trkpt>
      <trkpt lat="30.88126000" lon="34.77023000">
        <ele>495.00000</ele>
        <time>2015-12-18T05:50:12Z</time>
      </trkpt>
      <trkpt lat="30.88132000" lon="34.77019000">
        <ele>494.00000</ele>
        <time>2015-12-18T05:50:15Z</time>
      </trkpt>
      <trkpt lat="30.88137000" lon="34.77017000">
        <ele>494.00000</ele>
        <time>2015-12-18T05:50:18Z</time>
      </trkpt>
      <trkpt lat="30.88142000" lon="34.77015000">
        <ele>493.00000</ele>
        <time>2015-12-18T05:50:21Z</time>
      </trkpt>
      <trkpt lat="30.88146000" lon="34.77014000">
        <ele>493.00000</ele>
        <time>2015-12-18T05:50:24Z</time>
      </trkpt>
      <trkpt lat="30.88148000" lon="34.77014000">
        <ele>493.00000</ele>
        <time>2015-12-18T05:50:27Z</time>
      </trkpt>
      <trkpt lat="30.88148000" lon="34.77018000">
        <ele>493.00000</ele>
        <time>2015-12-18T05:50:30Z</time>
      </trkpt>
      <trkpt lat="30.88147000" lon="34.77018000">
        <ele>493.00000</ele>
        <time>2015-12-18T05:50:33Z</time>
      </trkpt>
      <trkpt lat="30.88146000" lon="34.77017000">
        <ele>493.00000</ele>
        <time>2015-12-18T05:50:39Z</time>
      </trkpt>
      <trkpt lat="30.88145000" lon="34.77017000">
        <ele>493.00000</ele>
        <time>2015-12-18T05:50:42Z</time>
      </trkpt>
      <trkpt lat="30.88144000" lon="34.77017000">
        <ele>493.00000</ele>
        <time>2015-12-18T05:50:45Z</time>
      </trkpt>
      <trkpt lat="30.88143000" lon="34.77017000">
        <ele>493.00000</ele>
        <time>2015-12-18T05:50:48Z</time>
      </trkpt>
      <trkpt lat="30.88142000" lon="34.77017000">
        <ele>494.00000</ele>
        <time>2015-12-18T05:50:51Z</time>
      </trkpt>
      <trkpt lat="30.88137000" lon="34.77018000">
        <ele>494.00000</ele>
        <time>2015-12-18T05:50:54Z</time>
      </trkpt>
      <trkpt lat="30.88130000" lon="34.77022000">
        <ele>494.00000</ele>
        <time>2015-12-18T05:50:57Z</time>
      </trkpt>
      <trkpt lat="30.88122000" lon="34.77028000">
        <ele>495.00000</ele>
        <time>2015-12-18T05:51:00Z</time>
      </trkpt>
      <trkpt lat="30.88113000" lon="34.77036000">
        <ele>495.00000</ele>
        <time>2015-12-18T05:51:03Z</time>
      </trkpt>
      <trkpt lat="30.88105000" lon="34.77045000">
        <ele>495.00000</ele>
        <time>2015-12-18T05:51:06Z</time>
      </trkpt>
      <trkpt lat="30.88104000" lon="34.77055000">
        <ele>495.00000</ele>
        <time>2015-12-18T05:51:09Z</time>
      </trkpt>
      <trkpt lat="30.88101000" lon="34.77063000">
        <ele>494.00000</ele>
        <time>2015-12-18T05:51:12Z</time>
      </trkpt>
      <trkpt lat="30.88094000" lon="34.77069000">
        <ele>494.00000</ele>
        <time>2015-12-18T05:51:15Z</time>
      </trkpt>
      <trkpt lat="30.88085000" lon="34.77075000">
        <ele>494.00000</ele>
        <time>2015-12-18T05:51:18Z</time>
      </trkpt>
      <trkpt lat="30.88077000" lon="34.77084000">
        <ele>495.00000</ele>
        <time>2015-12-18T05:51:21Z</time>
      </trkpt>
      <trkpt lat="30.88068000" lon="34.77093000">
        <ele>495.00000</ele>
        <time>2015-12-18T05:51:24Z</time>
      </trkpt>
      <trkpt lat="30.88059000" lon="34.77101000">
        <ele>495.00000</ele>
        <time>2015-12-18T05:51:27Z</time>
      </trkpt>
      <trkpt lat="30.88052000" lon="34.77112000">
        <ele>496.00000</ele>
        <time>2015-12-18T05:51:30Z</time>
      </trkpt>
      <trkpt lat="30.88046000" lon="34.77120000">
        <ele>497.00000</ele>
        <time>2015-12-18T05:51:33Z</time>
      </trkpt>
      <trkpt lat="30.88041000" lon="34.77129000">
        <ele>497.00000</ele>
        <time>2015-12-18T05:51:36Z</time>
      </trkpt>
      <trkpt lat="30.88041000" lon="34.77138000">
        <ele>497.00000</ele>
        <time>2015-12-18T05:51:39Z</time>
      </trkpt>
      <trkpt lat="30.88044000" lon="34.77149000">
        <ele>497.00000</ele>
        <time>2015-12-18T05:51:42Z</time>
      </trkpt>
      <trkpt lat="30.88052000" lon="34.77163000">
        <ele>496.00000</ele>
        <time>2015-12-18T05:51:45Z</time>
      </trkpt>
      <trkpt lat="30.88061000" lon="34.77169000">
        <ele>496.00000</ele>
        <time>2015-12-18T05:51:48Z</time>
      </trkpt>
      <trkpt lat="30.88069000" lon="34.77172000">
        <ele>495.00000</ele>
        <time>2015-12-18T05:51:51Z</time>
      </trkpt>
      <trkpt lat="30.88073000" lon="34.77173000">
        <ele>495.00000</ele>
        <time>2015-12-18T05:51:54Z</time>
      </trkpt>
      <trkpt lat="30.88075000" lon="34.77174000">
        <ele>495.00000</ele>
        <time>2015-12-18T05:51:57Z</time>
      </trkpt>
      <trkpt lat="30.88077000" lon="34.77175000">
        <ele>495.00000</ele>
        <time>2015-12-18T05:52:00Z</time>
      </trkpt>
      <trkpt lat="30.88079000" lon="34.77179000">
        <ele>495.00000</ele>
        <time>2015-12-18T05:52:03Z</time>
      </trkpt>
      <trkpt lat="30.88081000" lon="34.77185000">
        <ele>495.00000</ele>
        <time>2015-12-18T05:52:06Z</time>
      </trkpt>
      <trkpt lat="30.88084000" lon="34.77195000">
        <ele>495.00000</ele>
        <time>2015-12-18T05:52:09Z</time>
      </trkpt>
      <trkpt lat="30.88088000" lon="34.77204000">
        <ele>495.00000</ele>
        <time>2015-12-18T05:52:12Z</time>
      </trkpt>
      <trkpt lat="30.88092000" lon="34.77211000">
        <ele>495.00000</ele>
        <time>2015-12-18T05:52:15Z</time>
      </trkpt>
      <trkpt lat="30.88098000" lon="34.77211000">
        <ele>495.00000</ele>
        <time>2015-12-18T05:52:18Z</time>
      </trkpt>
      <trkpt lat="30.88104000" lon="34.77204000">
        <ele>494.00000</ele>
        <time>2015-12-18T05:52:21Z</time>
      </trkpt>
      <trkpt lat="30.88110000" lon="34.77191000">
        <ele>493.00000</ele>
        <time>2015-12-18T05:52:24Z</time>
      </trkpt>
      <trkpt lat="30.88115000" lon="34.77179000">
        <ele>492.00000</ele>
        <time>2015-12-18T05:52:27Z</time>
      </trkpt>
      <trkpt lat="30.88119000" lon="34.77169000">
        <ele>492.00000</ele>
        <time>2015-12-18T05:52:30Z</time>
      </trkpt>
      <trkpt lat="30.88124000" lon="34.77162000">
        <ele>491.00000</ele>
        <time>2015-12-18T05:52:33Z</time>
      </trkpt>
      <trkpt lat="30.88129000" lon="34.77155000">
        <ele>490.00000</ele>
        <time>2015-12-18T05:52:36Z</time>
      </trkpt>
      <trkpt lat="30.88134000" lon="34.77150000">
        <ele>489.00000</ele>
        <time>2015-12-18T05:52:39Z</time>
      </trkpt>
      <trkpt lat="30.88141000" lon="34.77150000">
        <ele>489.00000</ele>
        <time>2015-12-18T05:52:42Z</time>
      </trkpt>
      <trkpt lat="30.88147000" lon="34.77150000">
        <ele>488.00000</ele>
        <time>2015-12-18T05:52:45Z</time>
      </trkpt>
      <trkpt lat="30.88155000" lon="34.77150000">
        <ele>487.00000</ele>
        <time>2015-12-18T05:52:48Z</time>
      </trkpt>
      <trkpt lat="30.88163000" lon="34.77150000">
        <ele>486.00000</ele>
        <time>2015-12-18T05:52:51Z</time>
      </trkpt>
      <trkpt lat="30.88171000" lon="34.77150000">
        <ele>486.00000</ele>
        <time>2015-12-18T05:52:54Z</time>
      </trkpt>
      <trkpt lat="30.88179000" lon="34.77151000">
        <ele>485.00000</ele>
        <time>2015-12-18T05:52:57Z</time>
      </trkpt>
      <trkpt lat="30.88187000" lon="34.77156000">
        <ele>484.00000</ele>
        <time>2015-12-18T05:53:00Z</time>
      </trkpt>
      <trkpt lat="30.88192000" lon="34.77158000">
        <ele>483.00000</ele>
        <time>2015-12-18T05:53:03Z</time>
      </trkpt>
      <trkpt lat="30.88196000" lon="34.77161000">
        <ele>483.00000</ele>
        <time>2015-12-18T05:53:06Z</time>
      </trkpt>
      <trkpt lat="30.88198000" lon="34.77163000">
        <ele>482.00000</ele>
        <time>2015-12-18T05:53:09Z</time>
      </trkpt>
      <trkpt lat="30.88199000" lon="34.77163000">
        <ele>482.00000</ele>
        <time>2015-12-18T05:53:12Z</time>
      </trkpt>
      <trkpt lat="30.88199000" lon="34.77164000">
        <ele>482.00000</ele>
        <time>2015-12-18T05:53:15Z</time>
      </trkpt>
      <trkpt lat="30.88200000" lon="34.77165000">
        <ele>482.00000</ele>
        <time>2015-12-18T05:53:18Z</time>
      </trkpt>
      <trkpt lat="30.88201000" lon="34.77166000">
        <ele>482.00000</ele>
        <time>2015-12-18T05:53:24Z</time>
      </trkpt>
      <trkpt lat="30.88203000" lon="34.77169000">
        <ele>482.00000</ele>
        <time>2015-12-18T05:53:27Z</time>
      </trkpt>
      <trkpt lat="30.88207000" lon="34.77175000">
        <ele>481.00000</ele>
        <time>2015-12-18T05:53:30Z</time>
      </trkpt>
      <trkpt lat="30.88213000" lon="34.77183000">
        <ele>480.00000</ele>
        <time>2015-12-18T05:53:33Z</time>
      </trkpt>
      <trkpt lat="30.88224000" lon="34.77191000">
        <ele>479.00000</ele>
        <time>2015-12-18T05:53:36Z</time>
      </trkpt>
      <trkpt lat="30.88232000" lon="34.77197000">
        <ele>479.00000</ele>
        <time>2015-12-18T05:53:39Z</time>
      </trkpt>
      <trkpt lat="30.88238000" lon="34.77202000">
        <ele>478.00000</ele>
        <time>2015-12-18T05:53:42Z</time>
      </trkpt>
      <trkpt lat="30.88246000" lon="34.77211000">
        <ele>478.00000</ele>
        <time>2015-12-18T05:53:45Z</time>
      </trkpt>
      <trkpt lat="30.88253000" lon="34.77220000">
        <ele>477.00000</ele>
        <time>2015-12-18T05:53:48Z</time>
      </trkpt>
      <trkpt lat="30.88260000" lon="34.77227000">
        <ele>477.00000</ele>
        <time>2015-12-18T05:53:51Z</time>
      </trkpt>
      <trkpt lat="30.88269000" lon="34.77235000">
        <ele>476.00000</ele>
        <time>2015-12-18T05:53:54Z</time>
      </trkpt>
      <trkpt lat="30.88276000" lon="34.77244000">
        <ele>476.00000</ele>
        <time>2015-12-18T05:53:57Z</time>
      </trkpt>
      <trkpt lat="30.88280000" lon="34.77252000">
        <ele>475.00000</ele>
        <time>2015-12-18T05:54:00Z</time>
      </trkpt>
      <trkpt lat="30.88284000" lon="34.77260000">
        <ele>474.00000</ele>
        <time>2015-12-18T05:54:03Z</time>
      </trkpt>
      <trkpt lat="30.88291000" lon="34.77266000">
        <ele>473.00000</ele>
        <time>2015-12-18T05:54:06Z</time>
      </trkpt>
      <trkpt lat="30.88304000" lon="34.77268000">
        <ele>473.00000</ele>
        <time>2015-12-18T05:54:09Z</time>
      </trkpt>
      <trkpt lat="30.88328000" lon="34.77271000">
        <ele>472.00000</ele>
        <time>2015-12-18T05:54:12Z</time>
      </trkpt>
      <trkpt lat="30.88354000" lon="34.77279000">
        <ele>470.00000</ele>
        <time>2015-12-18T05:54:15Z</time>
      </trkpt>
      <trkpt lat="30.88378000" lon="34.77288000">
        <ele>468.00000</ele>
        <time>2015-12-18T05:54:18Z</time>
      </trkpt>
      <trkpt lat="30.88390000" lon="34.77310000">
        <ele>467.00000</ele>
        <time>2015-12-18T05:54:21Z</time>
      </trkpt>
      <trkpt lat="30.88396000" lon="34.77322000">
        <ele>467.00000</ele>
        <time>2015-12-18T05:54:24Z</time>
      </trkpt>
      <trkpt lat="30.88397000" lon="34.77322000">
        <ele>467.00000</ele>
        <time>2015-12-18T05:54:30Z</time>
      </trkpt>
      <trkpt lat="30.88397000" lon="34.77323000">
        <ele>467.00000</ele>
        <time>2015-12-18T05:54:45Z</time>
      </trkpt>
      <trkpt lat="30.88398000" lon="34.77323000">
        <ele>467.00000</ele>
        <time>2015-12-18T05:55:09Z</time>
      </trkpt>
      <trkpt lat="30.88398000" lon="34.77324000">
        <ele>467.00000</ele>
        <time>2015-12-18T05:55:18Z</time>
      </trkpt>
      <trkpt lat="30.88398000" lon="34.77325000">
        <ele>467.00000</ele>
        <time>2015-12-18T05:55:48Z</time>
      </trkpt>
      <trkpt lat="30.88399000" lon="34.77325000">
        <ele>467.00000</ele>
        <time>2015-12-18T05:55:51Z</time>
      </trkpt>
      <trkpt lat="30.88399000" lon="34.77326000">
        <ele>467.00000</ele>
        <time>2015-12-18T05:56:21Z</time>
      </trkpt>
      <trkpt lat="30.88400000" lon="34.77326000">
        <ele>467.00000</ele>
        <time>2015-12-18T05:56:30Z</time>
      </trkpt>
      <trkpt lat="30.88400000" lon="34.77327000">
        <ele>467.00000</ele>
        <time>2015-12-18T05:56:54Z</time>
      </trkpt>
      <trkpt lat="30.88401000" lon="34.77327000">
        <ele>467.00000</ele>
        <time>2015-12-18T05:57:09Z</time>
      </trkpt>
      <trkpt lat="30.88401000" lon="34.77328000">
        <ele>467.00000</ele>
        <time>2015-12-18T05:57:24Z</time>
      </trkpt>
      <trkpt lat="30.88402000" lon="34.77328000">
        <ele>467.00000</ele>
        <time>2015-12-18T05:57:48Z</time>
      </trkpt>
      <trkpt lat="30.88402000" lon="34.77329000">
        <ele>467.00000</ele>
        <time>2015-12-18T05:57:57Z</time>
      </trkpt>
      <trkpt lat="30.88408000" lon="34.77335000">
        <ele>466.00000</ele>
        <time>2015-12-18T05:58:27Z</time>
      </trkpt>
      <trkpt lat="30.88420000" lon="34.77343000">
        <ele>466.00000</ele>
        <time>2015-12-18T05:58:30Z</time>
      </trkpt>
      <trkpt lat="30.88433000" lon="34.77348000">
        <ele>465.00000</ele>
        <time>2015-12-18T05:58:33Z</time>
      </trkpt>
      <trkpt lat="30.88451000" lon="34.77350000">
        <ele>464.00000</ele>
        <time>2015-12-18T05:58:36Z</time>
      </trkpt>
      <trkpt lat="30.88472000" lon="34.77346000">
        <ele>466.00000</ele>
        <time>2015-12-18T05:58:39Z</time>
      </trkpt>
      <trkpt lat="30.88495000" lon="34.77353000">
        <ele>468.00000</ele>
        <time>2015-12-18T05:58:42Z</time>
      </trkpt>
      <trkpt lat="30.88513000" lon="34.77372000">
        <ele>469.00000</ele>
        <time>2015-12-18T05:58:45Z</time>
      </trkpt>
      <trkpt lat="30.88525000" lon="34.77395000">
        <ele>468.00000</ele>
        <time>2015-12-18T05:58:48Z</time>
      </trkpt>
      <trkpt lat="30.88531000" lon="34.77421000">
        <ele>465.00000</ele>
        <time>2015-12-18T05:58:51Z</time>
      </trkpt>
      <trkpt lat="30.88536000" lon="34.77445000">
        <ele>462.00000</ele>
        <time>2015-12-18T05:58:54Z</time>
      </trkpt>
      <trkpt lat="30.88538000" lon="34.77467000">
        <ele>459.00000</ele>
        <time>2015-12-18T05:58:57Z</time>
      </trkpt>
      <trkpt lat="30.88537000" lon="34.77487000">
        <ele>458.00000</ele>
        <time>2015-12-18T05:59:00Z</time>
      </trkpt>
      <trkpt lat="30.88532000" lon="34.77504000">
        <ele>457.00000</ele>
        <time>2015-12-18T05:59:03Z</time>
      </trkpt>
      <trkpt lat="30.88530000" lon="34.77519000">
        <ele>456.00000</ele>
        <time>2015-12-18T05:59:06Z</time>
      </trkpt>
      <trkpt lat="30.88533000" lon="34.77532000">
        <ele>456.00000</ele>
        <time>2015-12-18T05:59:09Z</time>
      </trkpt>
      <trkpt lat="30.88536000" lon="34.77542000">
        <ele>455.00000</ele>
        <time>2015-12-18T05:59:12Z</time>
      </trkpt>
      <trkpt lat="30.88538000" lon="34.77549000">
        <ele>455.00000</ele>
        <time>2015-12-18T05:59:15Z</time>
      </trkpt>
      <trkpt lat="30.88540000" lon="34.77554000">
        <ele>455.00000</ele>
        <time>2015-12-18T05:59:18Z</time>
      </trkpt>
      <trkpt lat="30.88541000" lon="34.77558000">
        <ele>455.00000</ele>
        <time>2015-12-18T05:59:21Z</time>
      </trkpt>
      <trkpt lat="30.88539000" lon="34.77560000">
        <ele>456.00000</ele>
        <time>2015-12-18T05:59:24Z</time>
      </trkpt>
      <trkpt lat="30.88538000" lon="34.77563000">
        <ele>456.00000</ele>
        <time>2015-12-18T05:59:27Z</time>
      </trkpt>
      <trkpt lat="30.88538000" lon="34.77564000">
        <ele>456.00000</ele>
        <time>2015-12-18T05:59:30Z</time>
      </trkpt>
      <trkpt lat="30.88541000" lon="34.77562000">
        <ele>456.00000</ele>
        <time>2015-12-18T05:59:33Z</time>
      </trkpt>
      <trkpt lat="30.88542000" lon="34.77557000">
        <ele>455.00000</ele>
        <time>2015-12-18T05:59:39Z</time>
      </trkpt>
      <trkpt lat="30.88543000" lon="34.77555000">
        <ele>455.00000</ele>
        <time>2015-12-18T05:59:42Z</time>
      </trkpt>
      <trkpt lat="30.88542000" lon="34.77554000">
        <ele>455.00000</ele>
        <time>2015-12-18T05:59:45Z</time>
      </trkpt>
      <trkpt lat="30.88539000" lon="34.77555000">
        <ele>455.00000</ele>
        <time>2015-12-18T05:59:48Z</time>
      </trkpt>
      <trkpt lat="30.88539000" lon="34.77554000">
        <ele>455.00000</ele>
        <time>2015-12-18T05:59:51Z</time>
      </trkpt>
      <trkpt lat="30.88540000" lon="34.77553000">
        <ele>455.00000</ele>
        <time>2015-12-18T05:59:54Z</time>
      </trkpt>
      <trkpt lat="30.88541000" lon="34.77552000">
        <ele>455.00000</ele>
        <time>2015-12-18T05:59:57Z</time>
      </trkpt>
      <trkpt lat="30.88540000" lon="34.77550000">
        <ele>455.00000</ele>
        <time>2015-12-18T06:00:00Z</time>
      </trkpt>
      <trkpt lat="30.88537000" lon="34.77550000">
        <ele>455.00000</ele>
        <time>2015-12-18T06:00:03Z</time>
      </trkpt>
      <trkpt lat="30.88536000" lon="34.77554000">
        <ele>455.00000</ele>
        <time>2015-12-18T06:00:06Z</time>
      </trkpt>
      <trkpt lat="30.88536000" lon="34.77555000">
        <ele>455.00000</ele>
        <time>2015-12-18T06:00:09Z</time>
      </trkpt>
      <trkpt lat="30.88539000" lon="34.77557000">
        <ele>455.00000</ele>
        <time>2015-12-18T06:00:12Z</time>
      </trkpt>
      <trkpt lat="30.88538000" lon="34.77556000">
        <ele>455.00000</ele>
        <time>2015-12-18T06:00:15Z</time>
      </trkpt>
      <trkpt lat="30.88538000" lon="34.77555000">
        <ele>455.00000</ele>
        <time>2015-12-18T06:00:18Z</time>
      </trkpt>
      <trkpt lat="30.88538000" lon="34.77554000">
        <ele>455.00000</ele>
        <time>2015-12-18T06:00:21Z</time>
      </trkpt>
      <trkpt lat="30.88537000" lon="34.77554000">
        <ele>455.00000</ele>
        <time>2015-12-18T06:00:24Z</time>
      </trkpt>
      <trkpt lat="30.88537000" lon="34.77553000">
        <ele>455.00000</ele>
        <time>2015-12-18T06:00:27Z</time>
      </trkpt>
      <trkpt lat="30.88537000" lon="34.77552000">
        <ele>455.00000</ele>
        <time>2015-12-18T06:00:30Z</time>
      </trkpt>
      <trkpt lat="30.88536000" lon="34.77551000">
        <ele>455.00000</ele>
        <time>2015-12-18T06:00:33Z</time>
      </trkpt>
      <trkpt lat="30.88536000" lon="34.77550000">
        <ele>455.00000</ele>
        <time>2015-12-18T06:00:36Z</time>
      </trkpt>
      <trkpt lat="30.88534000" lon="34.77542000">
        <ele>455.00000</ele>
        <time>2015-12-18T06:00:39Z</time>
      </trkpt>
      <trkpt lat="30.88542000" lon="34.77530000">
        <ele>456.00000</ele>
        <time>2015-12-18T06:00:42Z</time>
      </trkpt>
      <trkpt lat="30.88557000" lon="34.77527000">
        <ele>456.00000</ele>
        <time>2015-12-18T06:00:45Z</time>
      </trkpt>
      <trkpt lat="30.88570000" lon="34.77527000">
        <ele>457.00000</ele>
        <time>2015-12-18T06:00:48Z</time>
      </trkpt>
      <trkpt lat="30.88583000" lon="34.77526000">
        <ele>457.00000</ele>
        <time>2015-12-18T06:00:51Z</time>
      </trkpt>
      <trkpt lat="30.88598000" lon="34.77524000">
        <ele>457.00000</ele>
        <time>2015-12-18T06:00:54Z</time>
      </trkpt>
      <trkpt lat="30.88612000" lon="34.77523000">
        <ele>458.00000</ele>
        <time>2015-12-18T06:00:57Z</time>
      </trkpt>
      <trkpt lat="30.88626000" lon="34.77521000">
        <ele>458.00000</ele>
        <time>2015-12-18T06:01:00Z</time>
      </trkpt>
      <trkpt lat="30.88641000" lon="34.77519000">
        <ele>458.00000</ele>
        <time>2015-12-18T06:01:03Z</time>
      </trkpt>
      <trkpt lat="30.88656000" lon="34.77517000">
        <ele>458.00000</ele>
        <time>2015-12-18T06:01:06Z</time>
      </trkpt>
      <trkpt lat="30.88672000" lon="34.77516000">
        <ele>458.00000</ele>
        <time>2015-12-18T06:01:09Z</time>
      </trkpt>
      <trkpt lat="30.88688000" lon="34.77514000">
        <ele>459.00000</ele>
        <time>2015-12-18T06:01:12Z</time>
      </trkpt>
      <trkpt lat="30.88705000" lon="34.77512000">
        <ele>459.00000</ele>
        <time>2015-12-18T06:01:15Z</time>
      </trkpt>
      <trkpt lat="30.88723000" lon="34.77510000">
        <ele>459.00000</ele>
        <time>2015-12-18T06:01:18Z</time>
      </trkpt>
      <trkpt lat="30.88742000" lon="34.77506000">
        <ele>459.00000</ele>
        <time>2015-12-18T06:01:21Z</time>
      </trkpt>
      <trkpt lat="30.88761000" lon="34.77503000">
        <ele>458.00000</ele>
        <time>2015-12-18T06:01:24Z</time>
      </trkpt>
      <trkpt lat="30.88781000" lon="34.77500000">
        <ele>458.00000</ele>
        <time>2015-12-18T06:01:27Z</time>
      </trkpt>
      <trkpt lat="30.88800000" lon="34.77501000">
        <ele>458.00000</ele>
        <time>2015-12-18T06:01:30Z</time>
      </trkpt>
      <trkpt lat="30.88819000" lon="34.77500000">
        <ele>458.00000</ele>
        <time>2015-12-18T06:01:33Z</time>
      </trkpt>
      <trkpt lat="30.88839000" lon="34.77498000">
        <ele>459.00000</ele>
        <time>2015-12-18T06:01:36Z</time>
      </trkpt>
      <trkpt lat="30.88858000" lon="34.77495000">
        <ele>460.00000</ele>
        <time>2015-12-18T06:01:39Z</time>
      </trkpt>
      <trkpt lat="30.88877000" lon="34.77492000">
        <ele>460.00000</ele>
        <time>2015-12-18T06:01:42Z</time>
      </trkpt>
      <trkpt lat="30.88896000" lon="34.77487000">
        <ele>461.00000</ele>
        <time>2015-12-18T06:01:45Z</time>
      </trkpt>
      <trkpt lat="30.88916000" lon="34.77484000">
        <ele>461.00000</ele>
        <time>2015-12-18T06:01:48Z</time>
      </trkpt>
      <trkpt lat="30.88935000" lon="34.77482000">
        <ele>461.00000</ele>
        <time>2015-12-18T06:01:51Z</time>
      </trkpt>
      <trkpt lat="30.88955000" lon="34.77479000">
        <ele>462.00000</ele>
        <time>2015-12-18T06:01:54Z</time>
      </trkpt>
      <trkpt lat="30.88974000" lon="34.77477000">
        <ele>461.00000</ele>
        <time>2015-12-18T06:01:57Z</time>
      </trkpt>
      <trkpt lat="30.88991000" lon="34.77477000">
        <ele>461.00000</ele>
        <time>2015-12-18T06:02:00Z</time>
      </trkpt>
      <trkpt lat="30.89009000" lon="34.77476000">
        <ele>460.00000</ele>
        <time>2015-12-18T06:02:03Z</time>
      </trkpt>
      <trkpt lat="30.89026000" lon="34.77475000">
        <ele>460.00000</ele>
        <time>2015-12-18T06:02:06Z</time>
      </trkpt>
      <trkpt lat="30.89042000" lon="34.77472000">
        <ele>460.00000</ele>
        <time>2015-12-18T06:02:09Z</time>
      </trkpt>
      <trkpt lat="30.89058000" lon="34.77467000">
        <ele>459.00000</ele>
        <time>2015-12-18T06:02:12Z</time>
      </trkpt>
      <trkpt lat="30.89075000" lon="34.77462000">
        <ele>459.00000</ele>
        <time>2015-12-18T06:02:15Z</time>
      </trkpt>
      <trkpt lat="30.89091000" lon="34.77458000">
        <ele>459.00000</ele>
        <time>2015-12-18T06:02:18Z</time>
      </trkpt>
      <trkpt lat="30.89108000" lon="34.77453000">
        <ele>459.00000</ele>
        <time>2015-12-18T06:02:21Z</time>
      </trkpt>
      <trkpt lat="30.89124000" lon="34.77448000">
        <ele>458.00000</ele>
        <time>2015-12-18T06:02:24Z</time>
      </trkpt>
      <trkpt lat="30.89140000" lon="34.77443000">
        <ele>458.00000</ele>
        <time>2015-12-18T06:02:27Z</time>
      </trkpt>
      <trkpt lat="30.89156000" lon="34.77436000">
        <ele>459.00000</ele>
        <time>2015-12-18T06:02:30Z</time>
      </trkpt>
      <trkpt lat="30.89171000" lon="34.77429000">
        <ele>459.00000</ele>
        <time>2015-12-18T06:02:33Z</time>
      </trkpt>
      <trkpt lat="30.89187000" lon="34.77423000">
        <ele>459.00000</ele>
        <time>2015-12-18T06:02:36Z</time>
      </trkpt>
      <trkpt lat="30.89202000" lon="34.77417000">
        <ele>459.00000</ele>
        <time>2015-12-18T06:02:39Z</time>
      </trkpt>
      <trkpt lat="30.89218000" lon="34.77413000">
        <ele>459.00000</ele>
        <time>2015-12-18T06:02:42Z</time>
      </trkpt>
      <trkpt lat="30.89232000" lon="34.77409000">
        <ele>459.00000</ele>
        <time>2015-12-18T06:02:45Z</time>
      </trkpt>
      <trkpt lat="30.89249000" lon="34.77404000">
        <ele>459.00000</ele>
        <time>2015-12-18T06:02:48Z</time>
      </trkpt>
      <trkpt lat="30.89265000" lon="34.77399000">
        <ele>459.00000</ele>
        <time>2015-12-18T06:02:51Z</time>
      </trkpt>
      <trkpt lat="30.89282000" lon="34.77392000">
        <ele>459.00000</ele>
        <time>2015-12-18T06:02:54Z</time>
      </trkpt>
      <trkpt lat="30.89299000" lon="34.77385000">
        <ele>458.00000</ele>
        <time>2015-12-18T06:02:57Z</time>
      </trkpt>
      <trkpt lat="30.89317000" lon="34.77379000">
        <ele>458.00000</ele>
        <time>2015-12-18T06:03:00Z</time>
      </trkpt>
      <trkpt lat="30.89334000" lon="34.77373000">
        <ele>458.00000</ele>
        <time>2015-12-18T06:03:03Z</time>
      </trkpt>
      <trkpt lat="30.89352000" lon="34.77368000">
        <ele>458.00000</ele>
        <time>2015-12-18T06:03:06Z</time>
      </trkpt>
      <trkpt lat="30.89371000" lon="34.77362000">
        <ele>457.00000</ele>
        <time>2015-12-18T06:03:09Z</time>
      </trkpt>
      <trkpt lat="30.89387000" lon="34.77356000">
        <ele>457.00000</ele>
        <time>2015-12-18T06:03:12Z</time>
      </trkpt>
      <trkpt lat="30.89403000" lon="34.77350000">
        <ele>457.00000</ele>
        <time>2015-12-18T06:03:15Z</time>
      </trkpt>
      <trkpt lat="30.89420000" lon="34.77344000">
        <ele>457.00000</ele>
        <time>2015-12-18T06:03:18Z</time>
      </trkpt>
      <trkpt lat="30.89436000" lon="34.77338000">
        <ele>457.00000</ele>
        <time>2015-12-18T06:03:21Z</time>
      </trkpt>
      <trkpt lat="30.89453000" lon="34.77331000">
        <ele>456.00000</ele>
        <time>2015-12-18T06:03:24Z</time>
      </trkpt>
      <trkpt lat="30.89471000" lon="34.77325000">
        <ele>456.00000</ele>
        <time>2015-12-18T06:03:27Z</time>
      </trkpt>
      <trkpt lat="30.89488000" lon="34.77319000">
        <ele>456.00000</ele>
        <time>2015-12-18T06:03:30Z</time>
      </trkpt>
      <trkpt lat="30.89506000" lon="34.77313000">
        <ele>455.00000</ele>
        <time>2015-12-18T06:03:33Z</time>
      </trkpt>
      <trkpt lat="30.89522000" lon="34.77307000">
        <ele>454.00000</ele>
        <time>2015-12-18T06:03:36Z</time>
      </trkpt>
      <trkpt lat="30.89539000" lon="34.77300000">
        <ele>454.00000</ele>
        <time>2015-12-18T06:03:39Z</time>
      </trkpt>
      <trkpt lat="30.89556000" lon="34.77295000">
        <ele>452.00000</ele>
        <time>2015-12-18T06:03:42Z</time>
      </trkpt>
      <trkpt lat="30.89573000" lon="34.77288000">
        <ele>451.00000</ele>
        <time>2015-12-18T06:03:45Z</time>
      </trkpt>
      <trkpt lat="30.89590000" lon="34.77280000">
        <ele>450.00000</ele>
        <time>2015-12-18T06:03:48Z</time>
      </trkpt>
      <trkpt lat="30.89607000" lon="34.77273000">
        <ele>449.00000</ele>
        <time>2015-12-18T06:03:51Z</time>
      </trkpt>
      <trkpt lat="30.89624000" lon="34.77265000">
        <ele>448.00000</ele>
        <time>2015-12-18T06:03:54Z</time>
      </trkpt>
      <trkpt lat="30.89641000" lon="34.77256000">
        <ele>449.00000</ele>
        <time>2015-12-18T06:03:57Z</time>
      </trkpt>
      <trkpt lat="30.89657000" lon="34.77248000">
        <ele>449.00000</ele>
        <time>2015-12-18T06:04:00Z</time>
      </trkpt>
      <trkpt lat="30.89674000" lon="34.77243000">
        <ele>448.00000</ele>
        <time>2015-12-18T06:04:03Z</time>
      </trkpt>
      <trkpt lat="30.89692000" lon="34.77240000">
        <ele>448.00000</ele>
        <time>2015-12-18T06:04:06Z</time>
      </trkpt>
      <trkpt lat="30.89710000" lon="34.77240000">
        <ele>447.00000</ele>
        <time>2015-12-18T06:04:09Z</time>
      </trkpt>
      <trkpt lat="30.89728000" lon="34.77236000">
        <ele>447.00000</ele>
        <time>2015-12-18T06:04:12Z</time>
      </trkpt>
      <trkpt lat="30.89743000" lon="34.77229000">
        <ele>448.00000</ele>
        <time>2015-12-18T06:04:15Z</time>
      </trkpt>
      <trkpt lat="30.89759000" lon="34.77223000">
        <ele>448.00000</ele>
        <time>2015-12-18T06:04:18Z</time>
      </trkpt>
      <trkpt lat="30.89775000" lon="34.77217000">
        <ele>448.00000</ele>
        <time>2015-12-18T06:04:21Z</time>
      </trkpt>
      <trkpt lat="30.89791000" lon="34.77211000">
        <ele>447.00000</ele>
        <time>2015-12-18T06:04:24Z</time>
      </trkpt>
      <trkpt lat="30.89807000" lon="34.77206000">
        <ele>447.00000</ele>
        <time>2015-12-18T06:04:27Z</time>
      </trkpt>
      <trkpt lat="30.89823000" lon="34.77200000">
        <ele>447.00000</ele>
        <time>2015-12-18T06:04:30Z</time>
      </trkpt>
      <trkpt lat="30.89839000" lon="34.77195000">
        <ele>446.00000</ele>
        <time>2015-12-18T06:04:33Z</time>
      </trkpt>
      <trkpt lat="30.89855000" lon="34.77190000">
        <ele>446.00000</ele>
        <time>2015-12-18T06:04:36Z</time>
      </trkpt>
      <trkpt lat="30.89871000" lon="34.77185000">
        <ele>446.00000</ele>
        <time>2015-12-18T06:04:39Z</time>
      </trkpt>
      <trkpt lat="30.89887000" lon="34.77179000">
        <ele>446.00000</ele>
        <time>2015-12-18T06:04:42Z</time>
      </trkpt>
      <trkpt lat="30.89904000" lon="34.77173000">
        <ele>446.00000</ele>
        <time>2015-12-18T06:04:45Z</time>
      </trkpt>
      <trkpt lat="30.89920000" lon="34.77167000">
        <ele>446.00000</ele>
        <time>2015-12-18T06:04:48Z</time>
      </trkpt>
      <trkpt lat="30.89936000" lon="34.77162000">
        <ele>445.00000</ele>
        <time>2015-12-18T06:04:51Z</time>
      </trkpt>
      <trkpt lat="30.89953000" lon="34.77155000">
        <ele>445.00000</ele>
        <time>2015-12-18T06:04:54Z</time>
      </trkpt>
      <trkpt lat="30.89968000" lon="34.77150000">
        <ele>445.00000</ele>
        <time>2015-12-18T06:04:57Z</time>
      </trkpt>
      <trkpt lat="30.89984000" lon="34.77145000">
        <ele>445.00000</ele>
        <time>2015-12-18T06:05:00Z</time>
      </trkpt>
      <trkpt lat="30.89999000" lon="34.77140000">
        <ele>446.00000</ele>
        <time>2015-12-18T06:05:03Z</time>
      </trkpt>
      <trkpt lat="30.90014000" lon="34.77136000">
        <ele>446.00000</ele>
        <time>2015-12-18T06:05:06Z</time>
      </trkpt>
      <trkpt lat="30.90028000" lon="34.77131000">
        <ele>446.00000</ele>
        <time>2015-12-18T06:05:09Z</time>
      </trkpt>
      <trkpt lat="30.90041000" lon="34.77126000">
        <ele>446.00000</ele>
        <time>2015-12-18T06:05:12Z</time>
      </trkpt>
      <trkpt lat="30.90055000" lon="34.77121000">
        <ele>447.00000</ele>
        <time>2015-12-18T06:05:15Z</time>
      </trkpt>
      <trkpt lat="30.90070000" lon="34.77116000">
        <ele>447.00000</ele>
        <time>2015-12-18T06:05:18Z</time>
      </trkpt>
      <trkpt lat="30.90086000" lon="34.77110000">
        <ele>448.00000</ele>
        <time>2015-12-18T06:05:21Z</time>
      </trkpt>
      <trkpt lat="30.90100000" lon="34.77103000">
        <ele>448.00000</ele>
        <time>2015-12-18T06:05:24Z</time>
      </trkpt>
      <trkpt lat="30.90116000" lon="34.77098000">
        <ele>448.00000</ele>
        <time>2015-12-18T06:05:27Z</time>
      </trkpt>
      <trkpt lat="30.90131000" lon="34.77092000">
        <ele>448.00000</ele>
        <time>2015-12-18T06:05:30Z</time>
      </trkpt>
      <trkpt lat="30.90144000" lon="34.77086000">
        <ele>448.00000</ele>
        <time>2015-12-18T06:05:33Z</time>
      </trkpt>
      <trkpt lat="30.90157000" lon="34.77081000">
        <ele>448.00000</ele>
        <time>2015-12-18T06:05:36Z</time>
      </trkpt>
      <trkpt lat="30.90170000" lon="34.77076000">
        <ele>448.00000</ele>
        <time>2015-12-18T06:05:39Z</time>
      </trkpt>
      <trkpt lat="30.90181000" lon="34.77073000">
        <ele>447.00000</ele>
        <time>2015-12-18T06:05:42Z</time>
      </trkpt>
      <trkpt lat="30.90192000" lon="34.77074000">
        <ele>447.00000</ele>
        <time>2015-12-18T06:05:45Z</time>
      </trkpt>
      <trkpt lat="30.90204000" lon="34.77075000">
        <ele>447.00000</ele>
        <time>2015-12-18T06:05:48Z</time>
      </trkpt>
      <trkpt lat="30.90216000" lon="34.77075000">
        <ele>448.00000</ele>
        <time>2015-12-18T06:05:51Z</time>
      </trkpt>
      <trkpt lat="30.90229000" lon="34.77075000">
        <ele>448.00000</ele>
        <time>2015-12-18T06:05:54Z</time>
      </trkpt>
      <trkpt lat="30.90240000" lon="34.77078000">
        <ele>448.00000</ele>
        <time>2015-12-18T06:05:57Z</time>
      </trkpt>
      <trkpt lat="30.90249000" lon="34.77081000">
        <ele>449.00000</ele>
        <time>2015-12-18T06:06:00Z</time>
      </trkpt>
      <trkpt lat="30.90259000" lon="34.77086000">
        <ele>449.00000</ele>
        <time>2015-12-18T06:06:03Z</time>
      </trkpt>
      <trkpt lat="30.90268000" lon="34.77090000">
        <ele>449.00000</ele>
        <time>2015-12-18T06:06:06Z</time>
      </trkpt>
      <trkpt lat="30.90278000" lon="34.77094000">
        <ele>450.00000</ele>
        <time>2015-12-18T06:06:09Z</time>
      </trkpt>
      <trkpt lat="30.90288000" lon="34.77099000">
        <ele>450.00000</ele>
        <time>2015-12-18T06:06:12Z</time>
      </trkpt>
      <trkpt lat="30.90299000" lon="34.77105000">
        <ele>450.00000</ele>
        <time>2015-12-18T06:06:15Z</time>
      </trkpt>
      <trkpt lat="30.90310000" lon="34.77111000">
        <ele>451.00000</ele>
        <time>2015-12-18T06:06:18Z</time>
      </trkpt>
      <trkpt lat="30.90324000" lon="34.77115000">
        <ele>451.00000</ele>
        <time>2015-12-18T06:06:21Z</time>
      </trkpt>
      <trkpt lat="30.90337000" lon="34.77119000">
        <ele>451.00000</ele>
        <time>2015-12-18T06:06:24Z</time>
      </trkpt>
      <trkpt lat="30.90349000" lon="34.77123000">
        <ele>451.00000</ele>
        <time>2015-12-18T06:06:27Z</time>
      </trkpt>
      <trkpt lat="30.90361000" lon="34.77127000">
        <ele>451.00000</ele>
        <time>2015-12-18T06:06:30Z</time>
      </trkpt>
      <trkpt lat="30.90372000" lon="34.77131000">
        <ele>451.00000</ele>
        <time>2015-12-18T06:06:33Z</time>
      </trkpt>
      <trkpt lat="30.90385000" lon="34.77136000">
        <ele>452.00000</ele>
        <time>2015-12-18T06:06:36Z</time>
      </trkpt>
      <trkpt lat="30.90397000" lon="34.77142000">
        <ele>452.00000</ele>
        <time>2015-12-18T06:06:39Z</time>
      </trkpt>
      <trkpt lat="30.90410000" lon="34.77147000">
        <ele>452.00000</ele>
        <time>2015-12-18T06:06:42Z</time>
      </trkpt>
      <trkpt lat="30.90424000" lon="34.77152000">
        <ele>452.00000</ele>
        <time>2015-12-18T06:06:45Z</time>
      </trkpt>
      <trkpt lat="30.90439000" lon="34.77157000">
        <ele>452.00000</ele>
        <time>2015-12-18T06:06:48Z</time>
      </trkpt>
      <trkpt lat="30.90455000" lon="34.77166000">
        <ele>452.00000</ele>
        <time>2015-12-18T06:06:51Z</time>
      </trkpt>
      <trkpt lat="30.90470000" lon="34.77175000">
        <ele>452.00000</ele>
        <time>2015-12-18T06:06:54Z</time>
      </trkpt>
      <trkpt lat="30.90483000" lon="34.77182000">
        <ele>452.00000</ele>
        <time>2015-12-18T06:06:57Z</time>
      </trkpt>
      <trkpt lat="30.90496000" lon="34.77187000">
        <ele>452.00000</ele>
        <time>2015-12-18T06:07:00Z</time>
      </trkpt>
      <trkpt lat="30.90507000" lon="34.77191000">
        <ele>452.00000</ele>
        <time>2015-12-18T06:07:03Z</time>
      </trkpt>
      <trkpt lat="30.90517000" lon="34.77193000">
        <ele>452.00000</ele>
        <time>2015-12-18T06:07:06Z</time>
      </trkpt>
      <trkpt lat="30.90526000" lon="34.77193000">
        <ele>452.00000</ele>
        <time>2015-12-18T06:07:09Z</time>
      </trkpt>
      <trkpt lat="30.90534000" lon="34.77193000">
        <ele>452.00000</ele>
        <time>2015-12-18T06:07:12Z</time>
      </trkpt>
      <trkpt lat="30.90541000" lon="34.77193000">
        <ele>452.00000</ele>
        <time>2015-12-18T06:07:15Z</time>
      </trkpt>
      <trkpt lat="30.90544000" lon="34.77192000">
        <ele>452.00000</ele>
        <time>2015-12-18T06:07:18Z</time>
      </trkpt>
      <trkpt lat="30.90546000" lon="34.77190000">
        <ele>452.00000</ele>
        <time>2015-12-18T06:07:21Z</time>
      </trkpt>
      <trkpt lat="30.90547000" lon="34.77190000">
        <ele>452.00000</ele>
        <time>2015-12-18T06:07:24Z</time>
      </trkpt>
      <trkpt lat="30.90547000" lon="34.77189000">
        <ele>452.00000</ele>
        <time>2015-12-18T06:07:27Z</time>
      </trkpt>
      <trkpt lat="30.90548000" lon="34.77189000">
        <ele>452.00000</ele>
        <time>2015-12-18T06:07:30Z</time>
      </trkpt>
      <trkpt lat="30.90549000" lon="34.77189000">
        <ele>452.00000</ele>
        <time>2015-12-18T06:07:33Z</time>
      </trkpt>
      <trkpt lat="30.90550000" lon="34.77188000">
        <ele>452.00000</ele>
        <time>2015-12-18T06:07:36Z</time>
      </trkpt>
      <trkpt lat="30.90556000" lon="34.77189000">
        <ele>452.00000</ele>
        <time>2015-12-18T06:07:39Z</time>
      </trkpt>
      <trkpt lat="30.90565000" lon="34.77192000">
        <ele>452.00000</ele>
        <time>2015-12-18T06:07:42Z</time>
      </trkpt>
      <trkpt lat="30.90573000" lon="34.77197000">
        <ele>452.00000</ele>
        <time>2015-12-18T06:07:45Z</time>
      </trkpt>
      <trkpt lat="30.90581000" lon="34.77200000">
        <ele>452.00000</ele>
        <time>2015-12-18T06:07:48Z</time>
      </trkpt>
      <trkpt lat="30.90586000" lon="34.77201000">
        <ele>452.00000</ele>
        <time>2015-12-18T06:07:51Z</time>
      </trkpt>
      <trkpt lat="30.90592000" lon="34.77204000">
        <ele>452.00000</ele>
        <time>2015-12-18T06:07:54Z</time>
      </trkpt>
      <trkpt lat="30.90596000" lon="34.77206000">
        <ele>452.00000</ele>
        <time>2015-12-18T06:07:57Z</time>
      </trkpt>
      <trkpt lat="30.90597000" lon="34.77206000">
        <ele>452.00000</ele>
        <time>2015-12-18T06:08:00Z</time>
      </trkpt>
      <trkpt lat="30.90596000" lon="34.77206000">
        <ele>452.00000</ele>
        <time>2015-12-18T06:08:06Z</time>
      </trkpt>
      <trkpt lat="30.90596000" lon="34.77205000">
        <ele>452.00000</ele>
        <time>2015-12-18T06:08:09Z</time>
      </trkpt>
      <trkpt lat="30.90595000" lon="34.77204000">
        <ele>452.00000</ele>
        <time>2015-12-18T06:08:15Z</time>
      </trkpt>
      <trkpt lat="30.90595000" lon="34.77203000">
        <ele>452.00000</ele>
        <time>2015-12-18T06:08:24Z</time>
      </trkpt>
      <trkpt lat="30.90594000" lon="34.77203000">
        <ele>452.00000</ele>
        <time>2015-12-18T06:08:27Z</time>
      </trkpt>
      <trkpt lat="30.90594000" lon="34.77202000">
        <ele>452.00000</ele>
        <time>2015-12-18T06:08:30Z</time>
      </trkpt>
      <trkpt lat="30.90593000" lon="34.77202000">
        <ele>452.00000</ele>
        <time>2015-12-18T06:08:36Z</time>
      </trkpt>
      <trkpt lat="30.90586000" lon="34.77202000">
        <ele>452.00000</ele>
        <time>2015-12-18T06:08:39Z</time>
      </trkpt>
      <trkpt lat="30.90576000" lon="34.77201000">
        <ele>452.00000</ele>
        <time>2015-12-18T06:08:42Z</time>
      </trkpt>
      <trkpt lat="30.90566000" lon="34.77197000">
        <ele>452.00000</ele>
        <time>2015-12-18T06:08:45Z</time>
      </trkpt>
      <trkpt lat="30.90557000" lon="34.77193000">
        <ele>452.00000</ele>
        <time>2015-12-18T06:08:48Z</time>
      </trkpt>
      <trkpt lat="30.90550000" lon="34.77190000">
        <ele>452.00000</ele>
        <time>2015-12-18T06:08:51Z</time>
      </trkpt>
      <trkpt lat="30.90545000" lon="34.77189000">
        <ele>452.00000</ele>
        <time>2015-12-18T06:08:54Z</time>
      </trkpt>
      <trkpt lat="30.90542000" lon="34.77188000">
        <ele>452.00000</ele>
        <time>2015-12-18T06:08:57Z</time>
      </trkpt>
      <trkpt lat="30.90541000" lon="34.77187000">
        <ele>452.00000</ele>
        <time>2015-12-18T06:09:00Z</time>
      </trkpt>
      <trkpt lat="30.90540000" lon="34.77186000">
        <ele>452.00000</ele>
        <time>2015-12-18T06:09:03Z</time>
      </trkpt>
      <trkpt lat="30.90539000" lon="34.77184000">
        <ele>452.00000</ele>
        <time>2015-12-18T06:09:06Z</time>
      </trkpt>
      <trkpt lat="30.90537000" lon="34.77182000">
        <ele>452.00000</ele>
        <time>2015-12-18T06:09:09Z</time>
      </trkpt>
      <trkpt lat="30.90532000" lon="34.77177000">
        <ele>452.00000</ele>
        <time>2015-12-18T06:09:12Z</time>
      </trkpt>
      <trkpt lat="30.90528000" lon="34.77173000">
        <ele>452.00000</ele>
        <time>2015-12-18T06:09:15Z</time>
      </trkpt>
      <trkpt lat="30.90521000" lon="34.77167000">
        <ele>452.00000</ele>
        <time>2015-12-18T06:09:18Z</time>
      </trkpt>
      <trkpt lat="30.90513000" lon="34.77160000">
        <ele>451.00000</ele>
        <time>2015-12-18T06:09:21Z</time>
      </trkpt>
      <trkpt lat="30.90504000" lon="34.77153000">
        <ele>451.00000</ele>
        <time>2015-12-18T06:09:24Z</time>
      </trkpt>
      <trkpt lat="30.90495000" lon="34.77146000">
        <ele>451.00000</ele>
        <time>2015-12-18T06:09:27Z</time>
      </trkpt>
      <trkpt lat="30.90487000" lon="34.77137000">
        <ele>451.00000</ele>
        <time>2015-12-18T06:09:30Z</time>
      </trkpt>
      <trkpt lat="30.90482000" lon="34.77124000">
        <ele>451.00000</ele>
        <time>2015-12-18T06:09:33Z</time>
      </trkpt>
      <trkpt lat="30.90475000" lon="34.77111000">
        <ele>451.00000</ele>
        <time>2015-12-18T06:09:36Z</time>
      </trkpt>
      <trkpt lat="30.90464000" lon="34.77099000">
        <ele>450.00000</ele>
        <time>2015-12-18T06:09:39Z</time>
      </trkpt>
      <trkpt lat="30.90451000" lon="34.77083000">
        <ele>450.00000</ele>
        <time>2015-12-18T06:09:42Z</time>
      </trkpt>
      <trkpt lat="30.90438000" lon="34.77069000">
        <ele>449.00000</ele>
        <time>2015-12-18T06:09:45Z</time>
      </trkpt>
      <trkpt lat="30.90425000" lon="34.77053000">
        <ele>449.00000</ele>
        <time>2015-12-18T06:09:48Z</time>
      </trkpt>
      <trkpt lat="30.90414000" lon="34.77033000">
        <ele>449.00000</ele>
        <time>2015-12-18T06:09:51Z</time>
      </trkpt>
      <trkpt lat="30.90402000" lon="34.77015000">
        <ele>448.00000</ele>
        <time>2015-12-18T06:09:54Z</time>
      </trkpt>
      <trkpt lat="30.90391000" lon="34.76996000">
        <ele>448.00000</ele>
        <time>2015-12-18T06:09:57Z</time>
      </trkpt>
      <trkpt lat="30.90383000" lon="34.76975000">
        <ele>447.00000</ele>
        <time>2015-12-18T06:10:00Z</time>
      </trkpt>
      <trkpt lat="30.90375000" lon="34.76953000">
        <ele>446.00000</ele>
        <time>2015-12-18T06:10:03Z</time>
      </trkpt>
      <trkpt lat="30.90367000" lon="34.76931000">
        <ele>445.00000</ele>
        <time>2015-12-18T06:10:06Z</time>
      </trkpt>
      <trkpt lat="30.90360000" lon="34.76909000">
        <ele>444.00000</ele>
        <time>2015-12-18T06:10:09Z</time>
      </trkpt>
      <trkpt lat="30.90356000" lon="34.76888000">
        <ele>443.00000</ele>
        <time>2015-12-18T06:10:12Z</time>
      </trkpt>
      <trkpt lat="30.90354000" lon="34.76864000">
        <ele>442.00000</ele>
        <time>2015-12-18T06:10:15Z</time>
      </trkpt>
      <trkpt lat="30.90349000" lon="34.76841000">
        <ele>442.00000</ele>
        <time>2015-12-18T06:10:18Z</time>
      </trkpt>
      <trkpt lat="30.90349000" lon="34.76819000">
        <ele>442.00000</ele>
        <time>2015-12-18T06:10:21Z</time>
      </trkpt>
      <trkpt lat="30.90343000" lon="34.76799000">
        <ele>442.00000</ele>
        <time>2015-12-18T06:10:24Z</time>
      </trkpt>
      <trkpt lat="30.90332000" lon="34.76781000">
        <ele>442.00000</ele>
        <time>2015-12-18T06:10:27Z</time>
      </trkpt>
      <trkpt lat="30.90321000" lon="34.76765000">
        <ele>441.00000</ele>
        <time>2015-12-18T06:10:30Z</time>
      </trkpt>
      <trkpt lat="30.90313000" lon="34.76746000">
        <ele>441.00000</ele>
        <time>2015-12-18T06:10:33Z</time>
      </trkpt>
      <trkpt lat="30.90309000" lon="34.76724000">
        <ele>440.00000</ele>
        <time>2015-12-18T06:10:36Z</time>
      </trkpt>
      <trkpt lat="30.90307000" lon="34.76702000">
        <ele>440.00000</ele>
        <time>2015-12-18T06:10:39Z</time>
      </trkpt>
      <trkpt lat="30.90308000" lon="34.76682000">
        <ele>441.00000</ele>
        <time>2015-12-18T06:10:42Z</time>
      </trkpt>
      <trkpt lat="30.90305000" lon="34.76663000">
        <ele>441.00000</ele>
        <time>2015-12-18T06:10:45Z</time>
      </trkpt>
      <trkpt lat="30.90298000" lon="34.76647000">
        <ele>442.00000</ele>
        <time>2015-12-18T06:10:48Z</time>
      </trkpt>
      <trkpt lat="30.90288000" lon="34.76633000">
        <ele>442.00000</ele>
        <time>2015-12-18T06:10:51Z</time>
      </trkpt>
      <trkpt lat="30.90284000" lon="34.76624000">
        <ele>442.00000</ele>
        <time>2015-12-18T06:10:54Z</time>
      </trkpt>
      <trkpt lat="30.90273000" lon="34.76617000">
        <ele>442.00000</ele>
        <time>2015-12-18T06:10:57Z</time>
      </trkpt>
      <trkpt lat="30.90266000" lon="34.76609000">
        <ele>442.00000</ele>
        <time>2015-12-18T06:11:00Z</time>
      </trkpt>
      <trkpt lat="30.90260000" lon="34.76601000">
        <ele>442.00000</ele>
        <time>2015-12-18T06:11:03Z</time>
      </trkpt>
      <trkpt lat="30.90254000" lon="34.76591000">
        <ele>441.00000</ele>
        <time>2015-12-18T06:11:06Z</time>
      </trkpt>
      <trkpt lat="30.90249000" lon="34.76585000">
        <ele>441.00000</ele>
        <time>2015-12-18T06:11:09Z</time>
      </trkpt>
      <trkpt lat="30.90243000" lon="34.76581000">
        <ele>441.00000</ele>
        <time>2015-12-18T06:11:12Z</time>
      </trkpt>
      <trkpt lat="30.90235000" lon="34.76579000">
        <ele>441.00000</ele>
        <time>2015-12-18T06:11:15Z</time>
      </trkpt>
      <trkpt lat="30.90227000" lon="34.76574000">
        <ele>440.00000</ele>
        <time>2015-12-18T06:11:18Z</time>
      </trkpt>
      <trkpt lat="30.90218000" lon="34.76564000">
        <ele>440.00000</ele>
        <time>2015-12-18T06:11:21Z</time>
      </trkpt>
      <trkpt lat="30.90210000" lon="34.76553000">
        <ele>439.00000</ele>
        <time>2015-12-18T06:11:24Z</time>
      </trkpt>
      <trkpt lat="30.90201000" lon="34.76547000">
        <ele>439.00000</ele>
        <time>2015-12-18T06:11:27Z</time>
      </trkpt>
      <trkpt lat="30.90194000" lon="34.76543000">
        <ele>439.00000</ele>
        <time>2015-12-18T06:11:30Z</time>
      </trkpt>
      <trkpt lat="30.90188000" lon="34.76541000">
        <ele>440.00000</ele>
        <time>2015-12-18T06:11:33Z</time>
      </trkpt>
      <trkpt lat="30.90181000" lon="34.76538000">
        <ele>440.00000</ele>
        <time>2015-12-18T06:11:36Z</time>
      </trkpt>
      <trkpt lat="30.90175000" lon="34.76535000">
        <ele>440.00000</ele>
        <time>2015-12-18T06:11:39Z</time>
      </trkpt>
      <trkpt lat="30.90169000" lon="34.76534000">
        <ele>440.00000</ele>
        <time>2015-12-18T06:11:42Z</time>
      </trkpt>
      <trkpt lat="30.90162000" lon="34.76532000">
        <ele>440.00000</ele>
        <time>2015-12-18T06:11:45Z</time>
      </trkpt>
      <trkpt lat="30.90156000" lon="34.76525000">
        <ele>440.00000</ele>
        <time>2015-12-18T06:11:48Z</time>
      </trkpt>
      <trkpt lat="30.90151000" lon="34.76514000">
        <ele>440.00000</ele>
        <time>2015-12-18T06:11:51Z</time>
      </trkpt>
      <trkpt lat="30.90150000" lon="34.76500000">
        <ele>440.00000</ele>
        <time>2015-12-18T06:11:54Z</time>
      </trkpt>
      <trkpt lat="30.90148000" lon="34.76485000">
        <ele>440.00000</ele>
        <time>2015-12-18T06:11:57Z</time>
      </trkpt>
      <trkpt lat="30.90147000" lon="34.76470000">
        <ele>440.00000</ele>
        <time>2015-12-18T06:12:00Z</time>
      </trkpt>
      <trkpt lat="30.90145000" lon="34.76454000">
        <ele>439.00000</ele>
        <time>2015-12-18T06:12:03Z</time>
      </trkpt>
      <trkpt lat="30.90138000" lon="34.76437000">
        <ele>439.00000</ele>
        <time>2015-12-18T06:12:06Z</time>
      </trkpt>
      <trkpt lat="30.90130000" lon="34.76421000">
        <ele>438.00000</ele>
        <time>2015-12-18T06:12:09Z</time>
      </trkpt>
      <trkpt lat="30.90125000" lon="34.76405000">
        <ele>437.00000</ele>
        <time>2015-12-18T06:12:12Z</time>
      </trkpt>
      <trkpt lat="30.90121000" lon="34.76393000">
        <ele>437.00000</ele>
        <time>2015-12-18T06:12:15Z</time>
      </trkpt>
      <trkpt lat="30.90120000" lon="34.76380000">
        <ele>436.00000</ele>
        <time>2015-12-18T06:12:18Z</time>
      </trkpt>
      <trkpt lat="30.90120000" lon="34.76367000">
        <ele>436.00000</ele>
        <time>2015-12-18T06:12:21Z</time>
      </trkpt>
      <trkpt lat="30.90122000" lon="34.76352000">
        <ele>435.00000</ele>
        <time>2015-12-18T06:12:24Z</time>
      </trkpt>
      <trkpt lat="30.90127000" lon="34.76338000">
        <ele>434.00000</ele>
        <time>2015-12-18T06:12:27Z</time>
      </trkpt>
      <trkpt lat="30.90136000" lon="34.76323000">
        <ele>434.00000</ele>
        <time>2015-12-18T06:12:30Z</time>
      </trkpt>
      <trkpt lat="30.90148000" lon="34.76310000">
        <ele>434.00000</ele>
        <time>2015-12-18T06:12:33Z</time>
      </trkpt>
      <trkpt lat="30.90163000" lon="34.76296000">
        <ele>435.00000</ele>
        <time>2015-12-18T06:12:36Z</time>
      </trkpt>
      <trkpt lat="30.90180000" lon="34.76287000">
        <ele>436.00000</ele>
        <time>2015-12-18T06:12:39Z</time>
      </trkpt>
      <trkpt lat="30.90195000" lon="34.76279000">
        <ele>437.00000</ele>
        <time>2015-12-18T06:12:42Z</time>
      </trkpt>
      <trkpt lat="30.90209000" lon="34.76270000">
        <ele>438.00000</ele>
        <time>2015-12-18T06:12:45Z</time>
      </trkpt>
      <trkpt lat="30.90222000" lon="34.76262000">
        <ele>439.00000</ele>
        <time>2015-12-18T06:12:48Z</time>
      </trkpt>
      <trkpt lat="30.90236000" lon="34.76255000">
        <ele>439.00000</ele>
        <time>2015-12-18T06:12:51Z</time>
      </trkpt>
      <trkpt lat="30.90249000" lon="34.76248000">
        <ele>439.00000</ele>
        <time>2015-12-18T06:12:54Z</time>
      </trkpt>
      <trkpt lat="30.90257000" lon="34.76241000">
        <ele>439.00000</ele>
        <time>2015-12-18T06:12:57Z</time>
      </trkpt>
      <trkpt lat="30.90262000" lon="34.76232000">
        <ele>440.00000</ele>
        <time>2015-12-18T06:13:00Z</time>
      </trkpt>
      <trkpt lat="30.90264000" lon="34.76223000">
        <ele>440.00000</ele>
        <time>2015-12-18T06:13:03Z</time>
      </trkpt>
      <trkpt lat="30.90266000" lon="34.76217000">
        <ele>440.00000</ele>
        <time>2015-12-18T06:13:06Z</time>
      </trkpt>
      <trkpt lat="30.90268000" lon="34.76211000">
        <ele>440.00000</ele>
        <time>2015-12-18T06:13:09Z</time>
      </trkpt>
      <trkpt lat="30.90271000" lon="34.76204000">
        <ele>440.00000</ele>
        <time>2015-12-18T06:13:12Z</time>
      </trkpt>
      <trkpt lat="30.90275000" lon="34.76197000">
        <ele>439.00000</ele>
        <time>2015-12-18T06:13:15Z</time>
      </trkpt>
      <trkpt lat="30.90280000" lon="34.76187000">
        <ele>439.00000</ele>
        <time>2015-12-18T06:13:18Z</time>
      </trkpt>
      <trkpt lat="30.90285000" lon="34.76175000">
        <ele>439.00000</ele>
        <time>2015-12-18T06:13:21Z</time>
      </trkpt>
      <trkpt lat="30.90292000" lon="34.76163000">
        <ele>438.00000</ele>
        <time>2015-12-18T06:13:24Z</time>
      </trkpt>
      <trkpt lat="30.90300000" lon="34.76150000">
        <ele>438.00000</ele>
        <time>2015-12-18T06:13:27Z</time>
      </trkpt>
      <trkpt lat="30.90306000" lon="34.76136000">
        <ele>437.00000</ele>
        <time>2015-12-18T06:13:30Z</time>
      </trkpt>
      <trkpt lat="30.90314000" lon="34.76124000">
        <ele>437.00000</ele>
        <time>2015-12-18T06:13:33Z</time>
      </trkpt>
      <trkpt lat="30.90322000" lon="34.76114000">
        <ele>438.00000</ele>
        <time>2015-12-18T06:13:36Z</time>
      </trkpt>
      <trkpt lat="30.90326000" lon="34.76103000">
        <ele>439.00000</ele>
        <time>2015-12-18T06:13:39Z</time>
      </trkpt>
      <trkpt lat="30.90330000" lon="34.76090000">
        <ele>440.00000</ele>
        <time>2015-12-18T06:13:42Z</time>
      </trkpt>
      <trkpt lat="30.90335000" lon="34.76075000">
        <ele>441.00000</ele>
        <time>2015-12-18T06:13:45Z</time>
      </trkpt>
      <trkpt lat="30.90342000" lon="34.76059000">
        <ele>442.00000</ele>
        <time>2015-12-18T06:13:48Z</time>
      </trkpt>
      <trkpt lat="30.90350000" lon="34.76044000">
        <ele>443.00000</ele>
        <time>2015-12-18T06:13:51Z</time>
      </trkpt>
      <trkpt lat="30.90356000" lon="34.76029000">
        <ele>444.00000</ele>
        <time>2015-12-18T06:13:54Z</time>
      </trkpt>
      <trkpt lat="30.90364000" lon="34.76015000">
        <ele>444.00000</ele>
        <time>2015-12-18T06:13:57Z</time>
      </trkpt>
      <trkpt lat="30.90373000" lon="34.76002000">
        <ele>444.00000</ele>
        <time>2015-12-18T06:14:00Z</time>
      </trkpt>
      <trkpt lat="30.90384000" lon="34.75991000">
        <ele>445.00000</ele>
        <time>2015-12-18T06:14:03Z</time>
      </trkpt>
      <trkpt lat="30.90394000" lon="34.75980000">
        <ele>446.00000</ele>
        <time>2015-12-18T06:14:06Z</time>
      </trkpt>
      <trkpt lat="30.90404000" lon="34.75970000">
        <ele>447.00000</ele>
        <time>2015-12-18T06:14:09Z</time>
      </trkpt>
      <trkpt lat="30.90413000" lon="34.75959000">
        <ele>448.00000</ele>
        <time>2015-12-18T06:14:12Z</time>
      </trkpt>
      <trkpt lat="30.90421000" lon="34.75947000">
        <ele>449.00000</ele>
        <time>2015-12-18T06:14:15Z</time>
      </trkpt>
      <trkpt lat="30.90429000" lon="34.75934000">
        <ele>450.00000</ele>
        <time>2015-12-18T06:14:18Z</time>
      </trkpt>
      <trkpt lat="30.90437000" lon="34.75923000">
        <ele>451.00000</ele>
        <time>2015-12-18T06:14:21Z</time>
      </trkpt>
      <trkpt lat="30.90444000" lon="34.75912000">
        <ele>452.00000</ele>
        <time>2015-12-18T06:14:24Z</time>
      </trkpt>
      <trkpt lat="30.90450000" lon="34.75904000">
        <ele>453.00000</ele>
        <time>2015-12-18T06:14:27Z</time>
      </trkpt>
      <trkpt lat="30.90457000" lon="34.75896000">
        <ele>453.00000</ele>
        <time>2015-12-18T06:14:30Z</time>
      </trkpt>
      <trkpt lat="30.90463000" lon="34.75888000">
        <ele>454.00000</ele>
        <time>2015-12-18T06:14:33Z</time>
      </trkpt>
      <trkpt lat="30.90469000" lon="34.75877000">
        <ele>455.00000</ele>
        <time>2015-12-18T06:14:36Z</time>
      </trkpt>
      <trkpt lat="30.90471000" lon="34.75866000">
        <ele>456.00000</ele>
        <time>2015-12-18T06:14:39Z</time>
      </trkpt>
      <trkpt lat="30.90474000" lon="34.75856000">
        <ele>458.00000</ele>
        <time>2015-12-18T06:14:42Z</time>
      </trkpt>
      <trkpt lat="30.90475000" lon="34.75846000">
        <ele>458.00000</ele>
        <time>2015-12-18T06:14:45Z</time>
      </trkpt>
      <trkpt lat="30.90477000" lon="34.75837000">
        <ele>459.00000</ele>
        <time>2015-12-18T06:14:48Z</time>
      </trkpt>
      <trkpt lat="30.90480000" lon="34.75828000">
        <ele>460.00000</ele>
        <time>2015-12-18T06:14:51Z</time>
      </trkpt>
      <trkpt lat="30.90483000" lon="34.75818000">
        <ele>461.00000</ele>
        <time>2015-12-18T06:14:54Z</time>
      </trkpt>
      <trkpt lat="30.90487000" lon="34.75806000">
        <ele>463.00000</ele>
        <time>2015-12-18T06:14:57Z</time>
      </trkpt>
      <trkpt lat="30.90491000" lon="34.75794000">
        <ele>464.00000</ele>
        <time>2015-12-18T06:15:00Z</time>
      </trkpt>
      <trkpt lat="30.90495000" lon="34.75781000">
        <ele>465.00000</ele>
        <time>2015-12-18T06:15:03Z</time>
      </trkpt>
      <trkpt lat="30.90499000" lon="34.75768000">
        <ele>465.00000</ele>
        <time>2015-12-18T06:15:06Z</time>
      </trkpt>
      <trkpt lat="30.90502000" lon="34.75757000">
        <ele>465.00000</ele>
        <time>2015-12-18T06:15:09Z</time>
      </trkpt>
      <trkpt lat="30.90504000" lon="34.75747000">
        <ele>465.00000</ele>
        <time>2015-12-18T06:15:12Z</time>
      </trkpt>
      <trkpt lat="30.90507000" lon="34.75735000">
        <ele>465.00000</ele>
        <time>2015-12-18T06:15:15Z</time>
      </trkpt>
      <trkpt lat="30.90510000" lon="34.75722000">
        <ele>465.00000</ele>
        <time>2015-12-18T06:15:18Z</time>
      </trkpt>
      <trkpt lat="30.90510000" lon="34.75711000">
        <ele>465.00000</ele>
        <time>2015-12-18T06:15:21Z</time>
      </trkpt>
      <trkpt lat="30.90510000" lon="34.75701000">
        <ele>465.00000</ele>
        <time>2015-12-18T06:15:24Z</time>
      </trkpt>
      <trkpt lat="30.90512000" lon="34.75694000">
        <ele>465.00000</ele>
        <time>2015-12-18T06:15:27Z</time>
      </trkpt>
      <trkpt lat="30.90515000" lon="34.75688000">
        <ele>465.00000</ele>
        <time>2015-12-18T06:15:30Z</time>
      </trkpt>
      <trkpt lat="30.90520000" lon="34.75683000">
        <ele>464.00000</ele>
        <time>2015-12-18T06:15:33Z</time>
      </trkpt>
      <trkpt lat="30.90527000" lon="34.75677000">
        <ele>464.00000</ele>
        <time>2015-12-18T06:15:36Z</time>
      </trkpt>
      <trkpt lat="30.90533000" lon="34.75672000">
        <ele>463.00000</ele>
        <time>2015-12-18T06:15:39Z</time>
      </trkpt>
      <trkpt lat="30.90539000" lon="34.75667000">
        <ele>462.00000</ele>
        <time>2015-12-18T06:15:42Z</time>
      </trkpt>
      <trkpt lat="30.90545000" lon="34.75664000">
        <ele>462.00000</ele>
        <time>2015-12-18T06:15:45Z</time>
      </trkpt>
      <trkpt lat="30.90551000" lon="34.75660000">
        <ele>463.00000</ele>
        <time>2015-12-18T06:15:48Z</time>
      </trkpt>
      <trkpt lat="30.90556000" lon="34.75656000">
        <ele>463.00000</ele>
        <time>2015-12-18T06:15:51Z</time>
      </trkpt>
      <trkpt lat="30.90561000" lon="34.75653000">
        <ele>464.00000</ele>
        <time>2015-12-18T06:15:54Z</time>
      </trkpt>
      <trkpt lat="30.90566000" lon="34.75649000">
        <ele>464.00000</ele>
        <time>2015-12-18T06:15:57Z</time>
      </trkpt>
      <trkpt lat="30.90571000" lon="34.75645000">
        <ele>464.00000</ele>
        <time>2015-12-18T06:16:00Z</time>
      </trkpt>
      <trkpt lat="30.90575000" lon="34.75641000">
        <ele>464.00000</ele>
        <time>2015-12-18T06:16:03Z</time>
      </trkpt>
      <trkpt lat="30.90577000" lon="34.75636000">
        <ele>464.00000</ele>
        <time>2015-12-18T06:16:06Z</time>
      </trkpt>
      <trkpt lat="30.90578000" lon="34.75632000">
        <ele>463.00000</ele>
        <time>2015-12-18T06:16:09Z</time>
      </trkpt>
      <trkpt lat="30.90581000" lon="34.75630000">
        <ele>463.00000</ele>
        <time>2015-12-18T06:16:12Z</time>
      </trkpt>
      <trkpt lat="30.90584000" lon="34.75629000">
        <ele>464.00000</ele>
        <time>2015-12-18T06:16:15Z</time>
      </trkpt>
      <trkpt lat="30.90589000" lon="34.75630000">
        <ele>464.00000</ele>
        <time>2015-12-18T06:16:18Z</time>
      </trkpt>
      <trkpt lat="30.90595000" lon="34.75633000">
        <ele>465.00000</ele>
        <time>2015-12-18T06:16:21Z</time>
      </trkpt>
      <trkpt lat="30.90600000" lon="34.75634000">
        <ele>465.00000</ele>
        <time>2015-12-18T06:16:24Z</time>
      </trkpt>
      <trkpt lat="30.90607000" lon="34.75635000">
        <ele>466.00000</ele>
        <time>2015-12-18T06:16:27Z</time>
      </trkpt>
      <trkpt lat="30.90615000" lon="34.75635000">
        <ele>467.00000</ele>
        <time>2015-12-18T06:16:30Z</time>
      </trkpt>
      <trkpt lat="30.90622000" lon="34.75632000">
        <ele>467.00000</ele>
        <time>2015-12-18T06:16:33Z</time>
      </trkpt>
      <trkpt lat="30.90630000" lon="34.75629000">
        <ele>468.00000</ele>
        <time>2015-12-18T06:16:36Z</time>
      </trkpt>
      <trkpt lat="30.90637000" lon="34.75627000">
        <ele>470.00000</ele>
        <time>2015-12-18T06:16:39Z</time>
      </trkpt>
      <trkpt lat="30.90643000" lon="34.75625000">
        <ele>471.00000</ele>
        <time>2015-12-18T06:16:42Z</time>
      </trkpt>
      <trkpt lat="30.90649000" lon="34.75622000">
        <ele>472.00000</ele>
        <time>2015-12-18T06:16:45Z</time>
      </trkpt>
      <trkpt lat="30.90654000" lon="34.75618000">
        <ele>474.00000</ele>
        <time>2015-12-18T06:16:48Z</time>
      </trkpt>
      <trkpt lat="30.90659000" lon="34.75616000">
        <ele>475.00000</ele>
        <time>2015-12-18T06:16:51Z</time>
      </trkpt>
      <trkpt lat="30.90664000" lon="34.75614000">
        <ele>476.00000</ele>
        <time>2015-12-18T06:16:54Z</time>
      </trkpt>
      <trkpt lat="30.90669000" lon="34.75612000">
        <ele>477.00000</ele>
        <time>2015-12-18T06:16:57Z</time>
      </trkpt>
      <trkpt lat="30.90675000" lon="34.75612000">
        <ele>478.00000</ele>
        <time>2015-12-18T06:17:00Z</time>
      </trkpt>
      <trkpt lat="30.90681000" lon="34.75612000">
        <ele>480.00000</ele>
        <time>2015-12-18T06:17:03Z</time>
      </trkpt>
      <trkpt lat="30.90686000" lon="34.75612000">
        <ele>481.00000</ele>
        <time>2015-12-18T06:17:06Z</time>
      </trkpt>
      <trkpt lat="30.90692000" lon="34.75613000">
        <ele>483.00000</ele>
        <time>2015-12-18T06:17:09Z</time>
      </trkpt>
      <trkpt lat="30.90697000" lon="34.75613000">
        <ele>485.00000</ele>
        <time>2015-12-18T06:17:12Z</time>
      </trkpt>
      <trkpt lat="30.90703000" lon="34.75612000">
        <ele>486.00000</ele>
        <time>2015-12-18T06:17:15Z</time>
      </trkpt>
      <trkpt lat="30.90709000" lon="34.75610000">
        <ele>487.00000</ele>
        <time>2015-12-18T06:17:18Z</time>
      </trkpt>
      <trkpt lat="30.90714000" lon="34.75605000">
        <ele>487.00000</ele>
        <time>2015-12-18T06:17:21Z</time>
      </trkpt>
      <trkpt lat="30.90718000" lon="34.75599000">
        <ele>486.00000</ele>
        <time>2015-12-18T06:17:24Z</time>
      </trkpt>
      <trkpt lat="30.90722000" lon="34.75594000">
        <ele>486.00000</ele>
        <time>2015-12-18T06:17:27Z</time>
      </trkpt>
      <trkpt lat="30.90727000" lon="34.75590000">
        <ele>486.00000</ele>
        <time>2015-12-18T06:17:30Z</time>
      </trkpt>
      <trkpt lat="30.90733000" lon="34.75587000">
        <ele>487.00000</ele>
        <time>2015-12-18T06:17:33Z</time>
      </trkpt>
      <trkpt lat="30.90737000" lon="34.75583000">
        <ele>487.00000</ele>
        <time>2015-12-18T06:17:36Z</time>
      </trkpt>
      <trkpt lat="30.90741000" lon="34.75577000">
        <ele>486.00000</ele>
        <time>2015-12-18T06:17:39Z</time>
      </trkpt>
      <trkpt lat="30.90745000" lon="34.75572000">
        <ele>486.00000</ele>
        <time>2015-12-18T06:17:42Z</time>
      </trkpt>
      <trkpt lat="30.90748000" lon="34.75566000">
        <ele>485.00000</ele>
        <time>2015-12-18T06:17:45Z</time>
      </trkpt>
      <trkpt lat="30.90750000" lon="34.75561000">
        <ele>485.00000</ele>
        <time>2015-12-18T06:17:48Z</time>
      </trkpt>
      <trkpt lat="30.90753000" lon="34.75557000">
        <ele>484.00000</ele>
        <time>2015-12-18T06:17:51Z</time>
      </trkpt>
      <trkpt lat="30.90757000" lon="34.75557000">
        <ele>485.00000</ele>
        <time>2015-12-18T06:17:54Z</time>
      </trkpt>
      <trkpt lat="30.90762000" lon="34.75557000">
        <ele>486.00000</ele>
        <time>2015-12-18T06:17:57Z</time>
      </trkpt>
      <trkpt lat="30.90767000" lon="34.75560000">
        <ele>488.00000</ele>
        <time>2015-12-18T06:18:00Z</time>
      </trkpt>
      <trkpt lat="30.90772000" lon="34.75562000">
        <ele>489.00000</ele>
        <time>2015-12-18T06:18:03Z</time>
      </trkpt>
      <trkpt lat="30.90777000" lon="34.75564000">
        <ele>491.00000</ele>
        <time>2015-12-18T06:18:06Z</time>
      </trkpt>
      <trkpt lat="30.90782000" lon="34.75565000">
        <ele>492.00000</ele>
        <time>2015-12-18T06:18:09Z</time>
      </trkpt>
      <trkpt lat="30.90787000" lon="34.75565000">
        <ele>493.00000</ele>
        <time>2015-12-18T06:18:12Z</time>
      </trkpt>
      <trkpt lat="30.90792000" lon="34.75565000">
        <ele>494.00000</ele>
        <time>2015-12-18T06:18:15Z</time>
      </trkpt>
      <trkpt lat="30.90796000" lon="34.75565000">
        <ele>495.00000</ele>
        <time>2015-12-18T06:18:18Z</time>
      </trkpt>
      <trkpt lat="30.90801000" lon="34.75566000">
        <ele>495.00000</ele>
        <time>2015-12-18T06:18:21Z</time>
      </trkpt>
      <trkpt lat="30.90805000" lon="34.75566000">
        <ele>496.00000</ele>
        <time>2015-12-18T06:18:24Z</time>
      </trkpt>
      <trkpt lat="30.90810000" lon="34.75566000">
        <ele>497.00000</ele>
        <time>2015-12-18T06:18:27Z</time>
      </trkpt>
      <trkpt lat="30.90815000" lon="34.75566000">
        <ele>498.00000</ele>
        <time>2015-12-18T06:18:30Z</time>
      </trkpt>
      <trkpt lat="30.90820000" lon="34.75565000">
        <ele>498.00000</ele>
        <time>2015-12-18T06:18:33Z</time>
      </trkpt>
      <trkpt lat="30.90826000" lon="34.75564000">
        <ele>499.00000</ele>
        <time>2015-12-18T06:18:36Z</time>
      </trkpt>
      <trkpt lat="30.90831000" lon="34.75563000">
        <ele>500.00000</ele>
        <time>2015-12-18T06:18:39Z</time>
      </trkpt>
      <trkpt lat="30.90836000" lon="34.75563000">
        <ele>501.00000</ele>
        <time>2015-12-18T06:18:42Z</time>
      </trkpt>
      <trkpt lat="30.90842000" lon="34.75563000">
        <ele>502.00000</ele>
        <time>2015-12-18T06:18:45Z</time>
      </trkpt>
      <trkpt lat="30.90847000" lon="34.75562000">
        <ele>502.00000</ele>
        <time>2015-12-18T06:18:48Z</time>
      </trkpt>
      <trkpt lat="30.90853000" lon="34.75559000">
        <ele>503.00000</ele>
        <time>2015-12-18T06:18:51Z</time>
      </trkpt>
      <trkpt lat="30.90858000" lon="34.75555000">
        <ele>505.00000</ele>
        <time>2015-12-18T06:18:54Z</time>
      </trkpt>
      <trkpt lat="30.90863000" lon="34.75552000">
        <ele>506.00000</ele>
        <time>2015-12-18T06:18:57Z</time>
      </trkpt>
      <trkpt lat="30.90869000" lon="34.75549000">
        <ele>507.00000</ele>
        <time>2015-12-18T06:19:00Z</time>
      </trkpt>
      <trkpt lat="30.90874000" lon="34.75544000">
        <ele>509.00000</ele>
        <time>2015-12-18T06:19:03Z</time>
      </trkpt>
      <trkpt lat="30.90879000" lon="34.75539000">
        <ele>509.00000</ele>
        <time>2015-12-18T06:19:06Z</time>
      </trkpt>
      <trkpt lat="30.90885000" lon="34.75534000">
        <ele>509.00000</ele>
        <time>2015-12-18T06:19:09Z</time>
      </trkpt>
      <trkpt lat="30.90890000" lon="34.75529000">
        <ele>508.00000</ele>
        <time>2015-12-18T06:19:12Z</time>
      </trkpt>
      <trkpt lat="30.90895000" lon="34.75524000">
        <ele>508.00000</ele>
        <time>2015-12-18T06:19:15Z</time>
      </trkpt>
      <trkpt lat="30.90900000" lon="34.75519000">
        <ele>508.00000</ele>
        <time>2015-12-18T06:19:18Z</time>
      </trkpt>
      <trkpt lat="30.90904000" lon="34.75514000">
        <ele>508.00000</ele>
        <time>2015-12-18T06:19:21Z</time>
      </trkpt>
      <trkpt lat="30.90907000" lon="34.75509000">
        <ele>508.00000</ele>
        <time>2015-12-18T06:19:24Z</time>
      </trkpt>
      <trkpt lat="30.90912000" lon="34.75504000">
        <ele>508.00000</ele>
        <time>2015-12-18T06:19:27Z</time>
      </trkpt>
      <trkpt lat="30.90916000" lon="34.75500000">
        <ele>508.00000</ele>
        <time>2015-12-18T06:19:30Z</time>
      </trkpt>
      <trkpt lat="30.90921000" lon="34.75494000">
        <ele>508.00000</ele>
        <time>2015-12-18T06:19:33Z</time>
      </trkpt>
      <trkpt lat="30.90925000" lon="34.75487000">
        <ele>509.00000</ele>
        <time>2015-12-18T06:19:36Z</time>
      </trkpt>
      <trkpt lat="30.90929000" lon="34.75481000">
        <ele>509.00000</ele>
        <time>2015-12-18T06:19:39Z</time>
      </trkpt>
      <trkpt lat="30.90933000" lon="34.75474000">
        <ele>509.00000</ele>
        <time>2015-12-18T06:19:42Z</time>
      </trkpt>
      <trkpt lat="30.90937000" lon="34.75468000">
        <ele>510.00000</ele>
        <time>2015-12-18T06:19:45Z</time>
      </trkpt>
      <trkpt lat="30.90942000" lon="34.75460000">
        <ele>510.00000</ele>
        <time>2015-12-18T06:19:48Z</time>
      </trkpt>
      <trkpt lat="30.90947000" lon="34.75451000">
        <ele>511.00000</ele>
        <time>2015-12-18T06:19:51Z</time>
      </trkpt>
      <trkpt lat="30.90953000" lon="34.75441000">
        <ele>512.00000</ele>
        <time>2015-12-18T06:19:54Z</time>
      </trkpt>
      <trkpt lat="30.90961000" lon="34.75430000">
        <ele>514.00000</ele>
        <time>2015-12-18T06:19:57Z</time>
      </trkpt>
      <trkpt lat="30.90967000" lon="34.75416000">
        <ele>516.00000</ele>
        <time>2015-12-18T06:20:00Z</time>
      </trkpt>
      <trkpt lat="30.90973000" lon="34.75402000">
        <ele>519.00000</ele>
        <time>2015-12-18T06:20:03Z</time>
      </trkpt>
      <trkpt lat="30.90975000" lon="34.75386000">
        <ele>522.00000</ele>
        <time>2015-12-18T06:20:06Z</time>
      </trkpt>
      <trkpt lat="30.90976000" lon="34.75371000">
        <ele>525.00000</ele>
        <time>2015-12-18T06:20:09Z</time>
      </trkpt>
      <trkpt lat="30.90978000" lon="34.75357000">
        <ele>527.00000</ele>
        <time>2015-12-18T06:20:12Z</time>
      </trkpt>
      <trkpt lat="30.90982000" lon="34.75344000">
        <ele>529.00000</ele>
        <time>2015-12-18T06:20:15Z</time>
      </trkpt>
      <trkpt lat="30.90990000" lon="34.75335000">
        <ele>530.00000</ele>
        <time>2015-12-18T06:20:18Z</time>
      </trkpt>
      <trkpt lat="30.91000000" lon="34.75331000">
        <ele>530.00000</ele>
        <time>2015-12-18T06:20:21Z</time>
      </trkpt>
      <trkpt lat="30.91009000" lon="34.75330000">
        <ele>530.00000</ele>
        <time>2015-12-18T06:20:24Z</time>
      </trkpt>
      <trkpt lat="30.91017000" lon="34.75327000">
        <ele>530.00000</ele>
        <time>2015-12-18T06:20:27Z</time>
      </trkpt>
      <trkpt lat="30.91026000" lon="34.75325000">
        <ele>530.00000</ele>
        <time>2015-12-18T06:20:30Z</time>
      </trkpt>
      <trkpt lat="30.91035000" lon="34.75325000">
        <ele>530.00000</ele>
        <time>2015-12-18T06:20:33Z</time>
      </trkpt>
      <trkpt lat="30.91045000" lon="34.75325000">
        <ele>530.00000</ele>
        <time>2015-12-18T06:20:36Z</time>
      </trkpt>
      <trkpt lat="30.91054000" lon="34.75326000">
        <ele>531.00000</ele>
        <time>2015-12-18T06:20:39Z</time>
      </trkpt>
      <trkpt lat="30.91063000" lon="34.75327000">
        <ele>531.00000</ele>
        <time>2015-12-18T06:20:42Z</time>
      </trkpt>
      <trkpt lat="30.91073000" lon="34.75325000">
        <ele>532.00000</ele>
        <time>2015-12-18T06:20:45Z</time>
      </trkpt>
      <trkpt lat="30.91083000" lon="34.75323000">
        <ele>532.00000</ele>
        <time>2015-12-18T06:20:48Z</time>
      </trkpt>
      <trkpt lat="30.91093000" lon="34.75322000">
        <ele>533.00000</ele>
        <time>2015-12-18T06:20:51Z</time>
      </trkpt>
      <trkpt lat="30.91103000" lon="34.75324000">
        <ele>533.00000</ele>
        <time>2015-12-18T06:20:54Z</time>
      </trkpt>
      <trkpt lat="30.91111000" lon="34.75332000">
        <ele>533.00000</ele>
        <time>2015-12-18T06:20:57Z</time>
      </trkpt>
      <trkpt lat="30.91119000" lon="34.75339000">
        <ele>533.00000</ele>
        <time>2015-12-18T06:21:00Z</time>
      </trkpt>
      <trkpt lat="30.91128000" lon="34.75337000">
        <ele>534.00000</ele>
        <time>2015-12-18T06:21:03Z</time>
      </trkpt>
      <trkpt lat="30.91138000" lon="34.75334000">
        <ele>534.00000</ele>
        <time>2015-12-18T06:21:06Z</time>
      </trkpt>
      <trkpt lat="30.91147000" lon="34.75329000">
        <ele>535.00000</ele>
        <time>2015-12-18T06:21:09Z</time>
      </trkpt>
      <trkpt lat="30.91154000" lon="34.75324000">
        <ele>536.00000</ele>
        <time>2015-12-18T06:21:12Z</time>
      </trkpt>
      <trkpt lat="30.91161000" lon="34.75320000">
        <ele>536.00000</ele>
        <time>2015-12-18T06:21:15Z</time>
      </trkpt>
      <trkpt lat="30.91170000" lon="34.75317000">
        <ele>537.00000</ele>
        <time>2015-12-18T06:21:18Z</time>
      </trkpt>
      <trkpt lat="30.91179000" lon="34.75317000">
        <ele>538.00000</ele>
        <time>2015-12-18T06:21:21Z</time>
      </trkpt>
      <trkpt lat="30.91188000" lon="34.75319000">
        <ele>538.00000</ele>
        <time>2015-12-18T06:21:24Z</time>
      </trkpt>
      <trkpt lat="30.91197000" lon="34.75324000">
        <ele>539.00000</ele>
        <time>2015-12-18T06:21:27Z</time>
      </trkpt>
      <trkpt lat="30.91205000" lon="34.75328000">
        <ele>539.00000</ele>
        <time>2015-12-18T06:21:30Z</time>
      </trkpt>
      <trkpt lat="30.91213000" lon="34.75332000">
        <ele>539.00000</ele>
        <time>2015-12-18T06:21:33Z</time>
      </trkpt>
      <trkpt lat="30.91221000" lon="34.75337000">
        <ele>538.00000</ele>
        <time>2015-12-18T06:21:36Z</time>
      </trkpt>
      <trkpt lat="30.91228000" lon="34.75338000">
        <ele>538.00000</ele>
        <time>2015-12-18T06:21:39Z</time>
      </trkpt>
      <trkpt lat="30.91235000" lon="34.75339000">
        <ele>537.00000</ele>
        <time>2015-12-18T06:21:42Z</time>
      </trkpt>
      <trkpt lat="30.91242000" lon="34.75342000">
        <ele>537.00000</ele>
        <time>2015-12-18T06:21:45Z</time>
      </trkpt>
      <trkpt lat="30.91250000" lon="34.75347000">
        <ele>537.00000</ele>
        <time>2015-12-18T06:21:48Z</time>
      </trkpt>
      <trkpt lat="30.91258000" lon="34.75352000">
        <ele>537.00000</ele>
        <time>2015-12-18T06:21:51Z</time>
      </trkpt>
      <trkpt lat="30.91264000" lon="34.75353000">
        <ele>537.00000</ele>
        <time>2015-12-18T06:21:54Z</time>
      </trkpt>
      <trkpt lat="30.91270000" lon="34.75356000">
        <ele>537.00000</ele>
        <time>2015-12-18T06:21:57Z</time>
      </trkpt>
      <trkpt lat="30.91276000" lon="34.75358000">
        <ele>537.00000</ele>
        <time>2015-12-18T06:22:00Z</time>
      </trkpt>
      <trkpt lat="30.91277000" lon="34.75359000">
        <ele>537.00000</ele>
        <time>2015-12-18T06:22:03Z</time>
      </trkpt>
      <trkpt lat="30.91276000" lon="34.75358000">
        <ele>537.00000</ele>
        <time>2015-12-18T06:22:06Z</time>
      </trkpt>
      <trkpt lat="30.91274000" lon="34.75358000">
        <ele>537.00000</ele>
        <time>2015-12-18T06:22:09Z</time>
      </trkpt>
      <trkpt lat="30.91273000" lon="34.75358000">
        <ele>537.00000</ele>
        <time>2015-12-18T06:22:12Z</time>
      </trkpt>
      <trkpt lat="30.91272000" lon="34.75357000">
        <ele>537.00000</ele>
        <time>2015-12-18T06:22:15Z</time>
      </trkpt>
      <trkpt lat="30.91271000" lon="34.75357000">
        <ele>537.00000</ele>
        <time>2015-12-18T06:22:18Z</time>
      </trkpt>
      <trkpt lat="30.91269000" lon="34.75357000">
        <ele>537.00000</ele>
        <time>2015-12-18T06:22:21Z</time>
      </trkpt>
      <trkpt lat="30.91268000" lon="34.75357000">
        <ele>537.00000</ele>
        <time>2015-12-18T06:22:24Z</time>
      </trkpt>
      <trkpt lat="30.91259000" lon="34.75352000">
        <ele>537.00000</ele>
        <time>2015-12-18T06:22:27Z</time>
      </trkpt>
      <trkpt lat="30.91250000" lon="34.75348000">
        <ele>537.00000</ele>
        <time>2015-12-18T06:22:30Z</time>
      </trkpt>
      <trkpt lat="30.91244000" lon="34.75344000">
        <ele>537.00000</ele>
        <time>2015-12-18T06:22:33Z</time>
      </trkpt>
      <trkpt lat="30.91238000" lon="34.75340000">
        <ele>537.00000</ele>
        <time>2015-12-18T06:22:36Z</time>
      </trkpt>
      <trkpt lat="30.91233000" lon="34.75335000">
        <ele>537.00000</ele>
        <time>2015-12-18T06:22:39Z</time>
      </trkpt>
      <trkpt lat="30.91233000" lon="34.75332000">
        <ele>537.00000</ele>
        <time>2015-12-18T06:22:42Z</time>
      </trkpt>
      <trkpt lat="30.91232000" lon="34.75329000">
        <ele>537.00000</ele>
        <time>2015-12-18T06:22:45Z</time>
      </trkpt>
      <trkpt lat="30.91232000" lon="34.75330000">
        <ele>537.00000</ele>
        <time>2015-12-18T06:22:51Z</time>
      </trkpt>
      <trkpt lat="30.91232000" lon="34.75331000">
        <ele>537.00000</ele>
        <time>2015-12-18T06:22:57Z</time>
      </trkpt>
      <trkpt lat="30.91232000" lon="34.75332000">
        <ele>537.00000</ele>
        <time>2015-12-18T06:23:00Z</time>
      </trkpt>
      <trkpt lat="30.91233000" lon="34.75333000">
        <ele>537.00000</ele>
        <time>2015-12-18T06:23:06Z</time>
      </trkpt>
      <trkpt lat="30.91233000" lon="34.75334000">
        <ele>537.00000</ele>
        <time>2015-12-18T06:23:09Z</time>
      </trkpt>
      <trkpt lat="30.91233000" lon="34.75335000">
        <ele>537.00000</ele>
        <time>2015-12-18T06:23:15Z</time>
      </trkpt>
      <trkpt lat="30.91233000" lon="34.75336000">
        <ele>537.00000</ele>
        <time>2015-12-18T06:23:21Z</time>
      </trkpt>
      <trkpt lat="30.91235000" lon="34.75338000">
        <ele>537.00000</ele>
        <time>2015-12-18T06:23:24Z</time>
      </trkpt>
      <trkpt lat="30.91241000" lon="34.75343000">
        <ele>537.00000</ele>
        <time>2015-12-18T06:23:27Z</time>
      </trkpt>
      <trkpt lat="30.91250000" lon="34.75349000">
        <ele>537.00000</ele>
        <time>2015-12-18T06:23:30Z</time>
      </trkpt>
      <trkpt lat="30.91262000" lon="34.75353000">
        <ele>537.00000</ele>
        <time>2015-12-18T06:23:33Z</time>
      </trkpt>
      <trkpt lat="30.91275000" lon="34.75359000">
        <ele>537.00000</ele>
        <time>2015-12-18T06:23:36Z</time>
      </trkpt>
      <trkpt lat="30.91288000" lon="34.75366000">
        <ele>538.00000</ele>
        <time>2015-12-18T06:23:39Z</time>
      </trkpt>
      <trkpt lat="30.91302000" lon="34.75368000">
        <ele>539.00000</ele>
        <time>2015-12-18T06:23:42Z</time>
      </trkpt>
      <trkpt lat="30.91314000" lon="34.75368000">
        <ele>540.00000</ele>
        <time>2015-12-18T06:23:45Z</time>
      </trkpt>
      <trkpt lat="30.91325000" lon="34.75363000">
        <ele>540.00000</ele>
        <time>2015-12-18T06:23:48Z</time>
      </trkpt>
      <trkpt lat="30.91336000" lon="34.75354000">
        <ele>539.00000</ele>
        <time>2015-12-18T06:23:51Z</time>
      </trkpt>
      <trkpt lat="30.91345000" lon="34.75343000">
        <ele>538.00000</ele>
        <time>2015-12-18T06:23:54Z</time>
      </trkpt>
      <trkpt lat="30.91354000" lon="34.75332000">
        <ele>538.00000</ele>
        <time>2015-12-18T06:23:57Z</time>
      </trkpt>
      <trkpt lat="30.91366000" lon="34.75327000">
        <ele>538.00000</ele>
        <time>2015-12-18T06:24:00Z</time>
      </trkpt>
      <trkpt lat="30.91381000" lon="34.75326000">
        <ele>539.00000</ele>
        <time>2015-12-18T06:24:03Z</time>
      </trkpt>
      <trkpt lat="30.91395000" lon="34.75329000">
        <ele>540.00000</ele>
        <time>2015-12-18T06:24:06Z</time>
      </trkpt>
      <trkpt lat="30.91409000" lon="34.75321000">
        <ele>539.00000</ele>
        <time>2015-12-18T06:24:09Z</time>
      </trkpt>
      <trkpt lat="30.91419000" lon="34.75307000">
        <ele>538.00000</ele>
        <time>2015-12-18T06:24:12Z</time>
      </trkpt>
      <trkpt lat="30.91426000" lon="34.75290000">
        <ele>537.00000</ele>
        <time>2015-12-18T06:24:15Z</time>
      </trkpt>
      <trkpt lat="30.91439000" lon="34.75281000">
        <ele>538.00000</ele>
        <time>2015-12-18T06:24:18Z</time>
      </trkpt>
      <trkpt lat="30.91457000" lon="34.75282000">
        <ele>539.00000</ele>
        <time>2015-12-18T06:24:21Z</time>
      </trkpt>
      <trkpt lat="30.91477000" lon="34.75285000">
        <ele>540.00000</ele>
        <time>2015-12-18T06:24:24Z</time>
      </trkpt>
      <trkpt lat="30.91496000" lon="34.75280000">
        <ele>540.00000</ele>
        <time>2015-12-18T06:24:27Z</time>
      </trkpt>
      <trkpt lat="30.91510000" lon="34.75269000">
        <ele>540.00000</ele>
        <time>2015-12-18T06:24:30Z</time>
      </trkpt>
      <trkpt lat="30.91518000" lon="34.75252000">
        <ele>538.00000</ele>
        <time>2015-12-18T06:24:33Z</time>
      </trkpt>
      <trkpt lat="30.91521000" lon="34.75231000">
        <ele>536.00000</ele>
        <time>2015-12-18T06:24:36Z</time>
      </trkpt>
      <trkpt lat="30.91525000" lon="34.75213000">
        <ele>535.00000</ele>
        <time>2015-12-18T06:24:39Z</time>
      </trkpt>
      <trkpt lat="30.91530000" lon="34.75206000">
        <ele>534.00000</ele>
        <time>2015-12-18T06:24:42Z</time>
      </trkpt>
      <trkpt lat="30.91529000" lon="34.75206000">
        <ele>534.00000</ele>
        <time>2015-12-18T06:25:51Z</time>
      </trkpt>
      <trkpt lat="30.91529000" lon="34.75207000">
        <ele>534.00000</ele>
        <time>2015-12-18T06:26:24Z</time>
      </trkpt>
      <trkpt lat="30.91528000" lon="34.75207000">
        <ele>534.00000</ele>
        <time>2015-12-18T06:28:00Z</time>
      </trkpt>
      <trkpt lat="30.91528000" lon="34.75208000">
        <ele>534.00000</ele>
        <time>2015-12-18T06:29:00Z</time>
      </trkpt>
      <trkpt lat="30.91527000" lon="34.75208000">
        <ele>534.00000</ele>
        <time>2015-12-18T06:30:06Z</time>
      </trkpt>
      <trkpt lat="30.91527000" lon="34.75209000">
        <ele>534.00000</ele>
        <time>2015-12-18T06:31:39Z</time>
      </trkpt>
      <trkpt lat="30.91526000" lon="34.75209000">
        <ele>534.00000</ele>
        <time>2015-12-18T06:32:12Z</time>
      </trkpt>
      <trkpt lat="30.91524000" lon="34.75213000">
        <ele>534.00000</ele>
        <time>2015-12-18T06:32:33Z</time>
      </trkpt>
      <trkpt lat="30.91521000" lon="34.75221000">
        <ele>535.00000</ele>
        <time>2015-12-18T06:32:36Z</time>
      </trkpt>
      <trkpt lat="30.91519000" lon="34.75232000">
        <ele>536.00000</ele>
        <time>2015-12-18T06:32:39Z</time>
      </trkpt>
      <trkpt lat="30.91517000" lon="34.75246000">
        <ele>538.00000</ele>
        <time>2015-12-18T06:32:42Z</time>
      </trkpt>
      <trkpt lat="30.91514000" lon="34.75260000">
        <ele>539.00000</ele>
        <time>2015-12-18T06:32:45Z</time>
      </trkpt>
      <trkpt lat="30.91507000" lon="34.75273000">
        <ele>540.00000</ele>
        <time>2015-12-18T06:32:48Z</time>
      </trkpt>
      <trkpt lat="30.91495000" lon="34.75282000">
        <ele>540.00000</ele>
        <time>2015-12-18T06:32:51Z</time>
      </trkpt>
      <trkpt lat="30.91485000" lon="34.75285000">
        <ele>540.00000</ele>
        <time>2015-12-18T06:32:54Z</time>
      </trkpt>
      <trkpt lat="30.91474000" lon="34.75287000">
        <ele>540.00000</ele>
        <time>2015-12-18T06:32:57Z</time>
      </trkpt>
      <trkpt lat="30.91463000" lon="34.75287000">
        <ele>540.00000</ele>
        <time>2015-12-18T06:33:00Z</time>
      </trkpt>
      <trkpt lat="30.91455000" lon="34.75284000">
        <ele>539.00000</ele>
        <time>2015-12-18T06:33:03Z</time>
      </trkpt>
      <trkpt lat="30.91446000" lon="34.75282000">
        <ele>538.00000</ele>
        <time>2015-12-18T06:33:06Z</time>
      </trkpt>
      <trkpt lat="30.91437000" lon="34.75281000">
        <ele>537.00000</ele>
        <time>2015-12-18T06:33:09Z</time>
      </trkpt>
      <trkpt lat="30.91428000" lon="34.75286000">
        <ele>537.00000</ele>
        <time>2015-12-18T06:33:12Z</time>
      </trkpt>
      <trkpt lat="30.91421000" lon="34.75296000">
        <ele>537.00000</ele>
        <time>2015-12-18T06:33:15Z</time>
      </trkpt>
      <trkpt lat="30.91416000" lon="34.75307000">
        <ele>538.00000</ele>
        <time>2015-12-18T06:33:18Z</time>
      </trkpt>
      <trkpt lat="30.91410000" lon="34.75319000">
        <ele>539.00000</ele>
        <time>2015-12-18T06:33:21Z</time>
      </trkpt>
      <trkpt lat="30.91400000" lon="34.75327000">
        <ele>540.00000</ele>
        <time>2015-12-18T06:33:24Z</time>
      </trkpt>
      <trkpt lat="30.91387000" lon="34.75330000">
        <ele>539.00000</ele>
        <time>2015-12-18T06:33:27Z</time>
      </trkpt>
      <trkpt lat="30.91374000" lon="34.75326000">
        <ele>538.00000</ele>
        <time>2015-12-18T06:33:30Z</time>
      </trkpt>
      <trkpt lat="30.91364000" lon="34.75327000">
        <ele>538.00000</ele>
        <time>2015-12-18T06:33:33Z</time>
      </trkpt>
      <trkpt lat="30.91353000" lon="34.75332000">
        <ele>537.00000</ele>
        <time>2015-12-18T06:33:36Z</time>
      </trkpt>
      <trkpt lat="30.91343000" lon="34.75341000">
        <ele>538.00000</ele>
        <time>2015-12-18T06:33:39Z</time>
      </trkpt>
      <trkpt lat="30.91333000" lon="34.75354000">
        <ele>539.00000</ele>
        <time>2015-12-18T06:33:42Z</time>
      </trkpt>
      <trkpt lat="30.91320000" lon="34.75364000">
        <ele>540.00000</ele>
        <time>2015-12-18T06:33:45Z</time>
      </trkpt>
      <trkpt lat="30.91302000" lon="34.75369000">
        <ele>539.00000</ele>
        <time>2015-12-18T06:33:48Z</time>
      </trkpt>
      <trkpt lat="30.91285000" lon="34.75365000">
        <ele>538.00000</ele>
        <time>2015-12-18T06:33:51Z</time>
      </trkpt>
      <trkpt lat="30.91270000" lon="34.75357000">
        <ele>537.00000</ele>
        <time>2015-12-18T06:33:54Z</time>
      </trkpt>
      <trkpt lat="30.91255000" lon="34.75351000">
        <ele>537.00000</ele>
        <time>2015-12-18T06:33:57Z</time>
      </trkpt>
      <trkpt lat="30.91241000" lon="34.75343000">
        <ele>537.00000</ele>
        <time>2015-12-18T06:34:00Z</time>
      </trkpt>
      <trkpt lat="30.91230000" lon="34.75337000">
        <ele>537.00000</ele>
        <time>2015-12-18T06:34:03Z</time>
      </trkpt>
      <trkpt lat="30.91223000" lon="34.75333000">
        <ele>538.00000</ele>
        <time>2015-12-18T06:34:06Z</time>
      </trkpt>
      <trkpt lat="30.91219000" lon="34.75328000">
        <ele>538.00000</ele>
        <time>2015-12-18T06:34:09Z</time>
      </trkpt>
      <trkpt lat="30.91215000" lon="34.75326000">
        <ele>539.00000</ele>
        <time>2015-12-18T06:34:12Z</time>
      </trkpt>
      <trkpt lat="30.91212000" lon="34.75323000">
        <ele>539.00000</ele>
        <time>2015-12-18T06:34:15Z</time>
      </trkpt>
      <trkpt lat="30.91209000" lon="34.75322000">
        <ele>539.00000</ele>
        <time>2015-12-18T06:34:18Z</time>
      </trkpt>
      <trkpt lat="30.91207000" lon="34.75321000">
        <ele>539.00000</ele>
        <time>2015-12-18T06:34:21Z</time>
      </trkpt>
      <trkpt lat="30.91206000" lon="34.75320000">
        <ele>539.00000</ele>
        <time>2015-12-18T06:34:24Z</time>
      </trkpt>
      <trkpt lat="30.91199000" lon="34.75317000">
        <ele>539.00000</ele>
        <time>2015-12-18T06:34:27Z</time>
      </trkpt>
      <trkpt lat="30.91188000" lon="34.75312000">
        <ele>538.00000</ele>
        <time>2015-12-18T06:34:30Z</time>
      </trkpt>
      <trkpt lat="30.91174000" lon="34.75309000">
        <ele>538.00000</ele>
        <time>2015-12-18T06:34:33Z</time>
      </trkpt>
      <trkpt lat="30.91164000" lon="34.75309000">
        <ele>537.00000</ele>
        <time>2015-12-18T06:34:36Z</time>
      </trkpt>
      <trkpt lat="30.91149000" lon="34.75311000">
        <ele>536.00000</ele>
        <time>2015-12-18T06:34:39Z</time>
      </trkpt>
      <trkpt lat="30.91136000" lon="34.75312000">
        <ele>535.00000</ele>
        <time>2015-12-18T06:34:42Z</time>
      </trkpt>
      <trkpt lat="30.91124000" lon="34.75308000">
        <ele>534.00000</ele>
        <time>2015-12-18T06:34:45Z</time>
      </trkpt>
      <trkpt lat="30.91112000" lon="34.75299000">
        <ele>534.00000</ele>
        <time>2015-12-18T06:34:48Z</time>
      </trkpt>
      <trkpt lat="30.91103000" lon="34.75290000">
        <ele>534.00000</ele>
        <time>2015-12-18T06:34:51Z</time>
      </trkpt>
      <trkpt lat="30.91100000" lon="34.75283000">
        <ele>533.00000</ele>
        <time>2015-12-18T06:34:54Z</time>
      </trkpt>
      <trkpt lat="30.91094000" lon="34.75273000">
        <ele>532.00000</ele>
        <time>2015-12-18T06:34:57Z</time>
      </trkpt>
      <trkpt lat="30.91084000" lon="34.75263000">
        <ele>530.00000</ele>
        <time>2015-12-18T06:35:00Z</time>
      </trkpt>
      <trkpt lat="30.91072000" lon="34.75248000">
        <ele>528.00000</ele>
        <time>2015-12-18T06:35:03Z</time>
      </trkpt>
      <trkpt lat="30.91063000" lon="34.75233000">
        <ele>527.00000</ele>
        <time>2015-12-18T06:35:06Z</time>
      </trkpt>
      <trkpt lat="30.91058000" lon="34.75219000">
        <ele>525.00000</ele>
        <time>2015-12-18T06:35:09Z</time>
      </trkpt>
      <trkpt lat="30.91055000" lon="34.75202000">
        <ele>524.00000</ele>
        <time>2015-12-18T06:35:12Z</time>
      </trkpt>
      <trkpt lat="30.91050000" lon="34.75187000">
        <ele>524.00000</ele>
        <time>2015-12-18T06:35:15Z</time>
      </trkpt>
      <trkpt lat="30.91041000" lon="34.75174000">
        <ele>524.00000</ele>
        <time>2015-12-18T06:35:18Z</time>
      </trkpt>
      <trkpt lat="30.91038000" lon="34.75155000">
        <ele>523.00000</ele>
        <time>2015-12-18T06:35:21Z</time>
      </trkpt>
      <trkpt lat="30.91041000" lon="34.75135000">
        <ele>523.00000</ele>
        <time>2015-12-18T06:35:24Z</time>
      </trkpt>
      <trkpt lat="30.91042000" lon="34.75122000">
        <ele>522.00000</ele>
        <time>2015-12-18T06:35:27Z</time>
      </trkpt>
      <trkpt lat="30.91045000" lon="34.75113000">
        <ele>521.00000</ele>
        <time>2015-12-18T06:35:30Z</time>
      </trkpt>
      <trkpt lat="30.91047000" lon="34.75105000">
        <ele>521.00000</ele>
        <time>2015-12-18T06:35:33Z</time>
      </trkpt>
      <trkpt lat="30.91045000" lon="34.75099000">
        <ele>521.00000</ele>
        <time>2015-12-18T06:35:36Z</time>
      </trkpt>
      <trkpt lat="30.91036000" lon="34.75097000">
        <ele>522.00000</ele>
        <time>2015-12-18T06:35:39Z</time>
      </trkpt>
      <trkpt lat="30.91020000" lon="34.75099000">
        <ele>524.00000</ele>
        <time>2015-12-18T06:35:42Z</time>
      </trkpt>
      <trkpt lat="30.91006000" lon="34.75104000">
        <ele>525.00000</ele>
        <time>2015-12-18T06:35:45Z</time>
      </trkpt>
      <trkpt lat="30.91000000" lon="34.75106000">
        <ele>526.00000</ele>
        <time>2015-12-18T06:35:48Z</time>
      </trkpt>
      <trkpt lat="30.90987000" lon="34.75108000">
        <ele>528.00000</ele>
        <time>2015-12-18T06:35:51Z</time>
      </trkpt>
      <trkpt lat="30.90982000" lon="34.75099000">
        <ele>528.00000</ele>
        <time>2015-12-18T06:35:54Z</time>
      </trkpt>
      <trkpt lat="30.90979000" lon="34.75090000">
        <ele>529.00000</ele>
        <time>2015-12-18T06:35:57Z</time>
      </trkpt>
      <trkpt lat="30.90977000" lon="34.75080000">
        <ele>529.00000</ele>
        <time>2015-12-18T06:36:00Z</time>
      </trkpt>
      <trkpt lat="30.90975000" lon="34.75072000">
        <ele>530.00000</ele>
        <time>2015-12-18T06:36:03Z</time>
      </trkpt>
      <trkpt lat="30.90973000" lon="34.75061000">
        <ele>530.00000</ele>
        <time>2015-12-18T06:36:06Z</time>
      </trkpt>
      <trkpt lat="30.90971000" lon="34.75053000">
        <ele>531.00000</ele>
        <time>2015-12-18T06:36:09Z</time>
      </trkpt>
      <trkpt lat="30.90968000" lon="34.75060000">
        <ele>531.00000</ele>
        <time>2015-12-18T06:36:12Z</time>
      </trkpt>
      <trkpt lat="30.90967000" lon="34.75070000">
        <ele>531.00000</ele>
        <time>2015-12-18T06:36:15Z</time>
      </trkpt>
      <trkpt lat="30.90962000" lon="34.75075000">
        <ele>531.00000</ele>
        <time>2015-12-18T06:36:18Z</time>
      </trkpt>
      <trkpt lat="30.90955000" lon="34.75071000">
        <ele>532.00000</ele>
        <time>2015-12-18T06:36:21Z</time>
      </trkpt>
      <trkpt lat="30.90943000" lon="34.75053000">
        <ele>532.00000</ele>
        <time>2015-12-18T06:36:24Z</time>
      </trkpt>
      <trkpt lat="30.90929000" lon="34.75038000">
        <ele>532.00000</ele>
        <time>2015-12-18T06:36:27Z</time>
      </trkpt>
      <trkpt lat="30.90920000" lon="34.75023000">
        <ele>531.00000</ele>
        <time>2015-12-18T06:36:30Z</time>
      </trkpt>
      <trkpt lat="30.90906000" lon="34.75011000">
        <ele>530.00000</ele>
        <time>2015-12-18T06:36:33Z</time>
      </trkpt>
      <trkpt lat="30.90894000" lon="34.74999000">
        <ele>529.00000</ele>
        <time>2015-12-18T06:36:36Z</time>
      </trkpt>
      <trkpt lat="30.90886000" lon="34.74983000">
        <ele>527.00000</ele>
        <time>2015-12-18T06:36:39Z</time>
      </trkpt>
      <trkpt lat="30.90882000" lon="34.74966000">
        <ele>526.00000</ele>
        <time>2015-12-18T06:36:42Z</time>
      </trkpt>
      <trkpt lat="30.90881000" lon="34.74957000">
        <ele>525.00000</ele>
        <time>2015-12-18T06:36:45Z</time>
      </trkpt>
      <trkpt lat="30.90879000" lon="34.74945000">
        <ele>524.00000</ele>
        <time>2015-12-18T06:36:48Z</time>
      </trkpt>
      <trkpt lat="30.90875000" lon="34.74935000">
        <ele>523.00000</ele>
        <time>2015-12-18T06:36:51Z</time>
      </trkpt>
      <trkpt lat="30.90869000" lon="34.74924000">
        <ele>523.00000</ele>
        <time>2015-12-18T06:36:54Z</time>
      </trkpt>
      <trkpt lat="30.90865000" lon="34.74913000">
        <ele>522.00000</ele>
        <time>2015-12-18T06:36:57Z</time>
      </trkpt>
      <trkpt lat="30.90862000" lon="34.74895000">
        <ele>521.00000</ele>
        <time>2015-12-18T06:37:00Z</time>
      </trkpt>
      <trkpt lat="30.90863000" lon="34.74882000">
        <ele>520.00000</ele>
        <time>2015-12-18T06:37:03Z</time>
      </trkpt>
      <trkpt lat="30.90861000" lon="34.74871000">
        <ele>520.00000</ele>
        <time>2015-12-18T06:37:06Z</time>
      </trkpt>
      <trkpt lat="30.90859000" lon="34.74857000">
        <ele>520.00000</ele>
        <time>2015-12-18T06:37:09Z</time>
      </trkpt>
      <trkpt lat="30.90859000" lon="34.74845000">
        <ele>520.00000</ele>
        <time>2015-12-18T06:37:12Z</time>
      </trkpt>
      <trkpt lat="30.90856000" lon="34.74833000">
        <ele>520.00000</ele>
        <time>2015-12-18T06:37:15Z</time>
      </trkpt>
      <trkpt lat="30.90849000" lon="34.74824000">
        <ele>521.00000</ele>
        <time>2015-12-18T06:37:18Z</time>
      </trkpt>
      <trkpt lat="30.90845000" lon="34.74812000">
        <ele>521.00000</ele>
        <time>2015-12-18T06:37:21Z</time>
      </trkpt>
      <trkpt lat="30.90841000" lon="34.74802000">
        <ele>522.00000</ele>
        <time>2015-12-18T06:37:24Z</time>
      </trkpt>
      <trkpt lat="30.90839000" lon="34.74791000">
        <ele>522.00000</ele>
        <time>2015-12-18T06:37:27Z</time>
      </trkpt>
      <trkpt lat="30.90839000" lon="34.74780000">
        <ele>525.00000</ele>
        <time>2015-12-18T06:37:30Z</time>
      </trkpt>
      <trkpt lat="30.90840000" lon="34.74768000">
        <ele>527.00000</ele>
        <time>2015-12-18T06:37:33Z</time>
      </trkpt>
      <trkpt lat="30.90841000" lon="34.74754000">
        <ele>530.00000</ele>
        <time>2015-12-18T06:37:36Z</time>
      </trkpt>
      <trkpt lat="30.90842000" lon="34.74742000">
        <ele>533.00000</ele>
        <time>2015-12-18T06:37:39Z</time>
      </trkpt>
      <trkpt lat="30.90841000" lon="34.74731000">
        <ele>535.00000</ele>
        <time>2015-12-18T06:37:42Z</time>
      </trkpt>
      <trkpt lat="30.90841000" lon="34.74721000">
        <ele>537.00000</ele>
        <time>2015-12-18T06:37:45Z</time>
      </trkpt>
      <trkpt lat="30.90845000" lon="34.74714000">
        <ele>539.00000</ele>
        <time>2015-12-18T06:37:48Z</time>
      </trkpt>
      <trkpt lat="30.90850000" lon="34.74708000">
        <ele>540.00000</ele>
        <time>2015-12-18T06:37:51Z</time>
      </trkpt>
      <trkpt lat="30.90852000" lon="34.74701000">
        <ele>540.00000</ele>
        <time>2015-12-18T06:37:54Z</time>
      </trkpt>
      <trkpt lat="30.90854000" lon="34.74695000">
        <ele>540.00000</ele>
        <time>2015-12-18T06:37:57Z</time>
      </trkpt>
      <trkpt lat="30.90859000" lon="34.74692000">
        <ele>539.00000</ele>
        <time>2015-12-18T06:38:00Z</time>
      </trkpt>
      <trkpt lat="30.90863000" lon="34.74689000">
        <ele>539.00000</ele>
        <time>2015-12-18T06:38:03Z</time>
      </trkpt>
      <trkpt lat="30.90869000" lon="34.74685000">
        <ele>539.00000</ele>
        <time>2015-12-18T06:38:06Z</time>
      </trkpt>
      <trkpt lat="30.90875000" lon="34.74682000">
        <ele>539.00000</ele>
        <time>2015-12-18T06:38:09Z</time>
      </trkpt>
      <trkpt lat="30.90879000" lon="34.74680000">
        <ele>539.00000</ele>
        <time>2015-12-18T06:38:12Z</time>
      </trkpt>
      <trkpt lat="30.90884000" lon="34.74678000">
        <ele>538.00000</ele>
        <time>2015-12-18T06:38:15Z</time>
      </trkpt>
      <trkpt lat="30.90890000" lon="34.74674000">
        <ele>537.00000</ele>
        <time>2015-12-18T06:38:18Z</time>
      </trkpt>
      <trkpt lat="30.90895000" lon="34.74670000">
        <ele>536.00000</ele>
        <time>2015-12-18T06:38:21Z</time>
      </trkpt>
      <trkpt lat="30.90899000" lon="34.74665000">
        <ele>536.00000</ele>
        <time>2015-12-18T06:38:24Z</time>
      </trkpt>
      <trkpt lat="30.90903000" lon="34.74661000">
        <ele>535.00000</ele>
        <time>2015-12-18T06:38:27Z</time>
      </trkpt>
      <trkpt lat="30.90908000" lon="34.74657000">
        <ele>535.00000</ele>
        <time>2015-12-18T06:38:30Z</time>
      </trkpt>
      <trkpt lat="30.90912000" lon="34.74650000">
        <ele>534.00000</ele>
        <time>2015-12-18T06:38:33Z</time>
      </trkpt>
      <trkpt lat="30.90917000" lon="34.74644000">
        <ele>534.00000</ele>
        <time>2015-12-18T06:38:36Z</time>
      </trkpt>
      <trkpt lat="30.90922000" lon="34.74637000">
        <ele>534.00000</ele>
        <time>2015-12-18T06:38:39Z</time>
      </trkpt>
      <trkpt lat="30.90927000" lon="34.74633000">
        <ele>534.00000</ele>
        <time>2015-12-18T06:38:42Z</time>
      </trkpt>
      <trkpt lat="30.90936000" lon="34.74629000">
        <ele>534.00000</ele>
        <time>2015-12-18T06:38:45Z</time>
      </trkpt>
      <trkpt lat="30.90944000" lon="34.74626000">
        <ele>534.00000</ele>
        <time>2015-12-18T06:38:48Z</time>
      </trkpt>
      <trkpt lat="30.90951000" lon="34.74623000">
        <ele>534.00000</ele>
        <time>2015-12-18T06:38:51Z</time>
      </trkpt>
      <trkpt lat="30.90956000" lon="34.74620000">
        <ele>533.00000</ele>
        <time>2015-12-18T06:38:54Z</time>
      </trkpt>
      <trkpt lat="30.90961000" lon="34.74618000">
        <ele>532.00000</ele>
        <time>2015-12-18T06:38:57Z</time>
      </trkpt>
      <trkpt lat="30.90967000" lon="34.74615000">
        <ele>531.00000</ele>
        <time>2015-12-18T06:39:00Z</time>
      </trkpt>
      <trkpt lat="30.90971000" lon="34.74610000">
        <ele>529.00000</ele>
        <time>2015-12-18T06:39:03Z</time>
      </trkpt>
      <trkpt lat="30.90973000" lon="34.74603000">
        <ele>528.00000</ele>
        <time>2015-12-18T06:39:06Z</time>
      </trkpt>
      <trkpt lat="30.90969000" lon="34.74604000">
        <ele>528.00000</ele>
        <time>2015-12-18T06:39:09Z</time>
      </trkpt>
      <trkpt lat="30.90959000" lon="34.74606000">
        <ele>529.00000</ele>
        <time>2015-12-18T06:39:12Z</time>
      </trkpt>
      <trkpt lat="30.90951000" lon="34.74612000">
        <ele>531.00000</ele>
        <time>2015-12-18T06:39:15Z</time>
      </trkpt>
      <trkpt lat="30.90940000" lon="34.74619000">
        <ele>533.00000</ele>
        <time>2015-12-18T06:39:18Z</time>
      </trkpt>
      <trkpt lat="30.90932000" lon="34.74625000">
        <ele>534.00000</ele>
        <time>2015-12-18T06:39:21Z</time>
      </trkpt>
      <trkpt lat="30.90921000" lon="34.74629000">
        <ele>534.00000</ele>
        <time>2015-12-18T06:39:24Z</time>
      </trkpt>
      <trkpt lat="30.90908000" lon="34.74628000">
        <ele>534.00000</ele>
        <time>2015-12-18T06:39:27Z</time>
      </trkpt>
      <trkpt lat="30.90898000" lon="34.74626000">
        <ele>533.00000</ele>
        <time>2015-12-18T06:39:30Z</time>
      </trkpt>
      <trkpt lat="30.90889000" lon="34.74631000">
        <ele>534.00000</ele>
        <time>2015-12-18T06:39:33Z</time>
      </trkpt>
      <trkpt lat="30.90879000" lon="34.74639000">
        <ele>535.00000</ele>
        <time>2015-12-18T06:39:36Z</time>
      </trkpt>
      <trkpt lat="30.90865000" lon="34.74643000">
        <ele>535.00000</ele>
        <time>2015-12-18T06:39:39Z</time>
      </trkpt>
      <trkpt lat="30.90851000" lon="34.74635000">
        <ele>535.00000</ele>
        <time>2015-12-18T06:39:42Z</time>
      </trkpt>
      <trkpt lat="30.90839000" lon="34.74626000">
        <ele>535.00000</ele>
        <time>2015-12-18T06:39:45Z</time>
      </trkpt>
      <trkpt lat="30.90830000" lon="34.74616000">
        <ele>535.00000</ele>
        <time>2015-12-18T06:39:48Z</time>
      </trkpt>
      <trkpt lat="30.90825000" lon="34.74608000">
        <ele>536.00000</ele>
        <time>2015-12-18T06:39:51Z</time>
      </trkpt>
      <trkpt lat="30.90824000" lon="34.74605000">
        <ele>536.00000</ele>
        <time>2015-12-18T06:39:54Z</time>
      </trkpt>
      <trkpt lat="30.90824000" lon="34.74604000">
        <ele>536.00000</ele>
        <time>2015-12-18T06:40:00Z</time>
      </trkpt>
      <trkpt lat="30.90824000" lon="34.74603000">
        <ele>536.00000</ele>
        <time>2015-12-18T06:40:06Z</time>
      </trkpt>
      <trkpt lat="30.90824000" lon="34.74602000">
        <ele>536.00000</ele>
        <time>2015-12-18T06:40:12Z</time>
      </trkpt>
      <trkpt lat="30.90824000" lon="34.74601000">
        <ele>536.00000</ele>
        <time>2015-12-18T06:40:18Z</time>
      </trkpt>
      <trkpt lat="30.90824000" lon="34.74600000">
        <ele>536.00000</ele>
        <time>2015-12-18T06:40:24Z</time>
      </trkpt>
      <trkpt lat="30.90824000" lon="34.74599000">
        <ele>536.00000</ele>
        <time>2015-12-18T06:40:30Z</time>
      </trkpt>
      <trkpt lat="30.90824000" lon="34.74598000">
        <ele>536.00000</ele>
        <time>2015-12-18T06:40:36Z</time>
      </trkpt>
      <trkpt lat="30.90823000" lon="34.74594000">
        <ele>536.00000</ele>
        <time>2015-12-18T06:40:42Z</time>
      </trkpt>
      <trkpt lat="30.90820000" lon="34.74583000">
        <ele>537.00000</ele>
        <time>2015-12-18T06:40:45Z</time>
      </trkpt>
      <trkpt lat="30.90816000" lon="34.74573000">
        <ele>538.00000</ele>
        <time>2015-12-18T06:40:48Z</time>
      </trkpt>
      <trkpt lat="30.90809000" lon="34.74562000">
        <ele>540.00000</ele>
        <time>2015-12-18T06:40:51Z</time>
      </trkpt>
      <trkpt lat="30.90802000" lon="34.74550000">
        <ele>542.00000</ele>
        <time>2015-12-18T06:40:54Z</time>
      </trkpt>
      <trkpt lat="30.90798000" lon="34.74537000">
        <ele>544.00000</ele>
        <time>2015-12-18T06:40:57Z</time>
      </trkpt>
      <trkpt lat="30.90797000" lon="34.74523000">
        <ele>546.00000</ele>
        <time>2015-12-18T06:41:00Z</time>
      </trkpt>
      <trkpt lat="30.90796000" lon="34.74509000">
        <ele>547.00000</ele>
        <time>2015-12-18T06:41:03Z</time>
      </trkpt>
      <trkpt lat="30.90793000" lon="34.74497000">
        <ele>549.00000</ele>
        <time>2015-12-18T06:41:06Z</time>
      </trkpt>
      <trkpt lat="30.90789000" lon="34.74486000">
        <ele>549.00000</ele>
        <time>2015-12-18T06:41:09Z</time>
      </trkpt>
      <trkpt lat="30.90777000" lon="34.74473000">
        <ele>549.00000</ele>
        <time>2015-12-18T06:41:12Z</time>
      </trkpt>
      <trkpt lat="30.90761000" lon="34.74463000">
        <ele>548.00000</ele>
        <time>2015-12-18T06:41:15Z</time>
      </trkpt>
      <trkpt lat="30.90749000" lon="34.74447000">
        <ele>546.00000</ele>
        <time>2015-12-18T06:41:18Z</time>
      </trkpt>
      <trkpt lat="30.90739000" lon="34.74426000">
        <ele>544.00000</ele>
        <time>2015-12-18T06:41:21Z</time>
      </trkpt>
      <trkpt lat="30.90732000" lon="34.74401000">
        <ele>541.00000</ele>
        <time>2015-12-18T06:41:24Z</time>
      </trkpt>
      <trkpt lat="30.90726000" lon="34.74374000">
        <ele>538.00000</ele>
        <time>2015-12-18T06:41:27Z</time>
      </trkpt>
      <trkpt lat="30.90723000" lon="34.74348000">
        <ele>534.00000</ele>
        <time>2015-12-18T06:41:30Z</time>
      </trkpt>
      <trkpt lat="30.90717000" lon="34.74322000">
        <ele>530.00000</ele>
        <time>2015-12-18T06:41:33Z</time>
      </trkpt>
      <trkpt lat="30.90716000" lon="34.74297000">
        <ele>526.00000</ele>
        <time>2015-12-18T06:41:36Z</time>
      </trkpt>
      <trkpt lat="30.90726000" lon="34.74276000">
        <ele>525.00000</ele>
        <time>2015-12-18T06:41:39Z</time>
      </trkpt>
      <trkpt lat="30.90744000" lon="34.74258000">
        <ele>525.00000</ele>
        <time>2015-12-18T06:41:42Z</time>
      </trkpt>
      <trkpt lat="30.90759000" lon="34.74239000">
        <ele>525.00000</ele>
        <time>2015-12-18T06:41:45Z</time>
      </trkpt>
      <trkpt lat="30.90769000" lon="34.74224000">
        <ele>524.00000</ele>
        <time>2015-12-18T06:41:48Z</time>
      </trkpt>
      <trkpt lat="30.90775000" lon="34.74212000">
        <ele>524.00000</ele>
        <time>2015-12-18T06:41:51Z</time>
      </trkpt>
      <trkpt lat="30.90779000" lon="34.74195000">
        <ele>522.00000</ele>
        <time>2015-12-18T06:41:54Z</time>
      </trkpt>
      <trkpt lat="30.90777000" lon="34.74179000">
        <ele>519.00000</ele>
        <time>2015-12-18T06:41:57Z</time>
      </trkpt>
      <trkpt lat="30.90773000" lon="34.74159000">
        <ele>517.00000</ele>
        <time>2015-12-18T06:42:00Z</time>
      </trkpt>
      <trkpt lat="30.90766000" lon="34.74138000">
        <ele>514.00000</ele>
        <time>2015-12-18T06:42:03Z</time>
      </trkpt>
      <trkpt lat="30.90759000" lon="34.74117000">
        <ele>511.00000</ele>
        <time>2015-12-18T06:42:06Z</time>
      </trkpt>
      <trkpt lat="30.90753000" lon="34.74106000">
        <ele>509.00000</ele>
        <time>2015-12-18T06:42:09Z</time>
      </trkpt>
      <trkpt lat="30.90751000" lon="34.74100000">
        <ele>508.00000</ele>
        <time>2015-12-18T06:42:12Z</time>
      </trkpt>
      <trkpt lat="30.90752000" lon="34.74096000">
        <ele>508.00000</ele>
        <time>2015-12-18T06:42:15Z</time>
      </trkpt>
      <trkpt lat="30.90753000" lon="34.74085000">
        <ele>507.00000</ele>
        <time>2015-12-18T06:42:18Z</time>
      </trkpt>
      <trkpt lat="30.90755000" lon="34.74070000">
        <ele>506.00000</ele>
        <time>2015-12-18T06:42:21Z</time>
      </trkpt>
      <trkpt lat="30.90760000" lon="34.74054000">
        <ele>504.00000</ele>
        <time>2015-12-18T06:42:24Z</time>
      </trkpt>
      <trkpt lat="30.90762000" lon="34.74039000">
        <ele>503.00000</ele>
        <time>2015-12-18T06:42:27Z</time>
      </trkpt>
      <trkpt lat="30.90764000" lon="34.74029000">
        <ele>503.00000</ele>
        <time>2015-12-18T06:42:30Z</time>
      </trkpt>
      <trkpt lat="30.90765000" lon="34.74025000">
        <ele>503.00000</ele>
        <time>2015-12-18T06:42:33Z</time>
      </trkpt>
      <trkpt lat="30.90765000" lon="34.74024000">
        <ele>503.00000</ele>
        <time>2015-12-18T06:42:39Z</time>
      </trkpt>
      <trkpt lat="30.90765000" lon="34.74023000">
        <ele>503.00000</ele>
        <time>2015-12-18T06:42:45Z</time>
      </trkpt>
      <trkpt lat="30.90765000" lon="34.74022000">
        <ele>503.00000</ele>
        <time>2015-12-18T06:42:48Z</time>
      </trkpt>
      <trkpt lat="30.90766000" lon="34.74021000">
        <ele>504.00000</ele>
        <time>2015-12-18T06:42:54Z</time>
      </trkpt>
      <trkpt lat="30.90766000" lon="34.74020000">
        <ele>504.00000</ele>
        <time>2015-12-18T06:43:00Z</time>
      </trkpt>
      <trkpt lat="30.90766000" lon="34.74019000">
        <ele>504.00000</ele>
        <time>2015-12-18T06:43:06Z</time>
      </trkpt>
      <trkpt lat="30.90770000" lon="34.74011000">
        <ele>504.00000</ele>
        <time>2015-12-18T06:43:12Z</time>
      </trkpt>
      <trkpt lat="30.90773000" lon="34.74004000">
        <ele>505.00000</ele>
        <time>2015-12-18T06:43:15Z</time>
      </trkpt>
      <trkpt lat="30.90775000" lon="34.73996000">
        <ele>506.00000</ele>
        <time>2015-12-18T06:43:18Z</time>
      </trkpt>
      <trkpt lat="30.90777000" lon="34.73988000">
        <ele>507.00000</ele>
        <time>2015-12-18T06:43:21Z</time>
      </trkpt>
      <trkpt lat="30.90779000" lon="34.73982000">
        <ele>507.00000</ele>
        <time>2015-12-18T06:43:24Z</time>
      </trkpt>
      <trkpt lat="30.90785000" lon="34.73970000">
        <ele>509.00000</ele>
        <time>2015-12-18T06:43:27Z</time>
      </trkpt>
      <trkpt lat="30.90788000" lon="34.73961000">
        <ele>510.00000</ele>
        <time>2015-12-18T06:43:30Z</time>
      </trkpt>
      <trkpt lat="30.90791000" lon="34.73953000">
        <ele>512.00000</ele>
        <time>2015-12-18T06:43:33Z</time>
      </trkpt>
      <trkpt lat="30.90794000" lon="34.73946000">
        <ele>513.00000</ele>
        <time>2015-12-18T06:43:36Z</time>
      </trkpt>
      <trkpt lat="30.90797000" lon="34.73937000">
        <ele>514.00000</ele>
        <time>2015-12-18T06:43:39Z</time>
      </trkpt>
      <trkpt lat="30.90799000" lon="34.73930000">
        <ele>515.00000</ele>
        <time>2015-12-18T06:43:42Z</time>
      </trkpt>
      <trkpt lat="30.90800000" lon="34.73925000">
        <ele>516.00000</ele>
        <time>2015-12-18T06:43:45Z</time>
      </trkpt>
      <trkpt lat="30.90801000" lon="34.73915000">
        <ele>518.00000</ele>
        <time>2015-12-18T06:43:48Z</time>
      </trkpt>
      <trkpt lat="30.90801000" lon="34.73905000">
        <ele>520.00000</ele>
        <time>2015-12-18T06:43:51Z</time>
      </trkpt>
      <trkpt lat="30.90804000" lon="34.73897000">
        <ele>521.00000</ele>
        <time>2015-12-18T06:43:54Z</time>
      </trkpt>
      <trkpt lat="30.90807000" lon="34.73888000">
        <ele>523.00000</ele>
        <time>2015-12-18T06:43:57Z</time>
      </trkpt>
      <trkpt lat="30.90810000" lon="34.73881000">
        <ele>524.00000</ele>
        <time>2015-12-18T06:44:00Z</time>
      </trkpt>
      <trkpt lat="30.90815000" lon="34.73875000">
        <ele>525.00000</ele>
        <time>2015-12-18T06:44:03Z</time>
      </trkpt>
      <trkpt lat="30.90821000" lon="34.73869000">
        <ele>525.00000</ele>
        <time>2015-12-18T06:44:06Z</time>
      </trkpt>
      <trkpt lat="30.90827000" lon="34.73864000">
        <ele>525.00000</ele>
        <time>2015-12-18T06:44:09Z</time>
      </trkpt>
      <trkpt lat="30.90832000" lon="34.73860000">
        <ele>525.00000</ele>
        <time>2015-12-18T06:44:12Z</time>
      </trkpt>
      <trkpt lat="30.90838000" lon="34.73858000">
        <ele>525.00000</ele>
        <time>2015-12-18T06:44:15Z</time>
      </trkpt>
      <trkpt lat="30.90843000" lon="34.73855000">
        <ele>525.00000</ele>
        <time>2015-12-18T06:44:18Z</time>
      </trkpt>
      <trkpt lat="30.90848000" lon="34.73852000">
        <ele>525.00000</ele>
        <time>2015-12-18T06:44:21Z</time>
      </trkpt>
      <trkpt lat="30.90854000" lon="34.73848000">
        <ele>525.00000</ele>
        <time>2015-12-18T06:44:24Z</time>
      </trkpt>
      <trkpt lat="30.90858000" lon="34.73844000">
        <ele>525.00000</ele>
        <time>2015-12-18T06:44:27Z</time>
      </trkpt>
      <trkpt lat="30.90863000" lon="34.73840000">
        <ele>525.00000</ele>
        <time>2015-12-18T06:44:30Z</time>
      </trkpt>
      <trkpt lat="30.90868000" lon="34.73838000">
        <ele>526.00000</ele>
        <time>2015-12-18T06:44:33Z</time>
      </trkpt>
      <trkpt lat="30.90874000" lon="34.73836000">
        <ele>526.00000</ele>
        <time>2015-12-18T06:44:36Z</time>
      </trkpt>
      <trkpt lat="30.90879000" lon="34.73833000">
        <ele>526.00000</ele>
        <time>2015-12-18T06:44:39Z</time>
      </trkpt>
      <trkpt lat="30.90885000" lon="34.73829000">
        <ele>526.00000</ele>
        <time>2015-12-18T06:44:42Z</time>
      </trkpt>
      <trkpt lat="30.90889000" lon="34.73825000">
        <ele>527.00000</ele>
        <time>2015-12-18T06:44:45Z</time>
      </trkpt>
      <trkpt lat="30.90893000" lon="34.73820000">
        <ele>527.00000</ele>
        <time>2015-12-18T06:44:48Z</time>
      </trkpt>
      <trkpt lat="30.90897000" lon="34.73816000">
        <ele>527.00000</ele>
        <time>2015-12-18T06:44:51Z</time>
      </trkpt>
      <trkpt lat="30.90902000" lon="34.73812000">
        <ele>528.00000</ele>
        <time>2015-12-18T06:44:54Z</time>
      </trkpt>
      <trkpt lat="30.90904000" lon="34.73811000">
        <ele>528.00000</ele>
        <time>2015-12-18T06:44:57Z</time>
      </trkpt>
      <trkpt lat="30.90907000" lon="34.73810000">
        <ele>528.00000</ele>
        <time>2015-12-18T06:45:00Z</time>
      </trkpt>
      <trkpt lat="30.90906000" lon="34.73810000">
        <ele>528.00000</ele>
        <time>2015-12-18T06:45:06Z</time>
      </trkpt>
      <trkpt lat="30.90905000" lon="34.73810000">
        <ele>528.00000</ele>
        <time>2015-12-18T06:45:09Z</time>
      </trkpt>
      <trkpt lat="30.90904000" lon="34.73811000">
        <ele>528.00000</ele>
        <time>2015-12-18T06:45:15Z</time>
      </trkpt>
      <trkpt lat="30.90903000" lon="34.73811000">
        <ele>528.00000</ele>
        <time>2015-12-18T06:45:18Z</time>
      </trkpt>
      <trkpt lat="30.90902000" lon="34.73811000">
        <ele>528.00000</ele>
        <time>2015-12-18T06:45:21Z</time>
      </trkpt>
      <trkpt lat="30.90891000" lon="34.73814000">
        <ele>527.00000</ele>
        <time>2015-12-18T06:45:24Z</time>
      </trkpt>
      <trkpt lat="30.90879000" lon="34.73816000">
        <ele>527.00000</ele>
        <time>2015-12-18T06:45:27Z</time>
      </trkpt>
      <trkpt lat="30.90862000" lon="34.73814000">
        <ele>526.00000</ele>
        <time>2015-12-18T06:45:30Z</time>
      </trkpt>
      <trkpt lat="30.90841000" lon="34.73808000">
        <ele>524.00000</ele>
        <time>2015-12-18T06:45:33Z</time>
      </trkpt>
      <trkpt lat="30.90823000" lon="34.73796000">
        <ele>523.00000</ele>
        <time>2015-12-18T06:45:36Z</time>
      </trkpt>
      <trkpt lat="30.90817000" lon="34.73774000">
        <ele>520.00000</ele>
        <time>2015-12-18T06:45:39Z</time>
      </trkpt>
      <trkpt lat="30.90819000" lon="34.73752000">
        <ele>518.00000</ele>
        <time>2015-12-18T06:45:42Z</time>
      </trkpt>
      <trkpt lat="30.90822000" lon="34.73732000">
        <ele>516.00000</ele>
        <time>2015-12-18T06:45:45Z</time>
      </trkpt>
      <trkpt lat="30.90826000" lon="34.73712000">
        <ele>514.00000</ele>
        <time>2015-12-18T06:45:48Z</time>
      </trkpt>
      <trkpt lat="30.90833000" lon="34.73693000">
        <ele>512.00000</ele>
        <time>2015-12-18T06:45:51Z</time>
      </trkpt>
      <trkpt lat="30.90836000" lon="34.73676000">
        <ele>511.00000</ele>
        <time>2015-12-18T06:45:54Z</time>
      </trkpt>
      <trkpt lat="30.90839000" lon="34.73658000">
        <ele>509.00000</ele>
        <time>2015-12-18T06:45:57Z</time>
      </trkpt>
      <trkpt lat="30.90843000" lon="34.73638000">
        <ele>508.00000</ele>
        <time>2015-12-18T06:46:00Z</time>
      </trkpt>
      <trkpt lat="30.90848000" lon="34.73621000">
        <ele>507.00000</ele>
        <time>2015-12-18T06:46:03Z</time>
      </trkpt>
      <trkpt lat="30.90855000" lon="34.73604000">
        <ele>508.00000</ele>
        <time>2015-12-18T06:46:06Z</time>
      </trkpt>
      <trkpt lat="30.90859000" lon="34.73590000">
        <ele>509.00000</ele>
        <time>2015-12-18T06:46:09Z</time>
      </trkpt>
      <trkpt lat="30.90867000" lon="34.73580000">
        <ele>510.00000</ele>
        <time>2015-12-18T06:46:12Z</time>
      </trkpt>
      <trkpt lat="30.90872000" lon="34.73573000">
        <ele>511.00000</ele>
        <time>2015-12-18T06:46:15Z</time>
      </trkpt>
      <trkpt lat="30.90878000" lon="34.73562000">
        <ele>511.00000</ele>
        <time>2015-12-18T06:46:18Z</time>
      </trkpt>
      <trkpt lat="30.90884000" lon="34.73548000">
        <ele>512.00000</ele>
        <time>2015-12-18T06:46:21Z</time>
      </trkpt>
      <trkpt lat="30.90889000" lon="34.73533000">
        <ele>509.00000</ele>
        <time>2015-12-18T06:46:24Z</time>
      </trkpt>
      <trkpt lat="30.90896000" lon="34.73520000">
        <ele>505.00000</ele>
        <time>2015-12-18T06:46:27Z</time>
      </trkpt>
      <trkpt lat="30.90905000" lon="34.73508000">
        <ele>500.00000</ele>
        <time>2015-12-18T06:46:30Z</time>
      </trkpt>
      <trkpt lat="30.90917000" lon="34.73500000">
        <ele>496.00000</ele>
        <time>2015-12-18T06:46:33Z</time>
      </trkpt>
      <trkpt lat="30.90930000" lon="34.73496000">
        <ele>492.00000</ele>
        <time>2015-12-18T06:46:36Z</time>
      </trkpt>
      <trkpt lat="30.90941000" lon="34.73493000">
        <ele>489.00000</ele>
        <time>2015-12-18T06:46:39Z</time>
      </trkpt>
      <trkpt lat="30.90950000" lon="34.73493000">
        <ele>488.00000</ele>
        <time>2015-12-18T06:46:42Z</time>
      </trkpt>
      <trkpt lat="30.90951000" lon="34.73493000">
        <ele>488.00000</ele>
        <time>2015-12-18T06:46:45Z</time>
      </trkpt>
      <trkpt lat="30.90952000" lon="34.73492000">
        <ele>487.00000</ele>
        <time>2015-12-18T06:46:48Z</time>
      </trkpt>
      <trkpt lat="30.90953000" lon="34.73492000">
        <ele>487.00000</ele>
        <time>2015-12-18T06:46:51Z</time>
      </trkpt>
      <trkpt lat="30.90954000" lon="34.73492000">
        <ele>487.00000</ele>
        <time>2015-12-18T06:46:54Z</time>
      </trkpt>
      <trkpt lat="30.90955000" lon="34.73492000">
        <ele>487.00000</ele>
        <time>2015-12-18T06:46:57Z</time>
      </trkpt>
      <trkpt lat="30.90957000" lon="34.73492000">
        <ele>486.00000</ele>
        <time>2015-12-18T06:47:00Z</time>
      </trkpt>
      <trkpt lat="30.90961000" lon="34.73493000">
        <ele>486.00000</ele>
        <time>2015-12-18T06:47:03Z</time>
      </trkpt>
      <trkpt lat="30.90965000" lon="34.73493000">
        <ele>486.00000</ele>
        <time>2015-12-18T06:47:06Z</time>
      </trkpt>
      <trkpt lat="30.90975000" lon="34.73493000">
        <ele>487.00000</ele>
        <time>2015-12-18T06:47:09Z</time>
      </trkpt>
      <trkpt lat="30.90983000" lon="34.73494000">
        <ele>487.00000</ele>
        <time>2015-12-18T06:47:12Z</time>
      </trkpt>
      <trkpt lat="30.90996000" lon="34.73494000">
        <ele>487.00000</ele>
        <time>2015-12-18T06:47:15Z</time>
      </trkpt>
      <trkpt lat="30.91012000" lon="34.73493000">
        <ele>487.00000</ele>
        <time>2015-12-18T06:47:18Z</time>
      </trkpt>
      <trkpt lat="30.91028000" lon="34.73489000">
        <ele>486.00000</ele>
        <time>2015-12-18T06:47:21Z</time>
      </trkpt>
      <trkpt lat="30.91041000" lon="34.73486000">
        <ele>486.00000</ele>
        <time>2015-12-18T06:47:24Z</time>
      </trkpt>
      <trkpt lat="30.91050000" lon="34.73482000">
        <ele>486.00000</ele>
        <time>2015-12-18T06:47:27Z</time>
      </trkpt>
      <trkpt lat="30.91054000" lon="34.73479000">
        <ele>486.00000</ele>
        <time>2015-12-18T06:47:30Z</time>
      </trkpt>
      <trkpt lat="30.91058000" lon="34.73477000">
        <ele>486.00000</ele>
        <time>2015-12-18T06:47:33Z</time>
      </trkpt>
      <trkpt lat="30.91058000" lon="34.73476000">
        <ele>486.00000</ele>
        <time>2015-12-18T06:47:36Z</time>
      </trkpt>
      <trkpt lat="30.91059000" lon="34.73475000">
        <ele>486.00000</ele>
        <time>2015-12-18T06:47:39Z</time>
      </trkpt>
      <trkpt lat="30.91060000" lon="34.73475000">
        <ele>486.00000</ele>
        <time>2015-12-18T06:47:42Z</time>
      </trkpt>
      <trkpt lat="30.91061000" lon="34.73474000">
        <ele>486.00000</ele>
        <time>2015-12-18T06:47:45Z</time>
      </trkpt>
      <trkpt lat="30.91062000" lon="34.73473000">
        <ele>486.00000</ele>
        <time>2015-12-18T06:47:51Z</time>
      </trkpt>
      <trkpt lat="30.91063000" lon="34.73472000">
        <ele>486.00000</ele>
        <time>2015-12-18T06:47:54Z</time>
      </trkpt>
      <trkpt lat="30.91069000" lon="34.73467000">
        <ele>487.00000</ele>
        <time>2015-12-18T06:47:57Z</time>
      </trkpt>
      <trkpt lat="30.91082000" lon="34.73459000">
        <ele>487.00000</ele>
        <time>2015-12-18T06:48:00Z</time>
      </trkpt>
      <trkpt lat="30.91098000" lon="34.73452000">
        <ele>487.00000</ele>
        <time>2015-12-18T06:48:03Z</time>
      </trkpt>
      <trkpt lat="30.91115000" lon="34.73442000">
        <ele>487.00000</ele>
        <time>2015-12-18T06:48:06Z</time>
      </trkpt>
      <trkpt lat="30.91128000" lon="34.73435000">
        <ele>487.00000</ele>
        <time>2015-12-18T06:48:09Z</time>
      </trkpt>
      <trkpt lat="30.91137000" lon="34.73430000">
        <ele>486.00000</ele>
        <time>2015-12-18T06:48:12Z</time>
      </trkpt>
      <trkpt lat="30.91137000" lon="34.73429000">
        <ele>486.00000</ele>
        <time>2015-12-18T06:48:18Z</time>
      </trkpt>
      <trkpt lat="30.91137000" lon="34.73428000">
        <ele>486.00000</ele>
        <time>2015-12-18T06:48:30Z</time>
      </trkpt>
      <trkpt lat="30.91137000" lon="34.73427000">
        <ele>486.00000</ele>
        <time>2015-12-18T06:48:42Z</time>
      </trkpt>
      <trkpt lat="30.91138000" lon="34.73427000">
        <ele>486.00000</ele>
        <time>2015-12-18T06:48:51Z</time>
      </trkpt>
      <trkpt lat="30.91138000" lon="34.73426000">
        <ele>486.00000</ele>
        <time>2015-12-18T06:48:54Z</time>
      </trkpt>
      <trkpt lat="30.91138000" lon="34.73425000">
        <ele>486.00000</ele>
        <time>2015-12-18T06:49:06Z</time>
      </trkpt>
      <trkpt lat="30.91139000" lon="34.73425000">
        <ele>486.00000</ele>
        <time>2015-12-18T06:49:21Z</time>
      </trkpt>
      <trkpt lat="30.91139000" lon="34.73424000">
        <ele>486.00000</ele>
        <time>2015-12-18T06:49:27Z</time>
      </trkpt>
      <trkpt lat="30.91140000" lon="34.73424000">
        <ele>486.00000</ele>
        <time>2015-12-18T06:49:36Z</time>
      </trkpt>
      <trkpt lat="30.91141000" lon="34.73424000">
        <ele>486.00000</ele>
        <time>2015-12-18T06:49:54Z</time>
      </trkpt>
      <trkpt lat="30.91141000" lon="34.73423000">
        <ele>486.00000</ele>
        <time>2015-12-18T06:49:57Z</time>
      </trkpt>
      <trkpt lat="30.91142000" lon="34.73423000">
        <ele>486.00000</ele>
        <time>2015-12-18T06:50:09Z</time>
      </trkpt>
      <trkpt lat="30.91143000" lon="34.73422000">
        <ele>486.00000</ele>
        <time>2015-12-18T06:50:24Z</time>
      </trkpt>
      <trkpt lat="30.91144000" lon="34.73422000">
        <ele>486.00000</ele>
        <time>2015-12-18T06:50:42Z</time>
      </trkpt>
      <trkpt lat="30.91144000" lon="34.73421000">
        <ele>486.00000</ele>
        <time>2015-12-18T06:50:54Z</time>
      </trkpt>
      <trkpt lat="30.91145000" lon="34.73421000">
        <ele>485.00000</ele>
        <time>2015-12-18T06:50:57Z</time>
      </trkpt>
      <trkpt lat="30.91147000" lon="34.73420000">
        <ele>485.00000</ele>
        <time>2015-12-18T06:51:12Z</time>
      </trkpt>
      <trkpt lat="30.91154000" lon="34.73413000">
        <ele>485.00000</ele>
        <time>2015-12-18T06:51:15Z</time>
      </trkpt>
      <trkpt lat="30.91162000" lon="34.73402000">
        <ele>485.00000</ele>
        <time>2015-12-18T06:51:18Z</time>
      </trkpt>
      <trkpt lat="30.91170000" lon="34.73392000">
        <ele>486.00000</ele>
        <time>2015-12-18T06:51:21Z</time>
      </trkpt>
      <trkpt lat="30.91180000" lon="34.73381000">
        <ele>487.00000</ele>
        <time>2015-12-18T06:51:24Z</time>
      </trkpt>
      <trkpt lat="30.91192000" lon="34.73368000">
        <ele>489.00000</ele>
        <time>2015-12-18T06:51:27Z</time>
      </trkpt>
      <trkpt lat="30.91202000" lon="34.73353000">
        <ele>492.00000</ele>
        <time>2015-12-18T06:51:30Z</time>
      </trkpt>
      <trkpt lat="30.91208000" lon="34.73337000">
        <ele>494.00000</ele>
        <time>2015-12-18T06:51:33Z</time>
      </trkpt>
      <trkpt lat="30.91214000" lon="34.73325000">
        <ele>494.00000</ele>
        <time>2015-12-18T06:51:36Z</time>
      </trkpt>
      <trkpt lat="30.91221000" lon="34.73313000">
        <ele>493.00000</ele>
        <time>2015-12-18T06:51:39Z</time>
      </trkpt>
      <trkpt lat="30.91231000" lon="34.73301000">
        <ele>492.00000</ele>
        <time>2015-12-18T06:51:42Z</time>
      </trkpt>
      <trkpt lat="30.91242000" lon="34.73286000">
        <ele>490.00000</ele>
        <time>2015-12-18T06:51:45Z</time>
      </trkpt>
      <trkpt lat="30.91254000" lon="34.73270000">
        <ele>489.00000</ele>
        <time>2015-12-18T06:51:48Z</time>
      </trkpt>
      <trkpt lat="30.91267000" lon="34.73253000">
        <ele>489.00000</ele>
        <time>2015-12-18T06:51:51Z</time>
      </trkpt>
      <trkpt lat="30.91282000" lon="34.73237000">
        <ele>490.00000</ele>
        <time>2015-12-18T06:51:54Z</time>
      </trkpt>
      <trkpt lat="30.91298000" lon="34.73223000">
        <ele>491.00000</ele>
        <time>2015-12-18T06:51:57Z</time>
      </trkpt>
      <trkpt lat="30.91316000" lon="34.73210000">
        <ele>491.00000</ele>
        <time>2015-12-18T06:52:00Z</time>
      </trkpt>
      <trkpt lat="30.91331000" lon="34.73195000">
        <ele>488.00000</ele>
        <time>2015-12-18T06:52:03Z</time>
      </trkpt>
      <trkpt lat="30.91349000" lon="34.73184000">
        <ele>485.00000</ele>
        <time>2015-12-18T06:52:06Z</time>
      </trkpt>
      <trkpt lat="30.91366000" lon="34.73177000">
        <ele>482.00000</ele>
        <time>2015-12-18T06:52:09Z</time>
      </trkpt>
      <trkpt lat="30.91383000" lon="34.73170000">
        <ele>481.00000</ele>
        <time>2015-12-18T06:52:12Z</time>
      </trkpt>
      <trkpt lat="30.91400000" lon="34.73164000">
        <ele>479.00000</ele>
        <time>2015-12-18T06:52:15Z</time>
      </trkpt>
      <trkpt lat="30.91418000" lon="34.73158000">
        <ele>478.00000</ele>
        <time>2015-12-18T06:52:18Z</time>
      </trkpt>
      <trkpt lat="30.91439000" lon="34.73157000">
        <ele>477.00000</ele>
        <time>2015-12-18T06:52:21Z</time>
      </trkpt>
      <trkpt lat="30.91458000" lon="34.73157000">
        <ele>476.00000</ele>
        <time>2015-12-18T06:52:24Z</time>
      </trkpt>
      <trkpt lat="30.91475000" lon="34.73146000">
        <ele>474.00000</ele>
        <time>2015-12-18T06:52:27Z</time>
      </trkpt>
      <trkpt lat="30.91488000" lon="34.73126000">
        <ele>475.00000</ele>
        <time>2015-12-18T06:52:30Z</time>
      </trkpt>
      <trkpt lat="30.91501000" lon="34.73118000">
        <ele>474.00000</ele>
        <time>2015-12-18T06:52:33Z</time>
      </trkpt>
      <trkpt lat="30.91512000" lon="34.73117000">
        <ele>473.00000</ele>
        <time>2015-12-18T06:52:36Z</time>
      </trkpt>
      <trkpt lat="30.91529000" lon="34.73109000">
        <ele>472.00000</ele>
        <time>2015-12-18T06:52:39Z</time>
      </trkpt>
      <trkpt lat="30.91545000" lon="34.73102000">
        <ele>471.00000</ele>
        <time>2015-12-18T06:52:42Z</time>
      </trkpt>
      <trkpt lat="30.91552000" lon="34.73100000">
        <ele>471.00000</ele>
        <time>2015-12-18T06:52:45Z</time>
      </trkpt>
      <trkpt lat="30.91550000" lon="34.73101000">
        <ele>471.00000</ele>
        <time>2015-12-18T06:52:48Z</time>
      </trkpt>
      <trkpt lat="30.91548000" lon="34.73102000">
        <ele>471.00000</ele>
        <time>2015-12-18T06:52:51Z</time>
      </trkpt>
      <trkpt lat="30.91536000" lon="34.73105000">
        <ele>471.00000</ele>
        <time>2015-12-18T06:52:54Z</time>
      </trkpt>
      <trkpt lat="30.91521000" lon="34.73105000">
        <ele>472.00000</ele>
        <time>2015-12-18T06:52:57Z</time>
      </trkpt>
      <trkpt lat="30.91507000" lon="34.73099000">
        <ele>472.00000</ele>
        <time>2015-12-18T06:53:00Z</time>
      </trkpt>
      <trkpt lat="30.91495000" lon="34.73096000">
        <ele>473.00000</ele>
        <time>2015-12-18T06:53:03Z</time>
      </trkpt>
      <trkpt lat="30.91482000" lon="34.73098000">
        <ele>474.00000</ele>
        <time>2015-12-18T06:53:06Z</time>
      </trkpt>
      <trkpt lat="30.91472000" lon="34.73107000">
        <ele>475.00000</ele>
        <time>2015-12-18T06:53:09Z</time>
      </trkpt>
      <trkpt lat="30.91464000" lon="34.73119000">
        <ele>476.00000</ele>
        <time>2015-12-18T06:53:12Z</time>
      </trkpt>
      <trkpt lat="30.91456000" lon="34.73126000">
        <ele>477.00000</ele>
        <time>2015-12-18T06:53:15Z</time>
      </trkpt>
      <trkpt lat="30.91448000" lon="34.73121000">
        <ele>477.00000</ele>
        <time>2015-12-18T06:53:18Z</time>
      </trkpt>
      <trkpt lat="30.91440000" lon="34.73108000">
        <ele>476.00000</ele>
        <time>2015-12-18T06:53:21Z</time>
      </trkpt>
      <trkpt lat="30.91435000" lon="34.73092000">
        <ele>475.00000</ele>
        <time>2015-12-18T06:53:24Z</time>
      </trkpt>
      <trkpt lat="30.91429000" lon="34.73085000">
        <ele>475.00000</ele>
        <time>2015-12-18T06:53:27Z</time>
      </trkpt>
      <trkpt lat="30.91427000" lon="34.73090000">
        <ele>476.00000</ele>
        <time>2015-12-18T06:53:30Z</time>
      </trkpt>
      <trkpt lat="30.91421000" lon="34.73097000">
        <ele>477.00000</ele>
        <time>2015-12-18T06:53:33Z</time>
      </trkpt>
      <trkpt lat="30.91415000" lon="34.73098000">
        <ele>477.00000</ele>
        <time>2015-12-18T06:53:36Z</time>
      </trkpt>
      <trkpt lat="30.91409000" lon="34.73087000">
        <ele>476.00000</ele>
        <time>2015-12-18T06:53:39Z</time>
      </trkpt>
      <trkpt lat="30.91400000" lon="34.73071000">
        <ele>475.00000</ele>
        <time>2015-12-18T06:53:42Z</time>
      </trkpt>
      <trkpt lat="30.91389000" lon="34.73056000">
        <ele>475.00000</ele>
        <time>2015-12-18T06:53:45Z</time>
      </trkpt>
      <trkpt lat="30.91377000" lon="34.73039000">
        <ele>474.00000</ele>
        <time>2015-12-18T06:53:48Z</time>
      </trkpt>
      <trkpt lat="30.91367000" lon="34.73021000">
        <ele>474.00000</ele>
        <time>2015-12-18T06:53:51Z</time>
      </trkpt>
      <trkpt lat="30.91353000" lon="34.73004000">
        <ele>474.00000</ele>
        <time>2015-12-18T06:53:54Z</time>
      </trkpt>
      <trkpt lat="30.91338000" lon="34.72991000">
        <ele>476.00000</ele>
        <time>2015-12-18T06:53:57Z</time>
      </trkpt>
      <trkpt lat="30.91337000" lon="34.72984000">
        <ele>476.00000</ele>
        <time>2015-12-18T06:54:00Z</time>
      </trkpt>
      <trkpt lat="30.91351000" lon="34.72973000">
        <ele>475.00000</ele>
        <time>2015-12-18T06:54:03Z</time>
      </trkpt>
      <trkpt lat="30.91362000" lon="34.72958000">
        <ele>474.00000</ele>
        <time>2015-12-18T06:54:06Z</time>
      </trkpt>
      <trkpt lat="30.91375000" lon="34.72945000">
        <ele>473.00000</ele>
        <time>2015-12-18T06:54:09Z</time>
      </trkpt>
      <trkpt lat="30.91390000" lon="34.72933000">
        <ele>472.00000</ele>
        <time>2015-12-18T06:54:12Z</time>
      </trkpt>
      <trkpt lat="30.91408000" lon="34.72925000">
        <ele>470.00000</ele>
        <time>2015-12-18T06:54:15Z</time>
      </trkpt>
      <trkpt lat="30.91425000" lon="34.72926000">
        <ele>468.00000</ele>
        <time>2015-12-18T06:54:18Z</time>
      </trkpt>
      <trkpt lat="30.91443000" lon="34.72929000">
        <ele>465.00000</ele>
        <time>2015-12-18T06:54:21Z</time>
      </trkpt>
      <trkpt lat="30.91464000" lon="34.72925000">
        <ele>463.00000</ele>
        <time>2015-12-18T06:54:24Z</time>
      </trkpt>
      <trkpt lat="30.91483000" lon="34.72914000">
        <ele>463.00000</ele>
        <time>2015-12-18T06:54:27Z</time>
      </trkpt>
      <trkpt lat="30.91501000" lon="34.72902000">
        <ele>462.00000</ele>
        <time>2015-12-18T06:54:30Z</time>
      </trkpt>
      <trkpt lat="30.91518000" lon="34.72887000">
        <ele>460.00000</ele>
        <time>2015-12-18T06:54:33Z</time>
      </trkpt>
      <trkpt lat="30.91532000" lon="34.72873000">
        <ele>458.00000</ele>
        <time>2015-12-18T06:54:36Z</time>
      </trkpt>
      <trkpt lat="30.91542000" lon="34.72866000">
        <ele>457.00000</ele>
        <time>2015-12-18T06:54:39Z</time>
      </trkpt>
      <trkpt lat="30.91545000" lon="34.72864000">
        <ele>457.00000</ele>
        <time>2015-12-18T06:54:42Z</time>
      </trkpt>
      <trkpt lat="30.91544000" lon="34.72864000">
        <ele>457.00000</ele>
        <time>2015-12-18T06:54:45Z</time>
      </trkpt>
      <trkpt lat="30.91543000" lon="34.72864000">
        <ele>457.00000</ele>
        <time>2015-12-18T06:56:09Z</time>
      </trkpt>
      <trkpt lat="30.91542000" lon="34.72864000">
        <ele>457.00000</ele>
        <time>2015-12-18T06:57:33Z</time>
      </trkpt>
      <trkpt lat="30.91542000" lon="34.72865000">
        <ele>457.00000</ele>
        <time>2015-12-18T06:58:54Z</time>
      </trkpt>
      <trkpt lat="30.91541000" lon="34.72865000">
        <ele>457.00000</ele>
        <time>2015-12-18T06:58:57Z</time>
      </trkpt>
      <trkpt lat="30.91541000" lon="34.72864000">
        <ele>457.00000</ele>
        <time>2015-12-18T07:00:33Z</time>
      </trkpt>
      <trkpt lat="30.91542000" lon="34.72864000">
        <ele>457.00000</ele>
        <time>2015-12-18T07:01:24Z</time>
      </trkpt>
      <trkpt lat="30.91542000" lon="34.72863000">
        <ele>457.00000</ele>
        <time>2015-12-18T07:02:18Z</time>
      </trkpt>
      <trkpt lat="30.91543000" lon="34.72863000">
        <ele>457.00000</ele>
        <time>2015-12-18T07:02:36Z</time>
      </trkpt>
      <trkpt lat="30.91544000" lon="34.72863000">
        <ele>457.00000</ele>
        <time>2015-12-18T07:03:45Z</time>
      </trkpt>
      <trkpt lat="30.91544000" lon="34.72862000">
        <ele>457.00000</ele>
        <time>2015-12-18T07:04:00Z</time>
      </trkpt>
      <trkpt lat="30.91545000" lon="34.72862000">
        <ele>457.00000</ele>
        <time>2015-12-18T07:04:57Z</time>
      </trkpt>
      <trkpt lat="30.91545000" lon="34.72861000">
        <ele>457.00000</ele>
        <time>2015-12-18T07:05:45Z</time>
      </trkpt>
      <trkpt lat="30.91546000" lon="34.72861000">
        <ele>457.00000</ele>
        <time>2015-12-18T07:06:06Z</time>
      </trkpt>
      <trkpt lat="30.91547000" lon="34.72861000">
        <ele>457.00000</ele>
        <time>2015-12-18T07:07:15Z</time>
      </trkpt>
      <trkpt lat="30.91547000" lon="34.72860000">
        <ele>457.00000</ele>
        <time>2015-12-18T07:07:30Z</time>
      </trkpt>
      <trkpt lat="30.91547000" lon="34.72857000">
        <ele>457.00000</ele>
        <time>2015-12-18T07:07:54Z</time>
      </trkpt>
      <trkpt lat="30.91546000" lon="34.72848000">
        <ele>457.00000</ele>
        <time>2015-12-18T07:07:57Z</time>
      </trkpt>
      <trkpt lat="30.91542000" lon="34.72839000">
        <ele>457.00000</ele>
        <time>2015-12-18T07:08:00Z</time>
      </trkpt>
      <trkpt lat="30.91536000" lon="34.72828000">
        <ele>457.00000</ele>
        <time>2015-12-18T07:08:03Z</time>
      </trkpt>
      <trkpt lat="30.91527000" lon="34.72818000">
        <ele>459.00000</ele>
        <time>2015-12-18T07:08:06Z</time>
      </trkpt>
      <trkpt lat="30.91524000" lon="34.72805000">
        <ele>460.00000</ele>
        <time>2015-12-18T07:08:09Z</time>
      </trkpt>
      <trkpt lat="30.91536000" lon="34.72804000">
        <ele>457.00000</ele>
        <time>2015-12-18T07:08:12Z</time>
      </trkpt>
      <trkpt lat="30.91547000" lon="34.72800000">
        <ele>456.00000</ele>
        <time>2015-12-18T07:08:15Z</time>
      </trkpt>
      <trkpt lat="30.91556000" lon="34.72794000">
        <ele>457.00000</ele>
        <time>2015-12-18T07:08:18Z</time>
      </trkpt>
      <trkpt lat="30.91566000" lon="34.72786000">
        <ele>457.00000</ele>
        <time>2015-12-18T07:08:21Z</time>
      </trkpt>
      <trkpt lat="30.91575000" lon="34.72776000">
        <ele>457.00000</ele>
        <time>2015-12-18T07:08:24Z</time>
      </trkpt>
      <trkpt lat="30.91580000" lon="34.72764000">
        <ele>456.00000</ele>
        <time>2015-12-18T07:08:27Z</time>
      </trkpt>
      <trkpt lat="30.91579000" lon="34.72746000">
        <ele>455.00000</ele>
        <time>2015-12-18T07:08:30Z</time>
      </trkpt>
      <trkpt lat="30.91569000" lon="34.72731000">
        <ele>454.00000</ele>
        <time>2015-12-18T07:08:33Z</time>
      </trkpt>
      <trkpt lat="30.91561000" lon="34.72719000">
        <ele>454.00000</ele>
        <time>2015-12-18T07:08:36Z</time>
      </trkpt>
      <trkpt lat="30.91568000" lon="34.72706000">
        <ele>453.00000</ele>
        <time>2015-12-18T07:08:39Z</time>
      </trkpt>
      <trkpt lat="30.91579000" lon="34.72694000">
        <ele>453.00000</ele>
        <time>2015-12-18T07:08:42Z</time>
      </trkpt>
      <trkpt lat="30.91584000" lon="34.72677000">
        <ele>453.00000</ele>
        <time>2015-12-18T07:08:45Z</time>
      </trkpt>
      <trkpt lat="30.91584000" lon="34.72658000">
        <ele>453.00000</ele>
        <time>2015-12-18T07:08:48Z</time>
      </trkpt>
      <trkpt lat="30.91574000" lon="34.72649000">
        <ele>454.00000</ele>
        <time>2015-12-18T07:08:51Z</time>
      </trkpt>
      <trkpt lat="30.91573000" lon="34.72643000">
        <ele>454.00000</ele>
        <time>2015-12-18T07:08:54Z</time>
      </trkpt>
      <trkpt lat="30.91579000" lon="34.72634000">
        <ele>453.00000</ele>
        <time>2015-12-18T07:08:57Z</time>
      </trkpt>
      <trkpt lat="30.91591000" lon="34.72628000">
        <ele>451.00000</ele>
        <time>2015-12-18T07:09:00Z</time>
      </trkpt>
      <trkpt lat="30.91602000" lon="34.72615000">
        <ele>449.00000</ele>
        <time>2015-12-18T07:09:03Z</time>
      </trkpt>
      <trkpt lat="30.91610000" lon="34.72598000">
        <ele>448.00000</ele>
        <time>2015-12-18T07:09:06Z</time>
      </trkpt>
      <trkpt lat="30.91623000" lon="34.72586000">
        <ele>445.00000</ele>
        <time>2015-12-18T07:09:09Z</time>
      </trkpt>
      <trkpt lat="30.91636000" lon="34.72571000">
        <ele>444.00000</ele>
        <time>2015-12-18T07:09:12Z</time>
      </trkpt>
      <trkpt lat="30.91647000" lon="34.72554000">
        <ele>442.00000</ele>
        <time>2015-12-18T07:09:15Z</time>
      </trkpt>
      <trkpt lat="30.91660000" lon="34.72535000">
        <ele>441.00000</ele>
        <time>2015-12-18T07:09:18Z</time>
      </trkpt>
      <trkpt lat="30.91672000" lon="34.72517000">
        <ele>440.00000</ele>
        <time>2015-12-18T07:09:21Z</time>
      </trkpt>
      <trkpt lat="30.91683000" lon="34.72501000">
        <ele>439.00000</ele>
        <time>2015-12-18T07:09:24Z</time>
      </trkpt>
      <trkpt lat="30.91678000" lon="34.72485000">
        <ele>439.00000</ele>
        <time>2015-12-18T07:09:27Z</time>
      </trkpt>
      <trkpt lat="30.91672000" lon="34.72471000">
        <ele>439.00000</ele>
        <time>2015-12-18T07:09:30Z</time>
      </trkpt>
      <trkpt lat="30.91673000" lon="34.72457000">
        <ele>439.00000</ele>
        <time>2015-12-18T07:09:33Z</time>
      </trkpt>
      <trkpt lat="30.91676000" lon="34.72444000">
        <ele>439.00000</ele>
        <time>2015-12-18T07:09:36Z</time>
      </trkpt>
      <trkpt lat="30.91675000" lon="34.72427000">
        <ele>439.00000</ele>
        <time>2015-12-18T07:09:39Z</time>
      </trkpt>
      <trkpt lat="30.91669000" lon="34.72410000">
        <ele>439.00000</ele>
        <time>2015-12-18T07:09:42Z</time>
      </trkpt>
      <trkpt lat="30.91657000" lon="34.72400000">
        <ele>438.00000</ele>
        <time>2015-12-18T07:09:45Z</time>
      </trkpt>
      <trkpt lat="30.91648000" lon="34.72383000">
        <ele>436.00000</ele>
        <time>2015-12-18T07:09:48Z</time>
      </trkpt>
      <trkpt lat="30.91640000" lon="34.72366000">
        <ele>435.00000</ele>
        <time>2015-12-18T07:09:51Z</time>
      </trkpt>
      <trkpt lat="30.91635000" lon="34.72351000">
        <ele>434.00000</ele>
        <time>2015-12-18T07:09:54Z</time>
      </trkpt>
      <trkpt lat="30.91631000" lon="34.72335000">
        <ele>434.00000</ele>
        <time>2015-12-18T07:09:57Z</time>
      </trkpt>
      <trkpt lat="30.91628000" lon="34.72318000">
        <ele>433.00000</ele>
        <time>2015-12-18T07:10:00Z</time>
      </trkpt>
      <trkpt lat="30.91629000" lon="34.72299000">
        <ele>433.00000</ele>
        <time>2015-12-18T07:10:03Z</time>
      </trkpt>
      <trkpt lat="30.91628000" lon="34.72281000">
        <ele>433.00000</ele>
        <time>2015-12-18T07:10:06Z</time>
      </trkpt>
      <trkpt lat="30.91619000" lon="34.72271000">
        <ele>432.00000</ele>
        <time>2015-12-18T07:10:09Z</time>
      </trkpt>
      <trkpt lat="30.91608000" lon="34.72265000">
        <ele>432.00000</ele>
        <time>2015-12-18T07:10:12Z</time>
      </trkpt>
      <trkpt lat="30.91603000" lon="34.72260000">
        <ele>431.00000</ele>
        <time>2015-12-18T07:10:15Z</time>
      </trkpt>
      <trkpt lat="30.91600000" lon="34.72254000">
        <ele>431.00000</ele>
        <time>2015-12-18T07:10:18Z</time>
      </trkpt>
      <trkpt lat="30.91595000" lon="34.72247000">
        <ele>430.00000</ele>
        <time>2015-12-18T07:10:21Z</time>
      </trkpt>
      <trkpt lat="30.91589000" lon="34.72234000">
        <ele>429.00000</ele>
        <time>2015-12-18T07:10:24Z</time>
      </trkpt>
      <trkpt lat="30.91588000" lon="34.72229000">
        <ele>429.00000</ele>
        <time>2015-12-18T07:10:27Z</time>
      </trkpt>
      <trkpt lat="30.91587000" lon="34.72228000">
        <ele>429.00000</ele>
        <time>2015-12-18T07:10:33Z</time>
      </trkpt>
      <trkpt lat="30.91587000" lon="34.72227000">
        <ele>429.00000</ele>
        <time>2015-12-18T07:10:39Z</time>
      </trkpt>
      <trkpt lat="30.91587000" lon="34.72226000">
        <ele>429.00000</ele>
        <time>2015-12-18T07:10:45Z</time>
      </trkpt>
      <trkpt lat="30.91587000" lon="34.72225000">
        <ele>429.00000</ele>
        <time>2015-12-18T07:10:48Z</time>
      </trkpt>
      <trkpt lat="30.91587000" lon="34.72224000">
        <ele>428.00000</ele>
        <time>2015-12-18T07:10:54Z</time>
      </trkpt>
      <trkpt lat="30.91587000" lon="34.72223000">
        <ele>428.00000</ele>
        <time>2015-12-18T07:11:00Z</time>
      </trkpt>
      <trkpt lat="30.91587000" lon="34.72222000">
        <ele>428.00000</ele>
        <time>2015-12-18T07:11:03Z</time>
      </trkpt>
      <trkpt lat="30.91586000" lon="34.72222000">
        <ele>428.00000</ele>
        <time>2015-12-18T07:11:06Z</time>
      </trkpt>
      <trkpt lat="30.91586000" lon="34.72221000">
        <ele>428.00000</ele>
        <time>2015-12-18T07:11:09Z</time>
      </trkpt>
      <trkpt lat="30.91586000" lon="34.72220000">
        <ele>428.00000</ele>
        <time>2015-12-18T07:11:12Z</time>
      </trkpt>
      <trkpt lat="30.91586000" lon="34.72219000">
        <ele>428.00000</ele>
        <time>2015-12-18T07:11:18Z</time>
      </trkpt>
      <trkpt lat="30.91586000" lon="34.72218000">
        <ele>428.00000</ele>
        <time>2015-12-18T07:11:21Z</time>
      </trkpt>
      <trkpt lat="30.91586000" lon="34.72217000">
        <ele>428.00000</ele>
        <time>2015-12-18T07:11:27Z</time>
      </trkpt>
      <trkpt lat="30.91586000" lon="34.72216000">
        <ele>428.00000</ele>
        <time>2015-12-18T07:11:30Z</time>
      </trkpt>
      <trkpt lat="30.91584000" lon="34.72203000">
        <ele>427.00000</ele>
        <time>2015-12-18T07:11:33Z</time>
      </trkpt>
      <trkpt lat="30.91583000" lon="34.72187000">
        <ele>428.00000</ele>
        <time>2015-12-18T07:11:36Z</time>
      </trkpt>
      <trkpt lat="30.91582000" lon="34.72170000">
        <ele>428.00000</ele>
        <time>2015-12-18T07:11:39Z</time>
      </trkpt>
      <trkpt lat="30.91582000" lon="34.72156000">
        <ele>429.00000</ele>
        <time>2015-12-18T07:11:42Z</time>
      </trkpt>
      <trkpt lat="30.91587000" lon="34.72146000">
        <ele>430.00000</ele>
        <time>2015-12-18T07:11:45Z</time>
      </trkpt>
      <trkpt lat="30.91581000" lon="34.72140000">
        <ele>429.00000</ele>
        <time>2015-12-18T07:11:48Z</time>
      </trkpt>
      <trkpt lat="30.91565000" lon="34.72138000">
        <ele>426.00000</ele>
        <time>2015-12-18T07:11:51Z</time>
      </trkpt>
      <trkpt lat="30.91548000" lon="34.72140000">
        <ele>422.00000</ele>
        <time>2015-12-18T07:11:54Z</time>
      </trkpt>
      <trkpt lat="30.91527000" lon="34.72132000">
        <ele>420.00000</ele>
        <time>2015-12-18T07:11:57Z</time>
      </trkpt>
      <trkpt lat="30.91514000" lon="34.72112000">
        <ele>419.00000</ele>
        <time>2015-12-18T07:12:00Z</time>
      </trkpt>
      <trkpt lat="30.91509000" lon="34.72089000">
        <ele>418.00000</ele>
        <time>2015-12-18T07:12:03Z</time>
      </trkpt>
      <trkpt lat="30.91514000" lon="34.72065000">
        <ele>418.00000</ele>
        <time>2015-12-18T07:12:06Z</time>
      </trkpt>
      <trkpt lat="30.91522000" lon="34.72043000">
        <ele>418.00000</ele>
        <time>2015-12-18T07:12:09Z</time>
      </trkpt>
      <trkpt lat="30.91530000" lon="34.72024000">
        <ele>418.00000</ele>
        <time>2015-12-18T07:12:12Z</time>
      </trkpt>
      <trkpt lat="30.91537000" lon="34.72007000">
        <ele>418.00000</ele>
        <time>2015-12-18T07:12:15Z</time>
      </trkpt>
      <trkpt lat="30.91540000" lon="34.71990000">
        <ele>417.00000</ele>
        <time>2015-12-18T07:12:18Z</time>
      </trkpt>
      <trkpt lat="30.91539000" lon="34.71978000">
        <ele>417.00000</ele>
        <time>2015-12-18T07:12:21Z</time>
      </trkpt>
      <trkpt lat="30.91538000" lon="34.71963000">
        <ele>416.00000</ele>
        <time>2015-12-18T07:12:24Z</time>
      </trkpt>
      <trkpt lat="30.91536000" lon="34.71951000">
        <ele>415.00000</ele>
        <time>2015-12-18T07:12:27Z</time>
      </trkpt>
      <trkpt lat="30.91536000" lon="34.71940000">
        <ele>414.00000</ele>
        <time>2015-12-18T07:12:30Z</time>
      </trkpt>
      <trkpt lat="30.91537000" lon="34.71928000">
        <ele>414.00000</ele>
        <time>2015-12-18T07:12:33Z</time>
      </trkpt>
      <trkpt lat="30.91538000" lon="34.71911000">
        <ele>413.00000</ele>
        <time>2015-12-18T07:12:36Z</time>
      </trkpt>
      <trkpt lat="30.91539000" lon="34.71894000">
        <ele>411.00000</ele>
        <time>2015-12-18T07:12:39Z</time>
      </trkpt>
      <trkpt lat="30.91542000" lon="34.71876000">
        <ele>410.00000</ele>
        <time>2015-12-18T07:12:42Z</time>
      </trkpt>
      <trkpt lat="30.91546000" lon="34.71857000">
        <ele>408.00000</ele>
        <time>2015-12-18T07:12:45Z</time>
      </trkpt>
      <trkpt lat="30.91550000" lon="34.71838000">
        <ele>407.00000</ele>
        <time>2015-12-18T07:12:48Z</time>
      </trkpt>
      <trkpt lat="30.91556000" lon="34.71820000">
        <ele>405.00000</ele>
        <time>2015-12-18T07:12:51Z</time>
      </trkpt>
      <trkpt lat="30.91562000" lon="34.71803000">
        <ele>403.00000</ele>
        <time>2015-12-18T07:12:54Z</time>
      </trkpt>
      <trkpt lat="30.91566000" lon="34.71790000">
        <ele>401.00000</ele>
        <time>2015-12-18T07:12:57Z</time>
      </trkpt>
      <trkpt lat="30.91571000" lon="34.71780000">
        <ele>401.00000</ele>
        <time>2015-12-18T07:13:00Z</time>
      </trkpt>
      <trkpt lat="30.91577000" lon="34.71769000">
        <ele>401.00000</ele>
        <time>2015-12-18T07:13:03Z</time>
      </trkpt>
      <trkpt lat="30.91581000" lon="34.71763000">
        <ele>401.00000</ele>
        <time>2015-12-18T07:13:06Z</time>
      </trkpt>
      <trkpt lat="30.91588000" lon="34.71754000">
        <ele>401.00000</ele>
        <time>2015-12-18T07:13:09Z</time>
      </trkpt>
      <trkpt lat="30.91593000" lon="34.71749000">
        <ele>401.00000</ele>
        <time>2015-12-18T07:13:12Z</time>
      </trkpt>
      <trkpt lat="30.91595000" lon="34.71747000">
        <ele>401.00000</ele>
        <time>2015-12-18T07:13:45Z</time>
      </trkpt>
      <trkpt lat="30.91598000" lon="34.71744000">
        <ele>401.00000</ele>
        <time>2015-12-18T07:20:24Z</time>
      </trkpt>
      <trkpt lat="30.91599000" lon="34.71743000">
        <ele>402.00000</ele>
        <time>2015-12-18T07:20:33Z</time>
      </trkpt>
      <trkpt lat="30.91600000" lon="34.71742000">
        <ele>402.00000</ele>
        <time>2015-12-18T07:20:42Z</time>
      </trkpt>
      <trkpt lat="30.91601000" lon="34.71741000">
        <ele>402.00000</ele>
        <time>2015-12-18T07:20:54Z</time>
      </trkpt>
      <trkpt lat="30.91603000" lon="34.71741000">
        <ele>402.00000</ele>
        <time>2015-12-18T07:21:03Z</time>
      </trkpt>
      <trkpt lat="30.91609000" lon="34.71741000">
        <ele>402.00000</ele>
        <time>2015-12-18T07:21:06Z</time>
      </trkpt>
      <trkpt lat="30.91618000" lon="34.71739000">
        <ele>402.00000</ele>
        <time>2015-12-18T07:21:09Z</time>
      </trkpt>
      <trkpt lat="30.91630000" lon="34.71737000">
        <ele>404.00000</ele>
        <time>2015-12-18T07:21:12Z</time>
      </trkpt>
      <trkpt lat="30.91641000" lon="34.71737000">
        <ele>406.00000</ele>
        <time>2015-12-18T07:21:15Z</time>
      </trkpt>
      <trkpt lat="30.91651000" lon="34.71739000">
        <ele>409.00000</ele>
        <time>2015-12-18T07:21:18Z</time>
      </trkpt>
      <trkpt lat="30.91661000" lon="34.71742000">
        <ele>411.00000</ele>
        <time>2015-12-18T07:21:21Z</time>
      </trkpt>
      <trkpt lat="30.91674000" lon="34.71747000">
        <ele>414.00000</ele>
        <time>2015-12-18T07:21:24Z</time>
      </trkpt>
      <trkpt lat="30.91687000" lon="34.71753000">
        <ele>416.00000</ele>
        <time>2015-12-18T07:21:27Z</time>
      </trkpt>
      <trkpt lat="30.91697000" lon="34.71761000">
        <ele>417.00000</ele>
        <time>2015-12-18T07:21:30Z</time>
      </trkpt>
      <trkpt lat="30.91701000" lon="34.71765000">
        <ele>418.00000</ele>
        <time>2015-12-18T07:21:33Z</time>
      </trkpt>
      <trkpt lat="30.91702000" lon="34.71765000">
        <ele>418.00000</ele>
        <time>2015-12-18T07:22:30Z</time>
      </trkpt>
      <trkpt lat="30.91702000" lon="34.71766000">
        <ele>418.00000</ele>
        <time>2015-12-18T07:22:57Z</time>
      </trkpt>
      <trkpt lat="30.91703000" lon="34.71766000">
        <ele>418.00000</ele>
        <time>2015-12-18T07:23:39Z</time>
      </trkpt>
      <trkpt lat="30.91703000" lon="34.71767000">
        <ele>418.00000</ele>
        <time>2015-12-18T07:24:33Z</time>
      </trkpt>
      <trkpt lat="30.91704000" lon="34.71767000">
        <ele>418.00000</ele>
        <time>2015-12-18T07:24:45Z</time>
      </trkpt>
      <trkpt lat="30.91705000" lon="34.71767000">
        <ele>418.00000</ele>
        <time>2015-12-18T07:25:54Z</time>
      </trkpt>
      <trkpt lat="30.91705000" lon="34.71768000">
        <ele>418.00000</ele>
        <time>2015-12-18T07:26:12Z</time>
      </trkpt>
      <trkpt lat="30.91706000" lon="34.71768000">
        <ele>418.00000</ele>
        <time>2015-12-18T07:27:00Z</time>
      </trkpt>
      <trkpt lat="30.91706000" lon="34.71769000">
        <ele>418.00000</ele>
        <time>2015-12-18T07:27:48Z</time>
      </trkpt>
      <trkpt lat="30.91707000" lon="34.71769000">
        <ele>418.00000</ele>
        <time>2015-12-18T07:28:09Z</time>
      </trkpt>
      <trkpt lat="30.91709000" lon="34.71770000">
        <ele>419.00000</ele>
        <time>2015-12-18T07:28:12Z</time>
      </trkpt>
      <trkpt lat="30.91716000" lon="34.71773000">
        <ele>419.00000</ele>
        <time>2015-12-18T07:28:15Z</time>
      </trkpt>
      <trkpt lat="30.91724000" lon="34.71775000">
        <ele>419.00000</ele>
        <time>2015-12-18T07:28:18Z</time>
      </trkpt>
      <trkpt lat="30.91733000" lon="34.71777000">
        <ele>418.00000</ele>
        <time>2015-12-18T07:28:21Z</time>
      </trkpt>
      <trkpt lat="30.91740000" lon="34.71780000">
        <ele>418.00000</ele>
        <time>2015-12-18T07:28:24Z</time>
      </trkpt>
      <trkpt lat="30.91747000" lon="34.71782000">
        <ele>418.00000</ele>
        <time>2015-12-18T07:28:27Z</time>
      </trkpt>
      <trkpt lat="30.91753000" lon="34.71782000">
        <ele>418.00000</ele>
        <time>2015-12-18T07:28:30Z</time>
      </trkpt>
      <trkpt lat="30.91758000" lon="34.71782000">
        <ele>418.00000</ele>
        <time>2015-12-18T07:28:33Z</time>
      </trkpt>
      <trkpt lat="30.91764000" lon="34.71782000">
        <ele>418.00000</ele>
        <time>2015-12-18T07:28:36Z</time>
      </trkpt>
      <trkpt lat="30.91769000" lon="34.71783000">
        <ele>418.00000</ele>
        <time>2015-12-18T07:28:39Z</time>
      </trkpt>
      <trkpt lat="30.91775000" lon="34.71786000">
        <ele>418.00000</ele>
        <time>2015-12-18T07:28:42Z</time>
      </trkpt>
      <trkpt lat="30.91781000" lon="34.71790000">
        <ele>417.00000</ele>
        <time>2015-12-18T07:28:45Z</time>
      </trkpt>
      <trkpt lat="30.91787000" lon="34.71796000">
        <ele>417.00000</ele>
        <time>2015-12-18T07:28:48Z</time>
      </trkpt>
      <trkpt lat="30.91793000" lon="34.71803000">
        <ele>416.00000</ele>
        <time>2015-12-18T07:28:51Z</time>
      </trkpt>
      <trkpt lat="30.91798000" lon="34.71809000">
        <ele>414.00000</ele>
        <time>2015-12-18T07:28:54Z</time>
      </trkpt>
      <trkpt lat="30.91804000" lon="34.71815000">
        <ele>411.00000</ele>
        <time>2015-12-18T07:28:57Z</time>
      </trkpt>
      <trkpt lat="30.91811000" lon="34.71818000">
        <ele>409.00000</ele>
        <time>2015-12-18T07:29:00Z</time>
      </trkpt>
      <trkpt lat="30.91817000" lon="34.71820000">
        <ele>407.00000</ele>
        <time>2015-12-18T07:29:03Z</time>
      </trkpt>
      <trkpt lat="30.91823000" lon="34.71818000">
        <ele>405.00000</ele>
        <time>2015-12-18T07:29:06Z</time>
      </trkpt>
      <trkpt lat="30.91828000" lon="34.71812000">
        <ele>404.00000</ele>
        <time>2015-12-18T07:29:09Z</time>
      </trkpt>
      <trkpt lat="30.91831000" lon="34.71803000">
        <ele>404.00000</ele>
        <time>2015-12-18T07:29:12Z</time>
      </trkpt>
      <trkpt lat="30.91835000" lon="34.71791000">
        <ele>403.00000</ele>
        <time>2015-12-18T07:29:15Z</time>
      </trkpt>
      <trkpt lat="30.91844000" lon="34.71773000">
        <ele>403.00000</ele>
        <time>2015-12-18T07:29:18Z</time>
      </trkpt>
      <trkpt lat="30.91859000" lon="34.71752000">
        <ele>400.00000</ele>
        <time>2015-12-18T07:29:21Z</time>
      </trkpt>
      <trkpt lat="30.91875000" lon="34.71733000">
        <ele>397.00000</ele>
        <time>2015-12-18T07:29:24Z</time>
      </trkpt>
      <trkpt lat="30.91880000" lon="34.71716000">
        <ele>398.00000</ele>
        <time>2015-12-18T07:29:27Z</time>
      </trkpt>
      <trkpt lat="30.91879000" lon="34.71703000">
        <ele>401.00000</ele>
        <time>2015-12-18T07:29:30Z</time>
      </trkpt>
      <trkpt lat="30.91881000" lon="34.71690000">
        <ele>404.00000</ele>
        <time>2015-12-18T07:29:33Z</time>
      </trkpt>
      <trkpt lat="30.91887000" lon="34.71679000">
        <ele>405.00000</ele>
        <time>2015-12-18T07:29:36Z</time>
      </trkpt>
      <trkpt lat="30.91893000" lon="34.71668000">
        <ele>406.00000</ele>
        <time>2015-12-18T07:29:39Z</time>
      </trkpt>
      <trkpt lat="30.91902000" lon="34.71657000">
        <ele>407.00000</ele>
        <time>2015-12-18T07:29:42Z</time>
      </trkpt>
      <trkpt lat="30.91911000" lon="34.71644000">
        <ele>407.00000</ele>
        <time>2015-12-18T07:29:45Z</time>
      </trkpt>
      <trkpt lat="30.91922000" lon="34.71634000">
        <ele>407.00000</ele>
        <time>2015-12-18T07:29:48Z</time>
      </trkpt>
      <trkpt lat="30.91935000" lon="34.71627000">
        <ele>405.00000</ele>
        <time>2015-12-18T07:29:51Z</time>
      </trkpt>
      <trkpt lat="30.91948000" lon="34.71617000">
        <ele>403.00000</ele>
        <time>2015-12-18T07:29:54Z</time>
      </trkpt>
      <trkpt lat="30.91959000" lon="34.71605000">
        <ele>404.00000</ele>
        <time>2015-12-18T07:29:57Z</time>
      </trkpt>
      <trkpt lat="30.91971000" lon="34.71592000">
        <ele>404.00000</ele>
        <time>2015-12-18T07:30:00Z</time>
      </trkpt>
      <trkpt lat="30.91985000" lon="34.71581000">
        <ele>404.00000</ele>
        <time>2015-12-18T07:30:03Z</time>
      </trkpt>
      <trkpt lat="30.91999000" lon="34.71569000">
        <ele>404.00000</ele>
        <time>2015-12-18T07:30:06Z</time>
      </trkpt>
      <trkpt lat="30.92012000" lon="34.71557000">
        <ele>404.00000</ele>
        <time>2015-12-18T07:30:09Z</time>
      </trkpt>
      <trkpt lat="30.92027000" lon="34.71550000">
        <ele>402.00000</ele>
        <time>2015-12-18T07:30:12Z</time>
      </trkpt>
      <trkpt lat="30.92045000" lon="34.71546000">
        <ele>398.00000</ele>
        <time>2015-12-18T07:30:15Z</time>
      </trkpt>
      <trkpt lat="30.92063000" lon="34.71541000">
        <ele>395.00000</ele>
        <time>2015-12-18T07:30:18Z</time>
      </trkpt>
      <trkpt lat="30.92080000" lon="34.71531000">
        <ele>392.00000</ele>
        <time>2015-12-18T07:30:21Z</time>
      </trkpt>
      <trkpt lat="30.92095000" lon="34.71517000">
        <ele>390.00000</ele>
        <time>2015-12-18T07:30:24Z</time>
      </trkpt>
      <trkpt lat="30.92106000" lon="34.71498000">
        <ele>389.00000</ele>
        <time>2015-12-18T07:30:27Z</time>
      </trkpt>
      <trkpt lat="30.92116000" lon="34.71479000">
        <ele>389.00000</ele>
        <time>2015-12-18T07:30:30Z</time>
      </trkpt>
      <trkpt lat="30.92128000" lon="34.71461000">
        <ele>388.00000</ele>
        <time>2015-12-18T07:30:33Z</time>
      </trkpt>
      <trkpt lat="30.92143000" lon="34.71440000">
        <ele>388.00000</ele>
        <time>2015-12-18T07:30:36Z</time>
      </trkpt>
      <trkpt lat="30.92155000" lon="34.71421000">
        <ele>388.00000</ele>
        <time>2015-12-18T07:30:39Z</time>
      </trkpt>
      <trkpt lat="30.92168000" lon="34.71402000">
        <ele>388.00000</ele>
        <time>2015-12-18T07:30:42Z</time>
      </trkpt>
      <trkpt lat="30.92183000" lon="34.71384000">
        <ele>387.00000</ele>
        <time>2015-12-18T07:30:45Z</time>
      </trkpt>
      <trkpt lat="30.92194000" lon="34.71365000">
        <ele>385.00000</ele>
        <time>2015-12-18T07:30:48Z</time>
      </trkpt>
      <trkpt lat="30.92206000" lon="34.71346000">
        <ele>381.00000</ele>
        <time>2015-12-18T07:30:51Z</time>
      </trkpt>
      <trkpt lat="30.92219000" lon="34.71329000">
        <ele>378.00000</ele>
        <time>2015-12-18T07:30:54Z</time>
      </trkpt>
      <trkpt lat="30.92237000" lon="34.71321000">
        <ele>376.00000</ele>
        <time>2015-12-18T07:30:57Z</time>
      </trkpt>
      <trkpt lat="30.92253000" lon="34.71314000">
        <ele>375.00000</ele>
        <time>2015-12-18T07:31:00Z</time>
      </trkpt>
      <trkpt lat="30.92259000" lon="34.71320000">
        <ele>374.00000</ele>
        <time>2015-12-18T07:31:03Z</time>
      </trkpt>
      <trkpt lat="30.92270000" lon="34.71325000">
        <ele>373.00000</ele>
        <time>2015-12-18T07:31:06Z</time>
      </trkpt>
      <trkpt lat="30.92284000" lon="34.71319000">
        <ele>372.00000</ele>
        <time>2015-12-18T07:31:09Z</time>
      </trkpt>
      <trkpt lat="30.92286000" lon="34.71310000">
        <ele>372.00000</ele>
        <time>2015-12-18T07:31:12Z</time>
      </trkpt>
      <trkpt lat="30.92292000" lon="34.71306000">
        <ele>371.00000</ele>
        <time>2015-12-18T07:31:15Z</time>
      </trkpt>
      <trkpt lat="30.92300000" lon="34.71317000">
        <ele>371.00000</ele>
        <time>2015-12-18T07:31:18Z</time>
      </trkpt>
      <trkpt lat="30.92305000" lon="34.71324000">
        <ele>371.00000</ele>
        <time>2015-12-18T07:31:21Z</time>
      </trkpt>
      <trkpt lat="30.92318000" lon="34.71326000">
        <ele>370.00000</ele>
        <time>2015-12-18T07:31:24Z</time>
      </trkpt>
      <trkpt lat="30.92334000" lon="34.71321000">
        <ele>369.00000</ele>
        <time>2015-12-18T07:31:27Z</time>
      </trkpt>
      <trkpt lat="30.92345000" lon="34.71317000">
        <ele>368.00000</ele>
        <time>2015-12-18T07:31:30Z</time>
      </trkpt>
      <trkpt lat="30.92345000" lon="34.71308000">
        <ele>368.00000</ele>
        <time>2015-12-18T07:31:33Z</time>
      </trkpt>
      <trkpt lat="30.92336000" lon="34.71303000">
        <ele>368.00000</ele>
        <time>2015-12-18T07:31:36Z</time>
      </trkpt>
      <trkpt lat="30.92327000" lon="34.71297000">
        <ele>369.00000</ele>
        <time>2015-12-18T07:31:39Z</time>
      </trkpt>
      <trkpt lat="30.92318000" lon="34.71284000">
        <ele>370.00000</ele>
        <time>2015-12-18T07:31:42Z</time>
      </trkpt>
      <trkpt lat="30.92315000" lon="34.71275000">
        <ele>371.00000</ele>
        <time>2015-12-18T07:31:45Z</time>
      </trkpt>
      <trkpt lat="30.92326000" lon="34.71275000">
        <ele>370.00000</ele>
        <time>2015-12-18T07:31:48Z</time>
      </trkpt>
      <trkpt lat="30.92340000" lon="34.71278000">
        <ele>369.00000</ele>
        <time>2015-12-18T07:31:51Z</time>
      </trkpt>
      <trkpt lat="30.92355000" lon="34.71281000">
        <ele>368.00000</ele>
        <time>2015-12-18T07:31:54Z</time>
      </trkpt>
      <trkpt lat="30.92370000" lon="34.71289000">
        <ele>367.00000</ele>
        <time>2015-12-18T07:31:57Z</time>
      </trkpt>
      <trkpt lat="30.92379000" lon="34.71304000">
        <ele>366.00000</ele>
        <time>2015-12-18T07:32:00Z</time>
      </trkpt>
      <trkpt lat="30.92388000" lon="34.71322000">
        <ele>365.00000</ele>
        <time>2015-12-18T07:32:03Z</time>
      </trkpt>
      <trkpt lat="30.92399000" lon="34.71343000">
        <ele>365.00000</ele>
        <time>2015-12-18T07:32:06Z</time>
      </trkpt>
      <trkpt lat="30.92410000" lon="34.71364000">
        <ele>364.00000</ele>
        <time>2015-12-18T07:32:09Z</time>
      </trkpt>
      <trkpt lat="30.92421000" lon="34.71386000">
        <ele>363.00000</ele>
        <time>2015-12-18T07:32:12Z</time>
      </trkpt>
      <trkpt lat="30.92430000" lon="34.71410000">
        <ele>362.00000</ele>
        <time>2015-12-18T07:32:15Z</time>
      </trkpt>
      <trkpt lat="30.92441000" lon="34.71433000">
        <ele>362.00000</ele>
        <time>2015-12-18T07:32:18Z</time>
      </trkpt>
      <trkpt lat="30.92451000" lon="34.71455000">
        <ele>362.00000</ele>
        <time>2015-12-18T07:32:21Z</time>
      </trkpt>
      <trkpt lat="30.92460000" lon="34.71478000">
        <ele>363.00000</ele>
        <time>2015-12-18T07:32:24Z</time>
      </trkpt>
      <trkpt lat="30.92465000" lon="34.71501000">
        <ele>364.00000</ele>
        <time>2015-12-18T07:32:27Z</time>
      </trkpt>
      <trkpt lat="30.92471000" lon="34.71520000">
        <ele>364.00000</ele>
        <time>2015-12-18T07:32:30Z</time>
      </trkpt>
      <trkpt lat="30.92474000" lon="34.71538000">
        <ele>365.00000</ele>
        <time>2015-12-18T07:32:33Z</time>
      </trkpt>
      <trkpt lat="30.92473000" lon="34.71558000">
        <ele>365.00000</ele>
        <time>2015-12-18T07:32:36Z</time>
      </trkpt>
      <trkpt lat="30.92471000" lon="34.71580000">
        <ele>365.00000</ele>
        <time>2015-12-18T07:32:39Z</time>
      </trkpt>
      <trkpt lat="30.92469000" lon="34.71603000">
        <ele>365.00000</ele>
        <time>2015-12-18T07:32:42Z</time>
      </trkpt>
      <trkpt lat="30.92465000" lon="34.71625000">
        <ele>364.00000</ele>
        <time>2015-12-18T07:32:45Z</time>
      </trkpt>
      <trkpt lat="30.92467000" lon="34.71645000">
        <ele>364.00000</ele>
        <time>2015-12-18T07:32:48Z</time>
      </trkpt>
      <trkpt lat="30.92477000" lon="34.71662000">
        <ele>364.00000</ele>
        <time>2015-12-18T07:32:51Z</time>
      </trkpt>
      <trkpt lat="30.92488000" lon="34.71675000">
        <ele>364.00000</ele>
        <time>2015-12-18T07:32:54Z</time>
      </trkpt>
      <trkpt lat="30.92504000" lon="34.71687000">
        <ele>365.00000</ele>
        <time>2015-12-18T07:32:57Z</time>
      </trkpt>
      <trkpt lat="30.92520000" lon="34.71705000">
        <ele>366.00000</ele>
        <time>2015-12-18T07:33:00Z</time>
      </trkpt>
      <trkpt lat="30.92528000" lon="34.71730000">
        <ele>366.00000</ele>
        <time>2015-12-18T07:33:03Z</time>
      </trkpt>
      <trkpt lat="30.92534000" lon="34.71757000">
        <ele>365.00000</ele>
        <time>2015-12-18T07:33:06Z</time>
      </trkpt>
      <trkpt lat="30.92548000" lon="34.71779000">
        <ele>364.00000</ele>
        <time>2015-12-18T07:33:09Z</time>
      </trkpt>
      <trkpt lat="30.92563000" lon="34.71796000">
        <ele>364.00000</ele>
        <time>2015-12-18T07:33:12Z</time>
      </trkpt>
      <trkpt lat="30.92576000" lon="34.71811000">
        <ele>364.00000</ele>
        <time>2015-12-18T07:33:15Z</time>
      </trkpt>
      <trkpt lat="30.92588000" lon="34.71822000">
        <ele>364.00000</ele>
        <time>2015-12-18T07:33:18Z</time>
      </trkpt>
      <trkpt lat="30.92603000" lon="34.71824000">
        <ele>364.00000</ele>
        <time>2015-12-18T07:33:21Z</time>
      </trkpt>
      <trkpt lat="30.92620000" lon="34.71822000">
        <ele>365.00000</ele>
        <time>2015-12-18T07:33:24Z</time>
      </trkpt>
      <trkpt lat="30.92637000" lon="34.71825000">
        <ele>365.00000</ele>
        <time>2015-12-18T07:33:27Z</time>
      </trkpt>
      <trkpt lat="30.92654000" lon="34.71833000">
        <ele>364.00000</ele>
        <time>2015-12-18T07:33:30Z</time>
      </trkpt>
      <trkpt lat="30.92673000" lon="34.71844000">
        <ele>363.00000</ele>
        <time>2015-12-18T07:33:33Z</time>
      </trkpt>
      <trkpt lat="30.92693000" lon="34.71853000">
        <ele>362.00000</ele>
        <time>2015-12-18T07:33:36Z</time>
      </trkpt>
      <trkpt lat="30.92714000" lon="34.71860000">
        <ele>362.00000</ele>
        <time>2015-12-18T07:33:39Z</time>
      </trkpt>
      <trkpt lat="30.92735000" lon="34.71866000">
        <ele>361.00000</ele>
        <time>2015-12-18T07:33:42Z</time>
      </trkpt>
      <trkpt lat="30.92754000" lon="34.71873000">
        <ele>360.00000</ele>
        <time>2015-12-18T07:33:45Z</time>
      </trkpt>
      <trkpt lat="30.92772000" lon="34.71878000">
        <ele>360.00000</ele>
        <time>2015-12-18T07:33:48Z</time>
      </trkpt>
      <trkpt lat="30.92789000" lon="34.71885000">
        <ele>359.00000</ele>
        <time>2015-12-18T07:33:51Z</time>
      </trkpt>
      <trkpt lat="30.92806000" lon="34.71894000">
        <ele>358.00000</ele>
        <time>2015-12-18T07:33:54Z</time>
      </trkpt>
      <trkpt lat="30.92823000" lon="34.71903000">
        <ele>357.00000</ele>
        <time>2015-12-18T07:33:57Z</time>
      </trkpt>
      <trkpt lat="30.92840000" lon="34.71912000">
        <ele>356.00000</ele>
        <time>2015-12-18T07:34:00Z</time>
      </trkpt>
      <trkpt lat="30.92858000" lon="34.71920000">
        <ele>356.00000</ele>
        <time>2015-12-18T07:34:03Z</time>
      </trkpt>
      <trkpt lat="30.92878000" lon="34.71937000">
        <ele>355.00000</ele>
        <time>2015-12-18T07:34:06Z</time>
      </trkpt>
      <trkpt lat="30.92898000" lon="34.71954000">
        <ele>355.00000</ele>
        <time>2015-12-18T07:34:09Z</time>
      </trkpt>
      <trkpt lat="30.92912000" lon="34.71974000">
        <ele>355.00000</ele>
        <time>2015-12-18T07:34:12Z</time>
      </trkpt>
      <trkpt lat="30.92925000" lon="34.71978000">
        <ele>355.00000</ele>
        <time>2015-12-18T07:34:15Z</time>
      </trkpt>
      <trkpt lat="30.92939000" lon="34.71976000">
        <ele>355.00000</ele>
        <time>2015-12-18T07:34:18Z</time>
      </trkpt>
      <trkpt lat="30.92945000" lon="34.71970000">
        <ele>354.00000</ele>
        <time>2015-12-18T07:34:21Z</time>
      </trkpt>
      <trkpt lat="30.92952000" lon="34.71960000">
        <ele>354.00000</ele>
        <time>2015-12-18T07:34:24Z</time>
      </trkpt>
      <trkpt lat="30.92965000" lon="34.71954000">
        <ele>354.00000</ele>
        <time>2015-12-18T07:34:27Z</time>
      </trkpt>
      <trkpt lat="30.92980000" lon="34.71952000">
        <ele>355.00000</ele>
        <time>2015-12-18T07:34:30Z</time>
      </trkpt>
      <trkpt lat="30.92993000" lon="34.71944000">
        <ele>355.00000</ele>
        <time>2015-12-18T07:34:33Z</time>
      </trkpt>
      <trkpt lat="30.93005000" lon="34.71936000">
        <ele>356.00000</ele>
        <time>2015-12-18T07:34:36Z</time>
      </trkpt>
      <trkpt lat="30.93016000" lon="34.71940000">
        <ele>356.00000</ele>
        <time>2015-12-18T07:34:39Z</time>
      </trkpt>
      <trkpt lat="30.93025000" lon="34.71951000">
        <ele>357.00000</ele>
        <time>2015-12-18T07:34:42Z</time>
      </trkpt>
      <trkpt lat="30.93033000" lon="34.71964000">
        <ele>358.00000</ele>
        <time>2015-12-18T07:34:45Z</time>
      </trkpt>
      <trkpt lat="30.93039000" lon="34.71977000">
        <ele>358.00000</ele>
        <time>2015-12-18T07:34:48Z</time>
      </trkpt>
      <trkpt lat="30.93047000" lon="34.71989000">
        <ele>358.00000</ele>
        <time>2015-12-18T07:34:51Z</time>
      </trkpt>
      <trkpt lat="30.93055000" lon="34.72001000">
        <ele>359.00000</ele>
        <time>2015-12-18T07:34:54Z</time>
      </trkpt>
      <trkpt lat="30.93063000" lon="34.72014000">
        <ele>359.00000</ele>
        <time>2015-12-18T07:34:57Z</time>
      </trkpt>
      <trkpt lat="30.93068000" lon="34.72029000">
        <ele>359.00000</ele>
        <time>2015-12-18T07:35:00Z</time>
      </trkpt>
      <trkpt lat="30.93070000" lon="34.72045000">
        <ele>360.00000</ele>
        <time>2015-12-18T07:35:03Z</time>
      </trkpt>
      <trkpt lat="30.93070000" lon="34.72059000">
        <ele>360.00000</ele>
        <time>2015-12-18T07:35:06Z</time>
      </trkpt>
      <trkpt lat="30.93070000" lon="34.72073000">
        <ele>360.00000</ele>
        <time>2015-12-18T07:35:09Z</time>
      </trkpt>
      <trkpt lat="30.93068000" lon="34.72085000">
        <ele>360.00000</ele>
        <time>2015-12-18T07:35:12Z</time>
      </trkpt>
      <trkpt lat="30.93066000" lon="34.72100000">
        <ele>360.00000</ele>
        <time>2015-12-18T07:35:15Z</time>
      </trkpt>
      <trkpt lat="30.93065000" lon="34.72113000">
        <ele>360.00000</ele>
        <time>2015-12-18T07:35:18Z</time>
      </trkpt>
      <trkpt lat="30.93065000" lon="34.72127000">
        <ele>360.00000</ele>
        <time>2015-12-18T07:35:21Z</time>
      </trkpt>
      <trkpt lat="30.93064000" lon="34.72142000">
        <ele>361.00000</ele>
        <time>2015-12-18T07:35:24Z</time>
      </trkpt>
      <trkpt lat="30.93066000" lon="34.72159000">
        <ele>362.00000</ele>
        <time>2015-12-18T07:35:27Z</time>
      </trkpt>
      <trkpt lat="30.93070000" lon="34.72176000">
        <ele>363.00000</ele>
        <time>2015-12-18T07:35:30Z</time>
      </trkpt>
      <trkpt lat="30.93075000" lon="34.72194000">
        <ele>364.00000</ele>
        <time>2015-12-18T07:35:33Z</time>
      </trkpt>
      <trkpt lat="30.93079000" lon="34.72213000">
        <ele>365.00000</ele>
        <time>2015-12-18T07:35:36Z</time>
      </trkpt>
      <trkpt lat="30.93081000" lon="34.72230000">
        <ele>365.00000</ele>
        <time>2015-12-18T07:35:39Z</time>
      </trkpt>
      <trkpt lat="30.93082000" lon="34.72248000">
        <ele>365.00000</ele>
        <time>2015-12-18T07:35:42Z</time>
      </trkpt>
      <trkpt lat="30.93077000" lon="34.72264000">
        <ele>365.00000</ele>
        <time>2015-12-18T07:35:45Z</time>
      </trkpt>
      <trkpt lat="30.93069000" lon="34.72277000">
        <ele>364.00000</ele>
        <time>2015-12-18T07:35:48Z</time>
      </trkpt>
      <trkpt lat="30.93060000" lon="34.72290000">
        <ele>364.00000</ele>
        <time>2015-12-18T07:35:51Z</time>
      </trkpt>
      <trkpt lat="30.93056000" lon="34.72306000">
        <ele>364.00000</ele>
        <time>2015-12-18T07:35:54Z</time>
      </trkpt>
      <trkpt lat="30.93053000" lon="34.72321000">
        <ele>364.00000</ele>
        <time>2015-12-18T07:35:57Z</time>
      </trkpt>
      <trkpt lat="30.93050000" lon="34.72334000">
        <ele>364.00000</ele>
        <time>2015-12-18T07:36:00Z</time>
      </trkpt>
      <trkpt lat="30.93047000" lon="34.72347000">
        <ele>364.00000</ele>
        <time>2015-12-18T07:36:03Z</time>
      </trkpt>
      <trkpt lat="30.93043000" lon="34.72361000">
        <ele>364.00000</ele>
        <time>2015-12-18T07:36:06Z</time>
      </trkpt>
      <trkpt lat="30.93037000" lon="34.72376000">
        <ele>364.00000</ele>
        <time>2015-12-18T07:36:09Z</time>
      </trkpt>
      <trkpt lat="30.93029000" lon="34.72391000">
        <ele>365.00000</ele>
        <time>2015-12-18T07:36:12Z</time>
      </trkpt>
      <trkpt lat="30.93019000" lon="34.72405000">
        <ele>366.00000</ele>
        <time>2015-12-18T07:36:15Z</time>
      </trkpt>
      <trkpt lat="30.93007000" lon="34.72417000">
        <ele>367.00000</ele>
        <time>2015-12-18T07:36:18Z</time>
      </trkpt>
      <trkpt lat="30.92997000" lon="34.72429000">
        <ele>367.00000</ele>
        <time>2015-12-18T07:36:21Z</time>
      </trkpt>
      <trkpt lat="30.92987000" lon="34.72442000">
        <ele>368.00000</ele>
        <time>2015-12-18T07:36:24Z</time>
      </trkpt>
      <trkpt lat="30.92979000" lon="34.72457000">
        <ele>368.00000</ele>
        <time>2015-12-18T07:36:27Z</time>
      </trkpt>
      <trkpt lat="30.92972000" lon="34.72473000">
        <ele>367.00000</ele>
        <time>2015-12-18T07:36:30Z</time>
      </trkpt>
      <trkpt lat="30.92965000" lon="34.72488000">
        <ele>367.00000</ele>
        <time>2015-12-18T07:36:33Z</time>
      </trkpt>
      <trkpt lat="30.92957000" lon="34.72503000">
        <ele>367.00000</ele>
        <time>2015-12-18T07:36:36Z</time>
      </trkpt>
      <trkpt lat="30.92951000" lon="34.72516000">
        <ele>367.00000</ele>
        <time>2015-12-18T07:36:39Z</time>
      </trkpt>
      <trkpt lat="30.92945000" lon="34.72530000">
        <ele>367.00000</ele>
        <time>2015-12-18T07:36:42Z</time>
      </trkpt>
      <trkpt lat="30.92937000" lon="34.72536000">
        <ele>368.00000</ele>
        <time>2015-12-18T07:36:45Z</time>
      </trkpt>
      <trkpt lat="30.92928000" lon="34.72542000">
        <ele>368.00000</ele>
        <time>2015-12-18T07:36:48Z</time>
      </trkpt>
      <trkpt lat="30.92917000" lon="34.72543000">
        <ele>369.00000</ele>
        <time>2015-12-18T07:36:51Z</time>
      </trkpt>
      <trkpt lat="30.92908000" lon="34.72548000">
        <ele>369.00000</ele>
        <time>2015-12-18T07:36:54Z</time>
      </trkpt>
      <trkpt lat="30.92899000" lon="34.72556000">
        <ele>370.00000</ele>
        <time>2015-12-18T07:36:57Z</time>
      </trkpt>
      <trkpt lat="30.92894000" lon="34.72566000">
        <ele>370.00000</ele>
        <time>2015-12-18T07:37:00Z</time>
      </trkpt>
      <trkpt lat="30.92889000" lon="34.72575000">
        <ele>370.00000</ele>
        <time>2015-12-18T07:37:03Z</time>
      </trkpt>
      <trkpt lat="30.92885000" lon="34.72584000">
        <ele>371.00000</ele>
        <time>2015-12-18T07:37:06Z</time>
      </trkpt>
      <trkpt lat="30.92878000" lon="34.72589000">
        <ele>371.00000</ele>
        <time>2015-12-18T07:37:09Z</time>
      </trkpt>
      <trkpt lat="30.92870000" lon="34.72583000">
        <ele>372.00000</ele>
        <time>2015-12-18T07:37:12Z</time>
      </trkpt>
      <trkpt lat="30.92866000" lon="34.72574000">
        <ele>373.00000</ele>
        <time>2015-12-18T07:37:15Z</time>
      </trkpt>
      <trkpt lat="30.92865000" lon="34.72566000">
        <ele>373.00000</ele>
        <time>2015-12-18T07:37:18Z</time>
      </trkpt>
      <trkpt lat="30.92865000" lon="34.72558000">
        <ele>373.00000</ele>
        <time>2015-12-18T07:37:21Z</time>
      </trkpt>
      <trkpt lat="30.92866000" lon="34.72549000">
        <ele>373.00000</ele>
        <time>2015-12-18T07:37:24Z</time>
      </trkpt>
      <trkpt lat="30.92869000" lon="34.72541000">
        <ele>372.00000</ele>
        <time>2015-12-18T07:37:27Z</time>
      </trkpt>
      <trkpt lat="30.92869000" lon="34.72533000">
        <ele>373.00000</ele>
        <time>2015-12-18T07:37:30Z</time>
      </trkpt>
      <trkpt lat="30.92869000" lon="34.72524000">
        <ele>374.00000</ele>
        <time>2015-12-18T07:37:33Z</time>
      </trkpt>
      <trkpt lat="30.92869000" lon="34.72513000">
        <ele>374.00000</ele>
        <time>2015-12-18T07:37:36Z</time>
      </trkpt>
      <trkpt lat="30.92870000" lon="34.72502000">
        <ele>375.00000</ele>
        <time>2015-12-18T07:37:39Z</time>
      </trkpt>
      <trkpt lat="30.92870000" lon="34.72490000">
        <ele>376.00000</ele>
        <time>2015-12-18T07:37:42Z</time>
      </trkpt>
      <trkpt lat="30.92871000" lon="34.72478000">
        <ele>376.00000</ele>
        <time>2015-12-18T07:37:45Z</time>
      </trkpt>
      <trkpt lat="30.92872000" lon="34.72467000">
        <ele>377.00000</ele>
        <time>2015-12-18T07:37:48Z</time>
      </trkpt>
      <trkpt lat="30.92877000" lon="34.72456000">
        <ele>377.00000</ele>
        <time>2015-12-18T07:37:51Z</time>
      </trkpt>
      <trkpt lat="30.92881000" lon="34.72443000">
        <ele>377.00000</ele>
        <time>2015-12-18T07:37:54Z</time>
      </trkpt>
      <trkpt lat="30.92885000" lon="34.72429000">
        <ele>377.00000</ele>
        <time>2015-12-18T07:37:57Z</time>
      </trkpt>
      <trkpt lat="30.92888000" lon="34.72418000">
        <ele>377.00000</ele>
        <time>2015-12-18T07:38:00Z</time>
      </trkpt>
      <trkpt lat="30.92892000" lon="34.72407000">
        <ele>377.00000</ele>
        <time>2015-12-18T07:38:03Z</time>
      </trkpt>
      <trkpt lat="30.92896000" lon="34.72398000">
        <ele>377.00000</ele>
        <time>2015-12-18T07:38:06Z</time>
      </trkpt>
      <trkpt lat="30.92900000" lon="34.72390000">
        <ele>377.00000</ele>
        <time>2015-12-18T07:38:09Z</time>
      </trkpt>
      <trkpt lat="30.92904000" lon="34.72385000">
        <ele>377.00000</ele>
        <time>2015-12-18T07:38:12Z</time>
      </trkpt>
      <trkpt lat="30.92912000" lon="34.72380000">
        <ele>376.00000</ele>
        <time>2015-12-18T07:38:15Z</time>
      </trkpt>
      <trkpt lat="30.92922000" lon="34.72373000">
        <ele>375.00000</ele>
        <time>2015-12-18T07:38:18Z</time>
      </trkpt>
      <trkpt lat="30.92932000" lon="34.72368000">
        <ele>373.00000</ele>
        <time>2015-12-18T07:38:21Z</time>
      </trkpt>
      <trkpt lat="30.92940000" lon="34.72365000">
        <ele>372.00000</ele>
        <time>2015-12-18T07:38:24Z</time>
      </trkpt>
      <trkpt lat="30.92948000" lon="34.72363000">
        <ele>372.00000</ele>
        <time>2015-12-18T07:38:27Z</time>
      </trkpt>
      <trkpt lat="30.92955000" lon="34.72361000">
        <ele>371.00000</ele>
        <time>2015-12-18T07:38:30Z</time>
      </trkpt>
      <trkpt lat="30.92962000" lon="34.72357000">
        <ele>370.00000</ele>
        <time>2015-12-18T07:38:33Z</time>
      </trkpt>
      <trkpt lat="30.92967000" lon="34.72347000">
        <ele>369.00000</ele>
        <time>2015-12-18T07:38:36Z</time>
      </trkpt>
      <trkpt lat="30.92967000" lon="34.72335000">
        <ele>369.00000</ele>
        <time>2015-12-18T07:38:39Z</time>
      </trkpt>
      <trkpt lat="30.92961000" lon="34.72332000">
        <ele>369.00000</ele>
        <time>2015-12-18T07:38:42Z</time>
      </trkpt>
      <trkpt lat="30.92954000" lon="34.72331000">
        <ele>369.00000</ele>
        <time>2015-12-18T07:38:45Z</time>
      </trkpt>
      <trkpt lat="30.92945000" lon="34.72335000">
        <ele>370.00000</ele>
        <time>2015-12-18T07:38:48Z</time>
      </trkpt>
      <trkpt lat="30.92937000" lon="34.72340000">
        <ele>371.00000</ele>
        <time>2015-12-18T07:38:51Z</time>
      </trkpt>
      <trkpt lat="30.92928000" lon="34.72348000">
        <ele>373.00000</ele>
        <time>2015-12-18T07:38:54Z</time>
      </trkpt>
      <trkpt lat="30.92919000" lon="34.72354000">
        <ele>374.00000</ele>
        <time>2015-12-18T07:38:57Z</time>
      </trkpt>
      <trkpt lat="30.92910000" lon="34.72357000">
        <ele>375.00000</ele>
        <time>2015-12-18T07:39:00Z</time>
      </trkpt>
      <trkpt lat="30.92902000" lon="34.72359000">
        <ele>376.00000</ele>
        <time>2015-12-18T07:39:03Z</time>
      </trkpt>
      <trkpt lat="30.92894000" lon="34.72362000">
        <ele>377.00000</ele>
        <time>2015-12-18T07:39:06Z</time>
      </trkpt>
      <trkpt lat="30.92887000" lon="34.72365000">
        <ele>378.00000</ele>
        <time>2015-12-18T07:39:09Z</time>
      </trkpt>
      <trkpt lat="30.92882000" lon="34.72371000">
        <ele>379.00000</ele>
        <time>2015-12-18T07:39:12Z</time>
      </trkpt>
      <trkpt lat="30.92876000" lon="34.72379000">
        <ele>380.00000</ele>
        <time>2015-12-18T07:39:15Z</time>
      </trkpt>
      <trkpt lat="30.92869000" lon="34.72387000">
        <ele>380.00000</ele>
        <time>2015-12-18T07:39:18Z</time>
      </trkpt>
      <trkpt lat="30.92863000" lon="34.72394000">
        <ele>380.00000</ele>
        <time>2015-12-18T07:39:21Z</time>
      </trkpt>
      <trkpt lat="30.92858000" lon="34.72399000">
        <ele>380.00000</ele>
        <time>2015-12-18T07:39:24Z</time>
      </trkpt>
      <trkpt lat="30.92853000" lon="34.72404000">
        <ele>381.00000</ele>
        <time>2015-12-18T07:39:27Z</time>
      </trkpt>
      <trkpt lat="30.92850000" lon="34.72410000">
        <ele>381.00000</ele>
        <time>2015-12-18T07:39:30Z</time>
      </trkpt>
      <trkpt lat="30.92846000" lon="34.72417000">
        <ele>381.00000</ele>
        <time>2015-12-18T07:39:33Z</time>
      </trkpt>
      <trkpt lat="30.92842000" lon="34.72422000">
        <ele>382.00000</ele>
        <time>2015-12-18T07:39:36Z</time>
      </trkpt>
      <trkpt lat="30.92838000" lon="34.72428000">
        <ele>383.00000</ele>
        <time>2015-12-18T07:39:39Z</time>
      </trkpt>
      <trkpt lat="30.92835000" lon="34.72433000">
        <ele>383.00000</ele>
        <time>2015-12-18T07:39:42Z</time>
      </trkpt>
      <trkpt lat="30.92830000" lon="34.72438000">
        <ele>384.00000</ele>
        <time>2015-12-18T07:39:45Z</time>
      </trkpt>
      <trkpt lat="30.92827000" lon="34.72443000">
        <ele>385.00000</ele>
        <time>2015-12-18T07:39:48Z</time>
      </trkpt>
      <trkpt lat="30.92824000" lon="34.72448000">
        <ele>386.00000</ele>
        <time>2015-12-18T07:39:51Z</time>
      </trkpt>
      <trkpt lat="30.92821000" lon="34.72454000">
        <ele>386.00000</ele>
        <time>2015-12-18T07:39:54Z</time>
      </trkpt>
      <trkpt lat="30.92818000" lon="34.72459000">
        <ele>387.00000</ele>
        <time>2015-12-18T07:39:57Z</time>
      </trkpt>
      <trkpt lat="30.92816000" lon="34.72465000">
        <ele>387.00000</ele>
        <time>2015-12-18T07:40:00Z</time>
      </trkpt>
      <trkpt lat="30.92814000" lon="34.72471000">
        <ele>387.00000</ele>
        <time>2015-12-18T07:40:03Z</time>
      </trkpt>
      <trkpt lat="30.92812000" lon="34.72478000">
        <ele>388.00000</ele>
        <time>2015-12-18T07:40:06Z</time>
      </trkpt>
      <trkpt lat="30.92809000" lon="34.72484000">
        <ele>388.00000</ele>
        <time>2015-12-18T07:40:09Z</time>
      </trkpt>
      <trkpt lat="30.92807000" lon="34.72491000">
        <ele>388.00000</ele>
        <time>2015-12-18T07:40:12Z</time>
      </trkpt>
      <trkpt lat="30.92805000" lon="34.72500000">
        <ele>388.00000</ele>
        <time>2015-12-18T07:40:15Z</time>
      </trkpt>
      <trkpt lat="30.92803000" lon="34.72508000">
        <ele>388.00000</ele>
        <time>2015-12-18T07:40:18Z</time>
      </trkpt>
      <trkpt lat="30.92800000" lon="34.72516000">
        <ele>388.00000</ele>
        <time>2015-12-18T07:40:21Z</time>
      </trkpt>
      <trkpt lat="30.92797000" lon="34.72525000">
        <ele>388.00000</ele>
        <time>2015-12-18T07:40:24Z</time>
      </trkpt>
      <trkpt lat="30.92795000" lon="34.72534000">
        <ele>389.00000</ele>
        <time>2015-12-18T07:40:27Z</time>
      </trkpt>
      <trkpt lat="30.92793000" lon="34.72542000">
        <ele>389.00000</ele>
        <time>2015-12-18T07:40:30Z</time>
      </trkpt>
      <trkpt lat="30.92791000" lon="34.72550000">
        <ele>389.00000</ele>
        <time>2015-12-18T07:40:33Z</time>
      </trkpt>
      <trkpt lat="30.92788000" lon="34.72558000">
        <ele>389.00000</ele>
        <time>2015-12-18T07:40:36Z</time>
      </trkpt>
      <trkpt lat="30.92785000" lon="34.72565000">
        <ele>389.00000</ele>
        <time>2015-12-18T07:40:39Z</time>
      </trkpt>
      <trkpt lat="30.92782000" lon="34.72573000">
        <ele>389.00000</ele>
        <time>2015-12-18T07:40:42Z</time>
      </trkpt>
      <trkpt lat="30.92780000" lon="34.72582000">
        <ele>389.00000</ele>
        <time>2015-12-18T07:40:45Z</time>
      </trkpt>
      <trkpt lat="30.92776000" lon="34.72589000">
        <ele>390.00000</ele>
        <time>2015-12-18T07:40:48Z</time>
      </trkpt>
      <trkpt lat="30.92771000" lon="34.72594000">
        <ele>391.00000</ele>
        <time>2015-12-18T07:40:51Z</time>
      </trkpt>
      <trkpt lat="30.92765000" lon="34.72598000">
        <ele>392.00000</ele>
        <time>2015-12-18T07:40:54Z</time>
      </trkpt>
      <trkpt lat="30.92759000" lon="34.72602000">
        <ele>394.00000</ele>
        <time>2015-12-18T07:40:57Z</time>
      </trkpt>
      <trkpt lat="30.92753000" lon="34.72606000">
        <ele>395.00000</ele>
        <time>2015-12-18T07:41:00Z</time>
      </trkpt>
      <trkpt lat="30.92748000" lon="34.72610000">
        <ele>397.00000</ele>
        <time>2015-12-18T07:41:03Z</time>
      </trkpt>
      <trkpt lat="30.92743000" lon="34.72614000">
        <ele>398.00000</ele>
        <time>2015-12-18T07:41:06Z</time>
      </trkpt>
      <trkpt lat="30.92738000" lon="34.72619000">
        <ele>400.00000</ele>
        <time>2015-12-18T07:41:09Z</time>
      </trkpt>
      <trkpt lat="30.92733000" lon="34.72624000">
        <ele>401.00000</ele>
        <time>2015-12-18T07:41:12Z</time>
      </trkpt>
      <trkpt lat="30.92728000" lon="34.72629000">
        <ele>403.00000</ele>
        <time>2015-12-18T07:41:15Z</time>
      </trkpt>
      <trkpt lat="30.92724000" lon="34.72634000">
        <ele>403.00000</ele>
        <time>2015-12-18T07:41:18Z</time>
      </trkpt>
      <trkpt lat="30.92720000" lon="34.72638000">
        <ele>404.00000</ele>
        <time>2015-12-18T07:41:21Z</time>
      </trkpt>
      <trkpt lat="30.92716000" lon="34.72644000">
        <ele>404.00000</ele>
        <time>2015-12-18T07:41:24Z</time>
      </trkpt>
      <trkpt lat="30.92711000" lon="34.72649000">
        <ele>404.00000</ele>
        <time>2015-12-18T07:41:27Z</time>
      </trkpt>
      <trkpt lat="30.92706000" lon="34.72652000">
        <ele>405.00000</ele>
        <time>2015-12-18T07:41:30Z</time>
      </trkpt>
      <trkpt lat="30.92700000" lon="34.72653000">
        <ele>406.00000</ele>
        <time>2015-12-18T07:41:33Z</time>
      </trkpt>
      <trkpt lat="30.92693000" lon="34.72653000">
        <ele>407.00000</ele>
        <time>2015-12-18T07:41:36Z</time>
      </trkpt>
      <trkpt lat="30.92686000" lon="34.72652000">
        <ele>409.00000</ele>
        <time>2015-12-18T07:41:39Z</time>
      </trkpt>
      <trkpt lat="30.92679000" lon="34.72653000">
        <ele>410.00000</ele>
        <time>2015-12-18T07:41:42Z</time>
      </trkpt>
      <trkpt lat="30.92672000" lon="34.72656000">
        <ele>411.00000</ele>
        <time>2015-12-18T07:41:45Z</time>
      </trkpt>
      <trkpt lat="30.92665000" lon="34.72659000">
        <ele>412.00000</ele>
        <time>2015-12-18T07:41:48Z</time>
      </trkpt>
      <trkpt lat="30.92658000" lon="34.72661000">
        <ele>412.00000</ele>
        <time>2015-12-18T07:41:51Z</time>
      </trkpt>
      <trkpt lat="30.92652000" lon="34.72665000">
        <ele>413.00000</ele>
        <time>2015-12-18T07:41:54Z</time>
      </trkpt>
      <trkpt lat="30.92646000" lon="34.72669000">
        <ele>414.00000</ele>
        <time>2015-12-18T07:41:57Z</time>
      </trkpt>
      <trkpt lat="30.92640000" lon="34.72673000">
        <ele>414.00000</ele>
        <time>2015-12-18T07:42:00Z</time>
      </trkpt>
      <trkpt lat="30.92636000" lon="34.72678000">
        <ele>415.00000</ele>
        <time>2015-12-18T07:42:03Z</time>
      </trkpt>
      <trkpt lat="30.92631000" lon="34.72683000">
        <ele>415.00000</ele>
        <time>2015-12-18T07:42:06Z</time>
      </trkpt>
      <trkpt lat="30.92627000" lon="34.72689000">
        <ele>415.00000</ele>
        <time>2015-12-18T07:42:09Z</time>
      </trkpt>
      <trkpt lat="30.92623000" lon="34.72695000">
        <ele>415.00000</ele>
        <time>2015-12-18T07:42:12Z</time>
      </trkpt>
      <trkpt lat="30.92619000" lon="34.72701000">
        <ele>416.00000</ele>
        <time>2015-12-18T07:42:15Z</time>
      </trkpt>
      <trkpt lat="30.92617000" lon="34.72706000">
        <ele>416.00000</ele>
        <time>2015-12-18T07:42:18Z</time>
      </trkpt>
      <trkpt lat="30.92614000" lon="34.72711000">
        <ele>416.00000</ele>
        <time>2015-12-18T07:42:21Z</time>
      </trkpt>
      <trkpt lat="30.92610000" lon="34.72717000">
        <ele>416.00000</ele>
        <time>2015-12-18T07:42:24Z</time>
      </trkpt>
      <trkpt lat="30.92608000" lon="34.72722000">
        <ele>416.00000</ele>
        <time>2015-12-18T07:42:27Z</time>
      </trkpt>
      <trkpt lat="30.92605000" lon="34.72728000">
        <ele>416.00000</ele>
        <time>2015-12-18T07:42:30Z</time>
      </trkpt>
      <trkpt lat="30.92602000" lon="34.72733000">
        <ele>416.00000</ele>
        <time>2015-12-18T07:42:33Z</time>
      </trkpt>
      <trkpt lat="30.92599000" lon="34.72738000">
        <ele>416.00000</ele>
        <time>2015-12-18T07:42:36Z</time>
      </trkpt>
      <trkpt lat="30.92595000" lon="34.72743000">
        <ele>416.00000</ele>
        <time>2015-12-18T07:42:39Z</time>
      </trkpt>
      <trkpt lat="30.92592000" lon="34.72747000">
        <ele>416.00000</ele>
        <time>2015-12-18T07:42:42Z</time>
      </trkpt>
      <trkpt lat="30.92589000" lon="34.72753000">
        <ele>416.00000</ele>
        <time>2015-12-18T07:42:45Z</time>
      </trkpt>
      <trkpt lat="30.92586000" lon="34.72760000">
        <ele>416.00000</ele>
        <time>2015-12-18T07:42:48Z</time>
      </trkpt>
      <trkpt lat="30.92580000" lon="34.72767000">
        <ele>417.00000</ele>
        <time>2015-12-18T07:42:51Z</time>
      </trkpt>
      <trkpt lat="30.92573000" lon="34.72774000">
        <ele>419.00000</ele>
        <time>2015-12-18T07:42:54Z</time>
      </trkpt>
      <trkpt lat="30.92568000" lon="34.72783000">
        <ele>419.00000</ele>
        <time>2015-12-18T07:42:57Z</time>
      </trkpt>
      <trkpt lat="30.92570000" lon="34.72794000">
        <ele>417.00000</ele>
        <time>2015-12-18T07:43:00Z</time>
      </trkpt>
      <trkpt lat="30.92569000" lon="34.72801000">
        <ele>417.00000</ele>
        <time>2015-12-18T07:43:03Z</time>
      </trkpt>
      <trkpt lat="30.92567000" lon="34.72808000">
        <ele>417.00000</ele>
        <time>2015-12-18T07:43:06Z</time>
      </trkpt>
      <trkpt lat="30.92566000" lon="34.72816000">
        <ele>416.00000</ele>
        <time>2015-12-18T07:43:09Z</time>
      </trkpt>
      <trkpt lat="30.92565000" lon="34.72824000">
        <ele>416.00000</ele>
        <time>2015-12-18T07:43:12Z</time>
      </trkpt>
      <trkpt lat="30.92563000" lon="34.72832000">
        <ele>416.00000</ele>
        <time>2015-12-18T07:43:15Z</time>
      </trkpt>
      <trkpt lat="30.92559000" lon="34.72839000">
        <ele>416.00000</ele>
        <time>2015-12-18T07:43:18Z</time>
      </trkpt>
      <trkpt lat="30.92552000" lon="34.72842000">
        <ele>417.00000</ele>
        <time>2015-12-18T07:43:21Z</time>
      </trkpt>
      <trkpt lat="30.92543000" lon="34.72845000">
        <ele>418.00000</ele>
        <time>2015-12-18T07:43:24Z</time>
      </trkpt>
      <trkpt lat="30.92535000" lon="34.72848000">
        <ele>419.00000</ele>
        <time>2015-12-18T07:43:27Z</time>
      </trkpt>
      <trkpt lat="30.92528000" lon="34.72851000">
        <ele>420.00000</ele>
        <time>2015-12-18T07:43:30Z</time>
      </trkpt>
      <trkpt lat="30.92521000" lon="34.72857000">
        <ele>420.00000</ele>
        <time>2015-12-18T07:43:33Z</time>
      </trkpt>
      <trkpt lat="30.92515000" lon="34.72861000">
        <ele>421.00000</ele>
        <time>2015-12-18T07:43:36Z</time>
      </trkpt>
      <trkpt lat="30.92509000" lon="34.72868000">
        <ele>421.00000</ele>
        <time>2015-12-18T07:43:39Z</time>
      </trkpt>
      <trkpt lat="30.92505000" lon="34.72878000">
        <ele>421.00000</ele>
        <time>2015-12-18T07:43:42Z</time>
      </trkpt>
      <trkpt lat="30.92501000" lon="34.72887000">
        <ele>421.00000</ele>
        <time>2015-12-18T07:43:45Z</time>
      </trkpt>
      <trkpt lat="30.92495000" lon="34.72895000">
        <ele>422.00000</ele>
        <time>2015-12-18T07:43:48Z</time>
      </trkpt>
      <trkpt lat="30.92491000" lon="34.72905000">
        <ele>423.00000</ele>
        <time>2015-12-18T07:43:51Z</time>
      </trkpt>
      <trkpt lat="30.92489000" lon="34.72917000">
        <ele>423.00000</ele>
        <time>2015-12-18T07:43:54Z</time>
      </trkpt>
      <trkpt lat="30.92489000" lon="34.72927000">
        <ele>423.00000</ele>
        <time>2015-12-18T07:43:57Z</time>
      </trkpt>
      <trkpt lat="30.92489000" lon="34.72936000">
        <ele>423.00000</ele>
        <time>2015-12-18T07:44:00Z</time>
      </trkpt>
      <trkpt lat="30.92488000" lon="34.72944000">
        <ele>423.00000</ele>
        <time>2015-12-18T07:44:03Z</time>
      </trkpt>
      <trkpt lat="30.92483000" lon="34.72951000">
        <ele>424.00000</ele>
        <time>2015-12-18T07:44:06Z</time>
      </trkpt>
      <trkpt lat="30.92477000" lon="34.72957000">
        <ele>425.00000</ele>
        <time>2015-12-18T07:44:09Z</time>
      </trkpt>
      <trkpt lat="30.92471000" lon="34.72962000">
        <ele>426.00000</ele>
        <time>2015-12-18T07:44:12Z</time>
      </trkpt>
      <trkpt lat="30.92465000" lon="34.72969000">
        <ele>428.00000</ele>
        <time>2015-12-18T07:44:15Z</time>
      </trkpt>
      <trkpt lat="30.92463000" lon="34.72977000">
        <ele>429.00000</ele>
        <time>2015-12-18T07:44:18Z</time>
      </trkpt>
      <trkpt lat="30.92463000" lon="34.72986000">
        <ele>429.00000</ele>
        <time>2015-12-18T07:44:21Z</time>
      </trkpt>
      <trkpt lat="30.92461000" lon="34.72994000">
        <ele>430.00000</ele>
        <time>2015-12-18T07:44:24Z</time>
      </trkpt>
      <trkpt lat="30.92457000" lon="34.73003000">
        <ele>431.00000</ele>
        <time>2015-12-18T07:44:27Z</time>
      </trkpt>
      <trkpt lat="30.92452000" lon="34.73012000">
        <ele>431.00000</ele>
        <time>2015-12-18T07:44:30Z</time>
      </trkpt>
      <trkpt lat="30.92448000" lon="34.73018000">
        <ele>432.00000</ele>
        <time>2015-12-18T07:44:33Z</time>
      </trkpt>
      <trkpt lat="30.92444000" lon="34.73025000">
        <ele>432.00000</ele>
        <time>2015-12-18T07:44:36Z</time>
      </trkpt>
      <trkpt lat="30.92439000" lon="34.73033000">
        <ele>432.00000</ele>
        <time>2015-12-18T07:44:39Z</time>
      </trkpt>
      <trkpt lat="30.92433000" lon="34.73038000">
        <ele>432.00000</ele>
        <time>2015-12-18T07:44:42Z</time>
      </trkpt>
      <trkpt lat="30.92429000" lon="34.73043000">
        <ele>433.00000</ele>
        <time>2015-12-18T07:44:45Z</time>
      </trkpt>
      <trkpt lat="30.92429000" lon="34.73049000">
        <ele>433.00000</ele>
        <time>2015-12-18T07:44:48Z</time>
      </trkpt>
      <trkpt lat="30.92430000" lon="34.73058000">
        <ele>434.00000</ele>
        <time>2015-12-18T07:44:51Z</time>
      </trkpt>
      <trkpt lat="30.92429000" lon="34.73068000">
        <ele>436.00000</ele>
        <time>2015-12-18T07:44:54Z</time>
      </trkpt>
      <trkpt lat="30.92428000" lon="34.73081000">
        <ele>437.00000</ele>
        <time>2015-12-18T07:44:57Z</time>
      </trkpt>
      <trkpt lat="30.92425000" lon="34.73091000">
        <ele>438.00000</ele>
        <time>2015-12-18T07:45:00Z</time>
      </trkpt>
      <trkpt lat="30.92418000" lon="34.73100000">
        <ele>439.00000</ele>
        <time>2015-12-18T07:45:03Z</time>
      </trkpt>
      <trkpt lat="30.92413000" lon="34.73108000">
        <ele>440.00000</ele>
        <time>2015-12-18T07:45:06Z</time>
      </trkpt>
      <trkpt lat="30.92408000" lon="34.73116000">
        <ele>441.00000</ele>
        <time>2015-12-18T07:45:09Z</time>
      </trkpt>
      <trkpt lat="30.92402000" lon="34.73124000">
        <ele>442.00000</ele>
        <time>2015-12-18T07:45:12Z</time>
      </trkpt>
      <trkpt lat="30.92395000" lon="34.73130000">
        <ele>443.00000</ele>
        <time>2015-12-18T07:45:15Z</time>
      </trkpt>
      <trkpt lat="30.92388000" lon="34.73135000">
        <ele>444.00000</ele>
        <time>2015-12-18T07:45:18Z</time>
      </trkpt>
      <trkpt lat="30.92381000" lon="34.73139000">
        <ele>444.00000</ele>
        <time>2015-12-18T07:45:21Z</time>
      </trkpt>
      <trkpt lat="30.92374000" lon="34.73143000">
        <ele>444.00000</ele>
        <time>2015-12-18T07:45:24Z</time>
      </trkpt>
      <trkpt lat="30.92370000" lon="34.73147000">
        <ele>444.00000</ele>
        <time>2015-12-18T07:45:27Z</time>
      </trkpt>
      <trkpt lat="30.92366000" lon="34.73153000">
        <ele>445.00000</ele>
        <time>2015-12-18T07:45:30Z</time>
      </trkpt>
      <trkpt lat="30.92362000" lon="34.73160000">
        <ele>445.00000</ele>
        <time>2015-12-18T07:45:33Z</time>
      </trkpt>
      <trkpt lat="30.92358000" lon="34.73168000">
        <ele>445.00000</ele>
        <time>2015-12-18T07:45:36Z</time>
      </trkpt>
      <trkpt lat="30.92355000" lon="34.73176000">
        <ele>446.00000</ele>
        <time>2015-12-18T07:45:39Z</time>
      </trkpt>
      <trkpt lat="30.92350000" lon="34.73181000">
        <ele>446.00000</ele>
        <time>2015-12-18T07:45:42Z</time>
      </trkpt>
      <trkpt lat="30.92344000" lon="34.73185000">
        <ele>447.00000</ele>
        <time>2015-12-18T07:45:45Z</time>
      </trkpt>
      <trkpt lat="30.92337000" lon="34.73188000">
        <ele>447.00000</ele>
        <time>2015-12-18T07:45:48Z</time>
      </trkpt>
      <trkpt lat="30.92331000" lon="34.73191000">
        <ele>447.00000</ele>
        <time>2015-12-18T07:45:51Z</time>
      </trkpt>
      <trkpt lat="30.92324000" lon="34.73194000">
        <ele>447.00000</ele>
        <time>2015-12-18T07:45:54Z</time>
      </trkpt>
      <trkpt lat="30.92316000" lon="34.73197000">
        <ele>447.00000</ele>
        <time>2015-12-18T07:45:57Z</time>
      </trkpt>
      <trkpt lat="30.92309000" lon="34.73202000">
        <ele>448.00000</ele>
        <time>2015-12-18T07:46:00Z</time>
      </trkpt>
      <trkpt lat="30.92302000" lon="34.73208000">
        <ele>449.00000</ele>
        <time>2015-12-18T07:46:03Z</time>
      </trkpt>
      <trkpt lat="30.92296000" lon="34.73213000">
        <ele>450.00000</ele>
        <time>2015-12-18T07:46:06Z</time>
      </trkpt>
      <trkpt lat="30.92290000" lon="34.73218000">
        <ele>450.00000</ele>
        <time>2015-12-18T07:46:09Z</time>
      </trkpt>
      <trkpt lat="30.92286000" lon="34.73221000">
        <ele>450.00000</ele>
        <time>2015-12-18T07:46:12Z</time>
      </trkpt>
      <trkpt lat="30.92285000" lon="34.73222000">
        <ele>450.00000</ele>
        <time>2015-12-18T07:46:15Z</time>
      </trkpt>
      <trkpt lat="30.92284000" lon="34.73224000">
        <ele>450.00000</ele>
        <time>2015-12-18T07:46:18Z</time>
      </trkpt>
      <trkpt lat="30.92284000" lon="34.73225000">
        <ele>450.00000</ele>
        <time>2015-12-18T07:46:21Z</time>
      </trkpt>
      <trkpt lat="30.92283000" lon="34.73226000">
        <ele>450.00000</ele>
        <time>2015-12-18T07:46:24Z</time>
      </trkpt>
      <trkpt lat="30.92282000" lon="34.73227000">
        <ele>450.00000</ele>
        <time>2015-12-18T07:46:27Z</time>
      </trkpt>
      <trkpt lat="30.92282000" lon="34.73229000">
        <ele>450.00000</ele>
        <time>2015-12-18T07:46:30Z</time>
      </trkpt>
      <trkpt lat="30.92280000" lon="34.73232000">
        <ele>450.00000</ele>
        <time>2015-12-18T07:46:33Z</time>
      </trkpt>
      <trkpt lat="30.92276000" lon="34.73238000">
        <ele>451.00000</ele>
        <time>2015-12-18T07:46:36Z</time>
      </trkpt>
      <trkpt lat="30.92272000" lon="34.73243000">
        <ele>451.00000</ele>
        <time>2015-12-18T07:46:39Z</time>
      </trkpt>
      <trkpt lat="30.92265000" lon="34.73248000">
        <ele>452.00000</ele>
        <time>2015-12-18T07:46:42Z</time>
      </trkpt>
      <trkpt lat="30.92257000" lon="34.73250000">
        <ele>452.00000</ele>
        <time>2015-12-18T07:46:45Z</time>
      </trkpt>
      <trkpt lat="30.92247000" lon="34.73252000">
        <ele>452.00000</ele>
        <time>2015-12-18T07:46:48Z</time>
      </trkpt>
      <trkpt lat="30.92235000" lon="34.73256000">
        <ele>452.00000</ele>
        <time>2015-12-18T07:46:51Z</time>
      </trkpt>
      <trkpt lat="30.92224000" lon="34.73262000">
        <ele>454.00000</ele>
        <time>2015-12-18T07:46:54Z</time>
      </trkpt>
      <trkpt lat="30.92218000" lon="34.73275000">
        <ele>456.00000</ele>
        <time>2015-12-18T07:46:57Z</time>
      </trkpt>
      <trkpt lat="30.92217000" lon="34.73289000">
        <ele>459.00000</ele>
        <time>2015-12-18T07:47:00Z</time>
      </trkpt>
      <trkpt lat="30.92221000" lon="34.73298000">
        <ele>460.00000</ele>
        <time>2015-12-18T07:47:03Z</time>
      </trkpt>
      <trkpt lat="30.92227000" lon="34.73307000">
        <ele>460.00000</ele>
        <time>2015-12-18T07:47:06Z</time>
      </trkpt>
      <trkpt lat="30.92233000" lon="34.73316000">
        <ele>461.00000</ele>
        <time>2015-12-18T07:47:09Z</time>
      </trkpt>
      <trkpt lat="30.92234000" lon="34.73327000">
        <ele>462.00000</ele>
        <time>2015-12-18T07:47:12Z</time>
      </trkpt>
      <trkpt lat="30.92231000" lon="34.73338000">
        <ele>463.00000</ele>
        <time>2015-12-18T07:47:15Z</time>
      </trkpt>
      <trkpt lat="30.92226000" lon="34.73350000">
        <ele>464.00000</ele>
        <time>2015-12-18T07:47:18Z</time>
      </trkpt>
      <trkpt lat="30.92219000" lon="34.73361000">
        <ele>464.00000</ele>
        <time>2015-12-18T07:47:21Z</time>
      </trkpt>
      <trkpt lat="30.92210000" lon="34.73370000">
        <ele>465.00000</ele>
        <time>2015-12-18T07:47:24Z</time>
      </trkpt>
      <trkpt lat="30.92204000" lon="34.73381000">
        <ele>465.00000</ele>
        <time>2015-12-18T07:47:27Z</time>
      </trkpt>
      <trkpt lat="30.92199000" lon="34.73389000">
        <ele>465.00000</ele>
        <time>2015-12-18T07:47:30Z</time>
      </trkpt>
      <trkpt lat="30.92194000" lon="34.73395000">
        <ele>465.00000</ele>
        <time>2015-12-18T07:47:33Z</time>
      </trkpt>
      <trkpt lat="30.92193000" lon="34.73404000">
        <ele>465.00000</ele>
        <time>2015-12-18T07:47:36Z</time>
      </trkpt>
      <trkpt lat="30.92194000" lon="34.73414000">
        <ele>466.00000</ele>
        <time>2015-12-18T07:47:39Z</time>
      </trkpt>
      <trkpt lat="30.92197000" lon="34.73422000">
        <ele>466.00000</ele>
        <time>2015-12-18T07:47:42Z</time>
      </trkpt>
      <trkpt lat="30.92204000" lon="34.73428000">
        <ele>467.00000</ele>
        <time>2015-12-18T07:47:45Z</time>
      </trkpt>
      <trkpt lat="30.92209000" lon="34.73435000">
        <ele>467.00000</ele>
        <time>2015-12-18T07:47:48Z</time>
      </trkpt>
      <trkpt lat="30.92210000" lon="34.73444000">
        <ele>468.00000</ele>
        <time>2015-12-18T07:47:51Z</time>
      </trkpt>
      <trkpt lat="30.92208000" lon="34.73452000">
        <ele>468.00000</ele>
        <time>2015-12-18T07:47:54Z</time>
      </trkpt>
      <trkpt lat="30.92210000" lon="34.73462000">
        <ele>468.00000</ele>
        <time>2015-12-18T07:47:57Z</time>
      </trkpt>
      <trkpt lat="30.92214000" lon="34.73473000">
        <ele>469.00000</ele>
        <time>2015-12-18T07:48:00Z</time>
      </trkpt>
      <trkpt lat="30.92224000" lon="34.73481000">
        <ele>470.00000</ele>
        <time>2015-12-18T07:48:03Z</time>
      </trkpt>
      <trkpt lat="30.92235000" lon="34.73485000">
        <ele>471.00000</ele>
        <time>2015-12-18T07:48:06Z</time>
      </trkpt>
      <trkpt lat="30.92246000" lon="34.73484000">
        <ele>471.00000</ele>
        <time>2015-12-18T07:48:09Z</time>
      </trkpt>
      <trkpt lat="30.92256000" lon="34.73480000">
        <ele>471.00000</ele>
        <time>2015-12-18T07:48:12Z</time>
      </trkpt>
      <trkpt lat="30.92266000" lon="34.73474000">
        <ele>472.00000</ele>
        <time>2015-12-18T07:48:15Z</time>
      </trkpt>
      <trkpt lat="30.92275000" lon="34.73468000">
        <ele>472.00000</ele>
        <time>2015-12-18T07:48:18Z</time>
      </trkpt>
      <trkpt lat="30.92284000" lon="34.73461000">
        <ele>473.00000</ele>
        <time>2015-12-18T07:48:21Z</time>
      </trkpt>
      <trkpt lat="30.92292000" lon="34.73455000">
        <ele>474.00000</ele>
        <time>2015-12-18T07:48:24Z</time>
      </trkpt>
      <trkpt lat="30.92302000" lon="34.73454000">
        <ele>473.00000</ele>
        <time>2015-12-18T07:48:27Z</time>
      </trkpt>
      <trkpt lat="30.92313000" lon="34.73455000">
        <ele>473.00000</ele>
        <time>2015-12-18T07:48:30Z</time>
      </trkpt>
      <trkpt lat="30.92327000" lon="34.73461000">
        <ele>472.00000</ele>
        <time>2015-12-18T07:48:33Z</time>
      </trkpt>
      <trkpt lat="30.92338000" lon="34.73474000">
        <ele>470.00000</ele>
        <time>2015-12-18T07:48:36Z</time>
      </trkpt>
      <trkpt lat="30.92342000" lon="34.73487000">
        <ele>468.00000</ele>
        <time>2015-12-18T07:48:39Z</time>
      </trkpt>
      <trkpt lat="30.92333000" lon="34.73494000">
        <ele>468.00000</ele>
        <time>2015-12-18T07:48:42Z</time>
      </trkpt>
      <trkpt lat="30.92322000" lon="34.73500000">
        <ele>468.00000</ele>
        <time>2015-12-18T07:48:45Z</time>
      </trkpt>
      <trkpt lat="30.92309000" lon="34.73509000">
        <ele>468.00000</ele>
        <time>2015-12-18T07:48:48Z</time>
      </trkpt>
      <trkpt lat="30.92298000" lon="34.73518000">
        <ele>469.00000</ele>
        <time>2015-12-18T07:48:51Z</time>
      </trkpt>
      <trkpt lat="30.92284000" lon="34.73526000">
        <ele>470.00000</ele>
        <time>2015-12-18T07:48:54Z</time>
      </trkpt>
      <trkpt lat="30.92271000" lon="34.73533000">
        <ele>470.00000</ele>
        <time>2015-12-18T07:48:57Z</time>
      </trkpt>
      <trkpt lat="30.92257000" lon="34.73537000">
        <ele>471.00000</ele>
        <time>2015-12-18T07:49:00Z</time>
      </trkpt>
      <trkpt lat="30.92241000" lon="34.73533000">
        <ele>472.00000</ele>
        <time>2015-12-18T07:49:03Z</time>
      </trkpt>
      <trkpt lat="30.92225000" lon="34.73535000">
        <ele>473.00000</ele>
        <time>2015-12-18T07:49:06Z</time>
      </trkpt>
      <trkpt lat="30.92213000" lon="34.73544000">
        <ele>473.00000</ele>
        <time>2015-12-18T07:49:09Z</time>
      </trkpt>
      <trkpt lat="30.92204000" lon="34.73557000">
        <ele>471.00000</ele>
        <time>2015-12-18T07:49:12Z</time>
      </trkpt>
      <trkpt lat="30.92198000" lon="34.73572000">
        <ele>469.00000</ele>
        <time>2015-12-18T07:49:15Z</time>
      </trkpt>
      <trkpt lat="30.92190000" lon="34.73584000">
        <ele>467.00000</ele>
        <time>2015-12-18T07:49:18Z</time>
      </trkpt>
      <trkpt lat="30.92180000" lon="34.73598000">
        <ele>465.00000</ele>
        <time>2015-12-18T07:49:21Z</time>
      </trkpt>
      <trkpt lat="30.92174000" lon="34.73622000">
        <ele>461.00000</ele>
        <time>2015-12-18T07:49:24Z</time>
      </trkpt>
      <trkpt lat="30.92166000" lon="34.73641000">
        <ele>461.00000</ele>
        <time>2015-12-18T07:49:27Z</time>
      </trkpt>
      <trkpt lat="30.92164000" lon="34.73653000">
        <ele>461.00000</ele>
        <time>2015-12-18T07:49:30Z</time>
      </trkpt>
      <trkpt lat="30.92163000" lon="34.73663000">
        <ele>461.00000</ele>
        <time>2015-12-18T07:49:33Z</time>
      </trkpt>
      <trkpt lat="30.92161000" lon="34.73673000">
        <ele>462.00000</ele>
        <time>2015-12-18T07:49:36Z</time>
      </trkpt>
      <trkpt lat="30.92159000" lon="34.73682000">
        <ele>462.00000</ele>
        <time>2015-12-18T07:49:39Z</time>
      </trkpt>
      <trkpt lat="30.92159000" lon="34.73694000">
        <ele>462.00000</ele>
        <time>2015-12-18T07:49:42Z</time>
      </trkpt>
      <trkpt lat="30.92159000" lon="34.73706000">
        <ele>462.00000</ele>
        <time>2015-12-18T07:49:45Z</time>
      </trkpt>
      <trkpt lat="30.92156000" lon="34.73716000">
        <ele>462.00000</ele>
        <time>2015-12-18T07:49:48Z</time>
      </trkpt>
      <trkpt lat="30.92150000" lon="34.73723000">
        <ele>463.00000</ele>
        <time>2015-12-18T07:49:51Z</time>
      </trkpt>
      <trkpt lat="30.92142000" lon="34.73728000">
        <ele>464.00000</ele>
        <time>2015-12-18T07:49:54Z</time>
      </trkpt>
      <trkpt lat="30.92135000" lon="34.73734000">
        <ele>465.00000</ele>
        <time>2015-12-18T07:49:57Z</time>
      </trkpt>
      <trkpt lat="30.92127000" lon="34.73740000">
        <ele>467.00000</ele>
        <time>2015-12-18T07:50:00Z</time>
      </trkpt>
      <trkpt lat="30.92120000" lon="34.73747000">
        <ele>467.00000</ele>
        <time>2015-12-18T07:50:03Z</time>
      </trkpt>
      <trkpt lat="30.92116000" lon="34.73756000">
        <ele>467.00000</ele>
        <time>2015-12-18T07:50:06Z</time>
      </trkpt>
      <trkpt lat="30.92111000" lon="34.73767000">
        <ele>467.00000</ele>
        <time>2015-12-18T07:50:09Z</time>
      </trkpt>
      <trkpt lat="30.92104000" lon="34.73779000">
        <ele>467.00000</ele>
        <time>2015-12-18T07:50:12Z</time>
      </trkpt>
      <trkpt lat="30.92095000" lon="34.73788000">
        <ele>467.00000</ele>
        <time>2015-12-18T07:50:15Z</time>
      </trkpt>
      <trkpt lat="30.92088000" lon="34.73794000">
        <ele>467.00000</ele>
        <time>2015-12-18T07:50:18Z</time>
      </trkpt>
      <trkpt lat="30.92082000" lon="34.73800000">
        <ele>466.00000</ele>
        <time>2015-12-18T07:50:21Z</time>
      </trkpt>
      <trkpt lat="30.92077000" lon="34.73809000">
        <ele>466.00000</ele>
        <time>2015-12-18T07:50:24Z</time>
      </trkpt>
      <trkpt lat="30.92072000" lon="34.73821000">
        <ele>466.00000</ele>
        <time>2015-12-18T07:50:27Z</time>
      </trkpt>
      <trkpt lat="30.92065000" lon="34.73833000">
        <ele>467.00000</ele>
        <time>2015-12-18T07:50:30Z</time>
      </trkpt>
      <trkpt lat="30.92058000" lon="34.73845000">
        <ele>468.00000</ele>
        <time>2015-12-18T07:50:33Z</time>
      </trkpt>
      <trkpt lat="30.92047000" lon="34.73853000">
        <ele>469.00000</ele>
        <time>2015-12-18T07:50:36Z</time>
      </trkpt>
      <trkpt lat="30.92037000" lon="34.73857000">
        <ele>470.00000</ele>
        <time>2015-12-18T07:50:39Z</time>
      </trkpt>
      <trkpt lat="30.92027000" lon="34.73861000">
        <ele>471.00000</ele>
        <time>2015-12-18T07:50:42Z</time>
      </trkpt>
      <trkpt lat="30.92017000" lon="34.73865000">
        <ele>472.00000</ele>
        <time>2015-12-18T07:50:45Z</time>
      </trkpt>
      <trkpt lat="30.92007000" lon="34.73868000">
        <ele>473.00000</ele>
        <time>2015-12-18T07:50:48Z</time>
      </trkpt>
      <trkpt lat="30.91997000" lon="34.73871000">
        <ele>474.00000</ele>
        <time>2015-12-18T07:50:51Z</time>
      </trkpt>
      <trkpt lat="30.91986000" lon="34.73875000">
        <ele>476.00000</ele>
        <time>2015-12-18T07:50:54Z</time>
      </trkpt>
      <trkpt lat="30.91974000" lon="34.73881000">
        <ele>476.00000</ele>
        <time>2015-12-18T07:50:57Z</time>
      </trkpt>
      <trkpt lat="30.91964000" lon="34.73893000">
        <ele>476.00000</ele>
        <time>2015-12-18T07:51:00Z</time>
      </trkpt>
      <trkpt lat="30.91960000" lon="34.73910000">
        <ele>476.00000</ele>
        <time>2015-12-18T07:51:03Z</time>
      </trkpt>
      <trkpt lat="30.91959000" lon="34.73925000">
        <ele>475.00000</ele>
        <time>2015-12-18T07:51:06Z</time>
      </trkpt>
      <trkpt lat="30.91956000" lon="34.73939000">
        <ele>474.00000</ele>
        <time>2015-12-18T07:51:09Z</time>
      </trkpt>
      <trkpt lat="30.91949000" lon="34.73952000">
        <ele>473.00000</ele>
        <time>2015-12-18T07:51:12Z</time>
      </trkpt>
      <trkpt lat="30.91940000" lon="34.73964000">
        <ele>472.00000</ele>
        <time>2015-12-18T07:51:15Z</time>
      </trkpt>
      <trkpt lat="30.91930000" lon="34.73977000">
        <ele>472.00000</ele>
        <time>2015-12-18T07:51:18Z</time>
      </trkpt>
      <trkpt lat="30.91921000" lon="34.73990000">
        <ele>472.00000</ele>
        <time>2015-12-18T07:51:21Z</time>
      </trkpt>
      <trkpt lat="30.91915000" lon="34.74007000">
        <ele>473.00000</ele>
        <time>2015-12-18T07:51:24Z</time>
      </trkpt>
      <trkpt lat="30.91912000" lon="34.74023000">
        <ele>474.00000</ele>
        <time>2015-12-18T07:51:27Z</time>
      </trkpt>
      <trkpt lat="30.91908000" lon="34.74038000">
        <ele>474.00000</ele>
        <time>2015-12-18T07:51:30Z</time>
      </trkpt>
      <trkpt lat="30.91906000" lon="34.74052000">
        <ele>475.00000</ele>
        <time>2015-12-18T07:51:33Z</time>
      </trkpt>
      <trkpt lat="30.91903000" lon="34.74065000">
        <ele>476.00000</ele>
        <time>2015-12-18T07:51:36Z</time>
      </trkpt>
      <trkpt lat="30.91906000" lon="34.74076000">
        <ele>478.00000</ele>
        <time>2015-12-18T07:51:39Z</time>
      </trkpt>
      <trkpt lat="30.91909000" lon="34.74085000">
        <ele>479.00000</ele>
        <time>2015-12-18T07:51:42Z</time>
      </trkpt>
      <trkpt lat="30.91911000" lon="34.74092000">
        <ele>479.00000</ele>
        <time>2015-12-18T07:51:45Z</time>
      </trkpt>
      <trkpt lat="30.91913000" lon="34.74099000">
        <ele>480.00000</ele>
        <time>2015-12-18T07:51:48Z</time>
      </trkpt>
      <trkpt lat="30.91912000" lon="34.74105000">
        <ele>481.00000</ele>
        <time>2015-12-18T07:51:51Z</time>
      </trkpt>
      <trkpt lat="30.91911000" lon="34.74114000">
        <ele>481.00000</ele>
        <time>2015-12-18T07:51:54Z</time>
      </trkpt>
      <trkpt lat="30.91910000" lon="34.74122000">
        <ele>482.00000</ele>
        <time>2015-12-18T07:51:57Z</time>
      </trkpt>
      <trkpt lat="30.91907000" lon="34.74130000">
        <ele>483.00000</ele>
        <time>2015-12-18T07:52:00Z</time>
      </trkpt>
      <trkpt lat="30.91903000" lon="34.74138000">
        <ele>483.00000</ele>
        <time>2015-12-18T07:52:03Z</time>
      </trkpt>
      <trkpt lat="30.91901000" lon="34.74147000">
        <ele>484.00000</ele>
        <time>2015-12-18T07:52:06Z</time>
      </trkpt>
      <trkpt lat="30.91897000" lon="34.74156000">
        <ele>485.00000</ele>
        <time>2015-12-18T07:52:09Z</time>
      </trkpt>
      <trkpt lat="30.91893000" lon="34.74163000">
        <ele>485.00000</ele>
        <time>2015-12-18T07:52:12Z</time>
      </trkpt>
      <trkpt lat="30.91890000" lon="34.74171000">
        <ele>486.00000</ele>
        <time>2015-12-18T07:52:15Z</time>
      </trkpt>
      <trkpt lat="30.91886000" lon="34.74177000">
        <ele>487.00000</ele>
        <time>2015-12-18T07:52:18Z</time>
      </trkpt>
      <trkpt lat="30.91883000" lon="34.74183000">
        <ele>488.00000</ele>
        <time>2015-12-18T07:52:21Z</time>
      </trkpt>
      <trkpt lat="30.91880000" lon="34.74192000">
        <ele>489.00000</ele>
        <time>2015-12-18T07:52:24Z</time>
      </trkpt>
      <trkpt lat="30.91879000" lon="34.74202000">
        <ele>491.00000</ele>
        <time>2015-12-18T07:52:27Z</time>
      </trkpt>
      <trkpt lat="30.91878000" lon="34.74212000">
        <ele>492.00000</ele>
        <time>2015-12-18T07:52:30Z</time>
      </trkpt>
      <trkpt lat="30.91877000" lon="34.74223000">
        <ele>493.00000</ele>
        <time>2015-12-18T07:52:33Z</time>
      </trkpt>
      <trkpt lat="30.91874000" lon="34.74232000">
        <ele>493.00000</ele>
        <time>2015-12-18T07:52:36Z</time>
      </trkpt>
      <trkpt lat="30.91869000" lon="34.74240000">
        <ele>492.00000</ele>
        <time>2015-12-18T07:52:39Z</time>
      </trkpt>
      <trkpt lat="30.91866000" lon="34.74249000">
        <ele>492.00000</ele>
        <time>2015-12-18T07:52:42Z</time>
      </trkpt>
      <trkpt lat="30.91865000" lon="34.74258000">
        <ele>492.00000</ele>
        <time>2015-12-18T07:52:45Z</time>
      </trkpt>
      <trkpt lat="30.91862000" lon="34.74267000">
        <ele>493.00000</ele>
        <time>2015-12-18T07:52:48Z</time>
      </trkpt>
      <trkpt lat="30.91858000" lon="34.74276000">
        <ele>492.00000</ele>
        <time>2015-12-18T07:52:51Z</time>
      </trkpt>
      <trkpt lat="30.91851000" lon="34.74285000">
        <ele>492.00000</ele>
        <time>2015-12-18T07:52:54Z</time>
      </trkpt>
      <trkpt lat="30.91843000" lon="34.74292000">
        <ele>492.00000</ele>
        <time>2015-12-18T07:52:57Z</time>
      </trkpt>
      <trkpt lat="30.91834000" lon="34.74298000">
        <ele>491.00000</ele>
        <time>2015-12-18T07:53:00Z</time>
      </trkpt>
      <trkpt lat="30.91824000" lon="34.74301000">
        <ele>490.00000</ele>
        <time>2015-12-18T07:53:03Z</time>
      </trkpt>
      <trkpt lat="30.91814000" lon="34.74305000">
        <ele>490.00000</ele>
        <time>2015-12-18T07:53:06Z</time>
      </trkpt>
      <trkpt lat="30.91804000" lon="34.74312000">
        <ele>490.00000</ele>
        <time>2015-12-18T07:53:09Z</time>
      </trkpt>
      <trkpt lat="30.91792000" lon="34.74314000">
        <ele>490.00000</ele>
        <time>2015-12-18T07:53:12Z</time>
      </trkpt>
      <trkpt lat="30.91783000" lon="34.74311000">
        <ele>488.00000</ele>
        <time>2015-12-18T07:53:15Z</time>
      </trkpt>
      <trkpt lat="30.91771000" lon="34.74305000">
        <ele>485.00000</ele>
        <time>2015-12-18T07:53:18Z</time>
      </trkpt>
      <trkpt lat="30.91765000" lon="34.74312000">
        <ele>486.00000</ele>
        <time>2015-12-18T07:53:21Z</time>
      </trkpt>
      <trkpt lat="30.91760000" lon="34.74326000">
        <ele>489.00000</ele>
        <time>2015-12-18T07:53:24Z</time>
      </trkpt>
      <trkpt lat="30.91756000" lon="34.74339000">
        <ele>491.00000</ele>
        <time>2015-12-18T07:53:27Z</time>
      </trkpt>
      <trkpt lat="30.91752000" lon="34.74351000">
        <ele>493.00000</ele>
        <time>2015-12-18T07:53:30Z</time>
      </trkpt>
      <trkpt lat="30.91750000" lon="34.74361000">
        <ele>495.00000</ele>
        <time>2015-12-18T07:53:33Z</time>
      </trkpt>
      <trkpt lat="30.91748000" lon="34.74369000">
        <ele>497.00000</ele>
        <time>2015-12-18T07:53:36Z</time>
      </trkpt>
      <trkpt lat="30.91747000" lon="34.74377000">
        <ele>498.00000</ele>
        <time>2015-12-18T07:53:39Z</time>
      </trkpt>
      <trkpt lat="30.91745000" lon="34.74386000">
        <ele>499.00000</ele>
        <time>2015-12-18T07:53:42Z</time>
      </trkpt>
      <trkpt lat="30.91744000" lon="34.74394000">
        <ele>500.00000</ele>
        <time>2015-12-18T07:53:45Z</time>
      </trkpt>
      <trkpt lat="30.91741000" lon="34.74403000">
        <ele>500.00000</ele>
        <time>2015-12-18T07:53:48Z</time>
      </trkpt>
      <trkpt lat="30.91736000" lon="34.74409000">
        <ele>501.00000</ele>
        <time>2015-12-18T07:53:51Z</time>
      </trkpt>
      <trkpt lat="30.91728000" lon="34.74416000">
        <ele>502.00000</ele>
        <time>2015-12-18T07:53:54Z</time>
      </trkpt>
      <trkpt lat="30.91725000" lon="34.74423000">
        <ele>503.00000</ele>
        <time>2015-12-18T07:53:57Z</time>
      </trkpt>
      <trkpt lat="30.91724000" lon="34.74432000">
        <ele>504.00000</ele>
        <time>2015-12-18T07:54:00Z</time>
      </trkpt>
      <trkpt lat="30.91724000" lon="34.74441000">
        <ele>506.00000</ele>
        <time>2015-12-18T07:54:03Z</time>
      </trkpt>
      <trkpt lat="30.91724000" lon="34.74449000">
        <ele>507.00000</ele>
        <time>2015-12-18T07:54:06Z</time>
      </trkpt>
      <trkpt lat="30.91722000" lon="34.74457000">
        <ele>508.00000</ele>
        <time>2015-12-18T07:54:09Z</time>
      </trkpt>
      <trkpt lat="30.91719000" lon="34.74464000">
        <ele>509.00000</ele>
        <time>2015-12-18T07:54:12Z</time>
      </trkpt>
      <trkpt lat="30.91716000" lon="34.74472000">
        <ele>510.00000</ele>
        <time>2015-12-18T07:54:15Z</time>
      </trkpt>
      <trkpt lat="30.91711000" lon="34.74480000">
        <ele>511.00000</ele>
        <time>2015-12-18T07:54:18Z</time>
      </trkpt>
      <trkpt lat="30.91708000" lon="34.74489000">
        <ele>511.00000</ele>
        <time>2015-12-18T07:54:21Z</time>
      </trkpt>
      <trkpt lat="30.91705000" lon="34.74497000">
        <ele>511.00000</ele>
        <time>2015-12-18T07:54:24Z</time>
      </trkpt>
      <trkpt lat="30.91701000" lon="34.74506000">
        <ele>511.00000</ele>
        <time>2015-12-18T07:54:27Z</time>
      </trkpt>
      <trkpt lat="30.91700000" lon="34.74514000">
        <ele>512.00000</ele>
        <time>2015-12-18T07:54:30Z</time>
      </trkpt>
      <trkpt lat="30.91699000" lon="34.74523000">
        <ele>512.00000</ele>
        <time>2015-12-18T07:54:33Z</time>
      </trkpt>
      <trkpt lat="30.91697000" lon="34.74530000">
        <ele>513.00000</ele>
        <time>2015-12-18T07:54:36Z</time>
      </trkpt>
      <trkpt lat="30.91692000" lon="34.74537000">
        <ele>513.00000</ele>
        <time>2015-12-18T07:54:39Z</time>
      </trkpt>
      <trkpt lat="30.91686000" lon="34.74544000">
        <ele>513.00000</ele>
        <time>2015-12-18T07:54:42Z</time>
      </trkpt>
      <trkpt lat="30.91681000" lon="34.74553000">
        <ele>513.00000</ele>
        <time>2015-12-18T07:54:45Z</time>
      </trkpt>
      <trkpt lat="30.91674000" lon="34.74558000">
        <ele>513.00000</ele>
        <time>2015-12-18T07:54:48Z</time>
      </trkpt>
      <trkpt lat="30.91665000" lon="34.74560000">
        <ele>513.00000</ele>
        <time>2015-12-18T07:54:51Z</time>
      </trkpt>
      <trkpt lat="30.91655000" lon="34.74555000">
        <ele>512.00000</ele>
        <time>2015-12-18T07:54:54Z</time>
      </trkpt>
      <trkpt lat="30.91644000" lon="34.74548000">
        <ele>511.00000</ele>
        <time>2015-12-18T07:54:57Z</time>
      </trkpt>
      <trkpt lat="30.91636000" lon="34.74548000">
        <ele>511.00000</ele>
        <time>2015-12-18T07:55:00Z</time>
      </trkpt>
      <trkpt lat="30.91629000" lon="34.74548000">
        <ele>510.00000</ele>
        <time>2015-12-18T07:55:03Z</time>
      </trkpt>
      <trkpt lat="30.91623000" lon="34.74547000">
        <ele>510.00000</ele>
        <time>2015-12-18T07:55:06Z</time>
      </trkpt>
      <trkpt lat="30.91621000" lon="34.74553000">
        <ele>511.00000</ele>
        <time>2015-12-18T07:55:09Z</time>
      </trkpt>
      <trkpt lat="30.91622000" lon="34.74565000">
        <ele>513.00000</ele>
        <time>2015-12-18T07:55:12Z</time>
      </trkpt>
      <trkpt lat="30.91623000" lon="34.74580000">
        <ele>515.00000</ele>
        <time>2015-12-18T07:55:15Z</time>
      </trkpt>
      <trkpt lat="30.91618000" lon="34.74597000">
        <ele>518.00000</ele>
        <time>2015-12-18T07:55:18Z</time>
      </trkpt>
      <trkpt lat="30.91607000" lon="34.74609000">
        <ele>519.00000</ele>
        <time>2015-12-18T07:55:21Z</time>
      </trkpt>
      <trkpt lat="30.91598000" lon="34.74621000">
        <ele>519.00000</ele>
        <time>2015-12-18T07:55:24Z</time>
      </trkpt>
      <trkpt lat="30.91589000" lon="34.74627000">
        <ele>519.00000</ele>
        <time>2015-12-18T07:55:27Z</time>
      </trkpt>
      <trkpt lat="30.91580000" lon="34.74634000">
        <ele>518.00000</ele>
        <time>2015-12-18T07:55:30Z</time>
      </trkpt>
      <trkpt lat="30.91572000" lon="34.74644000">
        <ele>518.00000</ele>
        <time>2015-12-18T07:55:33Z</time>
      </trkpt>
      <trkpt lat="30.91564000" lon="34.74653000">
        <ele>518.00000</ele>
        <time>2015-12-18T07:55:36Z</time>
      </trkpt>
      <trkpt lat="30.91560000" lon="34.74665000">
        <ele>518.00000</ele>
        <time>2015-12-18T07:55:39Z</time>
      </trkpt>
      <trkpt lat="30.91562000" lon="34.74679000">
        <ele>519.00000</ele>
        <time>2015-12-18T07:55:42Z</time>
      </trkpt>
      <trkpt lat="30.91566000" lon="34.74693000">
        <ele>520.00000</ele>
        <time>2015-12-18T07:55:45Z</time>
      </trkpt>
      <trkpt lat="30.91570000" lon="34.74708000">
        <ele>521.00000</ele>
        <time>2015-12-18T07:55:48Z</time>
      </trkpt>
      <trkpt lat="30.91573000" lon="34.74724000">
        <ele>519.00000</ele>
        <time>2015-12-18T07:55:51Z</time>
      </trkpt>
      <trkpt lat="30.91577000" lon="34.74739000">
        <ele>518.00000</ele>
        <time>2015-12-18T07:55:54Z</time>
      </trkpt>
      <trkpt lat="30.91575000" lon="34.74752000">
        <ele>517.00000</ele>
        <time>2015-12-18T07:55:57Z</time>
      </trkpt>
      <trkpt lat="30.91573000" lon="34.74764000">
        <ele>516.00000</ele>
        <time>2015-12-18T07:56:00Z</time>
      </trkpt>
      <trkpt lat="30.91571000" lon="34.74778000">
        <ele>515.00000</ele>
        <time>2015-12-18T07:56:03Z</time>
      </trkpt>
      <trkpt lat="30.91568000" lon="34.74792000">
        <ele>514.00000</ele>
        <time>2015-12-18T07:56:06Z</time>
      </trkpt>
      <trkpt lat="30.91565000" lon="34.74806000">
        <ele>515.00000</ele>
        <time>2015-12-18T07:56:09Z</time>
      </trkpt>
      <trkpt lat="30.91559000" lon="34.74819000">
        <ele>516.00000</ele>
        <time>2015-12-18T07:56:12Z</time>
      </trkpt>
      <trkpt lat="30.91554000" lon="34.74830000">
        <ele>517.00000</ele>
        <time>2015-12-18T07:56:15Z</time>
      </trkpt>
      <trkpt lat="30.91549000" lon="34.74842000">
        <ele>517.00000</ele>
        <time>2015-12-18T07:56:18Z</time>
      </trkpt>
      <trkpt lat="30.91547000" lon="34.74854000">
        <ele>518.00000</ele>
        <time>2015-12-18T07:56:21Z</time>
      </trkpt>
      <trkpt lat="30.91545000" lon="34.74867000">
        <ele>518.00000</ele>
        <time>2015-12-18T07:56:24Z</time>
      </trkpt>
      <trkpt lat="30.91541000" lon="34.74878000">
        <ele>518.00000</ele>
        <time>2015-12-18T07:56:27Z</time>
      </trkpt>
      <trkpt lat="30.91537000" lon="34.74889000">
        <ele>518.00000</ele>
        <time>2015-12-18T07:56:30Z</time>
      </trkpt>
      <trkpt lat="30.91532000" lon="34.74900000">
        <ele>518.00000</ele>
        <time>2015-12-18T07:56:33Z</time>
      </trkpt>
      <trkpt lat="30.91526000" lon="34.74912000">
        <ele>518.00000</ele>
        <time>2015-12-18T07:56:36Z</time>
      </trkpt>
      <trkpt lat="30.91521000" lon="34.74922000">
        <ele>519.00000</ele>
        <time>2015-12-18T07:56:39Z</time>
      </trkpt>
      <trkpt lat="30.91514000" lon="34.74937000">
        <ele>520.00000</ele>
        <time>2015-12-18T07:56:42Z</time>
      </trkpt>
      <trkpt lat="30.91510000" lon="34.74949000">
        <ele>521.00000</ele>
        <time>2015-12-18T07:56:45Z</time>
      </trkpt>
      <trkpt lat="30.91506000" lon="34.74965000">
        <ele>523.00000</ele>
        <time>2015-12-18T07:56:48Z</time>
      </trkpt>
      <trkpt lat="30.91505000" lon="34.74980000">
        <ele>524.00000</ele>
        <time>2015-12-18T07:56:51Z</time>
      </trkpt>
      <trkpt lat="30.91509000" lon="34.74997000">
        <ele>523.00000</ele>
        <time>2015-12-18T07:56:54Z</time>
      </trkpt>
      <trkpt lat="30.91515000" lon="34.75011000">
        <ele>522.00000</ele>
        <time>2015-12-18T07:56:57Z</time>
      </trkpt>
      <trkpt lat="30.91516000" lon="34.75023000">
        <ele>522.00000</ele>
        <time>2015-12-18T07:57:00Z</time>
      </trkpt>
      <trkpt lat="30.91511000" lon="34.75034000">
        <ele>524.00000</ele>
        <time>2015-12-18T07:57:03Z</time>
      </trkpt>
      <trkpt lat="30.91510000" lon="34.75046000">
        <ele>525.00000</ele>
        <time>2015-12-18T07:57:06Z</time>
      </trkpt>
      <trkpt lat="30.91512000" lon="34.75060000">
        <ele>525.00000</ele>
        <time>2015-12-18T07:57:09Z</time>
      </trkpt>
      <trkpt lat="30.91514000" lon="34.75073000">
        <ele>526.00000</ele>
        <time>2015-12-18T07:57:12Z</time>
      </trkpt>
      <trkpt lat="30.91520000" lon="34.75083000">
        <ele>525.00000</ele>
        <time>2015-12-18T07:57:15Z</time>
      </trkpt>
      <trkpt lat="30.91529000" lon="34.75094000">
        <ele>524.00000</ele>
        <time>2015-12-18T07:57:18Z</time>
      </trkpt>
      <trkpt lat="30.91536000" lon="34.75109000">
        <ele>524.00000</ele>
        <time>2015-12-18T07:57:21Z</time>
      </trkpt>
      <trkpt lat="30.91537000" lon="34.75126000">
        <ele>526.00000</ele>
        <time>2015-12-18T07:57:24Z</time>
      </trkpt>
      <trkpt lat="30.91536000" lon="34.75142000">
        <ele>528.00000</ele>
        <time>2015-12-18T07:57:27Z</time>
      </trkpt>
      <trkpt lat="30.91536000" lon="34.75157000">
        <ele>529.00000</ele>
        <time>2015-12-18T07:57:30Z</time>
      </trkpt>
      <trkpt lat="30.91532000" lon="34.75171000">
        <ele>531.00000</ele>
        <time>2015-12-18T07:57:33Z</time>
      </trkpt>
      <trkpt lat="30.91527000" lon="34.75182000">
        <ele>532.00000</ele>
        <time>2015-12-18T07:57:36Z</time>
      </trkpt>
      <trkpt lat="30.91525000" lon="34.75193000">
        <ele>533.00000</ele>
        <time>2015-12-18T07:57:39Z</time>
      </trkpt>
      <trkpt lat="30.91526000" lon="34.75205000">
        <ele>534.00000</ele>
        <time>2015-12-18T07:57:42Z</time>
      </trkpt>
      <trkpt lat="30.91535000" lon="34.75213000">
        <ele>535.00000</ele>
        <time>2015-12-18T07:57:45Z</time>
      </trkpt>
      <trkpt lat="30.91544000" lon="34.75219000">
        <ele>535.00000</ele>
        <time>2015-12-18T07:57:48Z</time>
      </trkpt>
      <trkpt lat="30.91550000" lon="34.75226000">
        <ele>537.00000</ele>
        <time>2015-12-18T07:57:51Z</time>
      </trkpt>
      <trkpt lat="30.91549000" lon="34.75224000">
        <ele>536.00000</ele>
        <time>2015-12-18T07:57:54Z</time>
      </trkpt>
      <trkpt lat="30.91548000" lon="34.75223000">
        <ele>536.00000</ele>
        <time>2015-12-18T07:57:57Z</time>
      </trkpt>
      <trkpt lat="30.91548000" lon="34.75222000">
        <ele>536.00000</ele>
        <time>2015-12-18T07:58:00Z</time>
      </trkpt>
      <trkpt lat="30.91547000" lon="34.75221000">
        <ele>536.00000</ele>
        <time>2015-12-18T07:58:03Z</time>
      </trkpt>
      <trkpt lat="30.91542000" lon="34.75216000">
        <ele>535.00000</ele>
        <time>2015-12-18T07:58:06Z</time>
      </trkpt>
      <trkpt lat="30.91535000" lon="34.75211000">
        <ele>534.00000</ele>
        <time>2015-12-18T07:58:09Z</time>
      </trkpt>
      <trkpt lat="30.91526000" lon="34.75209000">
        <ele>534.00000</ele>
        <time>2015-12-18T07:58:12Z</time>
      </trkpt>
      <trkpt lat="30.91523000" lon="34.75213000">
        <ele>535.00000</ele>
        <time>2015-12-18T07:58:15Z</time>
      </trkpt>
      <trkpt lat="30.91521000" lon="34.75217000">
        <ele>535.00000</ele>
        <time>2015-12-18T07:58:18Z</time>
      </trkpt>
      <trkpt lat="30.91519000" lon="34.75221000">
        <ele>535.00000</ele>
        <time>2015-12-18T07:58:21Z</time>
      </trkpt>
      <trkpt lat="30.91518000" lon="34.75229000">
        <ele>536.00000</ele>
        <time>2015-12-18T07:58:24Z</time>
      </trkpt>
      <trkpt lat="30.91516000" lon="34.75244000">
        <ele>537.00000</ele>
        <time>2015-12-18T07:58:27Z</time>
      </trkpt>
      <trkpt lat="30.91513000" lon="34.75261000">
        <ele>539.00000</ele>
        <time>2015-12-18T07:58:30Z</time>
      </trkpt>
      <trkpt lat="30.91503000" lon="34.75277000">
        <ele>540.00000</ele>
        <time>2015-12-18T07:58:33Z</time>
      </trkpt>
      <trkpt lat="30.91487000" lon="34.75285000">
        <ele>540.00000</ele>
        <time>2015-12-18T07:58:36Z</time>
      </trkpt>
      <trkpt lat="30.91469000" lon="34.75289000">
        <ele>540.00000</ele>
        <time>2015-12-18T07:58:39Z</time>
      </trkpt>
      <trkpt lat="30.91454000" lon="34.75285000">
        <ele>539.00000</ele>
        <time>2015-12-18T07:58:42Z</time>
      </trkpt>
      <trkpt lat="30.91439000" lon="34.75282000">
        <ele>538.00000</ele>
        <time>2015-12-18T07:58:45Z</time>
      </trkpt>
      <trkpt lat="30.91426000" lon="34.75288000">
        <ele>537.00000</ele>
        <time>2015-12-18T07:58:48Z</time>
      </trkpt>
      <trkpt lat="30.91417000" lon="34.75304000">
        <ele>538.00000</ele>
        <time>2015-12-18T07:58:51Z</time>
      </trkpt>
      <trkpt lat="30.91407000" lon="34.75321000">
        <ele>539.00000</ele>
        <time>2015-12-18T07:58:54Z</time>
      </trkpt>
      <trkpt lat="30.91393000" lon="34.75331000">
        <ele>540.00000</ele>
        <time>2015-12-18T07:58:57Z</time>
      </trkpt>
      <trkpt lat="30.91376000" lon="34.75328000">
        <ele>539.00000</ele>
        <time>2015-12-18T07:59:00Z</time>
      </trkpt>
      <trkpt lat="30.91359000" lon="34.75329000">
        <ele>538.00000</ele>
        <time>2015-12-18T07:59:03Z</time>
      </trkpt>
      <trkpt lat="30.91344000" lon="34.75340000">
        <ele>538.00000</ele>
        <time>2015-12-18T07:59:06Z</time>
      </trkpt>
      <trkpt lat="30.91332000" lon="34.75356000">
        <ele>539.00000</ele>
        <time>2015-12-18T07:59:09Z</time>
      </trkpt>
      <trkpt lat="30.91316000" lon="34.75367000">
        <ele>540.00000</ele>
        <time>2015-12-18T07:59:12Z</time>
      </trkpt>
      <trkpt lat="30.91298000" lon="34.75370000">
        <ele>539.00000</ele>
        <time>2015-12-18T07:59:15Z</time>
      </trkpt>
      <trkpt lat="30.91282000" lon="34.75365000">
        <ele>538.00000</ele>
        <time>2015-12-18T07:59:18Z</time>
      </trkpt>
      <trkpt lat="30.91266000" lon="34.75357000">
        <ele>537.00000</ele>
        <time>2015-12-18T07:59:21Z</time>
      </trkpt>
      <trkpt lat="30.91251000" lon="34.75352000">
        <ele>537.00000</ele>
        <time>2015-12-18T07:59:24Z</time>
      </trkpt>
      <trkpt lat="30.91239000" lon="34.75344000">
        <ele>537.00000</ele>
        <time>2015-12-18T07:59:27Z</time>
      </trkpt>
      <trkpt lat="30.91230000" lon="34.75339000">
        <ele>538.00000</ele>
        <time>2015-12-18T07:59:30Z</time>
      </trkpt>
      <trkpt lat="30.91227000" lon="34.75338000">
        <ele>538.00000</ele>
        <time>2015-12-18T07:59:33Z</time>
      </trkpt>
      <trkpt lat="30.91224000" lon="34.75338000">
        <ele>538.00000</ele>
        <time>2015-12-18T07:59:36Z</time>
      </trkpt>
      <trkpt lat="30.91226000" lon="34.75335000">
        <ele>538.00000</ele>
        <time>2015-12-18T08:00:03Z</time>
      </trkpt>
      <trkpt lat="30.91221000" lon="34.75339000">
        <ele>538.00000</ele>
        <time>2015-12-18T08:04:18Z</time>
      </trkpt>
      <trkpt lat="30.91213000" lon="34.75334000">
        <ele>539.00000</ele>
        <time>2015-12-18T08:04:21Z</time>
      </trkpt>
      <trkpt lat="30.91201000" lon="34.75328000">
        <ele>539.00000</ele>
        <time>2015-12-18T08:04:24Z</time>
      </trkpt>
      <trkpt lat="30.91183000" lon="34.75320000">
        <ele>538.00000</ele>
        <time>2015-12-18T08:04:27Z</time>
      </trkpt>
      <trkpt lat="30.91170000" lon="34.75318000">
        <ele>537.00000</ele>
        <time>2015-12-18T08:04:30Z</time>
      </trkpt>
      <trkpt lat="30.91147000" lon="34.75329000">
        <ele>535.00000</ele>
        <time>2015-12-18T08:04:33Z</time>
      </trkpt>
      <trkpt lat="30.91129000" lon="34.75337000">
        <ele>534.00000</ele>
        <time>2015-12-18T08:04:36Z</time>
      </trkpt>
      <trkpt lat="30.91112000" lon="34.75338000">
        <ele>533.00000</ele>
        <time>2015-12-18T08:04:39Z</time>
      </trkpt>
      <trkpt lat="30.91098000" lon="34.75325000">
        <ele>533.00000</ele>
        <time>2015-12-18T08:04:42Z</time>
      </trkpt>
      <trkpt lat="30.91084000" lon="34.75324000">
        <ele>532.00000</ele>
        <time>2015-12-18T08:04:45Z</time>
      </trkpt>
      <trkpt lat="30.91063000" lon="34.75328000">
        <ele>531.00000</ele>
        <time>2015-12-18T08:04:48Z</time>
      </trkpt>
      <trkpt lat="30.91034000" lon="34.75327000">
        <ele>530.00000</ele>
        <time>2015-12-18T08:04:51Z</time>
      </trkpt>
      <trkpt lat="30.91010000" lon="34.75330000">
        <ele>530.00000</ele>
        <time>2015-12-18T08:04:54Z</time>
      </trkpt>
      <trkpt lat="30.90995000" lon="34.75334000">
        <ele>530.00000</ele>
        <time>2015-12-18T08:04:57Z</time>
      </trkpt>
      <trkpt lat="30.90978000" lon="34.75347000">
        <ele>528.00000</ele>
        <time>2015-12-18T08:05:00Z</time>
      </trkpt>
      <trkpt lat="30.90971000" lon="34.75375000">
        <ele>524.00000</ele>
        <time>2015-12-18T08:05:03Z</time>
      </trkpt>
      <trkpt lat="30.90970000" lon="34.75401000">
        <ele>519.00000</ele>
        <time>2015-12-18T08:05:06Z</time>
      </trkpt>
      <trkpt lat="30.90965000" lon="34.75419000">
        <ele>516.00000</ele>
        <time>2015-12-18T08:05:09Z</time>
      </trkpt>
      <trkpt lat="30.90956000" lon="34.75437000">
        <ele>512.00000</ele>
        <time>2015-12-18T08:05:12Z</time>
      </trkpt>
      <trkpt lat="30.90947000" lon="34.75451000">
        <ele>511.00000</ele>
        <time>2015-12-18T08:05:15Z</time>
      </trkpt>
      <trkpt lat="30.90937000" lon="34.75467000">
        <ele>510.00000</ele>
        <time>2015-12-18T08:05:18Z</time>
      </trkpt>
      <trkpt lat="30.90927000" lon="34.75483000">
        <ele>509.00000</ele>
        <time>2015-12-18T08:05:21Z</time>
      </trkpt>
      <trkpt lat="30.90913000" lon="34.75503000">
        <ele>508.00000</ele>
        <time>2015-12-18T08:05:24Z</time>
      </trkpt>
      <trkpt lat="30.90897000" lon="34.75522000">
        <ele>508.00000</ele>
        <time>2015-12-18T08:05:27Z</time>
      </trkpt>
      <trkpt lat="30.90879000" lon="34.75540000">
        <ele>509.00000</ele>
        <time>2015-12-18T08:05:30Z</time>
      </trkpt>
      <trkpt lat="30.90859000" lon="34.75557000">
        <ele>505.00000</ele>
        <time>2015-12-18T08:05:33Z</time>
      </trkpt>
      <trkpt lat="30.90834000" lon="34.75566000">
        <ele>501.00000</ele>
        <time>2015-12-18T08:05:36Z</time>
      </trkpt>
      <trkpt lat="30.90810000" lon="34.75568000">
        <ele>497.00000</ele>
        <time>2015-12-18T08:05:39Z</time>
      </trkpt>
      <trkpt lat="30.90793000" lon="34.75568000">
        <ele>495.00000</ele>
        <time>2015-12-18T08:05:42Z</time>
      </trkpt>
      <trkpt lat="30.90762000" lon="34.75568000">
        <ele>488.00000</ele>
        <time>2015-12-18T08:05:45Z</time>
      </trkpt>
      <trkpt lat="30.90748000" lon="34.75576000">
        <ele>487.00000</ele>
        <time>2015-12-18T08:05:48Z</time>
      </trkpt>
      <trkpt lat="30.90733000" lon="34.75595000">
        <ele>488.00000</ele>
        <time>2015-12-18T08:05:51Z</time>
      </trkpt>
      <trkpt lat="30.90721000" lon="34.75608000">
        <ele>489.00000</ele>
        <time>2015-12-18T08:05:54Z</time>
      </trkpt>
      <trkpt lat="30.90694000" lon="34.75622000">
        <ele>485.00000</ele>
        <time>2015-12-18T08:05:57Z</time>
      </trkpt>
      <trkpt lat="30.90669000" lon="34.75629000">
        <ele>479.00000</ele>
        <time>2015-12-18T08:06:00Z</time>
      </trkpt>
      <trkpt lat="30.90645000" lon="34.75643000">
        <ele>475.00000</ele>
        <time>2015-12-18T08:06:03Z</time>
      </trkpt>
      <trkpt lat="30.90617000" lon="34.75647000">
        <ele>469.00000</ele>
        <time>2015-12-18T08:06:06Z</time>
      </trkpt>
      <trkpt lat="30.90591000" lon="34.75637000">
        <ele>465.00000</ele>
        <time>2015-12-18T08:06:09Z</time>
      </trkpt>
      <trkpt lat="30.90571000" lon="34.75641000">
        <ele>464.00000</ele>
        <time>2015-12-18T08:06:12Z</time>
      </trkpt>
      <trkpt lat="30.90556000" lon="34.75657000">
        <ele>463.00000</ele>
        <time>2015-12-18T08:06:15Z</time>
      </trkpt>
      <trkpt lat="30.90537000" lon="34.75670000">
        <ele>463.00000</ele>
        <time>2015-12-18T08:06:18Z</time>
      </trkpt>
      <trkpt lat="30.90520000" lon="34.75684000">
        <ele>465.00000</ele>
        <time>2015-12-18T08:06:21Z</time>
      </trkpt>
      <trkpt lat="30.90507000" lon="34.75699000">
        <ele>465.00000</ele>
        <time>2015-12-18T08:06:24Z</time>
      </trkpt>
      <trkpt lat="30.90505000" lon="34.75723000">
        <ele>465.00000</ele>
        <time>2015-12-18T08:06:27Z</time>
      </trkpt>
      <trkpt lat="30.90501000" lon="34.75750000">
        <ele>465.00000</ele>
        <time>2015-12-18T08:06:30Z</time>
      </trkpt>
      <trkpt lat="30.90495000" lon="34.75774000">
        <ele>465.00000</ele>
        <time>2015-12-18T08:06:33Z</time>
      </trkpt>
      <trkpt lat="30.90487000" lon="34.75800000">
        <ele>463.00000</ele>
        <time>2015-12-18T08:06:36Z</time>
      </trkpt>
      <trkpt lat="30.90479000" lon="34.75824000">
        <ele>460.00000</ele>
        <time>2015-12-18T08:06:39Z</time>
      </trkpt>
      <trkpt lat="30.90473000" lon="34.75847000">
        <ele>458.00000</ele>
        <time>2015-12-18T08:06:42Z</time>
      </trkpt>
      <trkpt lat="30.90468000" lon="34.75874000">
        <ele>455.00000</ele>
        <time>2015-12-18T08:06:45Z</time>
      </trkpt>
      <trkpt lat="30.90459000" lon="34.75899000">
        <ele>453.00000</ele>
        <time>2015-12-18T08:06:48Z</time>
      </trkpt>
      <trkpt lat="30.90454000" lon="34.75910000">
        <ele>453.00000</ele>
        <time>2015-12-18T08:06:51Z</time>
      </trkpt>
      <trkpt lat="30.90453000" lon="34.75911000">
        <ele>452.00000</ele>
        <time>2015-12-18T08:06:54Z</time>
      </trkpt>
      <trkpt lat="30.90452000" lon="34.75911000">
        <ele>452.00000</ele>
        <time>2015-12-18T08:07:09Z</time>
      </trkpt>
      <trkpt lat="30.90452000" lon="34.75912000">
        <ele>452.00000</ele>
        <time>2015-12-18T08:07:15Z</time>
      </trkpt>
      <trkpt lat="30.90451000" lon="34.75912000">
        <ele>452.00000</ele>
        <time>2015-12-18T08:08:57Z</time>
      </trkpt>
      <trkpt lat="30.90451000" lon="34.75913000">
        <ele>452.00000</ele>
        <time>2015-12-18T08:09:27Z</time>
      </trkpt>
      <trkpt lat="30.90450000" lon="34.75913000">
        <ele>452.00000</ele>
        <time>2015-12-18T08:10:42Z</time>
      </trkpt>
      <trkpt lat="30.90450000" lon="34.75914000">
        <ele>452.00000</ele>
        <time>2015-12-18T08:11:42Z</time>
      </trkpt>
      <trkpt lat="30.90449000" lon="34.75914000">
        <ele>452.00000</ele>
        <time>2015-12-18T08:12:30Z</time>
      </trkpt>
      <trkpt lat="30.90447000" lon="34.75916000">
        <ele>452.00000</ele>
        <time>2015-12-18T08:13:48Z</time>
      </trkpt>
      <trkpt lat="30.90443000" lon="34.75920000">
        <ele>452.00000</ele>
        <time>2015-12-18T08:13:51Z</time>
      </trkpt>
      <trkpt lat="30.90440000" lon="34.75923000">
        <ele>451.00000</ele>
        <time>2015-12-18T08:13:54Z</time>
      </trkpt>
      <trkpt lat="30.90436000" lon="34.75928000">
        <ele>451.00000</ele>
        <time>2015-12-18T08:13:57Z</time>
      </trkpt>
      <trkpt lat="30.90431000" lon="34.75934000">
        <ele>450.00000</ele>
        <time>2015-12-18T08:14:00Z</time>
      </trkpt>
      <trkpt lat="30.90425000" lon="34.75942000">
        <ele>449.00000</ele>
        <time>2015-12-18T08:14:03Z</time>
      </trkpt>
      <trkpt lat="30.90418000" lon="34.75951000">
        <ele>449.00000</ele>
        <time>2015-12-18T08:14:06Z</time>
      </trkpt>
      <trkpt lat="30.90412000" lon="34.75962000">
        <ele>448.00000</ele>
        <time>2015-12-18T08:14:09Z</time>
      </trkpt>
      <trkpt lat="30.90404000" lon="34.75971000">
        <ele>447.00000</ele>
        <time>2015-12-18T08:14:12Z</time>
      </trkpt>
      <trkpt lat="30.90395000" lon="34.75981000">
        <ele>446.00000</ele>
        <time>2015-12-18T08:14:15Z</time>
      </trkpt>
      <trkpt lat="30.90384000" lon="34.75992000">
        <ele>445.00000</ele>
        <time>2015-12-18T08:14:18Z</time>
      </trkpt>
      <trkpt lat="30.90373000" lon="34.76003000">
        <ele>444.00000</ele>
        <time>2015-12-18T08:14:21Z</time>
      </trkpt>
      <trkpt lat="30.90362000" lon="34.76016000">
        <ele>444.00000</ele>
        <time>2015-12-18T08:14:24Z</time>
      </trkpt>
      <trkpt lat="30.90355000" lon="34.76030000">
        <ele>443.00000</ele>
        <time>2015-12-18T08:14:27Z</time>
      </trkpt>
      <trkpt lat="30.90349000" lon="34.76042000">
        <ele>443.00000</ele>
        <time>2015-12-18T08:14:30Z</time>
      </trkpt>
      <trkpt lat="30.90344000" lon="34.76054000">
        <ele>442.00000</ele>
        <time>2015-12-18T08:14:33Z</time>
      </trkpt>
      <trkpt lat="30.90338000" lon="34.76066000">
        <ele>441.00000</ele>
        <time>2015-12-18T08:14:36Z</time>
      </trkpt>
      <trkpt lat="30.90333000" lon="34.76078000">
        <ele>440.00000</ele>
        <time>2015-12-18T08:14:39Z</time>
      </trkpt>
      <trkpt lat="30.90329000" lon="34.76089000">
        <ele>440.00000</ele>
        <time>2015-12-18T08:14:42Z</time>
      </trkpt>
      <trkpt lat="30.90326000" lon="34.76100000">
        <ele>439.00000</ele>
        <time>2015-12-18T08:14:45Z</time>
      </trkpt>
      <trkpt lat="30.90322000" lon="34.76116000">
        <ele>438.00000</ele>
        <time>2015-12-18T08:14:48Z</time>
      </trkpt>
      <trkpt lat="30.90312000" lon="34.76130000">
        <ele>437.00000</ele>
        <time>2015-12-18T08:14:51Z</time>
      </trkpt>
      <trkpt lat="30.90303000" lon="34.76143000">
        <ele>438.00000</ele>
        <time>2015-12-18T08:14:54Z</time>
      </trkpt>
      <trkpt lat="30.90296000" lon="34.76157000">
        <ele>438.00000</ele>
        <time>2015-12-18T08:14:57Z</time>
      </trkpt>
      <trkpt lat="30.90289000" lon="34.76171000">
        <ele>439.00000</ele>
        <time>2015-12-18T08:15:00Z</time>
      </trkpt>
      <trkpt lat="30.90281000" lon="34.76186000">
        <ele>439.00000</ele>
        <time>2015-12-18T08:15:03Z</time>
      </trkpt>
      <trkpt lat="30.90273000" lon="34.76202000">
        <ele>440.00000</ele>
        <time>2015-12-18T08:15:06Z</time>
      </trkpt>
      <trkpt lat="30.90266000" lon="34.76218000">
        <ele>440.00000</ele>
        <time>2015-12-18T08:15:09Z</time>
      </trkpt>
      <trkpt lat="30.90260000" lon="34.76235000">
        <ele>440.00000</ele>
        <time>2015-12-18T08:15:12Z</time>
      </trkpt>
      <trkpt lat="30.90252000" lon="34.76250000">
        <ele>439.00000</ele>
        <time>2015-12-18T08:15:15Z</time>
      </trkpt>
      <trkpt lat="30.90237000" lon="34.76259000">
        <ele>439.00000</ele>
        <time>2015-12-18T08:15:18Z</time>
      </trkpt>
      <trkpt lat="30.90219000" lon="34.76269000">
        <ele>439.00000</ele>
        <time>2015-12-18T08:15:21Z</time>
      </trkpt>
      <trkpt lat="30.90202000" lon="34.76279000">
        <ele>438.00000</ele>
        <time>2015-12-18T08:15:24Z</time>
      </trkpt>
      <trkpt lat="30.90186000" lon="34.76288000">
        <ele>437.00000</ele>
        <time>2015-12-18T08:15:27Z</time>
      </trkpt>
      <trkpt lat="30.90169000" lon="34.76297000">
        <ele>435.00000</ele>
        <time>2015-12-18T08:15:30Z</time>
      </trkpt>
      <trkpt lat="30.90153000" lon="34.76308000">
        <ele>434.00000</ele>
        <time>2015-12-18T08:15:33Z</time>
      </trkpt>
      <trkpt lat="30.90142000" lon="34.76320000">
        <ele>434.00000</ele>
        <time>2015-12-18T08:15:36Z</time>
      </trkpt>
      <trkpt lat="30.90133000" lon="34.76332000">
        <ele>434.00000</ele>
        <time>2015-12-18T08:15:39Z</time>
      </trkpt>
      <trkpt lat="30.90127000" lon="34.76344000">
        <ele>434.00000</ele>
        <time>2015-12-18T08:15:42Z</time>
      </trkpt>
      <trkpt lat="30.90121000" lon="34.76356000">
        <ele>435.00000</ele>
        <time>2015-12-18T08:15:45Z</time>
      </trkpt>
      <trkpt lat="30.90117000" lon="34.76369000">
        <ele>436.00000</ele>
        <time>2015-12-18T08:15:48Z</time>
      </trkpt>
      <trkpt lat="30.90115000" lon="34.76383000">
        <ele>437.00000</ele>
        <time>2015-12-18T08:15:51Z</time>
      </trkpt>
      <trkpt lat="30.90118000" lon="34.76396000">
        <ele>437.00000</ele>
        <time>2015-12-18T08:15:54Z</time>
      </trkpt>
      <trkpt lat="30.90122000" lon="34.76408000">
        <ele>437.00000</ele>
        <time>2015-12-18T08:15:57Z</time>
      </trkpt>
      <trkpt lat="30.90127000" lon="34.76426000">
        <ele>438.00000</ele>
        <time>2015-12-18T08:16:00Z</time>
      </trkpt>
      <trkpt lat="30.90128000" lon="34.76444000">
        <ele>439.00000</ele>
        <time>2015-12-18T08:16:03Z</time>
      </trkpt>
      <trkpt lat="30.90129000" lon="34.76460000">
        <ele>439.00000</ele>
        <time>2015-12-18T08:16:06Z</time>
      </trkpt>
      <trkpt lat="30.90132000" lon="34.76473000">
        <ele>440.00000</ele>
        <time>2015-12-18T08:16:09Z</time>
      </trkpt>
      <trkpt lat="30.90137000" lon="34.76488000">
        <ele>440.00000</ele>
        <time>2015-12-18T08:16:12Z</time>
      </trkpt>
      <trkpt lat="30.90136000" lon="34.76504000">
        <ele>440.00000</ele>
        <time>2015-12-18T08:16:15Z</time>
      </trkpt>
      <trkpt lat="30.90134000" lon="34.76517000">
        <ele>440.00000</ele>
        <time>2015-12-18T08:16:18Z</time>
      </trkpt>
      <trkpt lat="30.90138000" lon="34.76530000">
        <ele>441.00000</ele>
        <time>2015-12-18T08:16:21Z</time>
      </trkpt>
      <trkpt lat="30.90144000" lon="34.76548000">
        <ele>441.00000</ele>
        <time>2015-12-18T08:16:24Z</time>
      </trkpt>
      <trkpt lat="30.90144000" lon="34.76566000">
        <ele>441.00000</ele>
        <time>2015-12-18T08:16:27Z</time>
      </trkpt>
      <trkpt lat="30.90145000" lon="34.76584000">
        <ele>441.00000</ele>
        <time>2015-12-18T08:16:30Z</time>
      </trkpt>
      <trkpt lat="30.90145000" lon="34.76600000">
        <ele>441.00000</ele>
        <time>2015-12-18T08:16:33Z</time>
      </trkpt>
      <trkpt lat="30.90140000" lon="34.76614000">
        <ele>442.00000</ele>
        <time>2015-12-18T08:16:36Z</time>
      </trkpt>
      <trkpt lat="30.90134000" lon="34.76624000">
        <ele>442.00000</ele>
        <time>2015-12-18T08:16:39Z</time>
      </trkpt>
      <trkpt lat="30.90128000" lon="34.76631000">
        <ele>442.00000</ele>
        <time>2015-12-18T08:16:42Z</time>
      </trkpt>
      <trkpt lat="30.90121000" lon="34.76638000">
        <ele>442.00000</ele>
        <time>2015-12-18T08:16:45Z</time>
      </trkpt>
      <trkpt lat="30.90113000" lon="34.76644000">
        <ele>443.00000</ele>
        <time>2015-12-18T08:16:48Z</time>
      </trkpt>
      <trkpt lat="30.90104000" lon="34.76649000">
        <ele>444.00000</ele>
        <time>2015-12-18T08:16:51Z</time>
      </trkpt>
      <trkpt lat="30.90095000" lon="34.76653000">
        <ele>444.00000</ele>
        <time>2015-12-18T08:16:54Z</time>
      </trkpt>
      <trkpt lat="30.90086000" lon="34.76659000">
        <ele>445.00000</ele>
        <time>2015-12-18T08:16:57Z</time>
      </trkpt>
      <trkpt lat="30.90076000" lon="34.76664000">
        <ele>446.00000</ele>
        <time>2015-12-18T08:17:00Z</time>
      </trkpt>
      <trkpt lat="30.90067000" lon="34.76669000">
        <ele>446.00000</ele>
        <time>2015-12-18T08:17:03Z</time>
      </trkpt>
      <trkpt lat="30.90061000" lon="34.76680000">
        <ele>446.00000</ele>
        <time>2015-12-18T08:17:06Z</time>
      </trkpt>
      <trkpt lat="30.90058000" lon="34.76692000">
        <ele>446.00000</ele>
        <time>2015-12-18T08:17:09Z</time>
      </trkpt>
      <trkpt lat="30.90055000" lon="34.76703000">
        <ele>446.00000</ele>
        <time>2015-12-18T08:17:12Z</time>
      </trkpt>
      <trkpt lat="30.90053000" lon="34.76712000">
        <ele>446.00000</ele>
        <time>2015-12-18T08:17:15Z</time>
      </trkpt>
      <trkpt lat="30.90053000" lon="34.76723000">
        <ele>446.00000</ele>
        <time>2015-12-18T08:17:18Z</time>
      </trkpt>
      <trkpt lat="30.90054000" lon="34.76735000">
        <ele>446.00000</ele>
        <time>2015-12-18T08:17:21Z</time>
      </trkpt>
      <trkpt lat="30.90056000" lon="34.76748000">
        <ele>446.00000</ele>
        <time>2015-12-18T08:17:24Z</time>
      </trkpt>
      <trkpt lat="30.90059000" lon="34.76766000">
        <ele>446.00000</ele>
        <time>2015-12-18T08:17:27Z</time>
      </trkpt>
      <trkpt lat="30.90063000" lon="34.76789000">
        <ele>446.00000</ele>
        <time>2015-12-18T08:17:30Z</time>
      </trkpt>
      <trkpt lat="30.90063000" lon="34.76811000">
        <ele>445.00000</ele>
        <time>2015-12-18T08:17:33Z</time>
      </trkpt>
      <trkpt lat="30.90055000" lon="34.76827000">
        <ele>445.00000</ele>
        <time>2015-12-18T08:17:36Z</time>
      </trkpt>
      <trkpt lat="30.90046000" lon="34.76837000">
        <ele>445.00000</ele>
        <time>2015-12-18T08:17:39Z</time>
      </trkpt>
      <trkpt lat="30.90039000" lon="34.76848000">
        <ele>445.00000</ele>
        <time>2015-12-18T08:17:42Z</time>
      </trkpt>
      <trkpt lat="30.90033000" lon="34.76860000">
        <ele>445.00000</ele>
        <time>2015-12-18T08:17:45Z</time>
      </trkpt>
      <trkpt lat="30.90028000" lon="34.76874000">
        <ele>445.00000</ele>
        <time>2015-12-18T08:17:48Z</time>
      </trkpt>
      <trkpt lat="30.90025000" lon="34.76889000">
        <ele>446.00000</ele>
        <time>2015-12-18T08:17:51Z</time>
      </trkpt>
      <trkpt lat="30.90027000" lon="34.76903000">
        <ele>446.00000</ele>
        <time>2015-12-18T08:17:54Z</time>
      </trkpt>
      <trkpt lat="30.90027000" lon="34.76916000">
        <ele>446.00000</ele>
        <time>2015-12-18T08:17:57Z</time>
      </trkpt>
      <trkpt lat="30.90027000" lon="34.76929000">
        <ele>446.00000</ele>
        <time>2015-12-18T08:18:00Z</time>
      </trkpt>
      <trkpt lat="30.90026000" lon="34.76942000">
        <ele>446.00000</ele>
        <time>2015-12-18T08:18:03Z</time>
      </trkpt>
      <trkpt lat="30.90025000" lon="34.76954000">
        <ele>446.00000</ele>
        <time>2015-12-18T08:18:06Z</time>
      </trkpt>
      <trkpt lat="30.90020000" lon="34.76965000">
        <ele>446.00000</ele>
        <time>2015-12-18T08:18:09Z</time>
      </trkpt>
      <trkpt lat="30.90013000" lon="34.76975000">
        <ele>447.00000</ele>
        <time>2015-12-18T08:18:12Z</time>
      </trkpt>
      <trkpt lat="30.90005000" lon="34.76983000">
        <ele>447.00000</ele>
        <time>2015-12-18T08:18:15Z</time>
      </trkpt>
      <trkpt lat="30.89995000" lon="34.76991000">
        <ele>447.00000</ele>
        <time>2015-12-18T08:18:18Z</time>
      </trkpt>
      <trkpt lat="30.89987000" lon="34.76999000">
        <ele>447.00000</ele>
        <time>2015-12-18T08:18:21Z</time>
      </trkpt>
      <trkpt lat="30.89978000" lon="34.77008000">
        <ele>447.00000</ele>
        <time>2015-12-18T08:18:24Z</time>
      </trkpt>
      <trkpt lat="30.89968000" lon="34.77016000">
        <ele>447.00000</ele>
        <time>2015-12-18T08:18:27Z</time>
      </trkpt>
      <trkpt lat="30.89959000" lon="34.77023000">
        <ele>447.00000</ele>
        <time>2015-12-18T08:18:30Z</time>
      </trkpt>
      <trkpt lat="30.89949000" lon="34.77029000">
        <ele>447.00000</ele>
        <time>2015-12-18T08:18:33Z</time>
      </trkpt>
      <trkpt lat="30.89940000" lon="34.77038000">
        <ele>447.00000</ele>
        <time>2015-12-18T08:18:36Z</time>
      </trkpt>
      <trkpt lat="30.89931000" lon="34.77047000">
        <ele>447.00000</ele>
        <time>2015-12-18T08:18:39Z</time>
      </trkpt>
      <trkpt lat="30.89922000" lon="34.77057000">
        <ele>446.00000</ele>
        <time>2015-12-18T08:18:42Z</time>
      </trkpt>
      <trkpt lat="30.89912000" lon="34.77066000">
        <ele>446.00000</ele>
        <time>2015-12-18T08:18:45Z</time>
      </trkpt>
      <trkpt lat="30.89903000" lon="34.77076000">
        <ele>446.00000</ele>
        <time>2015-12-18T08:18:48Z</time>
      </trkpt>
      <trkpt lat="30.89893000" lon="34.77085000">
        <ele>446.00000</ele>
        <time>2015-12-18T08:18:51Z</time>
      </trkpt>
      <trkpt lat="30.89882000" lon="34.77093000">
        <ele>446.00000</ele>
        <time>2015-12-18T08:18:54Z</time>
      </trkpt>
      <trkpt lat="30.89872000" lon="34.77103000">
        <ele>446.00000</ele>
        <time>2015-12-18T08:18:57Z</time>
      </trkpt>
      <trkpt lat="30.89861000" lon="34.77112000">
        <ele>446.00000</ele>
        <time>2015-12-18T08:19:00Z</time>
      </trkpt>
      <trkpt lat="30.89850000" lon="34.77121000">
        <ele>446.00000</ele>
        <time>2015-12-18T08:19:03Z</time>
      </trkpt>
      <trkpt lat="30.89839000" lon="34.77129000">
        <ele>446.00000</ele>
        <time>2015-12-18T08:19:06Z</time>
      </trkpt>
      <trkpt lat="30.89828000" lon="34.77139000">
        <ele>447.00000</ele>
        <time>2015-12-18T08:19:09Z</time>
      </trkpt>
      <trkpt lat="30.89818000" lon="34.77149000">
        <ele>447.00000</ele>
        <time>2015-12-18T08:19:12Z</time>
      </trkpt>
      <trkpt lat="30.89807000" lon="34.77160000">
        <ele>447.00000</ele>
        <time>2015-12-18T08:19:15Z</time>
      </trkpt>
      <trkpt lat="30.89797000" lon="34.77170000">
        <ele>447.00000</ele>
        <time>2015-12-18T08:19:18Z</time>
      </trkpt>
      <trkpt lat="30.89786000" lon="34.77180000">
        <ele>447.00000</ele>
        <time>2015-12-18T08:19:21Z</time>
      </trkpt>
      <trkpt lat="30.89775000" lon="34.77190000">
        <ele>448.00000</ele>
        <time>2015-12-18T08:19:24Z</time>
      </trkpt>
      <trkpt lat="30.89763000" lon="34.77201000">
        <ele>448.00000</ele>
        <time>2015-12-18T08:19:27Z</time>
      </trkpt>
      <trkpt lat="30.89751000" lon="34.77210000">
        <ele>448.00000</ele>
        <time>2015-12-18T08:19:30Z</time>
      </trkpt>
      <trkpt lat="30.89740000" lon="34.77222000">
        <ele>448.00000</ele>
        <time>2015-12-18T08:19:33Z</time>
      </trkpt>
      <trkpt lat="30.89729000" lon="34.77234000">
        <ele>447.00000</ele>
        <time>2015-12-18T08:19:36Z</time>
      </trkpt>
      <trkpt lat="30.89715000" lon="34.77242000">
        <ele>447.00000</ele>
        <time>2015-12-18T08:19:39Z</time>
      </trkpt>
      <trkpt lat="30.89700000" lon="34.77244000">
        <ele>447.00000</ele>
        <time>2015-12-18T08:19:42Z</time>
      </trkpt>
      <trkpt lat="30.89683000" lon="34.77243000">
        <ele>448.00000</ele>
        <time>2015-12-18T08:19:45Z</time>
      </trkpt>
      <trkpt lat="30.89668000" lon="34.77245000">
        <ele>449.00000</ele>
        <time>2015-12-18T08:19:48Z</time>
      </trkpt>
      <trkpt lat="30.89654000" lon="34.77249000">
        <ele>449.00000</ele>
        <time>2015-12-18T08:19:51Z</time>
      </trkpt>
      <trkpt lat="30.89640000" lon="34.77255000">
        <ele>449.00000</ele>
        <time>2015-12-18T08:19:54Z</time>
      </trkpt>
      <trkpt lat="30.89626000" lon="34.77263000">
        <ele>448.00000</ele>
        <time>2015-12-18T08:19:57Z</time>
      </trkpt>
      <trkpt lat="30.89612000" lon="34.77272000">
        <ele>449.00000</ele>
        <time>2015-12-18T08:20:00Z</time>
      </trkpt>
      <trkpt lat="30.89596000" lon="34.77279000">
        <ele>450.00000</ele>
        <time>2015-12-18T08:20:03Z</time>
      </trkpt>
      <trkpt lat="30.89581000" lon="34.77285000">
        <ele>451.00000</ele>
        <time>2015-12-18T08:20:06Z</time>
      </trkpt>
      <trkpt lat="30.89565000" lon="34.77292000">
        <ele>452.00000</ele>
        <time>2015-12-18T08:20:09Z</time>
      </trkpt>
      <trkpt lat="30.89550000" lon="34.77298000">
        <ele>453.00000</ele>
        <time>2015-12-18T08:20:12Z</time>
      </trkpt>
      <trkpt lat="30.89535000" lon="34.77303000">
        <ele>454.00000</ele>
        <time>2015-12-18T08:20:15Z</time>
      </trkpt>
      <trkpt lat="30.89520000" lon="34.77308000">
        <ele>454.00000</ele>
        <time>2015-12-18T08:20:18Z</time>
      </trkpt>
      <trkpt lat="30.89505000" lon="34.77314000">
        <ele>455.00000</ele>
        <time>2015-12-18T08:20:21Z</time>
      </trkpt>
      <trkpt lat="30.89490000" lon="34.77319000">
        <ele>455.00000</ele>
        <time>2015-12-18T08:20:24Z</time>
      </trkpt>
      <trkpt lat="30.89475000" lon="34.77324000">
        <ele>456.00000</ele>
        <time>2015-12-18T08:20:27Z</time>
      </trkpt>
      <trkpt lat="30.89461000" lon="34.77329000">
        <ele>456.00000</ele>
        <time>2015-12-18T08:20:30Z</time>
      </trkpt>
      <trkpt lat="30.89446000" lon="34.77334000">
        <ele>457.00000</ele>
        <time>2015-12-18T08:20:33Z</time>
      </trkpt>
      <trkpt lat="30.89432000" lon="34.77339000">
        <ele>457.00000</ele>
        <time>2015-12-18T08:20:36Z</time>
      </trkpt>
      <trkpt lat="30.89417000" lon="34.77344000">
        <ele>457.00000</ele>
        <time>2015-12-18T08:20:39Z</time>
      </trkpt>
      <trkpt lat="30.89402000" lon="34.77350000">
        <ele>457.00000</ele>
        <time>2015-12-18T08:20:42Z</time>
      </trkpt>
      <trkpt lat="30.89387000" lon="34.77356000">
        <ele>457.00000</ele>
        <time>2015-12-18T08:20:45Z</time>
      </trkpt>
      <trkpt lat="30.89371000" lon="34.77362000">
        <ele>457.00000</ele>
        <time>2015-12-18T08:20:48Z</time>
      </trkpt>
      <trkpt lat="30.89355000" lon="34.77367000">
        <ele>458.00000</ele>
        <time>2015-12-18T08:20:51Z</time>
      </trkpt>
      <trkpt lat="30.89338000" lon="34.77372000">
        <ele>458.00000</ele>
        <time>2015-12-18T08:20:54Z</time>
      </trkpt>
      <trkpt lat="30.89322000" lon="34.77377000">
        <ele>458.00000</ele>
        <time>2015-12-18T08:20:57Z</time>
      </trkpt>
      <trkpt lat="30.89307000" lon="34.77382000">
        <ele>458.00000</ele>
        <time>2015-12-18T08:21:00Z</time>
      </trkpt>
      <trkpt lat="30.89293000" lon="34.77388000">
        <ele>458.00000</ele>
        <time>2015-12-18T08:21:03Z</time>
      </trkpt>
      <trkpt lat="30.89279000" lon="34.77393000">
        <ele>459.00000</ele>
        <time>2015-12-18T08:21:06Z</time>
      </trkpt>
      <trkpt lat="30.89264000" lon="34.77399000">
        <ele>459.00000</ele>
        <time>2015-12-18T08:21:09Z</time>
      </trkpt>
      <trkpt lat="30.89250000" lon="34.77404000">
        <ele>459.00000</ele>
        <time>2015-12-18T08:21:12Z</time>
      </trkpt>
      <trkpt lat="30.89235000" lon="34.77409000">
        <ele>459.00000</ele>
        <time>2015-12-18T08:21:15Z</time>
      </trkpt>
      <trkpt lat="30.89221000" lon="34.77414000">
        <ele>459.00000</ele>
        <time>2015-12-18T08:21:18Z</time>
      </trkpt>
      <trkpt lat="30.89207000" lon="34.77417000">
        <ele>459.00000</ele>
        <time>2015-12-18T08:21:21Z</time>
      </trkpt>
      <trkpt lat="30.89193000" lon="34.77420000">
        <ele>459.00000</ele>
        <time>2015-12-18T08:21:24Z</time>
      </trkpt>
      <trkpt lat="30.89179000" lon="34.77425000">
        <ele>459.00000</ele>
        <time>2015-12-18T08:21:27Z</time>
      </trkpt>
      <trkpt lat="30.89165000" lon="34.77430000">
        <ele>459.00000</ele>
        <time>2015-12-18T08:21:30Z</time>
      </trkpt>
      <trkpt lat="30.89151000" lon="34.77436000">
        <ele>459.00000</ele>
        <time>2015-12-18T08:21:33Z</time>
      </trkpt>
      <trkpt lat="30.89138000" lon="34.77443000">
        <ele>458.00000</ele>
        <time>2015-12-18T08:21:36Z</time>
      </trkpt>
      <trkpt lat="30.89123000" lon="34.77449000">
        <ele>458.00000</ele>
        <time>2015-12-18T08:21:39Z</time>
      </trkpt>
      <trkpt lat="30.89109000" lon="34.77453000">
        <ele>458.00000</ele>
        <time>2015-12-18T08:21:42Z</time>
      </trkpt>
      <trkpt lat="30.89095000" lon="34.77457000">
        <ele>459.00000</ele>
        <time>2015-12-18T08:21:45Z</time>
      </trkpt>
      <trkpt lat="30.89079000" lon="34.77460000">
        <ele>459.00000</ele>
        <time>2015-12-18T08:21:48Z</time>
      </trkpt>
      <trkpt lat="30.89064000" lon="34.77465000">
        <ele>459.00000</ele>
        <time>2015-12-18T08:21:51Z</time>
      </trkpt>
      <trkpt lat="30.89048000" lon="34.77470000">
        <ele>460.00000</ele>
        <time>2015-12-18T08:21:54Z</time>
      </trkpt>
      <trkpt lat="30.89032000" lon="34.77474000">
        <ele>460.00000</ele>
        <time>2015-12-18T08:21:57Z</time>
      </trkpt>
      <trkpt lat="30.89016000" lon="34.77477000">
        <ele>460.00000</ele>
        <time>2015-12-18T08:22:00Z</time>
      </trkpt>
      <trkpt lat="30.89000000" lon="34.77477000">
        <ele>461.00000</ele>
        <time>2015-12-18T08:22:03Z</time>
      </trkpt>
      <trkpt lat="30.88983000" lon="34.77478000">
        <ele>461.00000</ele>
        <time>2015-12-18T08:22:06Z</time>
      </trkpt>
      <trkpt lat="30.88966000" lon="34.77478000">
        <ele>461.00000</ele>
        <time>2015-12-18T08:22:09Z</time>
      </trkpt>
      <trkpt lat="30.88949000" lon="34.77480000">
        <ele>461.00000</ele>
        <time>2015-12-18T08:22:12Z</time>
      </trkpt>
      <trkpt lat="30.88932000" lon="34.77482000">
        <ele>461.00000</ele>
        <time>2015-12-18T08:22:15Z</time>
      </trkpt>
      <trkpt lat="30.88915000" lon="34.77484000">
        <ele>461.00000</ele>
        <time>2015-12-18T08:22:18Z</time>
      </trkpt>
      <trkpt lat="30.88899000" lon="34.77487000">
        <ele>461.00000</ele>
        <time>2015-12-18T08:22:21Z</time>
      </trkpt>
      <trkpt lat="30.88882000" lon="34.77490000">
        <ele>461.00000</ele>
        <time>2015-12-18T08:22:24Z</time>
      </trkpt>
      <trkpt lat="30.88865000" lon="34.77494000">
        <ele>460.00000</ele>
        <time>2015-12-18T08:22:27Z</time>
      </trkpt>
      <trkpt lat="30.88849000" lon="34.77496000">
        <ele>459.00000</ele>
        <time>2015-12-18T08:22:30Z</time>
      </trkpt>
      <trkpt lat="30.88832000" lon="34.77499000">
        <ele>459.00000</ele>
        <time>2015-12-18T08:22:33Z</time>
      </trkpt>
      <trkpt lat="30.88815000" lon="34.77500000">
        <ele>458.00000</ele>
        <time>2015-12-18T08:22:36Z</time>
      </trkpt>
      <trkpt lat="30.88798000" lon="34.77501000">
        <ele>458.00000</ele>
        <time>2015-12-18T08:22:39Z</time>
      </trkpt>
      <trkpt lat="30.88781000" lon="34.77501000">
        <ele>458.00000</ele>
        <time>2015-12-18T08:22:42Z</time>
      </trkpt>
      <trkpt lat="30.88765000" lon="34.77502000">
        <ele>458.00000</ele>
        <time>2015-12-18T08:22:45Z</time>
      </trkpt>
      <trkpt lat="30.88748000" lon="34.77505000">
        <ele>458.00000</ele>
        <time>2015-12-18T08:22:48Z</time>
      </trkpt>
      <trkpt lat="30.88732000" lon="34.77506000">
        <ele>459.00000</ele>
        <time>2015-12-18T08:22:51Z</time>
      </trkpt>
      <trkpt lat="30.88716000" lon="34.77507000">
        <ele>459.00000</ele>
        <time>2015-12-18T08:22:54Z</time>
      </trkpt>
      <trkpt lat="30.88700000" lon="34.77507000">
        <ele>459.00000</ele>
        <time>2015-12-18T08:22:57Z</time>
      </trkpt>
      <trkpt lat="30.88684000" lon="34.77510000">
        <ele>459.00000</ele>
        <time>2015-12-18T08:23:00Z</time>
      </trkpt>
      <trkpt lat="30.88670000" lon="34.77513000">
        <ele>459.00000</ele>
        <time>2015-12-18T08:23:03Z</time>
      </trkpt>
      <trkpt lat="30.88656000" lon="34.77514000">
        <ele>458.00000</ele>
        <time>2015-12-18T08:23:06Z</time>
      </trkpt>
      <trkpt lat="30.88641000" lon="34.77515000">
        <ele>458.00000</ele>
        <time>2015-12-18T08:23:09Z</time>
      </trkpt>
      <trkpt lat="30.88626000" lon="34.77515000">
        <ele>458.00000</ele>
        <time>2015-12-18T08:23:12Z</time>
      </trkpt>
      <trkpt lat="30.88611000" lon="34.77515000">
        <ele>458.00000</ele>
        <time>2015-12-18T08:23:15Z</time>
      </trkpt>
      <trkpt lat="30.88596000" lon="34.77516000">
        <ele>458.00000</ele>
        <time>2015-12-18T08:23:18Z</time>
      </trkpt>
      <trkpt lat="30.88581000" lon="34.77517000">
        <ele>457.00000</ele>
        <time>2015-12-18T08:23:21Z</time>
      </trkpt>
      <trkpt lat="30.88567000" lon="34.77518000">
        <ele>457.00000</ele>
        <time>2015-12-18T08:23:24Z</time>
      </trkpt>
      <trkpt lat="30.88553000" lon="34.77518000">
        <ele>457.00000</ele>
        <time>2015-12-18T08:23:27Z</time>
      </trkpt>
      <trkpt lat="30.88542000" lon="34.77521000">
        <ele>456.00000</ele>
        <time>2015-12-18T08:23:30Z</time>
      </trkpt>
      <trkpt lat="30.88534000" lon="34.77525000">
        <ele>456.00000</ele>
        <time>2015-12-18T08:23:33Z</time>
      </trkpt>
      <trkpt lat="30.88532000" lon="34.77532000">
        <ele>456.00000</ele>
        <time>2015-12-18T08:23:36Z</time>
      </trkpt>
      <trkpt lat="30.88533000" lon="34.77538000">
        <ele>455.00000</ele>
        <time>2015-12-18T08:23:39Z</time>
      </trkpt>
      <trkpt lat="30.88534000" lon="34.77544000">
        <ele>455.00000</ele>
        <time>2015-12-18T08:23:42Z</time>
      </trkpt>
      <trkpt lat="30.88534000" lon="34.77550000">
        <ele>455.00000</ele>
        <time>2015-12-18T08:23:45Z</time>
      </trkpt>
      <trkpt lat="30.88533000" lon="34.77554000">
        <ele>455.00000</ele>
        <time>2015-12-18T08:23:48Z</time>
      </trkpt>
      <trkpt lat="30.88533000" lon="34.77559000">
        <ele>456.00000</ele>
        <time>2015-12-18T08:23:51Z</time>
      </trkpt>
      <trkpt lat="30.88533000" lon="34.77563000">
        <ele>456.00000</ele>
        <time>2015-12-18T08:23:54Z</time>
      </trkpt>
      <trkpt lat="30.88532000" lon="34.77570000">
        <ele>456.00000</ele>
        <time>2015-12-18T08:23:57Z</time>
      </trkpt>
      <trkpt lat="30.88531000" lon="34.77572000">
        <ele>456.00000</ele>
        <time>2015-12-18T08:24:00Z</time>
      </trkpt>
      <trkpt lat="30.88531000" lon="34.77578000">
        <ele>456.00000</ele>
        <time>2015-12-18T08:24:03Z</time>
      </trkpt>
      <trkpt lat="30.88530000" lon="34.77582000">
        <ele>456.00000</ele>
        <time>2015-12-18T08:24:06Z</time>
      </trkpt>
      <trkpt lat="30.88529000" lon="34.77585000">
        <ele>457.00000</ele>
        <time>2015-12-18T08:24:09Z</time>
      </trkpt>
      <trkpt lat="30.88529000" lon="34.77589000">
        <ele>457.00000</ele>
        <time>2015-12-18T08:24:12Z</time>
      </trkpt>
      <trkpt lat="30.88528000" lon="34.77592000">
        <ele>457.00000</ele>
        <time>2015-12-18T08:24:15Z</time>
      </trkpt>
      <trkpt lat="30.88526000" lon="34.77595000">
        <ele>457.00000</ele>
        <time>2015-12-18T08:24:18Z</time>
      </trkpt>
      <trkpt lat="30.88525000" lon="34.77591000">
        <ele>457.00000</ele>
        <time>2015-12-18T08:24:21Z</time>
      </trkpt>
      <trkpt lat="30.88525000" lon="34.77585000">
        <ele>457.00000</ele>
        <time>2015-12-18T08:24:24Z</time>
      </trkpt>
      <trkpt lat="30.88525000" lon="34.77583000">
        <ele>457.00000</ele>
        <time>2015-12-18T08:24:27Z</time>
      </trkpt>
      <trkpt lat="30.88526000" lon="34.77582000">
        <ele>456.00000</ele>
        <time>2015-12-18T08:24:30Z</time>
      </trkpt>
      <trkpt lat="30.88526000" lon="34.77581000">
        <ele>456.00000</ele>
        <time>2015-12-18T08:24:36Z</time>
      </trkpt>
      <trkpt lat="30.88526000" lon="34.77580000">
        <ele>456.00000</ele>
        <time>2015-12-18T08:24:39Z</time>
      </trkpt>
      <trkpt lat="30.88526000" lon="34.77579000">
        <ele>456.00000</ele>
        <time>2015-12-18T08:24:45Z</time>
      </trkpt>
      <trkpt lat="30.88528000" lon="34.77577000">
        <ele>456.00000</ele>
        <time>2015-12-18T08:24:48Z</time>
      </trkpt>
      <trkpt lat="30.88530000" lon="34.77578000">
        <ele>456.00000</ele>
        <time>2015-12-18T08:24:51Z</time>
      </trkpt>
      <trkpt lat="30.88532000" lon="34.77584000">
        <ele>456.00000</ele>
        <time>2015-12-18T08:24:54Z</time>
      </trkpt>
      <trkpt lat="30.88531000" lon="34.77593000">
        <ele>457.00000</ele>
        <time>2015-12-18T08:24:57Z</time>
      </trkpt>
      <trkpt lat="30.88531000" lon="34.77603000">
        <ele>457.00000</ele>
        <time>2015-12-18T08:25:00Z</time>
      </trkpt>
      <trkpt lat="30.88532000" lon="34.77614000">
        <ele>457.00000</ele>
        <time>2015-12-18T08:25:03Z</time>
      </trkpt>
      <trkpt lat="30.88534000" lon="34.77625000">
        <ele>458.00000</ele>
        <time>2015-12-18T08:25:06Z</time>
      </trkpt>
      <trkpt lat="30.88535000" lon="34.77636000">
        <ele>458.00000</ele>
        <time>2015-12-18T08:25:09Z</time>
      </trkpt>
      <trkpt lat="30.88535000" lon="34.77648000">
        <ele>459.00000</ele>
        <time>2015-12-18T08:25:12Z</time>
      </trkpt>
      <trkpt lat="30.88534000" lon="34.77663000">
        <ele>460.00000</ele>
        <time>2015-12-18T08:25:15Z</time>
      </trkpt>
      <trkpt lat="30.88534000" lon="34.77678000">
        <ele>461.00000</ele>
        <time>2015-12-18T08:25:18Z</time>
      </trkpt>
      <trkpt lat="30.88534000" lon="34.77693000">
        <ele>462.00000</ele>
        <time>2015-12-18T08:25:21Z</time>
      </trkpt>
      <trkpt lat="30.88534000" lon="34.77709000">
        <ele>463.00000</ele>
        <time>2015-12-18T08:25:24Z</time>
      </trkpt>
      <trkpt lat="30.88535000" lon="34.77724000">
        <ele>463.00000</ele>
        <time>2015-12-18T08:25:27Z</time>
      </trkpt>
      <trkpt lat="30.88537000" lon="34.77739000">
        <ele>463.00000</ele>
        <time>2015-12-18T08:25:30Z</time>
      </trkpt>
      <trkpt lat="30.88542000" lon="34.77753000">
        <ele>463.00000</ele>
        <time>2015-12-18T08:25:33Z</time>
      </trkpt>
      <trkpt lat="30.88549000" lon="34.77766000">
        <ele>465.00000</ele>
        <time>2015-12-18T08:25:36Z</time>
      </trkpt>
      <trkpt lat="30.88557000" lon="34.77780000">
        <ele>467.00000</ele>
        <time>2015-12-18T08:25:39Z</time>
      </trkpt>
      <trkpt lat="30.88559000" lon="34.77794000">
        <ele>468.00000</ele>
        <time>2015-12-18T08:25:42Z</time>
      </trkpt>
      <trkpt lat="30.88561000" lon="34.77808000">
        <ele>468.00000</ele>
        <time>2015-12-18T08:25:45Z</time>
      </trkpt>
      <trkpt lat="30.88567000" lon="34.77820000">
        <ele>469.00000</ele>
        <time>2015-12-18T08:25:48Z</time>
      </trkpt>
      <trkpt lat="30.88574000" lon="34.77834000">
        <ele>471.00000</ele>
        <time>2015-12-18T08:25:51Z</time>
      </trkpt>
      <trkpt lat="30.88581000" lon="34.77848000">
        <ele>472.00000</ele>
        <time>2015-12-18T08:25:54Z</time>
      </trkpt>
      <trkpt lat="30.88587000" lon="34.77861000">
        <ele>473.00000</ele>
        <time>2015-12-18T08:25:57Z</time>
      </trkpt>
      <trkpt lat="30.88592000" lon="34.77875000">
        <ele>474.00000</ele>
        <time>2015-12-18T08:26:00Z</time>
      </trkpt>
      <trkpt lat="30.88597000" lon="34.77888000">
        <ele>474.00000</ele>
        <time>2015-12-18T08:26:03Z</time>
      </trkpt>
      <trkpt lat="30.88601000" lon="34.77899000">
        <ele>474.00000</ele>
        <time>2015-12-18T08:26:06Z</time>
      </trkpt>
      <trkpt lat="30.88601000" lon="34.77903000">
        <ele>474.00000</ele>
        <time>2015-12-18T08:26:09Z</time>
      </trkpt>
      <trkpt lat="30.88602000" lon="34.77907000">
        <ele>474.00000</ele>
        <time>2015-12-18T08:26:12Z</time>
      </trkpt>
      <trkpt lat="30.88602000" lon="34.77911000">
        <ele>474.00000</ele>
        <time>2015-12-18T08:26:15Z</time>
      </trkpt>
      <trkpt lat="30.88602000" lon="34.77914000">
        <ele>474.00000</ele>
        <time>2015-12-18T08:26:18Z</time>
      </trkpt>
      <trkpt lat="30.88603000" lon="34.77915000">
        <ele>474.00000</ele>
        <time>2015-12-18T08:26:21Z</time>
      </trkpt>
      <trkpt lat="30.88603000" lon="34.77916000">
        <ele>474.00000</ele>
        <time>2015-12-18T08:26:24Z</time>
      </trkpt>
      <trkpt lat="30.88604000" lon="34.77916000">
        <ele>474.00000</ele>
        <time>2015-12-18T08:26:27Z</time>
      </trkpt>
      <trkpt lat="30.88605000" lon="34.77917000">
        <ele>474.00000</ele>
        <time>2015-12-18T08:26:30Z</time>
      </trkpt>
      <trkpt lat="30.88606000" lon="34.77918000">
        <ele>474.00000</ele>
        <time>2015-12-18T08:26:36Z</time>
      </trkpt>
      <trkpt lat="30.88607000" lon="34.77919000">
        <ele>474.00000</ele>
        <time>2015-12-18T08:26:39Z</time>
      </trkpt>
      <trkpt lat="30.88608000" lon="34.77919000">
        <ele>474.00000</ele>
        <time>2015-12-18T08:26:42Z</time>
      </trkpt>
      <trkpt lat="30.88608000" lon="34.77920000">
        <ele>474.00000</ele>
        <time>2015-12-18T08:26:45Z</time>
      </trkpt>
      <trkpt lat="30.88609000" lon="34.77920000">
        <ele>474.00000</ele>
        <time>2015-12-18T08:26:48Z</time>
      </trkpt>
      <trkpt lat="30.88616000" lon="34.77922000">
        <ele>474.00000</ele>
        <time>2015-12-18T08:26:51Z</time>
      </trkpt>
      <trkpt lat="30.88627000" lon="34.77927000">
        <ele>475.00000</ele>
        <time>2015-12-18T08:26:54Z</time>
      </trkpt>
      <trkpt lat="30.88637000" lon="34.77934000">
        <ele>476.00000</ele>
        <time>2015-12-18T08:26:57Z</time>
      </trkpt>
      <trkpt lat="30.88646000" lon="34.77945000">
        <ele>477.00000</ele>
        <time>2015-12-18T08:27:00Z</time>
      </trkpt>
      <trkpt lat="30.88655000" lon="34.77954000">
        <ele>477.00000</ele>
        <time>2015-12-18T08:27:03Z</time>
      </trkpt>
      <trkpt lat="30.88665000" lon="34.77958000">
        <ele>479.00000</ele>
        <time>2015-12-18T08:27:06Z</time>
      </trkpt>
      <trkpt lat="30.88680000" lon="34.77960000">
        <ele>481.00000</ele>
        <time>2015-12-18T08:27:09Z</time>
      </trkpt>
      <trkpt lat="30.88696000" lon="34.77962000">
        <ele>484.00000</ele>
        <time>2015-12-18T08:27:12Z</time>
      </trkpt>
      <trkpt lat="30.88708000" lon="34.77965000">
        <ele>485.00000</ele>
        <time>2015-12-18T08:27:15Z</time>
      </trkpt>
      <trkpt lat="30.88717000" lon="34.77971000">
        <ele>485.00000</ele>
        <time>2015-12-18T08:27:18Z</time>
      </trkpt>
      <trkpt lat="30.88727000" lon="34.77981000">
        <ele>485.00000</ele>
        <time>2015-12-18T08:27:21Z</time>
      </trkpt>
      <trkpt lat="30.88739000" lon="34.77991000">
        <ele>485.00000</ele>
        <time>2015-12-18T08:27:24Z</time>
      </trkpt>
      <trkpt lat="30.88752000" lon="34.78002000">
        <ele>484.00000</ele>
        <time>2015-12-18T08:27:27Z</time>
      </trkpt>
      <trkpt lat="30.88765000" lon="34.78009000">
        <ele>485.00000</ele>
        <time>2015-12-18T08:27:30Z</time>
      </trkpt>
      <trkpt lat="30.88776000" lon="34.78017000">
        <ele>484.00000</ele>
        <time>2015-12-18T08:27:33Z</time>
      </trkpt>
      <trkpt lat="30.88787000" lon="34.78025000">
        <ele>484.00000</ele>
        <time>2015-12-18T08:27:36Z</time>
      </trkpt>
      <trkpt lat="30.88799000" lon="34.78033000">
        <ele>483.00000</ele>
        <time>2015-12-18T08:27:39Z</time>
      </trkpt>
      <trkpt lat="30.88806000" lon="34.78047000">
        <ele>482.00000</ele>
        <time>2015-12-18T08:27:42Z</time>
      </trkpt>
      <trkpt lat="30.88814000" lon="34.78061000">
        <ele>482.00000</ele>
        <time>2015-12-18T08:27:45Z</time>
      </trkpt>
      <trkpt lat="30.88825000" lon="34.78070000">
        <ele>483.00000</ele>
        <time>2015-12-18T08:27:48Z</time>
      </trkpt>
      <trkpt lat="30.88836000" lon="34.78079000">
        <ele>484.00000</ele>
        <time>2015-12-18T08:27:51Z</time>
      </trkpt>
      <trkpt lat="30.88845000" lon="34.78090000">
        <ele>486.00000</ele>
        <time>2015-12-18T08:27:54Z</time>
      </trkpt>
      <trkpt lat="30.88853000" lon="34.78104000">
        <ele>487.00000</ele>
        <time>2015-12-18T08:27:57Z</time>
      </trkpt>
      <trkpt lat="30.88859000" lon="34.78119000">
        <ele>489.00000</ele>
        <time>2015-12-18T08:28:00Z</time>
      </trkpt>
      <trkpt lat="30.88865000" lon="34.78134000">
        <ele>490.00000</ele>
        <time>2015-12-18T08:28:03Z</time>
      </trkpt>
      <trkpt lat="30.88868000" lon="34.78149000">
        <ele>491.00000</ele>
        <time>2015-12-18T08:28:06Z</time>
      </trkpt>
      <trkpt lat="30.88870000" lon="34.78164000">
        <ele>491.00000</ele>
        <time>2015-12-18T08:28:09Z</time>
      </trkpt>
      <trkpt lat="30.88870000" lon="34.78179000">
        <ele>491.00000</ele>
        <time>2015-12-18T08:28:12Z</time>
      </trkpt>
      <trkpt lat="30.88870000" lon="34.78193000">
        <ele>491.00000</ele>
        <time>2015-12-18T08:28:15Z</time>
      </trkpt>
      <trkpt lat="30.88870000" lon="34.78208000">
        <ele>491.00000</ele>
        <time>2015-12-18T08:28:18Z</time>
      </trkpt>
      <trkpt lat="30.88870000" lon="34.78222000">
        <ele>491.00000</ele>
        <time>2015-12-18T08:28:21Z</time>
      </trkpt>
      <trkpt lat="30.88871000" lon="34.78236000">
        <ele>492.00000</ele>
        <time>2015-12-18T08:28:24Z</time>
      </trkpt>
      <trkpt lat="30.88873000" lon="34.78248000">
        <ele>492.00000</ele>
        <time>2015-12-18T08:28:27Z</time>
      </trkpt>
      <trkpt lat="30.88875000" lon="34.78260000">
        <ele>493.00000</ele>
        <time>2015-12-18T08:28:30Z</time>
      </trkpt>
      <trkpt lat="30.88878000" lon="34.78271000">
        <ele>493.00000</ele>
        <time>2015-12-18T08:28:33Z</time>
      </trkpt>
      <trkpt lat="30.88880000" lon="34.78282000">
        <ele>494.00000</ele>
        <time>2015-12-18T08:28:36Z</time>
      </trkpt>
      <trkpt lat="30.88883000" lon="34.78293000">
        <ele>495.00000</ele>
        <time>2015-12-18T08:28:39Z</time>
      </trkpt>
      <trkpt lat="30.88886000" lon="34.78305000">
        <ele>495.00000</ele>
        <time>2015-12-18T08:28:42Z</time>
      </trkpt>
      <trkpt lat="30.88891000" lon="34.78317000">
        <ele>495.00000</ele>
        <time>2015-12-18T08:28:45Z</time>
      </trkpt>
      <trkpt lat="30.88897000" lon="34.78328000">
        <ele>495.00000</ele>
        <time>2015-12-18T08:28:48Z</time>
      </trkpt>
      <trkpt lat="30.88907000" lon="34.78337000">
        <ele>496.00000</ele>
        <time>2015-12-18T08:28:51Z</time>
      </trkpt>
      <trkpt lat="30.88918000" lon="34.78343000">
        <ele>498.00000</ele>
        <time>2015-12-18T08:28:54Z</time>
      </trkpt>
      <trkpt lat="30.88929000" lon="34.78348000">
        <ele>499.00000</ele>
        <time>2015-12-18T08:28:57Z</time>
      </trkpt>
      <trkpt lat="30.88939000" lon="34.78351000">
        <ele>500.00000</ele>
        <time>2015-12-18T08:29:00Z</time>
      </trkpt>
      <trkpt lat="30.88945000" lon="34.78351000">
        <ele>502.00000</ele>
        <time>2015-12-18T08:29:03Z</time>
      </trkpt>
      <trkpt lat="30.88954000" lon="34.78355000">
        <ele>503.00000</ele>
        <time>2015-12-18T08:29:06Z</time>
      </trkpt>
      <trkpt lat="30.88963000" lon="34.78360000">
        <ele>503.00000</ele>
        <time>2015-12-18T08:29:09Z</time>
      </trkpt>
      <trkpt lat="30.88970000" lon="34.78365000">
        <ele>503.00000</ele>
        <time>2015-12-18T08:29:12Z</time>
      </trkpt>
      <trkpt lat="30.88980000" lon="34.78368000">
        <ele>504.00000</ele>
        <time>2015-12-18T08:29:15Z</time>
      </trkpt>
      <trkpt lat="30.88988000" lon="34.78374000">
        <ele>505.00000</ele>
        <time>2015-12-18T08:29:18Z</time>
      </trkpt>
      <trkpt lat="30.88995000" lon="34.78383000">
        <ele>505.00000</ele>
        <time>2015-12-18T08:29:21Z</time>
      </trkpt>
      <trkpt lat="30.89002000" lon="34.78390000">
        <ele>505.00000</ele>
        <time>2015-12-18T08:29:24Z</time>
      </trkpt>
      <trkpt lat="30.89006000" lon="34.78399000">
        <ele>505.00000</ele>
        <time>2015-12-18T08:29:27Z</time>
      </trkpt>
      <trkpt lat="30.89007000" lon="34.78410000">
        <ele>504.00000</ele>
        <time>2015-12-18T08:29:30Z</time>
      </trkpt>
      <trkpt lat="30.89005000" lon="34.78422000">
        <ele>502.00000</ele>
        <time>2015-12-18T08:29:33Z</time>
      </trkpt>
      <trkpt lat="30.89005000" lon="34.78433000">
        <ele>501.00000</ele>
        <time>2015-12-18T08:29:36Z</time>
      </trkpt>
      <trkpt lat="30.89006000" lon="34.78445000">
        <ele>500.00000</ele>
        <time>2015-12-18T08:29:39Z</time>
      </trkpt>
      <trkpt lat="30.89004000" lon="34.78456000">
        <ele>499.00000</ele>
        <time>2015-12-18T08:29:42Z</time>
      </trkpt>
      <trkpt lat="30.88996000" lon="34.78465000">
        <ele>497.00000</ele>
        <time>2015-12-18T08:29:45Z</time>
      </trkpt>
      <trkpt lat="30.88989000" lon="34.78474000">
        <ele>497.00000</ele>
        <time>2015-12-18T08:29:48Z</time>
      </trkpt>
      <trkpt lat="30.88988000" lon="34.78484000">
        <ele>497.00000</ele>
        <time>2015-12-18T08:29:51Z</time>
      </trkpt>
      <trkpt lat="30.88989000" lon="34.78497000">
        <ele>498.00000</ele>
        <time>2015-12-18T08:29:54Z</time>
      </trkpt>
      <trkpt lat="30.88993000" lon="34.78509000">
        <ele>499.00000</ele>
        <time>2015-12-18T08:29:57Z</time>
      </trkpt>
      <trkpt lat="30.88997000" lon="34.78522000">
        <ele>501.00000</ele>
        <time>2015-12-18T08:30:00Z</time>
      </trkpt>
      <trkpt lat="30.88997000" lon="34.78533000">
        <ele>501.00000</ele>
        <time>2015-12-18T08:30:03Z</time>
      </trkpt>
      <trkpt lat="30.88998000" lon="34.78542000">
        <ele>502.00000</ele>
        <time>2015-12-18T08:30:06Z</time>
      </trkpt>
      <trkpt lat="30.89002000" lon="34.78550000">
        <ele>503.00000</ele>
        <time>2015-12-18T08:30:09Z</time>
      </trkpt>
      <trkpt lat="30.89005000" lon="34.78558000">
        <ele>504.00000</ele>
        <time>2015-12-18T08:30:12Z</time>
      </trkpt>
      <trkpt lat="30.89004000" lon="34.78564000">
        <ele>504.00000</ele>
        <time>2015-12-18T08:30:15Z</time>
      </trkpt>
      <trkpt lat="30.89004000" lon="34.78572000">
        <ele>504.00000</ele>
        <time>2015-12-18T08:30:18Z</time>
      </trkpt>
      <trkpt lat="30.89004000" lon="34.78582000">
        <ele>504.00000</ele>
        <time>2015-12-18T08:30:21Z</time>
      </trkpt>
      <trkpt lat="30.89005000" lon="34.78593000">
        <ele>504.00000</ele>
        <time>2015-12-18T08:30:24Z</time>
      </trkpt>
      <trkpt lat="30.89003000" lon="34.78602000">
        <ele>504.00000</ele>
        <time>2015-12-18T08:30:27Z</time>
      </trkpt>
      <trkpt lat="30.88997000" lon="34.78610000">
        <ele>503.00000</ele>
        <time>2015-12-18T08:30:30Z</time>
      </trkpt>
      <trkpt lat="30.88993000" lon="34.78619000">
        <ele>503.00000</ele>
        <time>2015-12-18T08:30:33Z</time>
      </trkpt>
      <trkpt lat="30.88992000" lon="34.78629000">
        <ele>503.00000</ele>
        <time>2015-12-18T08:30:36Z</time>
      </trkpt>
      <trkpt lat="30.88993000" lon="34.78637000">
        <ele>503.00000</ele>
        <time>2015-12-18T08:30:39Z</time>
      </trkpt>
      <trkpt lat="30.88993000" lon="34.78648000">
        <ele>504.00000</ele>
        <time>2015-12-18T08:30:42Z</time>
      </trkpt>
      <trkpt lat="30.88992000" lon="34.78656000">
        <ele>505.00000</ele>
        <time>2015-12-18T08:30:45Z</time>
      </trkpt>
      <trkpt lat="30.88991000" lon="34.78664000">
        <ele>505.00000</ele>
        <time>2015-12-18T08:30:48Z</time>
      </trkpt>
      <trkpt lat="30.88990000" lon="34.78676000">
        <ele>506.00000</ele>
        <time>2015-12-18T08:30:51Z</time>
      </trkpt>
      <trkpt lat="30.88989000" lon="34.78686000">
        <ele>506.00000</ele>
        <time>2015-12-18T08:30:54Z</time>
      </trkpt>
      <trkpt lat="30.88986000" lon="34.78697000">
        <ele>506.00000</ele>
        <time>2015-12-18T08:30:57Z</time>
      </trkpt>
      <trkpt lat="30.88984000" lon="34.78708000">
        <ele>507.00000</ele>
        <time>2015-12-18T08:31:00Z</time>
      </trkpt>
      <trkpt lat="30.88986000" lon="34.78719000">
        <ele>507.00000</ele>
        <time>2015-12-18T08:31:03Z</time>
      </trkpt>
      <trkpt lat="30.88990000" lon="34.78730000">
        <ele>508.00000</ele>
        <time>2015-12-18T08:31:06Z</time>
      </trkpt>
      <trkpt lat="30.88997000" lon="34.78740000">
        <ele>510.00000</ele>
        <time>2015-12-18T08:31:09Z</time>
      </trkpt>
      <trkpt lat="30.89006000" lon="34.78746000">
        <ele>511.00000</ele>
        <time>2015-12-18T08:31:12Z</time>
      </trkpt>
      <trkpt lat="30.89013000" lon="34.78753000">
        <ele>513.00000</ele>
        <time>2015-12-18T08:31:15Z</time>
      </trkpt>
      <trkpt lat="30.89019000" lon="34.78761000">
        <ele>514.00000</ele>
        <time>2015-12-18T08:31:18Z</time>
      </trkpt>
      <trkpt lat="30.89024000" lon="34.78766000">
        <ele>514.00000</ele>
        <time>2015-12-18T08:31:21Z</time>
      </trkpt>
      <trkpt lat="30.89027000" lon="34.78774000">
        <ele>514.00000</ele>
        <time>2015-12-18T08:31:24Z</time>
      </trkpt>
      <trkpt lat="30.89029000" lon="34.78780000">
        <ele>515.00000</ele>
        <time>2015-12-18T08:31:27Z</time>
      </trkpt>
      <trkpt lat="30.89030000" lon="34.78785000">
        <ele>515.00000</ele>
        <time>2015-12-18T08:31:30Z</time>
      </trkpt>
      <trkpt lat="30.89033000" lon="34.78796000">
        <ele>515.00000</ele>
        <time>2015-12-18T08:31:33Z</time>
      </trkpt>
      <trkpt lat="30.89036000" lon="34.78803000">
        <ele>515.00000</ele>
        <time>2015-12-18T08:31:36Z</time>
      </trkpt>
      <trkpt lat="30.89041000" lon="34.78808000">
        <ele>515.00000</ele>
        <time>2015-12-18T08:31:39Z</time>
      </trkpt>
      <trkpt lat="30.89045000" lon="34.78812000">
        <ele>515.00000</ele>
        <time>2015-12-18T08:31:42Z</time>
      </trkpt>
      <trkpt lat="30.89053000" lon="34.78818000">
        <ele>515.00000</ele>
        <time>2015-12-18T08:31:45Z</time>
      </trkpt>
      <trkpt lat="30.89059000" lon="34.78822000">
        <ele>515.00000</ele>
        <time>2015-12-18T08:31:48Z</time>
      </trkpt>
      <trkpt lat="30.89066000" lon="34.78825000">
        <ele>515.00000</ele>
        <time>2015-12-18T08:31:51Z</time>
      </trkpt>
      <trkpt lat="30.89072000" lon="34.78824000">
        <ele>515.00000</ele>
        <time>2015-12-18T08:31:54Z</time>
      </trkpt>
      <trkpt lat="30.89079000" lon="34.78822000">
        <ele>516.00000</ele>
        <time>2015-12-18T08:31:57Z</time>
      </trkpt>
      <trkpt lat="30.89087000" lon="34.78820000">
        <ele>517.00000</ele>
        <time>2015-12-18T08:32:00Z</time>
      </trkpt>
      <trkpt lat="30.89095000" lon="34.78819000">
        <ele>518.00000</ele>
        <time>2015-12-18T08:32:03Z</time>
      </trkpt>
      <trkpt lat="30.89103000" lon="34.78819000">
        <ele>519.00000</ele>
        <time>2015-12-18T08:32:06Z</time>
      </trkpt>
      <trkpt lat="30.89111000" lon="34.78821000">
        <ele>519.00000</ele>
        <time>2015-12-18T08:32:09Z</time>
      </trkpt>
      <trkpt lat="30.89119000" lon="34.78828000">
        <ele>518.00000</ele>
        <time>2015-12-18T08:32:12Z</time>
      </trkpt>
      <trkpt lat="30.89125000" lon="34.78835000">
        <ele>517.00000</ele>
        <time>2015-12-18T08:32:15Z</time>
      </trkpt>
      <trkpt lat="30.89130000" lon="34.78844000">
        <ele>516.00000</ele>
        <time>2015-12-18T08:32:18Z</time>
      </trkpt>
      <trkpt lat="30.89135000" lon="34.78851000">
        <ele>515.00000</ele>
        <time>2015-12-18T08:32:21Z</time>
      </trkpt>
      <trkpt lat="30.89143000" lon="34.78857000">
        <ele>514.00000</ele>
        <time>2015-12-18T08:32:24Z</time>
      </trkpt>
      <trkpt lat="30.89150000" lon="34.78860000">
        <ele>514.00000</ele>
        <time>2015-12-18T08:32:27Z</time>
      </trkpt>
      <trkpt lat="30.89158000" lon="34.78860000">
        <ele>514.00000</ele>
        <time>2015-12-18T08:32:30Z</time>
      </trkpt>
      <trkpt lat="30.89166000" lon="34.78859000">
        <ele>515.00000</ele>
        <time>2015-12-18T08:32:33Z</time>
      </trkpt>
      <trkpt lat="30.89173000" lon="34.78857000">
        <ele>516.00000</ele>
        <time>2015-12-18T08:32:36Z</time>
      </trkpt>
      <trkpt lat="30.89182000" lon="34.78855000">
        <ele>516.00000</ele>
        <time>2015-12-18T08:32:39Z</time>
      </trkpt>
      <trkpt lat="30.89191000" lon="34.78855000">
        <ele>517.00000</ele>
        <time>2015-12-18T08:32:42Z</time>
      </trkpt>
      <trkpt lat="30.89200000" lon="34.78854000">
        <ele>517.00000</ele>
        <time>2015-12-18T08:32:45Z</time>
      </trkpt>
      <trkpt lat="30.89208000" lon="34.78854000">
        <ele>518.00000</ele>
        <time>2015-12-18T08:32:48Z</time>
      </trkpt>
      <trkpt lat="30.89216000" lon="34.78857000">
        <ele>518.00000</ele>
        <time>2015-12-18T08:32:51Z</time>
      </trkpt>
      <trkpt lat="30.89224000" lon="34.78861000">
        <ele>518.00000</ele>
        <time>2015-12-18T08:32:54Z</time>
      </trkpt>
      <trkpt lat="30.89231000" lon="34.78865000">
        <ele>518.00000</ele>
        <time>2015-12-18T08:32:57Z</time>
      </trkpt>
      <trkpt lat="30.89237000" lon="34.78869000">
        <ele>517.00000</ele>
        <time>2015-12-18T08:33:00Z</time>
      </trkpt>
      <trkpt lat="30.89243000" lon="34.78873000">
        <ele>517.00000</ele>
        <time>2015-12-18T08:33:03Z</time>
      </trkpt>
      <trkpt lat="30.89247000" lon="34.78879000">
        <ele>517.00000</ele>
        <time>2015-12-18T08:33:06Z</time>
      </trkpt>
      <trkpt lat="30.89253000" lon="34.78884000">
        <ele>517.00000</ele>
        <time>2015-12-18T08:33:09Z</time>
      </trkpt>
      <trkpt lat="30.89259000" lon="34.78889000">
        <ele>517.00000</ele>
        <time>2015-12-18T08:33:12Z</time>
      </trkpt>
      <trkpt lat="30.89264000" lon="34.78893000">
        <ele>518.00000</ele>
        <time>2015-12-18T08:33:15Z</time>
      </trkpt>
      <trkpt lat="30.89269000" lon="34.78898000">
        <ele>518.00000</ele>
        <time>2015-12-18T08:33:18Z</time>
      </trkpt>
      <trkpt lat="30.89272000" lon="34.78903000">
        <ele>517.00000</ele>
        <time>2015-12-18T08:33:21Z</time>
      </trkpt>
      <trkpt lat="30.89274000" lon="34.78909000">
        <ele>517.00000</ele>
        <time>2015-12-18T08:33:24Z</time>
      </trkpt>
      <trkpt lat="30.89275000" lon="34.78915000">
        <ele>517.00000</ele>
        <time>2015-12-18T08:33:27Z</time>
      </trkpt>
      <trkpt lat="30.89276000" lon="34.78919000">
        <ele>517.00000</ele>
        <time>2015-12-18T08:33:30Z</time>
      </trkpt>
      <trkpt lat="30.89278000" lon="34.78922000">
        <ele>517.00000</ele>
        <time>2015-12-18T08:33:33Z</time>
      </trkpt>
      <trkpt lat="30.89282000" lon="34.78923000">
        <ele>517.00000</ele>
        <time>2015-12-18T08:33:36Z</time>
      </trkpt>
      <trkpt lat="30.89286000" lon="34.78923000">
        <ele>517.00000</ele>
        <time>2015-12-18T08:33:39Z</time>
      </trkpt>
      <trkpt lat="30.89291000" lon="34.78924000">
        <ele>518.00000</ele>
        <time>2015-12-18T08:33:42Z</time>
      </trkpt>
      <trkpt lat="30.89296000" lon="34.78923000">
        <ele>518.00000</ele>
        <time>2015-12-18T08:33:45Z</time>
      </trkpt>
      <trkpt lat="30.89301000" lon="34.78922000">
        <ele>519.00000</ele>
        <time>2015-12-18T08:33:48Z</time>
      </trkpt>
      <trkpt lat="30.89306000" lon="34.78921000">
        <ele>519.00000</ele>
        <time>2015-12-18T08:33:51Z</time>
      </trkpt>
      <trkpt lat="30.89311000" lon="34.78919000">
        <ele>520.00000</ele>
        <time>2015-12-18T08:33:54Z</time>
      </trkpt>
      <trkpt lat="30.89317000" lon="34.78916000">
        <ele>520.00000</ele>
        <time>2015-12-18T08:33:57Z</time>
      </trkpt>
      <trkpt lat="30.89323000" lon="34.78912000">
        <ele>521.00000</ele>
        <time>2015-12-18T08:34:00Z</time>
      </trkpt>
      <trkpt lat="30.89328000" lon="34.78909000">
        <ele>521.00000</ele>
        <time>2015-12-18T08:34:03Z</time>
      </trkpt>
      <trkpt lat="30.89334000" lon="34.78905000">
        <ele>522.00000</ele>
        <time>2015-12-18T08:34:06Z</time>
      </trkpt>
      <trkpt lat="30.89340000" lon="34.78902000">
        <ele>523.00000</ele>
        <time>2015-12-18T08:34:09Z</time>
      </trkpt>
      <trkpt lat="30.89345000" lon="34.78899000">
        <ele>523.00000</ele>
        <time>2015-12-18T08:34:12Z</time>
      </trkpt>
      <trkpt lat="30.89350000" lon="34.78895000">
        <ele>524.00000</ele>
        <time>2015-12-18T08:34:15Z</time>
      </trkpt>
      <trkpt lat="30.89356000" lon="34.78889000">
        <ele>524.00000</ele>
        <time>2015-12-18T08:34:18Z</time>
      </trkpt>
      <trkpt lat="30.89361000" lon="34.78883000">
        <ele>525.00000</ele>
        <time>2015-12-18T08:34:21Z</time>
      </trkpt>
      <trkpt lat="30.89366000" lon="34.78876000">
        <ele>525.00000</ele>
        <time>2015-12-18T08:34:24Z</time>
      </trkpt>
      <trkpt lat="30.89371000" lon="34.78870000">
        <ele>526.00000</ele>
        <time>2015-12-18T08:34:27Z</time>
      </trkpt>
      <trkpt lat="30.89376000" lon="34.78863000">
        <ele>526.00000</ele>
        <time>2015-12-18T08:34:30Z</time>
      </trkpt>
      <trkpt lat="30.89379000" lon="34.78856000">
        <ele>526.00000</ele>
        <time>2015-12-18T08:34:33Z</time>
      </trkpt>
      <trkpt lat="30.89385000" lon="34.78851000">
        <ele>527.00000</ele>
        <time>2015-12-18T08:34:36Z</time>
      </trkpt>
      <trkpt lat="30.89390000" lon="34.78846000">
        <ele>527.00000</ele>
        <time>2015-12-18T08:34:39Z</time>
      </trkpt>
      <trkpt lat="30.89397000" lon="34.78845000">
        <ele>527.00000</ele>
        <time>2015-12-18T08:34:42Z</time>
      </trkpt>
      <trkpt lat="30.89404000" lon="34.78844000">
        <ele>528.00000</ele>
        <time>2015-12-18T08:34:45Z</time>
      </trkpt>
      <trkpt lat="30.89412000" lon="34.78842000">
        <ele>528.00000</ele>
        <time>2015-12-18T08:34:48Z</time>
      </trkpt>
      <trkpt lat="30.89419000" lon="34.78839000">
        <ele>528.00000</ele>
        <time>2015-12-18T08:34:51Z</time>
      </trkpt>
      <trkpt lat="30.89424000" lon="34.78835000">
        <ele>529.00000</ele>
        <time>2015-12-18T08:34:54Z</time>
      </trkpt>
      <trkpt lat="30.89428000" lon="34.78829000">
        <ele>529.00000</ele>
        <time>2015-12-18T08:34:57Z</time>
      </trkpt>
      <trkpt lat="30.89433000" lon="34.78825000">
        <ele>529.00000</ele>
        <time>2015-12-18T08:35:00Z</time>
      </trkpt>
      <trkpt lat="30.89438000" lon="34.78821000">
        <ele>529.00000</ele>
        <time>2015-12-18T08:35:03Z</time>
      </trkpt>
      <trkpt lat="30.89442000" lon="34.78817000">
        <ele>530.00000</ele>
        <time>2015-12-18T08:35:06Z</time>
      </trkpt>
      <trkpt lat="30.89446000" lon="34.78814000">
        <ele>530.00000</ele>
        <time>2015-12-18T08:35:09Z</time>
      </trkpt>
      <trkpt lat="30.89450000" lon="34.78811000">
        <ele>530.00000</ele>
        <time>2015-12-18T08:35:12Z</time>
      </trkpt>
      <trkpt lat="30.89456000" lon="34.78810000">
        <ele>530.00000</ele>
        <time>2015-12-18T08:35:15Z</time>
      </trkpt>
      <trkpt lat="30.89462000" lon="34.78810000">
        <ele>530.00000</ele>
        <time>2015-12-18T08:35:18Z</time>
      </trkpt>
      <trkpt lat="30.89469000" lon="34.78811000">
        <ele>531.00000</ele>
        <time>2015-12-18T08:35:21Z</time>
      </trkpt>
      <trkpt lat="30.89476000" lon="34.78814000">
        <ele>531.00000</ele>
        <time>2015-12-18T08:35:24Z</time>
      </trkpt>
      <trkpt lat="30.89481000" lon="34.78821000">
        <ele>531.00000</ele>
        <time>2015-12-18T08:35:27Z</time>
      </trkpt>
      <trkpt lat="30.89486000" lon="34.78828000">
        <ele>531.00000</ele>
        <time>2015-12-18T08:35:30Z</time>
      </trkpt>
      <trkpt lat="30.89493000" lon="34.78834000">
        <ele>532.00000</ele>
        <time>2015-12-18T08:35:33Z</time>
      </trkpt>
      <trkpt lat="30.89502000" lon="34.78840000">
        <ele>532.00000</ele>
        <time>2015-12-18T08:35:36Z</time>
      </trkpt>
      <trkpt lat="30.89512000" lon="34.78846000">
        <ele>532.00000</ele>
        <time>2015-12-18T08:35:39Z</time>
      </trkpt>
      <trkpt lat="30.89521000" lon="34.78853000">
        <ele>532.00000</ele>
        <time>2015-12-18T08:35:42Z</time>
      </trkpt>
      <trkpt lat="30.89530000" lon="34.78861000">
        <ele>533.00000</ele>
        <time>2015-12-18T08:35:45Z</time>
      </trkpt>
      <trkpt lat="30.89537000" lon="34.78870000">
        <ele>533.00000</ele>
        <time>2015-12-18T08:35:48Z</time>
      </trkpt>
      <trkpt lat="30.89543000" lon="34.78879000">
        <ele>533.00000</ele>
        <time>2015-12-18T08:35:51Z</time>
      </trkpt>
      <trkpt lat="30.89548000" lon="34.78888000">
        <ele>533.00000</ele>
        <time>2015-12-18T08:35:54Z</time>
      </trkpt>
      <trkpt lat="30.89552000" lon="34.78897000">
        <ele>534.00000</ele>
        <time>2015-12-18T08:35:57Z</time>
      </trkpt>
      <trkpt lat="30.89556000" lon="34.78905000">
        <ele>534.00000</ele>
        <time>2015-12-18T08:36:00Z</time>
      </trkpt>
      <trkpt lat="30.89560000" lon="34.78914000">
        <ele>534.00000</ele>
        <time>2015-12-18T08:36:03Z</time>
      </trkpt>
      <trkpt lat="30.89565000" lon="34.78922000">
        <ele>534.00000</ele>
        <time>2015-12-18T08:36:06Z</time>
      </trkpt>
      <trkpt lat="30.89568000" lon="34.78930000">
        <ele>535.00000</ele>
        <time>2015-12-18T08:36:09Z</time>
      </trkpt>
      <trkpt lat="30.89572000" lon="34.78937000">
        <ele>535.00000</ele>
        <time>2015-12-18T08:36:12Z</time>
      </trkpt>
      <trkpt lat="30.89576000" lon="34.78945000">
        <ele>535.00000</ele>
        <time>2015-12-18T08:36:15Z</time>
      </trkpt>
      <trkpt lat="30.89580000" lon="34.78953000">
        <ele>535.00000</ele>
        <time>2015-12-18T08:36:18Z</time>
      </trkpt>
      <trkpt lat="30.89584000" lon="34.78961000">
        <ele>536.00000</ele>
        <time>2015-12-18T08:36:21Z</time>
      </trkpt>
      <trkpt lat="30.89589000" lon="34.78969000">
        <ele>536.00000</ele>
        <time>2015-12-18T08:36:24Z</time>
      </trkpt>
      <trkpt lat="30.89593000" lon="34.78978000">
        <ele>536.00000</ele>
        <time>2015-12-18T08:36:27Z</time>
      </trkpt>
      <trkpt lat="30.89598000" lon="34.78987000">
        <ele>536.00000</ele>
        <time>2015-12-18T08:36:30Z</time>
      </trkpt>
      <trkpt lat="30.89602000" lon="34.78993000">
        <ele>536.00000</ele>
        <time>2015-12-18T08:36:33Z</time>
      </trkpt>
      <trkpt lat="30.89608000" lon="34.78995000">
        <ele>537.00000</ele>
        <time>2015-12-18T08:36:36Z</time>
      </trkpt>
      <trkpt lat="30.89615000" lon="34.78996000">
        <ele>537.00000</ele>
        <time>2015-12-18T08:36:39Z</time>
      </trkpt>
      <trkpt lat="30.89622000" lon="34.78999000">
        <ele>537.00000</ele>
        <time>2015-12-18T08:36:42Z</time>
      </trkpt>
      <trkpt lat="30.89625000" lon="34.79004000">
        <ele>537.00000</ele>
        <time>2015-12-18T08:36:45Z</time>
      </trkpt>
      <trkpt lat="30.89622000" lon="34.79006000">
        <ele>537.00000</ele>
        <time>2015-12-18T08:36:48Z</time>
      </trkpt>
      <trkpt lat="30.89621000" lon="34.79006000">
        <ele>537.00000</ele>
        <time>2015-12-18T08:36:51Z</time>
      </trkpt>
      <trkpt lat="30.89622000" lon="34.79003000">
        <ele>537.00000</ele>
        <time>2015-12-18T08:37:09Z</time>
      </trkpt>
      <trkpt lat="30.89623000" lon="34.79002000">
        <ele>537.00000</ele>
        <time>2015-12-18T08:37:12Z</time>
      </trkpt>
      <trkpt lat="30.89624000" lon="34.79001000">
        <ele>537.00000</ele>
        <time>2015-12-18T08:37:15Z</time>
      </trkpt>
      <trkpt lat="30.89625000" lon="34.79000000">
        <ele>537.00000</ele>
        <time>2015-12-18T08:37:21Z</time>
      </trkpt>
      <trkpt lat="30.89626000" lon="34.78999000">
        <ele>537.00000</ele>
        <time>2015-12-18T08:37:24Z</time>
      </trkpt>
      <trkpt lat="30.89627000" lon="34.78999000">
        <ele>537.00000</ele>
        <time>2015-12-18T08:37:27Z</time>
      </trkpt>
      <trkpt lat="30.89634000" lon="34.79000000">
        <ele>537.00000</ele>
        <time>2015-12-18T08:37:30Z</time>
      </trkpt>
      <trkpt lat="30.89640000" lon="34.79008000">
        <ele>537.00000</ele>
        <time>2015-12-18T08:37:33Z</time>
      </trkpt>
      <trkpt lat="30.89643000" lon="34.79020000">
        <ele>537.00000</ele>
        <time>2015-12-18T08:37:36Z</time>
      </trkpt>
      <trkpt lat="30.89645000" lon="34.79033000">
        <ele>537.00000</ele>
        <time>2015-12-18T08:37:39Z</time>
      </trkpt>
      <trkpt lat="30.89646000" lon="34.79045000">
        <ele>538.00000</ele>
        <time>2015-12-18T08:37:42Z</time>
      </trkpt>
      <trkpt lat="30.89646000" lon="34.79058000">
        <ele>538.00000</ele>
        <time>2015-12-18T08:37:45Z</time>
      </trkpt>
      <trkpt lat="30.89644000" lon="34.79072000">
        <ele>538.00000</ele>
        <time>2015-12-18T08:37:48Z</time>
      </trkpt>
      <trkpt lat="30.89638000" lon="34.79086000">
        <ele>539.00000</ele>
        <time>2015-12-18T08:37:51Z</time>
      </trkpt>
      <trkpt lat="30.89633000" lon="34.79100000">
        <ele>539.00000</ele>
        <time>2015-12-18T08:37:54Z</time>
      </trkpt>
      <trkpt lat="30.89627000" lon="34.79115000">
        <ele>540.00000</ele>
        <time>2015-12-18T08:37:57Z</time>
      </trkpt>
      <trkpt lat="30.89620000" lon="34.79128000">
        <ele>540.00000</ele>
        <time>2015-12-18T08:38:00Z</time>
      </trkpt>
      <trkpt lat="30.89613000" lon="34.79144000">
        <ele>540.00000</ele>
        <time>2015-12-18T08:38:03Z</time>
      </trkpt>
      <trkpt lat="30.89606000" lon="34.79160000">
        <ele>540.00000</ele>
        <time>2015-12-18T08:38:06Z</time>
      </trkpt>
      <trkpt lat="30.89598000" lon="34.79177000">
        <ele>540.00000</ele>
        <time>2015-12-18T08:38:09Z</time>
      </trkpt>
      <trkpt lat="30.89591000" lon="34.79193000">
        <ele>540.00000</ele>
        <time>2015-12-18T08:38:12Z</time>
      </trkpt>
      <trkpt lat="30.89585000" lon="34.79203000">
        <ele>540.00000</ele>
        <time>2015-12-18T08:38:15Z</time>
      </trkpt>
      <trkpt lat="30.89580000" lon="34.79215000">
        <ele>539.00000</ele>
        <time>2015-12-18T08:38:18Z</time>
      </trkpt>
      <trkpt lat="30.89571000" lon="34.79229000">
        <ele>539.00000</ele>
        <time>2015-12-18T08:38:21Z</time>
      </trkpt>
      <trkpt lat="30.89562000" lon="34.79243000">
        <ele>539.00000</ele>
        <time>2015-12-18T08:38:24Z</time>
      </trkpt>
      <trkpt lat="30.89556000" lon="34.79259000">
        <ele>540.00000</ele>
        <time>2015-12-18T08:38:27Z</time>
      </trkpt>
      <trkpt lat="30.89551000" lon="34.79274000">
        <ele>540.00000</ele>
        <time>2015-12-18T08:38:30Z</time>
      </trkpt>
      <trkpt lat="30.89545000" lon="34.79289000">
        <ele>541.00000</ele>
        <time>2015-12-18T08:38:33Z</time>
      </trkpt>
      <trkpt lat="30.89540000" lon="34.79304000">
        <ele>541.00000</ele>
        <time>2015-12-18T08:38:36Z</time>
      </trkpt>
      <trkpt lat="30.89536000" lon="34.79318000">
        <ele>541.00000</ele>
        <time>2015-12-18T08:38:39Z</time>
      </trkpt>
      <trkpt lat="30.89529000" lon="34.79332000">
        <ele>541.00000</ele>
        <time>2015-12-18T08:38:42Z</time>
      </trkpt>
      <trkpt lat="30.89524000" lon="34.79347000">
        <ele>541.00000</ele>
        <time>2015-12-18T08:38:45Z</time>
      </trkpt>
      <trkpt lat="30.89523000" lon="34.79363000">
        <ele>541.00000</ele>
        <time>2015-12-18T08:38:48Z</time>
      </trkpt>
      <trkpt lat="30.89522000" lon="34.79381000">
        <ele>541.00000</ele>
        <time>2015-12-18T08:38:51Z</time>
      </trkpt>
      <trkpt lat="30.89515000" lon="34.79399000">
        <ele>541.00000</ele>
        <time>2015-12-18T08:38:54Z</time>
      </trkpt>
      <trkpt lat="30.89510000" lon="34.79417000">
        <ele>540.00000</ele>
        <time>2015-12-18T08:38:57Z</time>
      </trkpt>
      <trkpt lat="30.89507000" lon="34.79437000">
        <ele>540.00000</ele>
        <time>2015-12-18T08:39:00Z</time>
      </trkpt>
      <trkpt lat="30.89503000" lon="34.79455000">
        <ele>540.00000</ele>
        <time>2015-12-18T08:39:03Z</time>
      </trkpt>
      <trkpt lat="30.89501000" lon="34.79473000">
        <ele>540.00000</ele>
        <time>2015-12-18T08:39:06Z</time>
      </trkpt>
      <trkpt lat="30.89499000" lon="34.79492000">
        <ele>540.00000</ele>
        <time>2015-12-18T08:39:09Z</time>
      </trkpt>
      <trkpt lat="30.89496000" lon="34.79510000">
        <ele>540.00000</ele>
        <time>2015-12-18T08:39:12Z</time>
      </trkpt>
      <trkpt lat="30.89493000" lon="34.79529000">
        <ele>541.00000</ele>
        <time>2015-12-18T08:39:15Z</time>
      </trkpt>
      <trkpt lat="30.89493000" lon="34.79548000">
        <ele>541.00000</ele>
        <time>2015-12-18T08:39:18Z</time>
      </trkpt>
      <trkpt lat="30.89495000" lon="34.79567000">
        <ele>541.00000</ele>
        <time>2015-12-18T08:39:21Z</time>
      </trkpt>
      <trkpt lat="30.89495000" lon="34.79588000">
        <ele>542.00000</ele>
        <time>2015-12-18T08:39:24Z</time>
      </trkpt>
      <trkpt lat="30.89495000" lon="34.79609000">
        <ele>542.00000</ele>
        <time>2015-12-18T08:39:27Z</time>
      </trkpt>
      <trkpt lat="30.89491000" lon="34.79626000">
        <ele>543.00000</ele>
        <time>2015-12-18T08:39:30Z</time>
      </trkpt>
      <trkpt lat="30.89481000" lon="34.79635000">
        <ele>542.00000</ele>
        <time>2015-12-18T08:39:33Z</time>
      </trkpt>
      <trkpt lat="30.89472000" lon="34.79646000">
        <ele>542.00000</ele>
        <time>2015-12-18T08:39:36Z</time>
      </trkpt>
      <trkpt lat="30.89468000" lon="34.79663000">
        <ele>543.00000</ele>
        <time>2015-12-18T08:39:39Z</time>
      </trkpt>
      <trkpt lat="30.89463000" lon="34.79681000">
        <ele>543.00000</ele>
        <time>2015-12-18T08:39:42Z</time>
      </trkpt>
      <trkpt lat="30.89454000" lon="34.79698000">
        <ele>543.00000</ele>
        <time>2015-12-18T08:39:45Z</time>
      </trkpt>
      <trkpt lat="30.89451000" lon="34.79717000">
        <ele>543.00000</ele>
        <time>2015-12-18T08:39:48Z</time>
      </trkpt>
      <trkpt lat="30.89451000" lon="34.79737000">
        <ele>543.00000</ele>
        <time>2015-12-18T08:39:51Z</time>
      </trkpt>
      <trkpt lat="30.89454000" lon="34.79759000">
        <ele>542.00000</ele>
        <time>2015-12-18T08:39:54Z</time>
      </trkpt>
      <trkpt lat="30.89450000" lon="34.79779000">
        <ele>542.00000</ele>
        <time>2015-12-18T08:39:57Z</time>
      </trkpt>
      <trkpt lat="30.89437000" lon="34.79792000">
        <ele>541.00000</ele>
        <time>2015-12-18T08:40:00Z</time>
      </trkpt>
      <trkpt lat="30.89424000" lon="34.79804000">
        <ele>540.00000</ele>
        <time>2015-12-18T08:40:03Z</time>
      </trkpt>
      <trkpt lat="30.89415000" lon="34.79818000">
        <ele>539.00000</ele>
        <time>2015-12-18T08:40:06Z</time>
      </trkpt>
      <trkpt lat="30.89412000" lon="34.79834000">
        <ele>539.00000</ele>
        <time>2015-12-18T08:40:09Z</time>
      </trkpt>
      <trkpt lat="30.89420000" lon="34.79846000">
        <ele>539.00000</ele>
        <time>2015-12-18T08:40:12Z</time>
      </trkpt>
      <trkpt lat="30.89432000" lon="34.79853000">
        <ele>538.00000</ele>
        <time>2015-12-18T08:40:15Z</time>
      </trkpt>
      <trkpt lat="30.89447000" lon="34.79855000">
        <ele>538.00000</ele>
        <time>2015-12-18T08:40:18Z</time>
      </trkpt>
      <trkpt lat="30.89465000" lon="34.79861000">
        <ele>538.00000</ele>
        <time>2015-12-18T08:40:21Z</time>
      </trkpt>
      <trkpt lat="30.89485000" lon="34.79873000">
        <ele>537.00000</ele>
        <time>2015-12-18T08:40:24Z</time>
      </trkpt>
      <trkpt lat="30.89498000" lon="34.79882000">
        <ele>536.00000</ele>
        <time>2015-12-18T08:40:27Z</time>
      </trkpt>
      <trkpt lat="30.89503000" lon="34.79891000">
        <ele>536.00000</ele>
        <time>2015-12-18T08:40:30Z</time>
      </trkpt>
      <trkpt lat="30.89513000" lon="34.79918000">
        <ele>533.00000</ele>
        <time>2015-12-18T08:40:33Z</time>
      </trkpt>
      <trkpt lat="30.89520000" lon="34.79943000">
        <ele>531.00000</ele>
        <time>2015-12-18T08:40:36Z</time>
      </trkpt>
      <trkpt lat="30.89535000" lon="34.79962000">
        <ele>529.00000</ele>
        <time>2015-12-18T08:40:39Z</time>
      </trkpt>
      <trkpt lat="30.89555000" lon="34.79974000">
        <ele>528.00000</ele>
        <time>2015-12-18T08:40:42Z</time>
      </trkpt>
      <trkpt lat="30.89572000" lon="34.79988000">
        <ele>528.00000</ele>
        <time>2015-12-18T08:40:45Z</time>
      </trkpt>
      <trkpt lat="30.89581000" lon="34.80004000">
        <ele>528.00000</ele>
        <time>2015-12-18T08:40:48Z</time>
      </trkpt>
      <trkpt lat="30.89587000" lon="34.80022000">
        <ele>529.00000</ele>
        <time>2015-12-18T08:40:51Z</time>
      </trkpt>
      <trkpt lat="30.89590000" lon="34.80041000">
        <ele>530.00000</ele>
        <time>2015-12-18T08:40:54Z</time>
      </trkpt>
      <trkpt lat="30.89589000" lon="34.80061000">
        <ele>531.00000</ele>
        <time>2015-12-18T08:40:57Z</time>
      </trkpt>
      <trkpt lat="30.89584000" lon="34.80075000">
        <ele>531.00000</ele>
        <time>2015-12-18T08:41:00Z</time>
      </trkpt>
      <trkpt lat="30.89574000" lon="34.80084000">
        <ele>530.00000</ele>
        <time>2015-12-18T08:41:03Z</time>
      </trkpt>
      <trkpt lat="30.89560000" lon="34.80087000">
        <ele>528.00000</ele>
        <time>2015-12-18T08:41:06Z</time>
      </trkpt>
      <trkpt lat="30.89546000" lon="34.80086000">
        <ele>527.00000</ele>
        <time>2015-12-18T08:41:09Z</time>
      </trkpt>
      <trkpt lat="30.89533000" lon="34.80084000">
        <ele>527.00000</ele>
        <time>2015-12-18T08:41:12Z</time>
      </trkpt>
      <trkpt lat="30.89521000" lon="34.80082000">
        <ele>527.00000</ele>
        <time>2015-12-18T08:41:15Z</time>
      </trkpt>
      <trkpt lat="30.89512000" lon="34.80078000">
        <ele>528.00000</ele>
        <time>2015-12-18T08:41:18Z</time>
      </trkpt>
      <trkpt lat="30.89504000" lon="34.80072000">
        <ele>528.00000</ele>
        <time>2015-12-18T08:41:21Z</time>
      </trkpt>
      <trkpt lat="30.89495000" lon="34.80065000">
        <ele>529.00000</ele>
        <time>2015-12-18T08:41:24Z</time>
      </trkpt>
      <trkpt lat="30.89486000" lon="34.80058000">
        <ele>530.00000</ele>
        <time>2015-12-18T08:41:27Z</time>
      </trkpt>
      <trkpt lat="30.89476000" lon="34.80052000">
        <ele>531.00000</ele>
        <time>2015-12-18T08:41:30Z</time>
      </trkpt>
      <trkpt lat="30.89463000" lon="34.80049000">
        <ele>532.00000</ele>
        <time>2015-12-18T08:41:33Z</time>
      </trkpt>
      <trkpt lat="30.89450000" lon="34.80050000">
        <ele>533.00000</ele>
        <time>2015-12-18T08:41:36Z</time>
      </trkpt>
      <trkpt lat="30.89439000" lon="34.80056000">
        <ele>534.00000</ele>
        <time>2015-12-18T08:41:39Z</time>
      </trkpt>
      <trkpt lat="30.89430000" lon="34.80068000">
        <ele>533.00000</ele>
        <time>2015-12-18T08:41:42Z</time>
      </trkpt>
      <trkpt lat="30.89421000" lon="34.80079000">
        <ele>533.00000</ele>
        <time>2015-12-18T08:41:45Z</time>
      </trkpt>
      <trkpt lat="30.89414000" lon="34.80089000">
        <ele>533.00000</ele>
        <time>2015-12-18T08:41:48Z</time>
      </trkpt>
      <trkpt lat="30.89413000" lon="34.80097000">
        <ele>532.00000</ele>
        <time>2015-12-18T08:41:51Z</time>
      </trkpt>
      <trkpt lat="30.89414000" lon="34.80103000">
        <ele>532.00000</ele>
        <time>2015-12-18T08:41:54Z</time>
      </trkpt>
      <trkpt lat="30.89410000" lon="34.80113000">
        <ele>531.00000</ele>
        <time>2015-12-18T08:41:57Z</time>
      </trkpt>
      <trkpt lat="30.89406000" lon="34.80126000">
        <ele>530.00000</ele>
        <time>2015-12-18T08:42:00Z</time>
      </trkpt>
      <trkpt lat="30.89407000" lon="34.80139000">
        <ele>531.00000</ele>
        <time>2015-12-18T08:42:03Z</time>
      </trkpt>
      <trkpt lat="30.89410000" lon="34.80153000">
        <ele>531.00000</ele>
        <time>2015-12-18T08:42:06Z</time>
      </trkpt>
      <trkpt lat="30.89418000" lon="34.80165000">
        <ele>531.00000</ele>
        <time>2015-12-18T08:42:09Z</time>
      </trkpt>
      <trkpt lat="30.89431000" lon="34.80174000">
        <ele>531.00000</ele>
        <time>2015-12-18T08:42:12Z</time>
      </trkpt>
      <trkpt lat="30.89446000" lon="34.80180000">
        <ele>530.00000</ele>
        <time>2015-12-18T08:42:15Z</time>
      </trkpt>
      <trkpt lat="30.89460000" lon="34.80184000">
        <ele>530.00000</ele>
        <time>2015-12-18T08:42:18Z</time>
      </trkpt>
      <trkpt lat="30.89474000" lon="34.80190000">
        <ele>531.00000</ele>
        <time>2015-12-18T08:42:21Z</time>
      </trkpt>
      <trkpt lat="30.89482000" lon="34.80203000">
        <ele>532.00000</ele>
        <time>2015-12-18T08:42:24Z</time>
      </trkpt>
      <trkpt lat="30.89487000" lon="34.80218000">
        <ele>532.00000</ele>
        <time>2015-12-18T08:42:27Z</time>
      </trkpt>
      <trkpt lat="30.89487000" lon="34.80232000">
        <ele>533.00000</ele>
        <time>2015-12-18T08:42:30Z</time>
      </trkpt>
      <trkpt lat="30.89489000" lon="34.80246000">
        <ele>534.00000</ele>
        <time>2015-12-18T08:42:33Z</time>
      </trkpt>
      <trkpt lat="30.89486000" lon="34.80262000">
        <ele>534.00000</ele>
        <time>2015-12-18T08:42:36Z</time>
      </trkpt>
      <trkpt lat="30.89485000" lon="34.80277000">
        <ele>534.00000</ele>
        <time>2015-12-18T08:42:39Z</time>
      </trkpt>
      <trkpt lat="30.89481000" lon="34.80293000">
        <ele>535.00000</ele>
        <time>2015-12-18T08:42:42Z</time>
      </trkpt>
      <trkpt lat="30.89480000" lon="34.80307000">
        <ele>535.00000</ele>
        <time>2015-12-18T08:42:45Z</time>
      </trkpt>
      <trkpt lat="30.89481000" lon="34.80323000">
        <ele>536.00000</ele>
        <time>2015-12-18T08:42:48Z</time>
      </trkpt>
      <trkpt lat="30.89485000" lon="34.80338000">
        <ele>537.00000</ele>
        <time>2015-12-18T08:42:51Z</time>
      </trkpt>
      <trkpt lat="30.89489000" lon="34.80354000">
        <ele>538.00000</ele>
        <time>2015-12-18T08:42:54Z</time>
      </trkpt>
      <trkpt lat="30.89491000" lon="34.80370000">
        <ele>539.00000</ele>
        <time>2015-12-18T08:42:57Z</time>
      </trkpt>
      <trkpt lat="30.89493000" lon="34.80386000">
        <ele>539.00000</ele>
        <time>2015-12-18T08:43:00Z</time>
      </trkpt>
      <trkpt lat="30.89501000" lon="34.80401000">
        <ele>540.00000</ele>
        <time>2015-12-18T08:43:03Z</time>
      </trkpt>
      <trkpt lat="30.89510000" lon="34.80416000">
        <ele>541.00000</ele>
        <time>2015-12-18T08:43:06Z</time>
      </trkpt>
      <trkpt lat="30.89518000" lon="34.80430000">
        <ele>542.00000</ele>
        <time>2015-12-18T08:43:09Z</time>
      </trkpt>
      <trkpt lat="30.89524000" lon="34.80446000">
        <ele>542.00000</ele>
        <time>2015-12-18T08:43:12Z</time>
      </trkpt>
      <trkpt lat="30.89525000" lon="34.80464000">
        <ele>542.00000</ele>
        <time>2015-12-18T08:43:15Z</time>
      </trkpt>
      <trkpt lat="30.89525000" lon="34.80482000">
        <ele>543.00000</ele>
        <time>2015-12-18T08:43:18Z</time>
      </trkpt>
      <trkpt lat="30.89524000" lon="34.80499000">
        <ele>543.00000</ele>
        <time>2015-12-18T08:43:21Z</time>
      </trkpt>
      <trkpt lat="30.89522000" lon="34.80516000">
        <ele>544.00000</ele>
        <time>2015-12-18T08:43:24Z</time>
      </trkpt>
      <trkpt lat="30.89520000" lon="34.80532000">
        <ele>544.00000</ele>
        <time>2015-12-18T08:43:27Z</time>
      </trkpt>
      <trkpt lat="30.89518000" lon="34.80549000">
        <ele>545.00000</ele>
        <time>2015-12-18T08:43:30Z</time>
      </trkpt>
      <trkpt lat="30.89516000" lon="34.80565000">
        <ele>545.00000</ele>
        <time>2015-12-18T08:43:33Z</time>
      </trkpt>
      <trkpt lat="30.89513000" lon="34.80582000">
        <ele>545.00000</ele>
        <time>2015-12-18T08:43:36Z</time>
      </trkpt>
      <trkpt lat="30.89510000" lon="34.80598000">
        <ele>545.00000</ele>
        <time>2015-12-18T08:43:39Z</time>
      </trkpt>
      <trkpt lat="30.89508000" lon="34.80612000">
        <ele>545.00000</ele>
        <time>2015-12-18T08:43:42Z</time>
      </trkpt>
      <trkpt lat="30.89508000" lon="34.80628000">
        <ele>545.00000</ele>
        <time>2015-12-18T08:43:45Z</time>
      </trkpt>
      <trkpt lat="30.89507000" lon="34.80643000">
        <ele>546.00000</ele>
        <time>2015-12-18T08:43:48Z</time>
      </trkpt>
      <trkpt lat="30.89511000" lon="34.80658000">
        <ele>546.00000</ele>
        <time>2015-12-18T08:43:51Z</time>
      </trkpt>
      <trkpt lat="30.89517000" lon="34.80675000">
        <ele>547.00000</ele>
        <time>2015-12-18T08:43:54Z</time>
      </trkpt>
      <trkpt lat="30.89521000" lon="34.80693000">
        <ele>548.00000</ele>
        <time>2015-12-18T08:43:57Z</time>
      </trkpt>
      <trkpt lat="30.89529000" lon="34.80707000">
        <ele>549.00000</ele>
        <time>2015-12-18T08:44:00Z</time>
      </trkpt>
      <trkpt lat="30.89536000" lon="34.80723000">
        <ele>548.00000</ele>
        <time>2015-12-18T08:44:03Z</time>
      </trkpt>
      <trkpt lat="30.89543000" lon="34.80739000">
        <ele>548.00000</ele>
        <time>2015-12-18T08:44:06Z</time>
      </trkpt>
      <trkpt lat="30.89551000" lon="34.80754000">
        <ele>548.00000</ele>
        <time>2015-12-18T08:44:09Z</time>
      </trkpt>
      <trkpt lat="30.89560000" lon="34.80769000">
        <ele>548.00000</ele>
        <time>2015-12-18T08:44:12Z</time>
      </trkpt>
      <trkpt lat="30.89569000" lon="34.80783000">
        <ele>549.00000</ele>
        <time>2015-12-18T08:44:15Z</time>
      </trkpt>
      <trkpt lat="30.89576000" lon="34.80799000">
        <ele>549.00000</ele>
        <time>2015-12-18T08:44:18Z</time>
      </trkpt>
      <trkpt lat="30.89585000" lon="34.80813000">
        <ele>549.00000</ele>
        <time>2015-12-18T08:44:21Z</time>
      </trkpt>
      <trkpt lat="30.89594000" lon="34.80828000">
        <ele>549.00000</ele>
        <time>2015-12-18T08:44:24Z</time>
      </trkpt>
      <trkpt lat="30.89603000" lon="34.80843000">
        <ele>549.00000</ele>
        <time>2015-12-18T08:44:27Z</time>
      </trkpt>
      <trkpt lat="30.89612000" lon="34.80856000">
        <ele>549.00000</ele>
        <time>2015-12-18T08:44:30Z</time>
      </trkpt>
      <trkpt lat="30.89619000" lon="34.80870000">
        <ele>548.00000</ele>
        <time>2015-12-18T08:44:33Z</time>
      </trkpt>
      <trkpt lat="30.89626000" lon="34.80884000">
        <ele>548.00000</ele>
        <time>2015-12-18T08:44:36Z</time>
      </trkpt>
      <trkpt lat="30.89634000" lon="34.80899000">
        <ele>548.00000</ele>
        <time>2015-12-18T08:44:39Z</time>
      </trkpt>
      <trkpt lat="30.89642000" lon="34.80913000">
        <ele>548.00000</ele>
        <time>2015-12-18T08:44:42Z</time>
      </trkpt>
      <trkpt lat="30.89651000" lon="34.80926000">
        <ele>549.00000</ele>
        <time>2015-12-18T08:44:45Z</time>
      </trkpt>
      <trkpt lat="30.89658000" lon="34.80939000">
        <ele>548.00000</ele>
        <time>2015-12-18T08:44:48Z</time>
      </trkpt>
      <trkpt lat="30.89665000" lon="34.80951000">
        <ele>548.00000</ele>
        <time>2015-12-18T08:44:51Z</time>
      </trkpt>
      <trkpt lat="30.89675000" lon="34.80960000">
        <ele>548.00000</ele>
        <time>2015-12-18T08:44:54Z</time>
      </trkpt>
      <trkpt lat="30.89687000" lon="34.80967000">
        <ele>549.00000</ele>
        <time>2015-12-18T08:44:57Z</time>
      </trkpt>
      <trkpt lat="30.89700000" lon="34.80971000">
        <ele>550.00000</ele>
        <time>2015-12-18T08:45:00Z</time>
      </trkpt>
      <trkpt lat="30.89714000" lon="34.80973000">
        <ele>550.00000</ele>
        <time>2015-12-18T08:45:03Z</time>
      </trkpt>
      <trkpt lat="30.89729000" lon="34.80973000">
        <ele>550.00000</ele>
        <time>2015-12-18T08:45:06Z</time>
      </trkpt>
      <trkpt lat="30.89744000" lon="34.80967000">
        <ele>550.00000</ele>
        <time>2015-12-18T08:45:09Z</time>
      </trkpt>
      <trkpt lat="30.89759000" lon="34.80958000">
        <ele>549.00000</ele>
        <time>2015-12-18T08:45:12Z</time>
      </trkpt>
      <trkpt lat="30.89772000" lon="34.80949000">
        <ele>550.00000</ele>
        <time>2015-12-18T08:45:15Z</time>
      </trkpt>
      <trkpt lat="30.89786000" lon="34.80944000">
        <ele>551.00000</ele>
        <time>2015-12-18T08:45:18Z</time>
      </trkpt>
      <trkpt lat="30.89799000" lon="34.80943000">
        <ele>551.00000</ele>
        <time>2015-12-18T08:45:21Z</time>
      </trkpt>
      <trkpt lat="30.89813000" lon="34.80945000">
        <ele>552.00000</ele>
        <time>2015-12-18T08:45:24Z</time>
      </trkpt>
      <trkpt lat="30.89825000" lon="34.80953000">
        <ele>552.00000</ele>
        <time>2015-12-18T08:45:27Z</time>
      </trkpt>
      <trkpt lat="30.89839000" lon="34.80962000">
        <ele>552.00000</ele>
        <time>2015-12-18T08:45:30Z</time>
      </trkpt>
      <trkpt lat="30.89846000" lon="34.80976000">
        <ele>552.00000</ele>
        <time>2015-12-18T08:45:33Z</time>
      </trkpt>
      <trkpt lat="30.89851000" lon="34.80991000">
        <ele>553.00000</ele>
        <time>2015-12-18T08:45:36Z</time>
      </trkpt>
      <trkpt lat="30.89861000" lon="34.80999000">
        <ele>553.00000</ele>
        <time>2015-12-18T08:45:39Z</time>
      </trkpt>
      <trkpt lat="30.89874000" lon="34.81001000">
        <ele>553.00000</ele>
        <time>2015-12-18T08:45:42Z</time>
      </trkpt>
      <trkpt lat="30.89887000" lon="34.81002000">
        <ele>554.00000</ele>
        <time>2015-12-18T08:45:45Z</time>
      </trkpt>
      <trkpt lat="30.89900000" lon="34.81004000">
        <ele>555.00000</ele>
        <time>2015-12-18T08:45:48Z</time>
      </trkpt>
      <trkpt lat="30.89912000" lon="34.81007000">
        <ele>556.00000</ele>
        <time>2015-12-18T08:45:51Z</time>
      </trkpt>
      <trkpt lat="30.89923000" lon="34.81009000">
        <ele>556.00000</ele>
        <time>2015-12-18T08:45:54Z</time>
      </trkpt>
      <trkpt lat="30.89932000" lon="34.81008000">
        <ele>557.00000</ele>
        <time>2015-12-18T08:45:57Z</time>
      </trkpt>
      <trkpt lat="30.89942000" lon="34.81007000">
        <ele>558.00000</ele>
        <time>2015-12-18T08:46:00Z</time>
      </trkpt>
      <trkpt lat="30.89954000" lon="34.81008000">
        <ele>558.00000</ele>
        <time>2015-12-18T08:46:03Z</time>
      </trkpt>
      <trkpt lat="30.89968000" lon="34.81012000">
        <ele>559.00000</ele>
        <time>2015-12-18T08:46:06Z</time>
      </trkpt>
      <trkpt lat="30.89980000" lon="34.81020000">
        <ele>559.00000</ele>
        <time>2015-12-18T08:46:09Z</time>
      </trkpt>
      <trkpt lat="30.89988000" lon="34.81032000">
        <ele>559.00000</ele>
        <time>2015-12-18T08:46:12Z</time>
      </trkpt>
      <trkpt lat="30.89995000" lon="34.81045000">
        <ele>559.00000</ele>
        <time>2015-12-18T08:46:15Z</time>
      </trkpt>
      <trkpt lat="30.90003000" lon="34.81057000">
        <ele>559.00000</ele>
        <time>2015-12-18T08:46:18Z</time>
      </trkpt>
      <trkpt lat="30.90011000" lon="34.81067000">
        <ele>560.00000</ele>
        <time>2015-12-18T08:46:21Z</time>
      </trkpt>
      <trkpt lat="30.90022000" lon="34.81074000">
        <ele>560.00000</ele>
        <time>2015-12-18T08:46:24Z</time>
      </trkpt>
      <trkpt lat="30.90033000" lon="34.81082000">
        <ele>560.00000</ele>
        <time>2015-12-18T08:46:27Z</time>
      </trkpt>
      <trkpt lat="30.90041000" lon="34.81096000">
        <ele>560.00000</ele>
        <time>2015-12-18T08:46:30Z</time>
      </trkpt>
      <trkpt lat="30.90048000" lon="34.81108000">
        <ele>561.00000</ele>
        <time>2015-12-18T08:46:33Z</time>
      </trkpt>
      <trkpt lat="30.90058000" lon="34.81111000">
        <ele>561.00000</ele>
        <time>2015-12-18T08:46:36Z</time>
      </trkpt>
      <trkpt lat="30.90067000" lon="34.81103000">
        <ele>562.00000</ele>
        <time>2015-12-18T08:46:39Z</time>
      </trkpt>
      <trkpt lat="30.90074000" lon="34.81091000">
        <ele>562.00000</ele>
        <time>2015-12-18T08:46:42Z</time>
      </trkpt>
      <trkpt lat="30.90083000" lon="34.81080000">
        <ele>563.00000</ele>
        <time>2015-12-18T08:46:45Z</time>
      </trkpt>
      <trkpt lat="30.90091000" lon="34.81067000">
        <ele>563.00000</ele>
        <time>2015-12-18T08:46:48Z</time>
      </trkpt>
      <trkpt lat="30.90098000" lon="34.81054000">
        <ele>563.00000</ele>
        <time>2015-12-18T08:46:51Z</time>
      </trkpt>
      <trkpt lat="30.90105000" lon="34.81042000">
        <ele>563.00000</ele>
        <time>2015-12-18T08:46:54Z</time>
      </trkpt>
      <trkpt lat="30.90112000" lon="34.81031000">
        <ele>564.00000</ele>
        <time>2015-12-18T08:46:57Z</time>
      </trkpt>
      <trkpt lat="30.90117000" lon="34.81018000">
        <ele>564.00000</ele>
        <time>2015-12-18T08:47:00Z</time>
      </trkpt>
      <trkpt lat="30.90121000" lon="34.81004000">
        <ele>564.00000</ele>
        <time>2015-12-18T08:47:03Z</time>
      </trkpt>
      <trkpt lat="30.90124000" lon="34.80990000">
        <ele>565.00000</ele>
        <time>2015-12-18T08:47:06Z</time>
      </trkpt>
      <trkpt lat="30.90126000" lon="34.80976000">
        <ele>565.00000</ele>
        <time>2015-12-18T08:47:09Z</time>
      </trkpt>
      <trkpt lat="30.90127000" lon="34.80962000">
        <ele>565.00000</ele>
        <time>2015-12-18T08:47:12Z</time>
      </trkpt>
      <trkpt lat="30.90125000" lon="34.80949000">
        <ele>565.00000</ele>
        <time>2015-12-18T08:47:15Z</time>
      </trkpt>
      <trkpt lat="30.90120000" lon="34.80936000">
        <ele>566.00000</ele>
        <time>2015-12-18T08:47:18Z</time>
      </trkpt>
      <trkpt lat="30.90116000" lon="34.80922000">
        <ele>567.00000</ele>
        <time>2015-12-18T08:47:21Z</time>
      </trkpt>
      <trkpt lat="30.90120000" lon="34.80912000">
        <ele>567.00000</ele>
        <time>2015-12-18T08:47:24Z</time>
      </trkpt>
      <trkpt lat="30.90129000" lon="34.80903000">
        <ele>568.00000</ele>
        <time>2015-12-18T08:47:27Z</time>
      </trkpt>
      <trkpt lat="30.90138000" lon="34.80895000">
        <ele>569.00000</ele>
        <time>2015-12-18T08:47:30Z</time>
      </trkpt>
      <trkpt lat="30.90149000" lon="34.80891000">
        <ele>569.00000</ele>
        <time>2015-12-18T08:47:33Z</time>
      </trkpt>
      <trkpt lat="30.90161000" lon="34.80892000">
        <ele>570.00000</ele>
        <time>2015-12-18T08:47:36Z</time>
      </trkpt>
      <trkpt lat="30.90173000" lon="34.80895000">
        <ele>570.00000</ele>
        <time>2015-12-18T08:47:39Z</time>
      </trkpt>
      <trkpt lat="30.90186000" lon="34.80899000">
        <ele>571.00000</ele>
        <time>2015-12-18T08:47:42Z</time>
      </trkpt>
      <trkpt lat="30.90198000" lon="34.80906000">
        <ele>571.00000</ele>
        <time>2015-12-18T08:47:45Z</time>
      </trkpt>
      <trkpt lat="30.90208000" lon="34.80915000">
        <ele>571.00000</ele>
        <time>2015-12-18T08:47:48Z</time>
      </trkpt>
      <trkpt lat="30.90219000" lon="34.80920000">
        <ele>571.00000</ele>
        <time>2015-12-18T08:47:51Z</time>
      </trkpt>
      <trkpt lat="30.90229000" lon="34.80925000">
        <ele>571.00000</ele>
        <time>2015-12-18T08:47:54Z</time>
      </trkpt>
      <trkpt lat="30.90238000" lon="34.80934000">
        <ele>571.00000</ele>
        <time>2015-12-18T08:47:57Z</time>
      </trkpt>
      <trkpt lat="30.90247000" lon="34.80945000">
        <ele>570.00000</ele>
        <time>2015-12-18T08:48:00Z</time>
      </trkpt>
      <trkpt lat="30.90259000" lon="34.80953000">
        <ele>570.00000</ele>
        <time>2015-12-18T08:48:03Z</time>
      </trkpt>
      <trkpt lat="30.90271000" lon="34.80959000">
        <ele>570.00000</ele>
        <time>2015-12-18T08:48:06Z</time>
      </trkpt>
      <trkpt lat="30.90283000" lon="34.80966000">
        <ele>570.00000</ele>
        <time>2015-12-18T08:48:09Z</time>
      </trkpt>
      <trkpt lat="30.90294000" lon="34.80973000">
        <ele>570.00000</ele>
        <time>2015-12-18T08:48:12Z</time>
      </trkpt>
      <trkpt lat="30.90305000" lon="34.80982000">
        <ele>570.00000</ele>
        <time>2015-12-18T08:48:15Z</time>
      </trkpt>
      <trkpt lat="30.90316000" lon="34.80991000">
        <ele>570.00000</ele>
        <time>2015-12-18T08:48:18Z</time>
      </trkpt>
      <trkpt lat="30.90324000" lon="34.81003000">
        <ele>570.00000</ele>
        <time>2015-12-18T08:48:21Z</time>
      </trkpt>
      <trkpt lat="30.90327000" lon="34.81017000">
        <ele>569.00000</ele>
        <time>2015-12-18T08:48:24Z</time>
      </trkpt>
      <trkpt lat="30.90330000" lon="34.81032000">
        <ele>568.00000</ele>
        <time>2015-12-18T08:48:27Z</time>
      </trkpt>
      <trkpt lat="30.90333000" lon="34.81046000">
        <ele>568.00000</ele>
        <time>2015-12-18T08:48:30Z</time>
      </trkpt>
      <trkpt lat="30.90336000" lon="34.81059000">
        <ele>569.00000</ele>
        <time>2015-12-18T08:48:33Z</time>
      </trkpt>
      <trkpt lat="30.90340000" lon="34.81072000">
        <ele>569.00000</ele>
        <time>2015-12-18T08:48:36Z</time>
      </trkpt>
      <trkpt lat="30.90347000" lon="34.81083000">
        <ele>570.00000</ele>
        <time>2015-12-18T08:48:39Z</time>
      </trkpt>
      <trkpt lat="30.90354000" lon="34.81094000">
        <ele>570.00000</ele>
        <time>2015-12-18T08:48:42Z</time>
      </trkpt>
      <trkpt lat="30.90359000" lon="34.81107000">
        <ele>571.00000</ele>
        <time>2015-12-18T08:48:45Z</time>
      </trkpt>
      <trkpt lat="30.90365000" lon="34.81119000">
        <ele>571.00000</ele>
        <time>2015-12-18T08:48:48Z</time>
      </trkpt>
      <trkpt lat="30.90372000" lon="34.81131000">
        <ele>572.00000</ele>
        <time>2015-12-18T08:48:51Z</time>
      </trkpt>
      <trkpt lat="30.90379000" lon="34.81143000">
        <ele>573.00000</ele>
        <time>2015-12-18T08:48:54Z</time>
      </trkpt>
      <trkpt lat="30.90385000" lon="34.81156000">
        <ele>573.00000</ele>
        <time>2015-12-18T08:48:57Z</time>
      </trkpt>
      <trkpt lat="30.90391000" lon="34.81169000">
        <ele>574.00000</ele>
        <time>2015-12-18T08:49:00Z</time>
      </trkpt>
      <trkpt lat="30.90393000" lon="34.81183000">
        <ele>574.00000</ele>
        <time>2015-12-18T08:49:03Z</time>
      </trkpt>
      <trkpt lat="30.90393000" lon="34.81198000">
        <ele>575.00000</ele>
        <time>2015-12-18T08:49:06Z</time>
      </trkpt>
      <trkpt lat="30.90389000" lon="34.81213000">
        <ele>575.00000</ele>
        <time>2015-12-18T08:49:09Z</time>
      </trkpt>
      <trkpt lat="30.90390000" lon="34.81229000">
        <ele>575.00000</ele>
        <time>2015-12-18T08:49:12Z</time>
      </trkpt>
      <trkpt lat="30.90391000" lon="34.81245000">
        <ele>575.00000</ele>
        <time>2015-12-18T08:49:15Z</time>
      </trkpt>
      <trkpt lat="30.90393000" lon="34.81261000">
        <ele>575.00000</ele>
        <time>2015-12-18T08:49:18Z</time>
      </trkpt>
      <trkpt lat="30.90394000" lon="34.81277000">
        <ele>575.00000</ele>
        <time>2015-12-18T08:49:21Z</time>
      </trkpt>
      <trkpt lat="30.90392000" lon="34.81293000">
        <ele>575.00000</ele>
        <time>2015-12-18T08:49:24Z</time>
      </trkpt>
      <trkpt lat="30.90389000" lon="34.81308000">
        <ele>575.00000</ele>
        <time>2015-12-18T08:49:27Z</time>
      </trkpt>
      <trkpt lat="30.90385000" lon="34.81324000">
        <ele>575.00000</ele>
        <time>2015-12-18T08:49:30Z</time>
      </trkpt>
      <trkpt lat="30.90382000" lon="34.81340000">
        <ele>576.00000</ele>
        <time>2015-12-18T08:49:33Z</time>
      </trkpt>
      <trkpt lat="30.90381000" lon="34.81356000">
        <ele>576.00000</ele>
        <time>2015-12-18T08:49:36Z</time>
      </trkpt>
      <trkpt lat="30.90379000" lon="34.81371000">
        <ele>576.00000</ele>
        <time>2015-12-18T08:49:39Z</time>
      </trkpt>
      <trkpt lat="30.90374000" lon="34.81387000">
        <ele>576.00000</ele>
        <time>2015-12-18T08:49:42Z</time>
      </trkpt>
      <trkpt lat="30.90372000" lon="34.81403000">
        <ele>577.00000</ele>
        <time>2015-12-18T08:49:45Z</time>
      </trkpt>
      <trkpt lat="30.90373000" lon="34.81419000">
        <ele>577.00000</ele>
        <time>2015-12-18T08:49:48Z</time>
      </trkpt>
      <trkpt lat="30.90376000" lon="34.81434000">
        <ele>578.00000</ele>
        <time>2015-12-18T08:49:51Z</time>
      </trkpt>
      <trkpt lat="30.90377000" lon="34.81450000">
        <ele>578.00000</ele>
        <time>2015-12-18T08:49:54Z</time>
      </trkpt>
      <trkpt lat="30.90377000" lon="34.81467000">
        <ele>578.00000</ele>
        <time>2015-12-18T08:49:57Z</time>
      </trkpt>
      <trkpt lat="30.90381000" lon="34.81487000">
        <ele>577.00000</ele>
        <time>2015-12-18T08:50:00Z</time>
      </trkpt>
      <trkpt lat="30.90381000" lon="34.81510000">
        <ele>577.00000</ele>
        <time>2015-12-18T08:50:03Z</time>
      </trkpt>
      <trkpt lat="30.90376000" lon="34.81536000">
        <ele>575.00000</ele>
        <time>2015-12-18T08:50:06Z</time>
      </trkpt>
      <trkpt lat="30.90365000" lon="34.81559000">
        <ele>574.00000</ele>
        <time>2015-12-18T08:50:09Z</time>
      </trkpt>
      <trkpt lat="30.90349000" lon="34.81575000">
        <ele>574.00000</ele>
        <time>2015-12-18T08:50:12Z</time>
      </trkpt>
      <trkpt lat="30.90331000" lon="34.81584000">
        <ele>573.00000</ele>
        <time>2015-12-18T08:50:15Z</time>
      </trkpt>
      <trkpt lat="30.90313000" lon="34.81595000">
        <ele>573.00000</ele>
        <time>2015-12-18T08:50:18Z</time>
      </trkpt>
      <trkpt lat="30.90298000" lon="34.81605000">
        <ele>572.00000</ele>
        <time>2015-12-18T08:50:21Z</time>
      </trkpt>
      <trkpt lat="30.90284000" lon="34.81620000">
        <ele>571.00000</ele>
        <time>2015-12-18T08:50:24Z</time>
      </trkpt>
      <trkpt lat="30.90271000" lon="34.81639000">
        <ele>569.00000</ele>
        <time>2015-12-18T08:50:27Z</time>
      </trkpt>
      <trkpt lat="30.90252000" lon="34.81644000">
        <ele>570.00000</ele>
        <time>2015-12-18T08:50:30Z</time>
      </trkpt>
      <trkpt lat="30.90231000" lon="34.81648000">
        <ele>572.00000</ele>
        <time>2015-12-18T08:50:33Z</time>
      </trkpt>
      <trkpt lat="30.90218000" lon="34.81645000">
        <ele>574.00000</ele>
        <time>2015-12-18T08:50:36Z</time>
      </trkpt>
      <trkpt lat="30.90207000" lon="34.81638000">
        <ele>577.00000</ele>
        <time>2015-12-18T08:50:39Z</time>
      </trkpt>
      <trkpt lat="30.90187000" lon="34.81635000">
        <ele>578.00000</ele>
        <time>2015-12-18T08:50:42Z</time>
      </trkpt>
      <trkpt lat="30.90170000" lon="34.81641000">
        <ele>576.00000</ele>
        <time>2015-12-18T08:50:45Z</time>
      </trkpt>
      <trkpt lat="30.90155000" lon="34.81649000">
        <ele>574.00000</ele>
        <time>2015-12-18T08:50:48Z</time>
      </trkpt>
      <trkpt lat="30.90145000" lon="34.81658000">
        <ele>572.00000</ele>
        <time>2015-12-18T08:50:51Z</time>
      </trkpt>
      <trkpt lat="30.90138000" lon="34.81670000">
        <ele>568.00000</ele>
        <time>2015-12-18T08:50:54Z</time>
      </trkpt>
      <trkpt lat="30.90125000" lon="34.81675000">
        <ele>567.00000</ele>
        <time>2015-12-18T08:50:57Z</time>
      </trkpt>
      <trkpt lat="30.90121000" lon="34.81689000">
        <ele>563.00000</ele>
        <time>2015-12-18T08:51:00Z</time>
      </trkpt>
      <trkpt lat="30.90118000" lon="34.81705000">
        <ele>559.00000</ele>
        <time>2015-12-18T08:51:03Z</time>
      </trkpt>
      <trkpt lat="30.90105000" lon="34.81712000">
        <ele>560.00000</ele>
        <time>2015-12-18T08:51:06Z</time>
      </trkpt>
      <trkpt lat="30.90090000" lon="34.81712000">
        <ele>562.00000</ele>
        <time>2015-12-18T08:51:09Z</time>
      </trkpt>
      <trkpt lat="30.90074000" lon="34.81713000">
        <ele>565.00000</ele>
        <time>2015-12-18T08:51:12Z</time>
      </trkpt>
      <trkpt lat="30.90061000" lon="34.81720000">
        <ele>565.00000</ele>
        <time>2015-12-18T08:51:15Z</time>
      </trkpt>
      <trkpt lat="30.90055000" lon="34.81735000">
        <ele>562.00000</ele>
        <time>2015-12-18T08:51:18Z</time>
      </trkpt>
      <trkpt lat="30.90050000" lon="34.81748000">
        <ele>560.00000</ele>
        <time>2015-12-18T08:51:21Z</time>
      </trkpt>
      <trkpt lat="30.90038000" lon="34.81756000">
        <ele>559.00000</ele>
        <time>2015-12-18T08:51:24Z</time>
      </trkpt>
      <trkpt lat="30.90023000" lon="34.81761000">
        <ele>559.00000</ele>
        <time>2015-12-18T08:51:27Z</time>
      </trkpt>
      <trkpt lat="30.90010000" lon="34.81767000">
        <ele>558.00000</ele>
        <time>2015-12-18T08:51:30Z</time>
      </trkpt>
      <trkpt lat="30.89997000" lon="34.81766000">
        <ele>559.00000</ele>
        <time>2015-12-18T08:51:33Z</time>
      </trkpt>
      <trkpt lat="30.89984000" lon="34.81766000">
        <ele>559.00000</ele>
        <time>2015-12-18T08:51:36Z</time>
      </trkpt>
      <trkpt lat="30.89971000" lon="34.81772000">
        <ele>559.00000</ele>
        <time>2015-12-18T08:51:39Z</time>
      </trkpt>
      <trkpt lat="30.89960000" lon="34.81767000">
        <ele>560.00000</ele>
        <time>2015-12-18T08:51:42Z</time>
      </trkpt>
      <trkpt lat="30.89950000" lon="34.81759000">
        <ele>561.00000</ele>
        <time>2015-12-18T08:51:45Z</time>
      </trkpt>
      <trkpt lat="30.89939000" lon="34.81757000">
        <ele>559.00000</ele>
        <time>2015-12-18T08:51:48Z</time>
      </trkpt>
      <trkpt lat="30.89931000" lon="34.81754000">
        <ele>559.00000</ele>
        <time>2015-12-18T08:51:51Z</time>
      </trkpt>
      <trkpt lat="30.89929000" lon="34.81746000">
        <ele>560.00000</ele>
        <time>2015-12-18T08:51:54Z</time>
      </trkpt>
      <trkpt lat="30.89930000" lon="34.81735000">
        <ele>561.00000</ele>
        <time>2015-12-18T08:51:57Z</time>
      </trkpt>
      <trkpt lat="30.89930000" lon="34.81725000">
        <ele>563.00000</ele>
        <time>2015-12-18T08:52:00Z</time>
      </trkpt>
      <trkpt lat="30.89928000" lon="34.81716000">
        <ele>564.00000</ele>
        <time>2015-12-18T08:52:03Z</time>
      </trkpt>
      <trkpt lat="30.89920000" lon="34.81710000">
        <ele>563.00000</ele>
        <time>2015-12-18T08:52:06Z</time>
      </trkpt>
      <trkpt lat="30.89914000" lon="34.81704000">
        <ele>562.00000</ele>
        <time>2015-12-18T08:52:09Z</time>
      </trkpt>
      <trkpt lat="30.89909000" lon="34.81695000">
        <ele>561.00000</ele>
        <time>2015-12-18T08:52:12Z</time>
      </trkpt>
      <trkpt lat="30.89907000" lon="34.81685000">
        <ele>560.00000</ele>
        <time>2015-12-18T08:52:15Z</time>
      </trkpt>
      <trkpt lat="30.89901000" lon="34.81675000">
        <ele>559.00000</ele>
        <time>2015-12-18T08:52:18Z</time>
      </trkpt>
      <trkpt lat="30.89891000" lon="34.81671000">
        <ele>557.00000</ele>
        <time>2015-12-18T08:52:21Z</time>
      </trkpt>
      <trkpt lat="30.89879000" lon="34.81666000">
        <ele>554.00000</ele>
        <time>2015-12-18T08:52:24Z</time>
      </trkpt>
      <trkpt lat="30.89871000" lon="34.81655000">
        <ele>553.00000</ele>
        <time>2015-12-18T08:52:27Z</time>
      </trkpt>
      <trkpt lat="30.89862000" lon="34.81641000">
        <ele>552.00000</ele>
        <time>2015-12-18T08:52:30Z</time>
      </trkpt>
      <trkpt lat="30.89850000" lon="34.81625000">
        <ele>551.00000</ele>
        <time>2015-12-18T08:52:33Z</time>
      </trkpt>
      <trkpt lat="30.89838000" lon="34.81606000">
        <ele>548.00000</ele>
        <time>2015-12-18T08:52:36Z</time>
      </trkpt>
      <trkpt lat="30.89827000" lon="34.81586000">
        <ele>546.00000</ele>
        <time>2015-12-18T08:52:39Z</time>
      </trkpt>
      <trkpt lat="30.89816000" lon="34.81568000">
        <ele>543.00000</ele>
        <time>2015-12-18T08:52:42Z</time>
      </trkpt>
      <trkpt lat="30.89807000" lon="34.81550000">
        <ele>541.00000</ele>
        <time>2015-12-18T08:52:45Z</time>
      </trkpt>
      <trkpt lat="30.89793000" lon="34.81535000">
        <ele>540.00000</ele>
        <time>2015-12-18T08:52:48Z</time>
      </trkpt>
      <trkpt lat="30.89773000" lon="34.81528000">
        <ele>540.00000</ele>
        <time>2015-12-18T08:52:51Z</time>
      </trkpt>
      <trkpt lat="30.89752000" lon="34.81524000">
        <ele>539.00000</ele>
        <time>2015-12-18T08:52:54Z</time>
      </trkpt>
      <trkpt lat="30.89731000" lon="34.81528000">
        <ele>538.00000</ele>
        <time>2015-12-18T08:52:57Z</time>
      </trkpt>
      <trkpt lat="30.89707000" lon="34.81529000">
        <ele>537.00000</ele>
        <time>2015-12-18T08:53:00Z</time>
      </trkpt>
      <trkpt lat="30.89679000" lon="34.81518000">
        <ele>536.00000</ele>
        <time>2015-12-18T08:53:03Z</time>
      </trkpt>
      <trkpt lat="30.89651000" lon="34.81504000">
        <ele>537.00000</ele>
        <time>2015-12-18T08:53:06Z</time>
      </trkpt>
      <trkpt lat="30.89626000" lon="34.81500000">
        <ele>536.00000</ele>
        <time>2015-12-18T08:53:09Z</time>
      </trkpt>
      <trkpt lat="30.89609000" lon="34.81513000">
        <ele>534.00000</ele>
        <time>2015-12-18T08:53:12Z</time>
      </trkpt>
      <trkpt lat="30.89600000" lon="34.81528000">
        <ele>532.00000</ele>
        <time>2015-12-18T08:53:15Z</time>
      </trkpt>
      <trkpt lat="30.89588000" lon="34.81536000">
        <ele>530.00000</ele>
        <time>2015-12-18T08:53:18Z</time>
      </trkpt>
      <trkpt lat="30.89572000" lon="34.81541000">
        <ele>529.00000</ele>
        <time>2015-12-18T08:53:21Z</time>
      </trkpt>
      <trkpt lat="30.89556000" lon="34.81547000">
        <ele>529.00000</ele>
        <time>2015-12-18T08:53:24Z</time>
      </trkpt>
      <trkpt lat="30.89537000" lon="34.81551000">
        <ele>529.00000</ele>
        <time>2015-12-18T08:53:27Z</time>
      </trkpt>
      <trkpt lat="30.89517000" lon="34.81553000">
        <ele>529.00000</ele>
        <time>2015-12-18T08:53:30Z</time>
      </trkpt>
      <trkpt lat="30.89499000" lon="34.81556000">
        <ele>529.00000</ele>
        <time>2015-12-18T08:53:33Z</time>
      </trkpt>
      <trkpt lat="30.89486000" lon="34.81561000">
        <ele>528.00000</ele>
        <time>2015-12-18T08:53:36Z</time>
      </trkpt>
      <trkpt lat="30.89473000" lon="34.81567000">
        <ele>528.00000</ele>
        <time>2015-12-18T08:53:39Z</time>
      </trkpt>
      <trkpt lat="30.89457000" lon="34.81572000">
        <ele>528.00000</ele>
        <time>2015-12-18T08:53:42Z</time>
      </trkpt>
      <trkpt lat="30.89438000" lon="34.81575000">
        <ele>527.00000</ele>
        <time>2015-12-18T08:53:45Z</time>
      </trkpt>
      <trkpt lat="30.89416000" lon="34.81577000">
        <ele>526.00000</ele>
        <time>2015-12-18T08:53:48Z</time>
      </trkpt>
      <trkpt lat="30.89394000" lon="34.81577000">
        <ele>526.00000</ele>
        <time>2015-12-18T08:53:51Z</time>
      </trkpt>
      <trkpt lat="30.89378000" lon="34.81587000">
        <ele>524.00000</ele>
        <time>2015-12-18T08:53:54Z</time>
      </trkpt>
      <trkpt lat="30.89362000" lon="34.81603000">
        <ele>524.00000</ele>
        <time>2015-12-18T08:53:57Z</time>
      </trkpt>
      <trkpt lat="30.89347000" lon="34.81618000">
        <ele>523.00000</ele>
        <time>2015-12-18T08:54:00Z</time>
      </trkpt>
      <trkpt lat="30.89336000" lon="34.81630000">
        <ele>522.00000</ele>
        <time>2015-12-18T08:54:03Z</time>
      </trkpt>
      <trkpt lat="30.89326000" lon="34.81641000">
        <ele>522.00000</ele>
        <time>2015-12-18T08:54:06Z</time>
      </trkpt>
      <trkpt lat="30.89311000" lon="34.81649000">
        <ele>522.00000</ele>
        <time>2015-12-18T08:54:09Z</time>
      </trkpt>
      <trkpt lat="30.89294000" lon="34.81656000">
        <ele>522.00000</ele>
        <time>2015-12-18T08:54:12Z</time>
      </trkpt>
      <trkpt lat="30.89279000" lon="34.81664000">
        <ele>520.00000</ele>
        <time>2015-12-18T08:54:15Z</time>
      </trkpt>
      <trkpt lat="30.89264000" lon="34.81672000">
        <ele>519.00000</ele>
        <time>2015-12-18T08:54:18Z</time>
      </trkpt>
      <trkpt lat="30.89249000" lon="34.81676000">
        <ele>519.00000</ele>
        <time>2015-12-18T08:54:21Z</time>
      </trkpt>
      <trkpt lat="30.89235000" lon="34.81680000">
        <ele>518.00000</ele>
        <time>2015-12-18T08:54:24Z</time>
      </trkpt>
      <trkpt lat="30.89219000" lon="34.81692000">
        <ele>516.00000</ele>
        <time>2015-12-18T08:54:27Z</time>
      </trkpt>
      <trkpt lat="30.89203000" lon="34.81707000">
        <ele>515.00000</ele>
        <time>2015-12-18T08:54:30Z</time>
      </trkpt>
      <trkpt lat="30.89187000" lon="34.81721000">
        <ele>513.00000</ele>
        <time>2015-12-18T08:54:33Z</time>
      </trkpt>
      <trkpt lat="30.89171000" lon="34.81733000">
        <ele>511.00000</ele>
        <time>2015-12-18T08:54:36Z</time>
      </trkpt>
      <trkpt lat="30.89155000" lon="34.81741000">
        <ele>510.00000</ele>
        <time>2015-12-18T08:54:39Z</time>
      </trkpt>
      <trkpt lat="30.89139000" lon="34.81749000">
        <ele>508.00000</ele>
        <time>2015-12-18T08:54:42Z</time>
      </trkpt>
      <trkpt lat="30.89132000" lon="34.81757000">
        <ele>508.00000</ele>
        <time>2015-12-18T08:54:45Z</time>
      </trkpt>
      <trkpt lat="30.89132000" lon="34.81765000">
        <ele>507.00000</ele>
        <time>2015-12-18T08:54:48Z</time>
      </trkpt>
      <trkpt lat="30.89135000" lon="34.81774000">
        <ele>507.00000</ele>
        <time>2015-12-18T08:54:51Z</time>
      </trkpt>
      <trkpt lat="30.89135000" lon="34.81784000">
        <ele>507.00000</ele>
        <time>2015-12-18T08:54:54Z</time>
      </trkpt>
      <trkpt lat="30.89133000" lon="34.81792000">
        <ele>507.00000</ele>
        <time>2015-12-18T08:54:57Z</time>
      </trkpt>
      <trkpt lat="30.89133000" lon="34.81793000">
        <ele>507.00000</ele>
        <time>2015-12-18T08:55:15Z</time>
      </trkpt>
      <trkpt lat="30.89133000" lon="34.81794000">
        <ele>507.00000</ele>
        <time>2015-12-18T08:55:45Z</time>
      </trkpt>
      <trkpt lat="30.89133000" lon="34.81795000">
        <ele>507.00000</ele>
        <time>2015-12-18T08:56:12Z</time>
      </trkpt>
      <trkpt lat="30.89132000" lon="34.81795000">
        <ele>507.00000</ele>
        <time>2015-12-18T08:56:30Z</time>
      </trkpt>
      <trkpt lat="30.89132000" lon="34.81796000">
        <ele>507.00000</ele>
        <time>2015-12-18T08:56:39Z</time>
      </trkpt>
      <trkpt lat="30.89132000" lon="34.81797000">
        <ele>507.00000</ele>
        <time>2015-12-18T08:57:06Z</time>
      </trkpt>
      <trkpt lat="30.89132000" lon="34.81798000">
        <ele>507.00000</ele>
        <time>2015-12-18T08:57:33Z</time>
      </trkpt>
      <trkpt lat="30.89132000" lon="34.81799000">
        <ele>507.00000</ele>
        <time>2015-12-18T08:58:21Z</time>
      </trkpt>
      <trkpt lat="30.89132000" lon="34.81800000">
        <ele>507.00000</ele>
        <time>2015-12-18T08:59:21Z</time>
      </trkpt>
      <trkpt lat="30.89132000" lon="34.81801000">
        <ele>507.00000</ele>
        <time>2015-12-18T09:00:18Z</time>
      </trkpt>
      <trkpt lat="30.89133000" lon="34.81801000">
        <ele>507.00000</ele>
        <time>2015-12-18T09:00:24Z</time>
      </trkpt>
      <trkpt lat="30.89133000" lon="34.81802000">
        <ele>507.00000</ele>
        <time>2015-12-18T09:01:15Z</time>
      </trkpt>
      <trkpt lat="30.89133000" lon="34.81803000">
        <ele>507.00000</ele>
        <time>2015-12-18T09:02:15Z</time>
      </trkpt>
      <trkpt lat="30.89133000" lon="34.81804000">
        <ele>507.00000</ele>
        <time>2015-12-18T09:03:12Z</time>
      </trkpt>
      <trkpt lat="30.89134000" lon="34.81804000">
        <ele>507.00000</ele>
        <time>2015-12-18T09:04:00Z</time>
      </trkpt>
      <trkpt lat="30.89134000" lon="34.81805000">
        <ele>507.00000</ele>
        <time>2015-12-18T09:04:12Z</time>
      </trkpt>
      <trkpt lat="30.89134000" lon="34.81806000">
        <ele>507.00000</ele>
        <time>2015-12-18T09:05:09Z</time>
      </trkpt>
      <trkpt lat="30.89137000" lon="34.81813000">
        <ele>507.00000</ele>
        <time>2015-12-18T09:05:36Z</time>
      </trkpt>
      <trkpt lat="30.89144000" lon="34.81826000">
        <ele>508.00000</ele>
        <time>2015-12-18T09:05:39Z</time>
      </trkpt>
      <trkpt lat="30.89155000" lon="34.81839000">
        <ele>508.00000</ele>
        <time>2015-12-18T09:05:42Z</time>
      </trkpt>
      <trkpt lat="30.89164000" lon="34.81851000">
        <ele>509.00000</ele>
        <time>2015-12-18T09:05:45Z</time>
      </trkpt>
      <trkpt lat="30.89172000" lon="34.81863000">
        <ele>509.00000</ele>
        <time>2015-12-18T09:05:48Z</time>
      </trkpt>
      <trkpt lat="30.89181000" lon="34.81876000">
        <ele>510.00000</ele>
        <time>2015-12-18T09:05:51Z</time>
      </trkpt>
      <trkpt lat="30.89193000" lon="34.81891000">
        <ele>510.00000</ele>
        <time>2015-12-18T09:05:54Z</time>
      </trkpt>
      <trkpt lat="30.89207000" lon="34.81907000">
        <ele>511.00000</ele>
        <time>2015-12-18T09:05:57Z</time>
      </trkpt>
      <trkpt lat="30.89216000" lon="34.81920000">
        <ele>511.00000</ele>
        <time>2015-12-18T09:06:00Z</time>
      </trkpt>
      <trkpt lat="30.89215000" lon="34.81928000">
        <ele>511.00000</ele>
        <time>2015-12-18T09:06:03Z</time>
      </trkpt>
      <trkpt lat="30.89208000" lon="34.81935000">
        <ele>510.00000</ele>
        <time>2015-12-18T09:06:06Z</time>
      </trkpt>
      <trkpt lat="30.89200000" lon="34.81941000">
        <ele>510.00000</ele>
        <time>2015-12-18T09:06:09Z</time>
      </trkpt>
      <trkpt lat="30.89193000" lon="34.81947000">
        <ele>510.00000</ele>
        <time>2015-12-18T09:06:12Z</time>
      </trkpt>
      <trkpt lat="30.89185000" lon="34.81955000">
        <ele>509.00000</ele>
        <time>2015-12-18T09:06:15Z</time>
      </trkpt>
      <trkpt lat="30.89175000" lon="34.81965000">
        <ele>509.00000</ele>
        <time>2015-12-18T09:06:18Z</time>
      </trkpt>
      <trkpt lat="30.89163000" lon="34.81975000">
        <ele>508.00000</ele>
        <time>2015-12-18T09:06:21Z</time>
      </trkpt>
      <trkpt lat="30.89148000" lon="34.81982000">
        <ele>507.00000</ele>
        <time>2015-12-18T09:06:24Z</time>
      </trkpt>
      <trkpt lat="30.89131000" lon="34.81987000">
        <ele>506.00000</ele>
        <time>2015-12-18T09:06:27Z</time>
      </trkpt>
      <trkpt lat="30.89112000" lon="34.81991000">
        <ele>505.00000</ele>
        <time>2015-12-18T09:06:30Z</time>
      </trkpt>
      <trkpt lat="30.89094000" lon="34.81994000">
        <ele>504.00000</ele>
        <time>2015-12-18T09:06:33Z</time>
      </trkpt>
      <trkpt lat="30.89076000" lon="34.81999000">
        <ele>503.00000</ele>
        <time>2015-12-18T09:06:36Z</time>
      </trkpt>
      <trkpt lat="30.89059000" lon="34.82006000">
        <ele>502.00000</ele>
        <time>2015-12-18T09:06:39Z</time>
      </trkpt>
      <trkpt lat="30.89045000" lon="34.82017000">
        <ele>501.00000</ele>
        <time>2015-12-18T09:06:42Z</time>
      </trkpt>
      <trkpt lat="30.89034000" lon="34.82031000">
        <ele>501.00000</ele>
        <time>2015-12-18T09:06:45Z</time>
      </trkpt>
      <trkpt lat="30.89025000" lon="34.82044000">
        <ele>501.00000</ele>
        <time>2015-12-18T09:06:48Z</time>
      </trkpt>
      <trkpt lat="30.89018000" lon="34.82056000">
        <ele>500.00000</ele>
        <time>2015-12-18T09:06:51Z</time>
      </trkpt>
      <trkpt lat="30.89012000" lon="34.82068000">
        <ele>500.00000</ele>
        <time>2015-12-18T09:06:54Z</time>
      </trkpt>
      <trkpt lat="30.89004000" lon="34.82082000">
        <ele>499.00000</ele>
        <time>2015-12-18T09:06:57Z</time>
      </trkpt>
      <trkpt lat="30.88994000" lon="34.82099000">
        <ele>499.00000</ele>
        <time>2015-12-18T09:07:00Z</time>
      </trkpt>
      <trkpt lat="30.88985000" lon="34.82117000">
        <ele>498.00000</ele>
        <time>2015-12-18T09:07:03Z</time>
      </trkpt>
      <trkpt lat="30.88976000" lon="34.82134000">
        <ele>498.00000</ele>
        <time>2015-12-18T09:07:06Z</time>
      </trkpt>
      <trkpt lat="30.88967000" lon="34.82151000">
        <ele>498.00000</ele>
        <time>2015-12-18T09:07:09Z</time>
      </trkpt>
      <trkpt lat="30.88957000" lon="34.82168000">
        <ele>498.00000</ele>
        <time>2015-12-18T09:07:12Z</time>
      </trkpt>
      <trkpt lat="30.88948000" lon="34.82186000">
        <ele>497.00000</ele>
        <time>2015-12-18T09:07:15Z</time>
      </trkpt>
      <trkpt lat="30.88939000" lon="34.82203000">
        <ele>497.00000</ele>
        <time>2015-12-18T09:07:18Z</time>
      </trkpt>
      <trkpt lat="30.88929000" lon="34.82221000">
        <ele>498.00000</ele>
        <time>2015-12-18T09:07:21Z</time>
      </trkpt>
      <trkpt lat="30.88919000" lon="34.82239000">
        <ele>498.00000</ele>
        <time>2015-12-18T09:07:24Z</time>
      </trkpt>
      <trkpt lat="30.88909000" lon="34.82258000">
        <ele>499.00000</ele>
        <time>2015-12-18T09:07:27Z</time>
      </trkpt>
      <trkpt lat="30.88901000" lon="34.82276000">
        <ele>500.00000</ele>
        <time>2015-12-18T09:07:30Z</time>
      </trkpt>
      <trkpt lat="30.88894000" lon="34.82295000">
        <ele>500.00000</ele>
        <time>2015-12-18T09:07:33Z</time>
      </trkpt>
      <trkpt lat="30.88888000" lon="34.82314000">
        <ele>500.00000</ele>
        <time>2015-12-18T09:07:36Z</time>
      </trkpt>
      <trkpt lat="30.88883000" lon="34.82334000">
        <ele>500.00000</ele>
        <time>2015-12-18T09:07:39Z</time>
      </trkpt>
      <trkpt lat="30.88875000" lon="34.82353000">
        <ele>500.00000</ele>
        <time>2015-12-18T09:07:42Z</time>
      </trkpt>
      <trkpt lat="30.88862000" lon="34.82369000">
        <ele>499.00000</ele>
        <time>2015-12-18T09:07:45Z</time>
      </trkpt>
      <trkpt lat="30.88851000" lon="34.82389000">
        <ele>499.00000</ele>
        <time>2015-12-18T09:07:48Z</time>
      </trkpt>
      <trkpt lat="30.88847000" lon="34.82411000">
        <ele>500.00000</ele>
        <time>2015-12-18T09:07:51Z</time>
      </trkpt>
      <trkpt lat="30.88844000" lon="34.82429000">
        <ele>500.00000</ele>
        <time>2015-12-18T09:07:54Z</time>
      </trkpt>
      <trkpt lat="30.88837000" lon="34.82443000">
        <ele>500.00000</ele>
        <time>2015-12-18T09:07:57Z</time>
      </trkpt>
      <trkpt lat="30.88827000" lon="34.82452000">
        <ele>500.00000</ele>
        <time>2015-12-18T09:08:00Z</time>
      </trkpt>
      <trkpt lat="30.88816000" lon="34.82461000">
        <ele>500.00000</ele>
        <time>2015-12-18T09:08:03Z</time>
      </trkpt>
      <trkpt lat="30.88806000" lon="34.82470000">
        <ele>500.00000</ele>
        <time>2015-12-18T09:08:06Z</time>
      </trkpt>
      <trkpt lat="30.88795000" lon="34.82477000">
        <ele>500.00000</ele>
        <time>2015-12-18T09:08:09Z</time>
      </trkpt>
      <trkpt lat="30.88785000" lon="34.82483000">
        <ele>500.00000</ele>
        <time>2015-12-18T09:08:12Z</time>
      </trkpt>
      <trkpt lat="30.88775000" lon="34.82492000">
        <ele>501.00000</ele>
        <time>2015-12-18T09:08:15Z</time>
      </trkpt>
      <trkpt lat="30.88766000" lon="34.82503000">
        <ele>501.00000</ele>
        <time>2015-12-18T09:08:18Z</time>
      </trkpt>
      <trkpt lat="30.88756000" lon="34.82515000">
        <ele>501.00000</ele>
        <time>2015-12-18T09:08:21Z</time>
      </trkpt>
      <trkpt lat="30.88747000" lon="34.82527000">
        <ele>502.00000</ele>
        <time>2015-12-18T09:08:24Z</time>
      </trkpt>
      <trkpt lat="30.88737000" lon="34.82539000">
        <ele>503.00000</ele>
        <time>2015-12-18T09:08:27Z</time>
      </trkpt>
      <trkpt lat="30.88726000" lon="34.82551000">
        <ele>503.00000</ele>
        <time>2015-12-18T09:08:30Z</time>
      </trkpt>
      <trkpt lat="30.88717000" lon="34.82565000">
        <ele>504.00000</ele>
        <time>2015-12-18T09:08:33Z</time>
      </trkpt>
      <trkpt lat="30.88709000" lon="34.82581000">
        <ele>504.00000</ele>
        <time>2015-12-18T09:08:36Z</time>
      </trkpt>
      <trkpt lat="30.88699000" lon="34.82594000">
        <ele>504.00000</ele>
        <time>2015-12-18T09:08:39Z</time>
      </trkpt>
      <trkpt lat="30.88687000" lon="34.82602000">
        <ele>505.00000</ele>
        <time>2015-12-18T09:08:42Z</time>
      </trkpt>
      <trkpt lat="30.88671000" lon="34.82608000">
        <ele>506.00000</ele>
        <time>2015-12-18T09:08:45Z</time>
      </trkpt>
      <trkpt lat="30.88656000" lon="34.82615000">
        <ele>506.00000</ele>
        <time>2015-12-18T09:08:48Z</time>
      </trkpt>
      <trkpt lat="30.88641000" lon="34.82624000">
        <ele>507.00000</ele>
        <time>2015-12-18T09:08:51Z</time>
      </trkpt>
      <trkpt lat="30.88628000" lon="34.82634000">
        <ele>508.00000</ele>
        <time>2015-12-18T09:08:54Z</time>
      </trkpt>
      <trkpt lat="30.88617000" lon="34.82646000">
        <ele>508.00000</ele>
        <time>2015-12-18T09:08:57Z</time>
      </trkpt>
      <trkpt lat="30.88604000" lon="34.82654000">
        <ele>508.00000</ele>
        <time>2015-12-18T09:09:00Z</time>
      </trkpt>
      <trkpt lat="30.88590000" lon="34.82658000">
        <ele>508.00000</ele>
        <time>2015-12-18T09:09:03Z</time>
      </trkpt>
      <trkpt lat="30.88577000" lon="34.82659000">
        <ele>509.00000</ele>
        <time>2015-12-18T09:09:06Z</time>
      </trkpt>
      <trkpt lat="30.88566000" lon="34.82667000">
        <ele>509.00000</ele>
        <time>2015-12-18T09:09:09Z</time>
      </trkpt>
      <trkpt lat="30.88558000" lon="34.82685000">
        <ele>508.00000</ele>
        <time>2015-12-18T09:09:12Z</time>
      </trkpt>
      <trkpt lat="30.88550000" lon="34.82705000">
        <ele>507.00000</ele>
        <time>2015-12-18T09:09:15Z</time>
      </trkpt>
      <trkpt lat="30.88540000" lon="34.82720000">
        <ele>507.00000</ele>
        <time>2015-12-18T09:09:18Z</time>
      </trkpt>
      <trkpt lat="30.88529000" lon="34.82733000">
        <ele>508.00000</ele>
        <time>2015-12-18T09:09:21Z</time>
      </trkpt>
      <trkpt lat="30.88522000" lon="34.82747000">
        <ele>508.00000</ele>
        <time>2015-12-18T09:09:24Z</time>
      </trkpt>
      <trkpt lat="30.88514000" lon="34.82761000">
        <ele>508.00000</ele>
        <time>2015-12-18T09:09:27Z</time>
      </trkpt>
      <trkpt lat="30.88504000" lon="34.82774000">
        <ele>508.00000</ele>
        <time>2015-12-18T09:09:30Z</time>
      </trkpt>
      <trkpt lat="30.88493000" lon="34.82787000">
        <ele>508.00000</ele>
        <time>2015-12-18T09:09:33Z</time>
      </trkpt>
      <trkpt lat="30.88482000" lon="34.82800000">
        <ele>508.00000</ele>
        <time>2015-12-18T09:09:36Z</time>
      </trkpt>
      <trkpt lat="30.88472000" lon="34.82813000">
        <ele>508.00000</ele>
        <time>2015-12-18T09:09:39Z</time>
      </trkpt>
      <trkpt lat="30.88463000" lon="34.82828000">
        <ele>509.00000</ele>
        <time>2015-12-18T09:09:42Z</time>
      </trkpt>
      <trkpt lat="30.88454000" lon="34.82841000">
        <ele>509.00000</ele>
        <time>2015-12-18T09:09:45Z</time>
      </trkpt>
      <trkpt lat="30.88442000" lon="34.82851000">
        <ele>509.00000</ele>
        <time>2015-12-18T09:09:48Z</time>
      </trkpt>
      <trkpt lat="30.88432000" lon="34.82860000">
        <ele>509.00000</ele>
        <time>2015-12-18T09:09:51Z</time>
      </trkpt>
      <trkpt lat="30.88422000" lon="34.82871000">
        <ele>509.00000</ele>
        <time>2015-12-18T09:09:54Z</time>
      </trkpt>
      <trkpt lat="30.88413000" lon="34.82881000">
        <ele>509.00000</ele>
        <time>2015-12-18T09:09:57Z</time>
      </trkpt>
      <trkpt lat="30.88405000" lon="34.82892000">
        <ele>509.00000</ele>
        <time>2015-12-18T09:10:00Z</time>
      </trkpt>
      <trkpt lat="30.88397000" lon="34.82902000">
        <ele>509.00000</ele>
        <time>2015-12-18T09:10:03Z</time>
      </trkpt>
      <trkpt lat="30.88387000" lon="34.82914000">
        <ele>509.00000</ele>
        <time>2015-12-18T09:10:06Z</time>
      </trkpt>
      <trkpt lat="30.88380000" lon="34.82926000">
        <ele>509.00000</ele>
        <time>2015-12-18T09:10:09Z</time>
      </trkpt>
      <trkpt lat="30.88371000" lon="34.82937000">
        <ele>509.00000</ele>
        <time>2015-12-18T09:10:12Z</time>
      </trkpt>
      <trkpt lat="30.88362000" lon="34.82948000">
        <ele>510.00000</ele>
        <time>2015-12-18T09:10:15Z</time>
      </trkpt>
      <trkpt lat="30.88353000" lon="34.82959000">
        <ele>510.00000</ele>
        <time>2015-12-18T09:10:18Z</time>
      </trkpt>
      <trkpt lat="30.88344000" lon="34.82971000">
        <ele>511.00000</ele>
        <time>2015-12-18T09:10:21Z</time>
      </trkpt>
      <trkpt lat="30.88336000" lon="34.82984000">
        <ele>512.00000</ele>
        <time>2015-12-18T09:10:24Z</time>
      </trkpt>
      <trkpt lat="30.88328000" lon="34.82996000">
        <ele>513.00000</ele>
        <time>2015-12-18T09:10:27Z</time>
      </trkpt>
      <trkpt lat="30.88318000" lon="34.83008000">
        <ele>513.00000</ele>
        <time>2015-12-18T09:10:30Z</time>
      </trkpt>
      <trkpt lat="30.88309000" lon="34.83019000">
        <ele>514.00000</ele>
        <time>2015-12-18T09:10:33Z</time>
      </trkpt>
      <trkpt lat="30.88299000" lon="34.83030000">
        <ele>514.00000</ele>
        <time>2015-12-18T09:10:36Z</time>
      </trkpt>
      <trkpt lat="30.88289000" lon="34.83041000">
        <ele>514.00000</ele>
        <time>2015-12-18T09:10:39Z</time>
      </trkpt>
      <trkpt lat="30.88278000" lon="34.83050000">
        <ele>514.00000</ele>
        <time>2015-12-18T09:10:42Z</time>
      </trkpt>
      <trkpt lat="30.88263000" lon="34.83057000">
        <ele>514.00000</ele>
        <time>2015-12-18T09:10:45Z</time>
      </trkpt>
      <trkpt lat="30.88247000" lon="34.83062000">
        <ele>514.00000</ele>
        <time>2015-12-18T09:10:48Z</time>
      </trkpt>
      <trkpt lat="30.88234000" lon="34.83069000">
        <ele>515.00000</ele>
        <time>2015-12-18T09:10:51Z</time>
      </trkpt>
      <trkpt lat="30.88223000" lon="34.83081000">
        <ele>515.00000</ele>
        <time>2015-12-18T09:10:54Z</time>
      </trkpt>
      <trkpt lat="30.88216000" lon="34.83095000">
        <ele>515.00000</ele>
        <time>2015-12-18T09:10:57Z</time>
      </trkpt>
      <trkpt lat="30.88211000" lon="34.83111000">
        <ele>516.00000</ele>
        <time>2015-12-18T09:11:00Z</time>
      </trkpt>
      <trkpt lat="30.88207000" lon="34.83129000">
        <ele>516.00000</ele>
        <time>2015-12-18T09:11:03Z</time>
      </trkpt>
      <trkpt lat="30.88202000" lon="34.83147000">
        <ele>516.00000</ele>
        <time>2015-12-18T09:11:06Z</time>
      </trkpt>
      <trkpt lat="30.88195000" lon="34.83162000">
        <ele>516.00000</ele>
        <time>2015-12-18T09:11:09Z</time>
      </trkpt>
      <trkpt lat="30.88184000" lon="34.83171000">
        <ele>516.00000</ele>
        <time>2015-12-18T09:11:12Z</time>
      </trkpt>
      <trkpt lat="30.88172000" lon="34.83177000">
        <ele>516.00000</ele>
        <time>2015-12-18T09:11:15Z</time>
      </trkpt>
      <trkpt lat="30.88159000" lon="34.83182000">
        <ele>516.00000</ele>
        <time>2015-12-18T09:11:18Z</time>
      </trkpt>
      <trkpt lat="30.88146000" lon="34.83188000">
        <ele>516.00000</ele>
        <time>2015-12-18T09:11:21Z</time>
      </trkpt>
      <trkpt lat="30.88133000" lon="34.83194000">
        <ele>516.00000</ele>
        <time>2015-12-18T09:11:24Z</time>
      </trkpt>
      <trkpt lat="30.88122000" lon="34.83201000">
        <ele>516.00000</ele>
        <time>2015-12-18T09:11:27Z</time>
      </trkpt>
      <trkpt lat="30.88113000" lon="34.83211000">
        <ele>517.00000</ele>
        <time>2015-12-18T09:11:30Z</time>
      </trkpt>
      <trkpt lat="30.88104000" lon="34.83222000">
        <ele>517.00000</ele>
        <time>2015-12-18T09:11:33Z</time>
      </trkpt>
      <trkpt lat="30.88094000" lon="34.83232000">
        <ele>517.00000</ele>
        <time>2015-12-18T09:11:36Z</time>
      </trkpt>
      <trkpt lat="30.88083000" lon="34.83239000">
        <ele>518.00000</ele>
        <time>2015-12-18T09:11:39Z</time>
      </trkpt>
      <trkpt lat="30.88070000" lon="34.83244000">
        <ele>518.00000</ele>
        <time>2015-12-18T09:11:42Z</time>
      </trkpt>
      <trkpt lat="30.88058000" lon="34.83248000">
        <ele>519.00000</ele>
        <time>2015-12-18T09:11:45Z</time>
      </trkpt>
      <trkpt lat="30.88046000" lon="34.83254000">
        <ele>519.00000</ele>
        <time>2015-12-18T09:11:48Z</time>
      </trkpt>
      <trkpt lat="30.88035000" lon="34.83261000">
        <ele>520.00000</ele>
        <time>2015-12-18T09:11:51Z</time>
      </trkpt>
      <trkpt lat="30.88026000" lon="34.83271000">
        <ele>520.00000</ele>
        <time>2015-12-18T09:11:54Z</time>
      </trkpt>
      <trkpt lat="30.88017000" lon="34.83277000">
        <ele>520.00000</ele>
        <time>2015-12-18T09:11:57Z</time>
      </trkpt>
      <trkpt lat="30.88006000" lon="34.83279000">
        <ele>521.00000</ele>
        <time>2015-12-18T09:12:00Z</time>
      </trkpt>
      <trkpt lat="30.87996000" lon="34.83280000">
        <ele>521.00000</ele>
        <time>2015-12-18T09:12:03Z</time>
      </trkpt>
      <trkpt lat="30.87986000" lon="34.83281000">
        <ele>521.00000</ele>
        <time>2015-12-18T09:12:06Z</time>
      </trkpt>
      <trkpt lat="30.87976000" lon="34.83279000">
        <ele>521.00000</ele>
        <time>2015-12-18T09:12:09Z</time>
      </trkpt>
      <trkpt lat="30.87965000" lon="34.83277000">
        <ele>521.00000</ele>
        <time>2015-12-18T09:12:12Z</time>
      </trkpt>
      <trkpt lat="30.87955000" lon="34.83274000">
        <ele>522.00000</ele>
        <time>2015-12-18T09:12:15Z</time>
      </trkpt>
      <trkpt lat="30.87945000" lon="34.83272000">
        <ele>522.00000</ele>
        <time>2015-12-18T09:12:18Z</time>
      </trkpt>
      <trkpt lat="30.87935000" lon="34.83273000">
        <ele>523.00000</ele>
        <time>2015-12-18T09:12:21Z</time>
      </trkpt>
      <trkpt lat="30.87925000" lon="34.83274000">
        <ele>523.00000</ele>
        <time>2015-12-18T09:12:24Z</time>
      </trkpt>
      <trkpt lat="30.87915000" lon="34.83277000">
        <ele>524.00000</ele>
        <time>2015-12-18T09:12:27Z</time>
      </trkpt>
      <trkpt lat="30.87904000" lon="34.83279000">
        <ele>524.00000</ele>
        <time>2015-12-18T09:12:30Z</time>
      </trkpt>
      <trkpt lat="30.87893000" lon="34.83278000">
        <ele>525.00000</ele>
        <time>2015-12-18T09:12:33Z</time>
      </trkpt>
      <trkpt lat="30.87883000" lon="34.83275000">
        <ele>525.00000</ele>
        <time>2015-12-18T09:12:36Z</time>
      </trkpt>
      <trkpt lat="30.87872000" lon="34.83275000">
        <ele>526.00000</ele>
        <time>2015-12-18T09:12:39Z</time>
      </trkpt>
      <trkpt lat="30.87862000" lon="34.83274000">
        <ele>526.00000</ele>
        <time>2015-12-18T09:12:42Z</time>
      </trkpt>
      <trkpt lat="30.87852000" lon="34.83274000">
        <ele>527.00000</ele>
        <time>2015-12-18T09:12:45Z</time>
      </trkpt>
      <trkpt lat="30.87842000" lon="34.83272000">
        <ele>528.00000</ele>
        <time>2015-12-18T09:12:48Z</time>
      </trkpt>
      <trkpt lat="30.87832000" lon="34.83270000">
        <ele>528.00000</ele>
        <time>2015-12-18T09:12:51Z</time>
      </trkpt>
      <trkpt lat="30.87822000" lon="34.83268000">
        <ele>529.00000</ele>
        <time>2015-12-18T09:12:54Z</time>
      </trkpt>
      <trkpt lat="30.87813000" lon="34.83267000">
        <ele>529.00000</ele>
        <time>2015-12-18T09:12:57Z</time>
      </trkpt>
      <trkpt lat="30.87803000" lon="34.83265000">
        <ele>530.00000</ele>
        <time>2015-12-18T09:13:00Z</time>
      </trkpt>
      <trkpt lat="30.87794000" lon="34.83264000">
        <ele>531.00000</ele>
        <time>2015-12-18T09:13:03Z</time>
      </trkpt>
      <trkpt lat="30.87785000" lon="34.83260000">
        <ele>531.00000</ele>
        <time>2015-12-18T09:13:06Z</time>
      </trkpt>
      <trkpt lat="30.87777000" lon="34.83253000">
        <ele>532.00000</ele>
        <time>2015-12-18T09:13:09Z</time>
      </trkpt>
      <trkpt lat="30.87769000" lon="34.83247000">
        <ele>532.00000</ele>
        <time>2015-12-18T09:13:12Z</time>
      </trkpt>
      <trkpt lat="30.87762000" lon="34.83242000">
        <ele>532.00000</ele>
        <time>2015-12-18T09:13:15Z</time>
      </trkpt>
      <trkpt lat="30.87755000" lon="34.83238000">
        <ele>533.00000</ele>
        <time>2015-12-18T09:13:18Z</time>
      </trkpt>
      <trkpt lat="30.87747000" lon="34.83237000">
        <ele>533.00000</ele>
        <time>2015-12-18T09:13:21Z</time>
      </trkpt>
      <trkpt lat="30.87740000" lon="34.83237000">
        <ele>533.00000</ele>
        <time>2015-12-18T09:13:24Z</time>
      </trkpt>
      <trkpt lat="30.87731000" lon="34.83237000">
        <ele>534.00000</ele>
        <time>2015-12-18T09:13:27Z</time>
      </trkpt>
      <trkpt lat="30.87723000" lon="34.83235000">
        <ele>534.00000</ele>
        <time>2015-12-18T09:13:30Z</time>
      </trkpt>
      <trkpt lat="30.87715000" lon="34.83233000">
        <ele>534.00000</ele>
        <time>2015-12-18T09:13:33Z</time>
      </trkpt>
      <trkpt lat="30.87709000" lon="34.83230000">
        <ele>535.00000</ele>
        <time>2015-12-18T09:13:36Z</time>
      </trkpt>
      <trkpt lat="30.87703000" lon="34.83226000">
        <ele>535.00000</ele>
        <time>2015-12-18T09:13:39Z</time>
      </trkpt>
      <trkpt lat="30.87697000" lon="34.83223000">
        <ele>535.00000</ele>
        <time>2015-12-18T09:13:42Z</time>
      </trkpt>
      <trkpt lat="30.87691000" lon="34.83222000">
        <ele>535.00000</ele>
        <time>2015-12-18T09:13:45Z</time>
      </trkpt>
      <trkpt lat="30.87685000" lon="34.83221000">
        <ele>535.00000</ele>
        <time>2015-12-18T09:13:48Z</time>
      </trkpt>
      <trkpt lat="30.87678000" lon="34.83220000">
        <ele>535.00000</ele>
        <time>2015-12-18T09:13:51Z</time>
      </trkpt>
      <trkpt lat="30.87669000" lon="34.83218000">
        <ele>535.00000</ele>
        <time>2015-12-18T09:13:54Z</time>
      </trkpt>
      <trkpt lat="30.87661000" lon="34.83216000">
        <ele>535.00000</ele>
        <time>2015-12-18T09:13:57Z</time>
      </trkpt>
      <trkpt lat="30.87653000" lon="34.83213000">
        <ele>535.00000</ele>
        <time>2015-12-18T09:14:00Z</time>
      </trkpt>
      <trkpt lat="30.87645000" lon="34.83210000">
        <ele>535.00000</ele>
        <time>2015-12-18T09:14:03Z</time>
      </trkpt>
      <trkpt lat="30.87637000" lon="34.83207000">
        <ele>535.00000</ele>
        <time>2015-12-18T09:14:06Z</time>
      </trkpt>
      <trkpt lat="30.87630000" lon="34.83207000">
        <ele>535.00000</ele>
        <time>2015-12-18T09:14:09Z</time>
      </trkpt>
      <trkpt lat="30.87624000" lon="34.83210000">
        <ele>535.00000</ele>
        <time>2015-12-18T09:14:12Z</time>
      </trkpt>
      <trkpt lat="30.87618000" lon="34.83214000">
        <ele>536.00000</ele>
        <time>2015-12-18T09:14:15Z</time>
      </trkpt>
      <trkpt lat="30.87608000" lon="34.83218000">
        <ele>536.00000</ele>
        <time>2015-12-18T09:14:18Z</time>
      </trkpt>
      <trkpt lat="30.87598000" lon="34.83217000">
        <ele>536.00000</ele>
        <time>2015-12-18T09:14:21Z</time>
      </trkpt>
      <trkpt lat="30.87590000" lon="34.83215000">
        <ele>537.00000</ele>
        <time>2015-12-18T09:14:24Z</time>
      </trkpt>
      <trkpt lat="30.87584000" lon="34.83213000">
        <ele>537.00000</ele>
        <time>2015-12-18T09:14:27Z</time>
      </trkpt>
      <trkpt lat="30.87578000" lon="34.83208000">
        <ele>537.00000</ele>
        <time>2015-12-18T09:14:30Z</time>
      </trkpt>
      <trkpt lat="30.87572000" lon="34.83204000">
        <ele>537.00000</ele>
        <time>2015-12-18T09:14:33Z</time>
      </trkpt>
      <trkpt lat="30.87566000" lon="34.83202000">
        <ele>537.00000</ele>
        <time>2015-12-18T09:14:36Z</time>
      </trkpt>
      <trkpt lat="30.87559000" lon="34.83202000">
        <ele>537.00000</ele>
        <time>2015-12-18T09:14:39Z</time>
      </trkpt>
      <trkpt lat="30.87551000" lon="34.83206000">
        <ele>538.00000</ele>
        <time>2015-12-18T09:14:42Z</time>
      </trkpt>
      <trkpt lat="30.87541000" lon="34.83213000">
        <ele>538.00000</ele>
        <time>2015-12-18T09:14:45Z</time>
      </trkpt>
      <trkpt lat="30.87528000" lon="34.83216000">
        <ele>539.00000</ele>
        <time>2015-12-18T09:14:48Z</time>
      </trkpt>
      <trkpt lat="30.87515000" lon="34.83216000">
        <ele>539.00000</ele>
        <time>2015-12-18T09:14:51Z</time>
      </trkpt>
      <trkpt lat="30.87503000" lon="34.83223000">
        <ele>539.00000</ele>
        <time>2015-12-18T09:14:54Z</time>
      </trkpt>
      <trkpt lat="30.87493000" lon="34.83218000">
        <ele>539.00000</ele>
        <time>2015-12-18T09:14:57Z</time>
      </trkpt>
      <trkpt lat="30.87484000" lon="34.83209000">
        <ele>538.00000</ele>
        <time>2015-12-18T09:15:00Z</time>
      </trkpt>
      <trkpt lat="30.87474000" lon="34.83202000">
        <ele>538.00000</ele>
        <time>2015-12-18T09:15:03Z</time>
      </trkpt>
      <trkpt lat="30.87464000" lon="34.83196000">
        <ele>538.00000</ele>
        <time>2015-12-18T09:15:06Z</time>
      </trkpt>
      <trkpt lat="30.87451000" lon="34.83195000">
        <ele>538.00000</ele>
        <time>2015-12-18T09:15:09Z</time>
      </trkpt>
      <trkpt lat="30.87438000" lon="34.83192000">
        <ele>538.00000</ele>
        <time>2015-12-18T09:15:12Z</time>
      </trkpt>
      <trkpt lat="30.87424000" lon="34.83188000">
        <ele>537.00000</ele>
        <time>2015-12-18T09:15:15Z</time>
      </trkpt>
      <trkpt lat="30.87412000" lon="34.83186000">
        <ele>537.00000</ele>
        <time>2015-12-18T09:15:18Z</time>
      </trkpt>
      <trkpt lat="30.87398000" lon="34.83186000">
        <ele>537.00000</ele>
        <time>2015-12-18T09:15:21Z</time>
      </trkpt>
      <trkpt lat="30.87385000" lon="34.83183000">
        <ele>537.00000</ele>
        <time>2015-12-18T09:15:24Z</time>
      </trkpt>
      <trkpt lat="30.87371000" lon="34.83178000">
        <ele>536.00000</ele>
        <time>2015-12-18T09:15:27Z</time>
      </trkpt>
      <trkpt lat="30.87357000" lon="34.83176000">
        <ele>536.00000</ele>
        <time>2015-12-18T09:15:30Z</time>
      </trkpt>
      <trkpt lat="30.87343000" lon="34.83176000">
        <ele>536.00000</ele>
        <time>2015-12-18T09:15:33Z</time>
      </trkpt>
      <trkpt lat="30.87332000" lon="34.83170000">
        <ele>535.00000</ele>
        <time>2015-12-18T09:15:36Z</time>
      </trkpt>
      <trkpt lat="30.87322000" lon="34.83160000">
        <ele>534.00000</ele>
        <time>2015-12-18T09:15:39Z</time>
      </trkpt>
      <trkpt lat="30.87309000" lon="34.83155000">
        <ele>534.00000</ele>
        <time>2015-12-18T09:15:42Z</time>
      </trkpt>
      <trkpt lat="30.87295000" lon="34.83149000">
        <ele>533.00000</ele>
        <time>2015-12-18T09:15:45Z</time>
      </trkpt>
      <trkpt lat="30.87282000" lon="34.83143000">
        <ele>533.00000</ele>
        <time>2015-12-18T09:15:48Z</time>
      </trkpt>
      <trkpt lat="30.87268000" lon="34.83139000">
        <ele>533.00000</ele>
        <time>2015-12-18T09:15:51Z</time>
      </trkpt>
      <trkpt lat="30.87253000" lon="34.83136000">
        <ele>533.00000</ele>
        <time>2015-12-18T09:15:54Z</time>
      </trkpt>
      <trkpt lat="30.87237000" lon="34.83140000">
        <ele>533.00000</ele>
        <time>2015-12-18T09:15:57Z</time>
      </trkpt>
      <trkpt lat="30.87223000" lon="34.83141000">
        <ele>534.00000</ele>
        <time>2015-12-18T09:16:00Z</time>
      </trkpt>
      <trkpt lat="30.87208000" lon="34.83136000">
        <ele>534.00000</ele>
        <time>2015-12-18T09:16:03Z</time>
      </trkpt>
      <trkpt lat="30.87192000" lon="34.83135000">
        <ele>535.00000</ele>
        <time>2015-12-18T09:16:06Z</time>
      </trkpt>
      <trkpt lat="30.87176000" lon="34.83139000">
        <ele>536.00000</ele>
        <time>2015-12-18T09:16:09Z</time>
      </trkpt>
      <trkpt lat="30.87164000" lon="34.83138000">
        <ele>536.00000</ele>
        <time>2015-12-18T09:16:12Z</time>
      </trkpt>
      <trkpt lat="30.87153000" lon="34.83130000">
        <ele>536.00000</ele>
        <time>2015-12-18T09:16:15Z</time>
      </trkpt>
      <trkpt lat="30.87142000" lon="34.83125000">
        <ele>537.00000</ele>
        <time>2015-12-18T09:16:18Z</time>
      </trkpt>
      <trkpt lat="30.87130000" lon="34.83121000">
        <ele>538.00000</ele>
        <time>2015-12-18T09:16:21Z</time>
      </trkpt>
      <trkpt lat="30.87116000" lon="34.83120000">
        <ele>538.00000</ele>
        <time>2015-12-18T09:16:24Z</time>
      </trkpt>
      <trkpt lat="30.87100000" lon="34.83120000">
        <ele>537.00000</ele>
        <time>2015-12-18T09:16:27Z</time>
      </trkpt>
      <trkpt lat="30.87084000" lon="34.83119000">
        <ele>536.00000</ele>
        <time>2015-12-18T09:16:30Z</time>
      </trkpt>
      <trkpt lat="30.87068000" lon="34.83110000">
        <ele>536.00000</ele>
        <time>2015-12-18T09:16:33Z</time>
      </trkpt>
      <trkpt lat="30.87050000" lon="34.83099000">
        <ele>535.00000</ele>
        <time>2015-12-18T09:16:36Z</time>
      </trkpt>
      <trkpt lat="30.87028000" lon="34.83089000">
        <ele>533.00000</ele>
        <time>2015-12-18T09:16:39Z</time>
      </trkpt>
      <trkpt lat="30.87009000" lon="34.83083000">
        <ele>532.00000</ele>
        <time>2015-12-18T09:16:42Z</time>
      </trkpt>
      <trkpt lat="30.86996000" lon="34.83086000">
        <ele>532.00000</ele>
        <time>2015-12-18T09:16:45Z</time>
      </trkpt>
      <trkpt lat="30.86983000" lon="34.83087000">
        <ele>531.00000</ele>
        <time>2015-12-18T09:16:48Z</time>
      </trkpt>
      <trkpt lat="30.86969000" lon="34.83081000">
        <ele>530.00000</ele>
        <time>2015-12-18T09:16:51Z</time>
      </trkpt>
      <trkpt lat="30.86954000" lon="34.83076000">
        <ele>530.00000</ele>
        <time>2015-12-18T09:16:54Z</time>
      </trkpt>
      <trkpt lat="30.86939000" lon="34.83073000">
        <ele>529.00000</ele>
        <time>2015-12-18T09:16:57Z</time>
      </trkpt>
      <trkpt lat="30.86923000" lon="34.83071000">
        <ele>529.00000</ele>
        <time>2015-12-18T09:17:00Z</time>
      </trkpt>
      <trkpt lat="30.86907000" lon="34.83073000">
        <ele>529.00000</ele>
        <time>2015-12-18T09:17:03Z</time>
      </trkpt>
      <trkpt lat="30.86889000" lon="34.83077000">
        <ele>529.00000</ele>
        <time>2015-12-18T09:17:06Z</time>
      </trkpt>
      <trkpt lat="30.86871000" lon="34.83082000">
        <ele>530.00000</ele>
        <time>2015-12-18T09:17:09Z</time>
      </trkpt>
      <trkpt lat="30.86854000" lon="34.83085000">
        <ele>530.00000</ele>
        <time>2015-12-18T09:17:12Z</time>
      </trkpt>
      <trkpt lat="30.86837000" lon="34.83085000">
        <ele>531.00000</ele>
        <time>2015-12-18T09:17:15Z</time>
      </trkpt>
      <trkpt lat="30.86821000" lon="34.83087000">
        <ele>532.00000</ele>
        <time>2015-12-18T09:17:18Z</time>
      </trkpt>
      <trkpt lat="30.86806000" lon="34.83091000">
        <ele>532.00000</ele>
        <time>2015-12-18T09:17:21Z</time>
      </trkpt>
      <trkpt lat="30.86795000" lon="34.83095000">
        <ele>532.00000</ele>
        <time>2015-12-18T09:17:24Z</time>
      </trkpt>
      <trkpt lat="30.86786000" lon="34.83096000">
        <ele>533.00000</ele>
        <time>2015-12-18T09:17:27Z</time>
      </trkpt>
      <trkpt lat="30.86777000" lon="34.83092000">
        <ele>534.00000</ele>
        <time>2015-12-18T09:17:30Z</time>
      </trkpt>
      <trkpt lat="30.86767000" lon="34.83088000">
        <ele>534.00000</ele>
        <time>2015-12-18T09:17:33Z</time>
      </trkpt>
      <trkpt lat="30.86758000" lon="34.83086000">
        <ele>535.00000</ele>
        <time>2015-12-18T09:17:36Z</time>
      </trkpt>
      <trkpt lat="30.86749000" lon="34.83086000">
        <ele>536.00000</ele>
        <time>2015-12-18T09:17:39Z</time>
      </trkpt>
      <trkpt lat="30.86740000" lon="34.83085000">
        <ele>537.00000</ele>
        <time>2015-12-18T09:17:42Z</time>
      </trkpt>
      <trkpt lat="30.86731000" lon="34.83085000">
        <ele>538.00000</ele>
        <time>2015-12-18T09:17:45Z</time>
      </trkpt>
      <trkpt lat="30.86723000" lon="34.83083000">
        <ele>538.00000</ele>
        <time>2015-12-18T09:17:48Z</time>
      </trkpt>
      <trkpt lat="30.86714000" lon="34.83081000">
        <ele>539.00000</ele>
        <time>2015-12-18T09:17:51Z</time>
      </trkpt>
      <trkpt lat="30.86707000" lon="34.83079000">
        <ele>540.00000</ele>
        <time>2015-12-18T09:17:54Z</time>
      </trkpt>
      <trkpt lat="30.86701000" lon="34.83075000">
        <ele>540.00000</ele>
        <time>2015-12-18T09:17:57Z</time>
      </trkpt>
      <trkpt lat="30.86696000" lon="34.83070000">
        <ele>540.00000</ele>
        <time>2015-12-18T09:18:00Z</time>
      </trkpt>
      <trkpt lat="30.86692000" lon="34.83067000">
        <ele>540.00000</ele>
        <time>2015-12-18T09:18:03Z</time>
      </trkpt>
      <trkpt lat="30.86688000" lon="34.83063000">
        <ele>540.00000</ele>
        <time>2015-12-18T09:18:33Z</time>
      </trkpt>
      <trkpt lat="30.86683000" lon="34.83059000">
        <ele>540.00000</ele>
        <time>2015-12-18T09:18:36Z</time>
      </trkpt>
      <trkpt lat="30.86676000" lon="34.83051000">
        <ele>541.00000</ele>
        <time>2015-12-18T09:18:39Z</time>
      </trkpt>
      <trkpt lat="30.86667000" lon="34.83043000">
        <ele>541.00000</ele>
        <time>2015-12-18T09:18:42Z</time>
      </trkpt>
      <trkpt lat="30.86656000" lon="34.83033000">
        <ele>540.00000</ele>
        <time>2015-12-18T09:18:45Z</time>
      </trkpt>
      <trkpt lat="30.86646000" lon="34.83020000">
        <ele>540.00000</ele>
        <time>2015-12-18T09:18:48Z</time>
      </trkpt>
      <trkpt lat="30.86636000" lon="34.83007000">
        <ele>539.00000</ele>
        <time>2015-12-18T09:18:51Z</time>
      </trkpt>
      <trkpt lat="30.86626000" lon="34.82994000">
        <ele>539.00000</ele>
        <time>2015-12-18T09:18:54Z</time>
      </trkpt>
      <trkpt lat="30.86616000" lon="34.82978000">
        <ele>538.00000</ele>
        <time>2015-12-18T09:18:57Z</time>
      </trkpt>
      <trkpt lat="30.86605000" lon="34.82961000">
        <ele>537.00000</ele>
        <time>2015-12-18T09:19:00Z</time>
      </trkpt>
      <trkpt lat="30.86594000" lon="34.82941000">
        <ele>535.00000</ele>
        <time>2015-12-18T09:19:03Z</time>
      </trkpt>
      <trkpt lat="30.86587000" lon="34.82917000">
        <ele>533.00000</ele>
        <time>2015-12-18T09:19:06Z</time>
      </trkpt>
      <trkpt lat="30.86577000" lon="34.82894000">
        <ele>532.00000</ele>
        <time>2015-12-18T09:19:09Z</time>
      </trkpt>
      <trkpt lat="30.86566000" lon="34.82872000">
        <ele>530.00000</ele>
        <time>2015-12-18T09:19:12Z</time>
      </trkpt>
      <trkpt lat="30.86556000" lon="34.82851000">
        <ele>528.00000</ele>
        <time>2015-12-18T09:19:15Z</time>
      </trkpt>
      <trkpt lat="30.86545000" lon="34.82829000">
        <ele>526.00000</ele>
        <time>2015-12-18T09:19:18Z</time>
      </trkpt>
      <trkpt lat="30.86538000" lon="34.82805000">
        <ele>525.00000</ele>
        <time>2015-12-18T09:19:21Z</time>
      </trkpt>
      <trkpt lat="30.86533000" lon="34.82781000">
        <ele>525.00000</ele>
        <time>2015-12-18T09:19:24Z</time>
      </trkpt>
      <trkpt lat="30.86532000" lon="34.82758000">
        <ele>524.00000</ele>
        <time>2015-12-18T09:19:27Z</time>
      </trkpt>
      <trkpt lat="30.86529000" lon="34.82738000">
        <ele>524.00000</ele>
        <time>2015-12-18T09:19:30Z</time>
      </trkpt>
      <trkpt lat="30.86520000" lon="34.82719000">
        <ele>523.00000</ele>
        <time>2015-12-18T09:19:33Z</time>
      </trkpt>
      <trkpt lat="30.86508000" lon="34.82703000">
        <ele>522.00000</ele>
        <time>2015-12-18T09:19:36Z</time>
      </trkpt>
      <trkpt lat="30.86494000" lon="34.82691000">
        <ele>521.00000</ele>
        <time>2015-12-18T09:19:39Z</time>
      </trkpt>
      <trkpt lat="30.86479000" lon="34.82684000">
        <ele>520.00000</ele>
        <time>2015-12-18T09:19:42Z</time>
      </trkpt>
      <trkpt lat="30.86467000" lon="34.82688000">
        <ele>519.00000</ele>
        <time>2015-12-18T09:19:45Z</time>
      </trkpt>
      <trkpt lat="30.86456000" lon="34.82693000">
        <ele>519.00000</ele>
        <time>2015-12-18T09:19:48Z</time>
      </trkpt>
      <trkpt lat="30.86449000" lon="34.82687000">
        <ele>520.00000</ele>
        <time>2015-12-18T09:19:51Z</time>
      </trkpt>
      <trkpt lat="30.86444000" lon="34.82681000">
        <ele>520.00000</ele>
        <time>2015-12-18T09:19:54Z</time>
      </trkpt>
      <trkpt lat="30.86439000" lon="34.82675000">
        <ele>521.00000</ele>
        <time>2015-12-18T09:19:57Z</time>
      </trkpt>
      <trkpt lat="30.86434000" lon="34.82669000">
        <ele>522.00000</ele>
        <time>2015-12-18T09:20:00Z</time>
      </trkpt>
      <trkpt lat="30.86428000" lon="34.82663000">
        <ele>522.00000</ele>
        <time>2015-12-18T09:20:03Z</time>
      </trkpt>
      <trkpt lat="30.86421000" lon="34.82658000">
        <ele>523.00000</ele>
        <time>2015-12-18T09:20:06Z</time>
      </trkpt>
      <trkpt lat="30.86415000" lon="34.82653000">
        <ele>524.00000</ele>
        <time>2015-12-18T09:20:09Z</time>
      </trkpt>
      <trkpt lat="30.86409000" lon="34.82646000">
        <ele>525.00000</ele>
        <time>2015-12-18T09:20:12Z</time>
      </trkpt>
      <trkpt lat="30.86407000" lon="34.82635000">
        <ele>525.00000</ele>
        <time>2015-12-18T09:20:15Z</time>
      </trkpt>
      <trkpt lat="30.86406000" lon="34.82622000">
        <ele>526.00000</ele>
        <time>2015-12-18T09:20:18Z</time>
      </trkpt>
      <trkpt lat="30.86406000" lon="34.82609000">
        <ele>527.00000</ele>
        <time>2015-12-18T09:20:21Z</time>
      </trkpt>
      <trkpt lat="30.86407000" lon="34.82599000">
        <ele>527.00000</ele>
        <time>2015-12-18T09:20:24Z</time>
      </trkpt>
      <trkpt lat="30.86408000" lon="34.82589000">
        <ele>527.00000</ele>
        <time>2015-12-18T09:20:27Z</time>
      </trkpt>
      <trkpt lat="30.86408000" lon="34.82580000">
        <ele>528.00000</ele>
        <time>2015-12-18T09:20:30Z</time>
      </trkpt>
      <trkpt lat="30.86408000" lon="34.82571000">
        <ele>528.00000</ele>
        <time>2015-12-18T09:20:33Z</time>
      </trkpt>
      <trkpt lat="30.86408000" lon="34.82563000">
        <ele>529.00000</ele>
        <time>2015-12-18T09:20:36Z</time>
      </trkpt>
      <trkpt lat="30.86408000" lon="34.82554000">
        <ele>529.00000</ele>
        <time>2015-12-18T09:20:39Z</time>
      </trkpt>
      <trkpt lat="30.86408000" lon="34.82545000">
        <ele>529.00000</ele>
        <time>2015-12-18T09:20:42Z</time>
      </trkpt>
      <trkpt lat="30.86408000" lon="34.82539000">
        <ele>530.00000</ele>
        <time>2015-12-18T09:20:45Z</time>
      </trkpt>
      <trkpt lat="30.86408000" lon="34.82533000">
        <ele>530.00000</ele>
        <time>2015-12-18T09:20:48Z</time>
      </trkpt>
      <trkpt lat="30.86407000" lon="34.82523000">
        <ele>530.00000</ele>
        <time>2015-12-18T09:20:51Z</time>
      </trkpt>
      <trkpt lat="30.86408000" lon="34.82505000">
        <ele>531.00000</ele>
        <time>2015-12-18T09:20:54Z</time>
      </trkpt>
      <trkpt lat="30.86411000" lon="34.82492000">
        <ele>531.00000</ele>
        <time>2015-12-18T09:20:57Z</time>
      </trkpt>
      <trkpt lat="30.86412000" lon="34.82483000">
        <ele>531.00000</ele>
        <time>2015-12-18T09:21:00Z</time>
      </trkpt>
      <trkpt lat="30.86412000" lon="34.82475000">
        <ele>531.00000</ele>
        <time>2015-12-18T09:21:03Z</time>
      </trkpt>
      <trkpt lat="30.86412000" lon="34.82467000">
        <ele>531.00000</ele>
        <time>2015-12-18T09:21:06Z</time>
      </trkpt>
      <trkpt lat="30.86412000" lon="34.82458000">
        <ele>531.00000</ele>
        <time>2015-12-18T09:21:09Z</time>
      </trkpt>
      <trkpt lat="30.86413000" lon="34.82450000">
        <ele>531.00000</ele>
        <time>2015-12-18T09:21:12Z</time>
      </trkpt>
      <trkpt lat="30.86414000" lon="34.82441000">
        <ele>531.00000</ele>
        <time>2015-12-18T09:21:15Z</time>
      </trkpt>
      <trkpt lat="30.86415000" lon="34.82432000">
        <ele>531.00000</ele>
        <time>2015-12-18T09:21:18Z</time>
      </trkpt>
      <trkpt lat="30.86415000" lon="34.82424000">
        <ele>531.00000</ele>
        <time>2015-12-18T09:21:21Z</time>
      </trkpt>
      <trkpt lat="30.86415000" lon="34.82415000">
        <ele>531.00000</ele>
        <time>2015-12-18T09:21:24Z</time>
      </trkpt>
      <trkpt lat="30.86415000" lon="34.82406000">
        <ele>530.00000</ele>
        <time>2015-12-18T09:21:27Z</time>
      </trkpt>
      <trkpt lat="30.86415000" lon="34.82397000">
        <ele>531.00000</ele>
        <time>2015-12-18T09:21:30Z</time>
      </trkpt>
      <trkpt lat="30.86415000" lon="34.82387000">
        <ele>530.00000</ele>
        <time>2015-12-18T09:21:33Z</time>
      </trkpt>
      <trkpt lat="30.86414000" lon="34.82376000">
        <ele>530.00000</ele>
        <time>2015-12-18T09:21:36Z</time>
      </trkpt>
      <trkpt lat="30.86414000" lon="34.82364000">
        <ele>531.00000</ele>
        <time>2015-12-18T09:21:39Z</time>
      </trkpt>
      <trkpt lat="30.86415000" lon="34.82351000">
        <ele>531.00000</ele>
        <time>2015-12-18T09:21:42Z</time>
      </trkpt>
      <trkpt lat="30.86416000" lon="34.82339000">
        <ele>532.00000</ele>
        <time>2015-12-18T09:21:45Z</time>
      </trkpt>
      <trkpt lat="30.86416000" lon="34.82328000">
        <ele>532.00000</ele>
        <time>2015-12-18T09:21:48Z</time>
      </trkpt>
      <trkpt lat="30.86417000" lon="34.82317000">
        <ele>532.00000</ele>
        <time>2015-12-18T09:21:51Z</time>
      </trkpt>
      <trkpt lat="30.86417000" lon="34.82307000">
        <ele>533.00000</ele>
        <time>2015-12-18T09:21:54Z</time>
      </trkpt>
      <trkpt lat="30.86417000" lon="34.82296000">
        <ele>533.00000</ele>
        <time>2015-12-18T09:21:57Z</time>
      </trkpt>
      <trkpt lat="30.86418000" lon="34.82286000">
        <ele>533.00000</ele>
        <time>2015-12-18T09:22:00Z</time>
      </trkpt>
      <trkpt lat="30.86417000" lon="34.82276000">
        <ele>533.00000</ele>
        <time>2015-12-18T09:22:03Z</time>
      </trkpt>
      <trkpt lat="30.86418000" lon="34.82266000">
        <ele>533.00000</ele>
        <time>2015-12-18T09:22:06Z</time>
      </trkpt>
      <trkpt lat="30.86419000" lon="34.82256000">
        <ele>533.00000</ele>
        <time>2015-12-18T09:22:09Z</time>
      </trkpt>
      <trkpt lat="30.86419000" lon="34.82246000">
        <ele>533.00000</ele>
        <time>2015-12-18T09:22:12Z</time>
      </trkpt>
      <trkpt lat="30.86420000" lon="34.82235000">
        <ele>533.00000</ele>
        <time>2015-12-18T09:22:15Z</time>
      </trkpt>
      <trkpt lat="30.86420000" lon="34.82225000">
        <ele>533.00000</ele>
        <time>2015-12-18T09:22:18Z</time>
      </trkpt>
      <trkpt lat="30.86421000" lon="34.82214000">
        <ele>533.00000</ele>
        <time>2015-12-18T09:22:21Z</time>
      </trkpt>
      <trkpt lat="30.86422000" lon="34.82203000">
        <ele>533.00000</ele>
        <time>2015-12-18T09:22:24Z</time>
      </trkpt>
      <trkpt lat="30.86423000" lon="34.82192000">
        <ele>532.00000</ele>
        <time>2015-12-18T09:22:27Z</time>
      </trkpt>
      <trkpt lat="30.86422000" lon="34.82182000">
        <ele>532.00000</ele>
        <time>2015-12-18T09:22:30Z</time>
      </trkpt>
      <trkpt lat="30.86419000" lon="34.82173000">
        <ele>532.00000</ele>
        <time>2015-12-18T09:22:33Z</time>
      </trkpt>
      <trkpt lat="30.86412000" lon="34.82161000">
        <ele>532.00000</ele>
        <time>2015-12-18T09:22:36Z</time>
      </trkpt>
      <trkpt lat="30.86400000" lon="34.82140000">
        <ele>532.00000</ele>
        <time>2015-12-18T09:22:39Z</time>
      </trkpt>
      <trkpt lat="30.86388000" lon="34.82110000">
        <ele>532.00000</ele>
        <time>2015-12-18T09:22:42Z</time>
      </trkpt>
      <trkpt lat="30.86379000" lon="34.82089000">
        <ele>533.00000</ele>
        <time>2015-12-18T09:22:45Z</time>
      </trkpt>
      <trkpt lat="30.86372000" lon="34.82080000">
        <ele>532.00000</ele>
        <time>2015-12-18T09:22:48Z</time>
      </trkpt>
      <trkpt lat="30.86368000" lon="34.82075000">
        <ele>532.00000</ele>
        <time>2015-12-18T09:22:51Z</time>
      </trkpt>
      <trkpt lat="30.86365000" lon="34.82074000">
        <ele>531.00000</ele>
        <time>2015-12-18T09:22:54Z</time>
      </trkpt>
      <trkpt lat="30.86363000" lon="34.82073000">
        <ele>530.00000</ele>
        <time>2015-12-18T09:22:57Z</time>
      </trkpt>
      <trkpt lat="30.86362000" lon="34.82073000">
        <ele>530.00000</ele>
        <time>2015-12-18T09:23:00Z</time>
      </trkpt>
      <trkpt lat="30.86361000" lon="34.82073000">
        <ele>530.00000</ele>
        <time>2015-12-18T09:23:03Z</time>
      </trkpt>
      <trkpt lat="30.86360000" lon="34.82072000">
        <ele>530.00000</ele>
        <time>2015-12-18T09:23:06Z</time>
      </trkpt>
      <trkpt lat="30.86361000" lon="34.82072000">
        <ele>530.00000</ele>
        <time>2015-12-18T09:23:33Z</time>
      </trkpt>
      <trkpt lat="30.86362000" lon="34.82072000">
        <ele>530.00000</ele>
        <time>2015-12-18T09:24:33Z</time>
      </trkpt>
      <trkpt lat="30.86362000" lon="34.82071000">
        <ele>530.00000</ele>
        <time>2015-12-18T09:24:45Z</time>
      </trkpt>
      <trkpt lat="30.86363000" lon="34.82071000">
        <ele>530.00000</ele>
        <time>2015-12-18T09:25:33Z</time>
      </trkpt>
      <trkpt lat="30.86364000" lon="34.82071000">
        <ele>530.00000</ele>
        <time>2015-12-18T09:26:33Z</time>
      </trkpt>
      <trkpt lat="30.86364000" lon="34.82070000">
        <ele>531.00000</ele>
        <time>2015-12-18T09:26:39Z</time>
      </trkpt>
      <trkpt lat="30.86365000" lon="34.82070000">
        <ele>531.00000</ele>
        <time>2015-12-18T09:27:33Z</time>
      </trkpt>
      <trkpt lat="30.86365000" lon="34.82069000">
        <ele>531.00000</ele>
        <time>2015-12-18T09:28:30Z</time>
      </trkpt>
      <trkpt lat="30.86366000" lon="34.82069000">
        <ele>531.00000</ele>
        <time>2015-12-18T09:28:33Z</time>
      </trkpt>
      <trkpt lat="30.86367000" lon="34.82069000">
        <ele>531.00000</ele>
        <time>2015-12-18T09:29:33Z</time>
      </trkpt>
      <trkpt lat="30.86373000" lon="34.82066000">
        <ele>533.00000</ele>
        <time>2015-12-18T09:30:09Z</time>
      </trkpt>
      <trkpt lat="30.86379000" lon="34.82058000">
        <ele>533.00000</ele>
        <time>2015-12-18T09:30:12Z</time>
      </trkpt>
      <trkpt lat="30.86383000" lon="34.82050000">
        <ele>533.00000</ele>
        <time>2015-12-18T09:30:15Z</time>
      </trkpt>
      <trkpt lat="30.86388000" lon="34.82044000">
        <ele>533.00000</ele>
        <time>2015-12-18T09:30:18Z</time>
      </trkpt>
      <trkpt lat="30.86394000" lon="34.82036000">
        <ele>532.00000</ele>
        <time>2015-12-18T09:30:21Z</time>
      </trkpt>
      <trkpt lat="30.86400000" lon="34.82027000">
        <ele>531.00000</ele>
        <time>2015-12-18T09:30:24Z</time>
      </trkpt>
      <trkpt lat="30.86407000" lon="34.82016000">
        <ele>531.00000</ele>
        <time>2015-12-18T09:30:27Z</time>
      </trkpt>
      <trkpt lat="30.86413000" lon="34.82004000">
        <ele>530.00000</ele>
        <time>2015-12-18T09:30:30Z</time>
      </trkpt>
      <trkpt lat="30.86420000" lon="34.81992000">
        <ele>530.00000</ele>
        <time>2015-12-18T09:30:33Z</time>
      </trkpt>
      <trkpt lat="30.86428000" lon="34.81979000">
        <ele>531.00000</ele>
        <time>2015-12-18T09:30:36Z</time>
      </trkpt>
      <trkpt lat="30.86436000" lon="34.81965000">
        <ele>531.00000</ele>
        <time>2015-12-18T09:30:39Z</time>
      </trkpt>
      <trkpt lat="30.86442000" lon="34.81950000">
        <ele>532.00000</ele>
        <time>2015-12-18T09:30:42Z</time>
      </trkpt>
      <trkpt lat="30.86448000" lon="34.81935000">
        <ele>532.00000</ele>
        <time>2015-12-18T09:30:45Z</time>
      </trkpt>
      <trkpt lat="30.86453000" lon="34.81921000">
        <ele>532.00000</ele>
        <time>2015-12-18T09:30:48Z</time>
      </trkpt>
      <trkpt lat="30.86455000" lon="34.81906000">
        <ele>532.00000</ele>
        <time>2015-12-18T09:30:51Z</time>
      </trkpt>
      <trkpt lat="30.86454000" lon="34.81888000">
        <ele>532.00000</ele>
        <time>2015-12-18T09:30:54Z</time>
      </trkpt>
      <trkpt lat="30.86452000" lon="34.81869000">
        <ele>531.00000</ele>
        <time>2015-12-18T09:30:57Z</time>
      </trkpt>
      <trkpt lat="30.86450000" lon="34.81850000">
        <ele>529.00000</ele>
        <time>2015-12-18T09:31:00Z</time>
      </trkpt>
      <trkpt lat="30.86449000" lon="34.81829000">
        <ele>527.00000</ele>
        <time>2015-12-18T09:31:03Z</time>
      </trkpt>
      <trkpt lat="30.86448000" lon="34.81806000">
        <ele>526.00000</ele>
        <time>2015-12-18T09:31:06Z</time>
      </trkpt>
      <trkpt lat="30.86446000" lon="34.81783000">
        <ele>524.00000</ele>
        <time>2015-12-18T09:31:09Z</time>
      </trkpt>
      <trkpt lat="30.86445000" lon="34.81758000">
        <ele>522.00000</ele>
        <time>2015-12-18T09:31:12Z</time>
      </trkpt>
      <trkpt lat="30.86444000" lon="34.81734000">
        <ele>520.00000</ele>
        <time>2015-12-18T09:31:15Z</time>
      </trkpt>
      <trkpt lat="30.86445000" lon="34.81709000">
        <ele>518.00000</ele>
        <time>2015-12-18T09:31:18Z</time>
      </trkpt>
      <trkpt lat="30.86443000" lon="34.81684000">
        <ele>517.00000</ele>
        <time>2015-12-18T09:31:21Z</time>
      </trkpt>
      <trkpt lat="30.86432000" lon="34.81661000">
        <ele>516.00000</ele>
        <time>2015-12-18T09:31:24Z</time>
      </trkpt>
      <trkpt lat="30.86418000" lon="34.81635000">
        <ele>514.00000</ele>
        <time>2015-12-18T09:31:27Z</time>
      </trkpt>
      <trkpt lat="30.86402000" lon="34.81604000">
        <ele>511.00000</ele>
        <time>2015-12-18T09:31:30Z</time>
      </trkpt>
      <trkpt lat="30.86384000" lon="34.81570000">
        <ele>506.00000</ele>
        <time>2015-12-18T09:31:33Z</time>
      </trkpt>
      <trkpt lat="30.86365000" lon="34.81534000">
        <ele>502.00000</ele>
        <time>2015-12-18T09:31:36Z</time>
      </trkpt>
      <trkpt lat="30.86360000" lon="34.81500000">
        <ele>501.00000</ele>
        <time>2015-12-18T09:31:39Z</time>
      </trkpt>
      <trkpt lat="30.86371000" lon="34.81473000">
        <ele>499.00000</ele>
        <time>2015-12-18T09:31:42Z</time>
      </trkpt>
      <trkpt lat="30.86383000" lon="34.81450000">
        <ele>498.00000</ele>
        <time>2015-12-18T09:31:45Z</time>
      </trkpt>
      <trkpt lat="30.86395000" lon="34.81430000">
        <ele>498.00000</ele>
        <time>2015-12-18T09:31:48Z</time>
      </trkpt>
      <trkpt lat="30.86410000" lon="34.81414000">
        <ele>498.00000</ele>
        <time>2015-12-18T09:31:51Z</time>
      </trkpt>
      <trkpt lat="30.86424000" lon="34.81399000">
        <ele>497.00000</ele>
        <time>2015-12-18T09:31:54Z</time>
      </trkpt>
      <trkpt lat="30.86439000" lon="34.81385000">
        <ele>496.00000</ele>
        <time>2015-12-18T09:31:57Z</time>
      </trkpt>
      <trkpt lat="30.86456000" lon="34.81372000">
        <ele>495.00000</ele>
        <time>2015-12-18T09:32:00Z</time>
      </trkpt>
      <trkpt lat="30.86473000" lon="34.81358000">
        <ele>495.00000</ele>
        <time>2015-12-18T09:32:03Z</time>
      </trkpt>
      <trkpt lat="30.86487000" lon="34.81343000">
        <ele>494.00000</ele>
        <time>2015-12-18T09:32:06Z</time>
      </trkpt>
      <trkpt lat="30.86500000" lon="34.81327000">
        <ele>494.00000</ele>
        <time>2015-12-18T09:32:09Z</time>
      </trkpt>
      <trkpt lat="30.86514000" lon="34.81315000">
        <ele>493.00000</ele>
        <time>2015-12-18T09:32:12Z</time>
      </trkpt>
      <trkpt lat="30.86528000" lon="34.81303000">
        <ele>492.00000</ele>
        <time>2015-12-18T09:32:15Z</time>
      </trkpt>
      <trkpt lat="30.86541000" lon="34.81288000">
        <ele>491.00000</ele>
        <time>2015-12-18T09:32:18Z</time>
      </trkpt>
      <trkpt lat="30.86551000" lon="34.81270000">
        <ele>491.00000</ele>
        <time>2015-12-18T09:32:21Z</time>
      </trkpt>
      <trkpt lat="30.86554000" lon="34.81250000">
        <ele>491.00000</ele>
        <time>2015-12-18T09:32:24Z</time>
      </trkpt>
      <trkpt lat="30.86554000" lon="34.81229000">
        <ele>491.00000</ele>
        <time>2015-12-18T09:32:27Z</time>
      </trkpt>
      <trkpt lat="30.86557000" lon="34.81208000">
        <ele>491.00000</ele>
        <time>2015-12-18T09:32:30Z</time>
      </trkpt>
      <trkpt lat="30.86562000" lon="34.81188000">
        <ele>491.00000</ele>
        <time>2015-12-18T09:32:33Z</time>
      </trkpt>
      <trkpt lat="30.86559000" lon="34.81168000">
        <ele>490.00000</ele>
        <time>2015-12-18T09:32:36Z</time>
      </trkpt>
      <trkpt lat="30.86556000" lon="34.81147000">
        <ele>490.00000</ele>
        <time>2015-12-18T09:32:39Z</time>
      </trkpt>
      <trkpt lat="30.86552000" lon="34.81127000">
        <ele>489.00000</ele>
        <time>2015-12-18T09:32:42Z</time>
      </trkpt>
      <trkpt lat="30.86545000" lon="34.81108000">
        <ele>488.00000</ele>
        <time>2015-12-18T09:32:45Z</time>
      </trkpt>
      <trkpt lat="30.86539000" lon="34.81091000">
        <ele>488.00000</ele>
        <time>2015-12-18T09:32:48Z</time>
      </trkpt>
      <trkpt lat="30.86531000" lon="34.81073000">
        <ele>487.00000</ele>
        <time>2015-12-18T09:32:51Z</time>
      </trkpt>
      <trkpt lat="30.86524000" lon="34.81054000">
        <ele>486.00000</ele>
        <time>2015-12-18T09:32:54Z</time>
      </trkpt>
      <trkpt lat="30.86518000" lon="34.81035000">
        <ele>486.00000</ele>
        <time>2015-12-18T09:32:57Z</time>
      </trkpt>
      <trkpt lat="30.86510000" lon="34.81017000">
        <ele>485.00000</ele>
        <time>2015-12-18T09:33:00Z</time>
      </trkpt>
      <trkpt lat="30.86501000" lon="34.81000000">
        <ele>485.00000</ele>
        <time>2015-12-18T09:33:03Z</time>
      </trkpt>
      <trkpt lat="30.86489000" lon="34.80985000">
        <ele>484.00000</ele>
        <time>2015-12-18T09:33:06Z</time>
      </trkpt>
      <trkpt lat="30.86477000" lon="34.80969000">
        <ele>484.00000</ele>
        <time>2015-12-18T09:33:09Z</time>
      </trkpt>
      <trkpt lat="30.86470000" lon="34.80949000">
        <ele>483.00000</ele>
        <time>2015-12-18T09:33:12Z</time>
      </trkpt>
      <trkpt lat="30.86460000" lon="34.80930000">
        <ele>483.00000</ele>
        <time>2015-12-18T09:33:15Z</time>
      </trkpt>
      <trkpt lat="30.86448000" lon="34.80913000">
        <ele>484.00000</ele>
        <time>2015-12-18T09:33:18Z</time>
      </trkpt>
      <trkpt lat="30.86435000" lon="34.80898000">
        <ele>483.00000</ele>
        <time>2015-12-18T09:33:21Z</time>
      </trkpt>
      <trkpt lat="30.86426000" lon="34.80879000">
        <ele>483.00000</ele>
        <time>2015-12-18T09:33:24Z</time>
      </trkpt>
      <trkpt lat="30.86417000" lon="34.80861000">
        <ele>483.00000</ele>
        <time>2015-12-18T09:33:27Z</time>
      </trkpt>
      <trkpt lat="30.86407000" lon="34.80844000">
        <ele>482.00000</ele>
        <time>2015-12-18T09:33:30Z</time>
      </trkpt>
      <trkpt lat="30.86395000" lon="34.80828000">
        <ele>482.00000</ele>
        <time>2015-12-18T09:33:33Z</time>
      </trkpt>
      <trkpt lat="30.86384000" lon="34.80811000">
        <ele>483.00000</ele>
        <time>2015-12-18T09:33:36Z</time>
      </trkpt>
      <trkpt lat="30.86376000" lon="34.80792000">
        <ele>483.00000</ele>
        <time>2015-12-18T09:33:39Z</time>
      </trkpt>
      <trkpt lat="30.86372000" lon="34.80772000">
        <ele>482.00000</ele>
        <time>2015-12-18T09:33:42Z</time>
      </trkpt>
      <trkpt lat="30.86365000" lon="34.80752000">
        <ele>481.00000</ele>
        <time>2015-12-18T09:33:45Z</time>
      </trkpt>
      <trkpt lat="30.86357000" lon="34.80732000">
        <ele>481.00000</ele>
        <time>2015-12-18T09:33:48Z</time>
      </trkpt>
      <trkpt lat="30.86347000" lon="34.80713000">
        <ele>480.00000</ele>
        <time>2015-12-18T09:33:51Z</time>
      </trkpt>
      <trkpt lat="30.86338000" lon="34.80696000">
        <ele>480.00000</ele>
        <time>2015-12-18T09:33:54Z</time>
      </trkpt>
      <trkpt lat="30.86325000" lon="34.80684000">
        <ele>479.00000</ele>
        <time>2015-12-18T09:33:57Z</time>
      </trkpt>
      <trkpt lat="30.86309000" lon="34.80679000">
        <ele>479.00000</ele>
        <time>2015-12-18T09:34:00Z</time>
      </trkpt>
      <trkpt lat="30.86294000" lon="34.80672000">
        <ele>479.00000</ele>
        <time>2015-12-18T09:34:03Z</time>
      </trkpt>
      <trkpt lat="30.86279000" lon="34.80664000">
        <ele>478.00000</ele>
        <time>2015-12-18T09:34:06Z</time>
      </trkpt>
      <trkpt lat="30.86264000" lon="34.80656000">
        <ele>478.00000</ele>
        <time>2015-12-18T09:34:09Z</time>
      </trkpt>
      <trkpt lat="30.86248000" lon="34.80650000">
        <ele>478.00000</ele>
        <time>2015-12-18T09:34:12Z</time>
      </trkpt>
      <trkpt lat="30.86232000" lon="34.80644000">
        <ele>477.00000</ele>
        <time>2015-12-18T09:34:15Z</time>
      </trkpt>
      <trkpt lat="30.86216000" lon="34.80638000">
        <ele>477.00000</ele>
        <time>2015-12-18T09:34:18Z</time>
      </trkpt>
      <trkpt lat="30.86199000" lon="34.80633000">
        <ele>477.00000</ele>
        <time>2015-12-18T09:34:21Z</time>
      </trkpt>
      <trkpt lat="30.86181000" lon="34.80629000">
        <ele>477.00000</ele>
        <time>2015-12-18T09:34:24Z</time>
      </trkpt>
      <trkpt lat="30.86165000" lon="34.80623000">
        <ele>478.00000</ele>
        <time>2015-12-18T09:34:27Z</time>
      </trkpt>
      <trkpt lat="30.86148000" lon="34.80616000">
        <ele>477.00000</ele>
        <time>2015-12-18T09:34:30Z</time>
      </trkpt>
      <trkpt lat="30.86130000" lon="34.80610000">
        <ele>477.00000</ele>
        <time>2015-12-18T09:34:33Z</time>
      </trkpt>
      <trkpt lat="30.86113000" lon="34.80603000">
        <ele>477.00000</ele>
        <time>2015-12-18T09:34:36Z</time>
      </trkpt>
      <trkpt lat="30.86096000" lon="34.80597000">
        <ele>477.00000</ele>
        <time>2015-12-18T09:34:39Z</time>
      </trkpt>
      <trkpt lat="30.86079000" lon="34.80590000">
        <ele>477.00000</ele>
        <time>2015-12-18T09:34:42Z</time>
      </trkpt>
      <trkpt lat="30.86062000" lon="34.80582000">
        <ele>477.00000</ele>
        <time>2015-12-18T09:34:45Z</time>
      </trkpt>
      <trkpt lat="30.86045000" lon="34.80574000">
        <ele>478.00000</ele>
        <time>2015-12-18T09:34:48Z</time>
      </trkpt>
      <trkpt lat="30.86036000" lon="34.80564000">
        <ele>478.00000</ele>
        <time>2015-12-18T09:34:51Z</time>
      </trkpt>
      <trkpt lat="30.86035000" lon="34.80551000">
        <ele>478.00000</ele>
        <time>2015-12-18T09:34:54Z</time>
      </trkpt>
      <trkpt lat="30.86026000" lon="34.80546000">
        <ele>477.00000</ele>
        <time>2015-12-18T09:34:57Z</time>
      </trkpt>
      <trkpt lat="30.86012000" lon="34.80549000">
        <ele>477.00000</ele>
        <time>2015-12-18T09:35:00Z</time>
      </trkpt>
      <trkpt lat="30.85997000" lon="34.80554000">
        <ele>476.00000</ele>
        <time>2015-12-18T09:35:03Z</time>
      </trkpt>
      <trkpt lat="30.85982000" lon="34.80560000">
        <ele>475.00000</ele>
        <time>2015-12-18T09:35:06Z</time>
      </trkpt>
      <trkpt lat="30.85965000" lon="34.80566000">
        <ele>475.00000</ele>
        <time>2015-12-18T09:35:09Z</time>
      </trkpt>
      <trkpt lat="30.85947000" lon="34.80566000">
        <ele>474.00000</ele>
        <time>2015-12-18T09:35:12Z</time>
      </trkpt>
      <trkpt lat="30.85930000" lon="34.80562000">
        <ele>474.00000</ele>
        <time>2015-12-18T09:35:15Z</time>
      </trkpt>
      <trkpt lat="30.85918000" lon="34.80553000">
        <ele>474.00000</ele>
        <time>2015-12-18T09:35:18Z</time>
      </trkpt>
      <trkpt lat="30.85905000" lon="34.80547000">
        <ele>473.00000</ele>
        <time>2015-12-18T09:35:21Z</time>
      </trkpt>
      <trkpt lat="30.85892000" lon="34.80549000">
        <ele>473.00000</ele>
        <time>2015-12-18T09:35:24Z</time>
      </trkpt>
      <trkpt lat="30.85877000" lon="34.80547000">
        <ele>473.00000</ele>
        <time>2015-12-18T09:35:27Z</time>
      </trkpt>
      <trkpt lat="30.85863000" lon="34.80540000">
        <ele>473.00000</ele>
        <time>2015-12-18T09:35:30Z</time>
      </trkpt>
      <trkpt lat="30.85851000" lon="34.80530000">
        <ele>473.00000</ele>
        <time>2015-12-18T09:35:33Z</time>
      </trkpt>
      <trkpt lat="30.85837000" lon="34.80525000">
        <ele>473.00000</ele>
        <time>2015-12-18T09:35:36Z</time>
      </trkpt>
      <trkpt lat="30.85823000" lon="34.80521000">
        <ele>472.00000</ele>
        <time>2015-12-18T09:35:39Z</time>
      </trkpt>
      <trkpt lat="30.85808000" lon="34.80515000">
        <ele>472.00000</ele>
        <time>2015-12-18T09:35:42Z</time>
      </trkpt>
      <trkpt lat="30.85793000" lon="34.80509000">
        <ele>471.00000</ele>
        <time>2015-12-18T09:35:45Z</time>
      </trkpt>
      <trkpt lat="30.85778000" lon="34.80504000">
        <ele>472.00000</ele>
        <time>2015-12-18T09:35:48Z</time>
      </trkpt>
      <trkpt lat="30.85762000" lon="34.80501000">
        <ele>472.00000</ele>
        <time>2015-12-18T09:35:51Z</time>
      </trkpt>
      <trkpt lat="30.85747000" lon="34.80498000">
        <ele>473.00000</ele>
        <time>2015-12-18T09:35:54Z</time>
      </trkpt>
      <trkpt lat="30.85733000" lon="34.80493000">
        <ele>473.00000</ele>
        <time>2015-12-18T09:35:57Z</time>
      </trkpt>
      <trkpt lat="30.85719000" lon="34.80484000">
        <ele>474.00000</ele>
        <time>2015-12-18T09:36:00Z</time>
      </trkpt>
      <trkpt lat="30.85706000" lon="34.80474000">
        <ele>475.00000</ele>
        <time>2015-12-18T09:36:03Z</time>
      </trkpt>
      <trkpt lat="30.85693000" lon="34.80461000">
        <ele>476.00000</ele>
        <time>2015-12-18T09:36:06Z</time>
      </trkpt>
      <trkpt lat="30.85679000" lon="34.80451000">
        <ele>476.00000</ele>
        <time>2015-12-18T09:36:09Z</time>
      </trkpt>
      <trkpt lat="30.85665000" lon="34.80443000">
        <ele>476.00000</ele>
        <time>2015-12-18T09:36:12Z</time>
      </trkpt>
      <trkpt lat="30.85651000" lon="34.80436000">
        <ele>476.00000</ele>
        <time>2015-12-18T09:36:15Z</time>
      </trkpt>
      <trkpt lat="30.85644000" lon="34.80424000">
        <ele>476.00000</ele>
        <time>2015-12-18T09:36:18Z</time>
      </trkpt>
      <trkpt lat="30.85641000" lon="34.80410000">
        <ele>476.00000</ele>
        <time>2015-12-18T09:36:21Z</time>
      </trkpt>
      <trkpt lat="30.85637000" lon="34.80398000">
        <ele>476.00000</ele>
        <time>2015-12-18T09:36:24Z</time>
      </trkpt>
      <trkpt lat="30.85635000" lon="34.80390000">
        <ele>476.00000</ele>
        <time>2015-12-18T09:36:27Z</time>
      </trkpt>
      <trkpt lat="30.85633000" lon="34.80384000">
        <ele>476.00000</ele>
        <time>2015-12-18T09:36:30Z</time>
      </trkpt>
      <trkpt lat="30.85629000" lon="34.80381000">
        <ele>476.00000</ele>
        <time>2015-12-18T09:36:33Z</time>
      </trkpt>
      <trkpt lat="30.85626000" lon="34.80378000">
        <ele>476.00000</ele>
        <time>2015-12-18T09:36:36Z</time>
      </trkpt>
      <trkpt lat="30.85623000" lon="34.80376000">
        <ele>476.00000</ele>
        <time>2015-12-18T09:36:39Z</time>
      </trkpt>
      <trkpt lat="30.85620000" lon="34.80367000">
        <ele>476.00000</ele>
        <time>2015-12-18T09:36:42Z</time>
      </trkpt>
      <trkpt lat="30.85618000" lon="34.80355000">
        <ele>476.00000</ele>
        <time>2015-12-18T09:36:45Z</time>
      </trkpt>
      <trkpt lat="30.85616000" lon="34.80341000">
        <ele>476.00000</ele>
        <time>2015-12-18T09:36:48Z</time>
      </trkpt>
      <trkpt lat="30.85614000" lon="34.80326000">
        <ele>476.00000</ele>
        <time>2015-12-18T09:36:51Z</time>
      </trkpt>
      <trkpt lat="30.85615000" lon="34.80310000">
        <ele>476.00000</ele>
        <time>2015-12-18T09:36:54Z</time>
      </trkpt>
      <trkpt lat="30.85618000" lon="34.80295000">
        <ele>476.00000</ele>
        <time>2015-12-18T09:36:57Z</time>
      </trkpt>
      <trkpt lat="30.85619000" lon="34.80280000">
        <ele>476.00000</ele>
        <time>2015-12-18T09:37:00Z</time>
      </trkpt>
      <trkpt lat="30.85619000" lon="34.80264000">
        <ele>475.00000</ele>
        <time>2015-12-18T09:37:03Z</time>
      </trkpt>
      <trkpt lat="30.85621000" lon="34.80247000">
        <ele>474.00000</ele>
        <time>2015-12-18T09:37:06Z</time>
      </trkpt>
      <trkpt lat="30.85625000" lon="34.80230000">
        <ele>474.00000</ele>
        <time>2015-12-18T09:37:09Z</time>
      </trkpt>
      <trkpt lat="30.85629000" lon="34.80211000">
        <ele>473.00000</ele>
        <time>2015-12-18T09:37:12Z</time>
      </trkpt>
      <trkpt lat="30.85633000" lon="34.80192000">
        <ele>474.00000</ele>
        <time>2015-12-18T09:37:15Z</time>
      </trkpt>
      <trkpt lat="30.85637000" lon="34.80173000">
        <ele>474.00000</ele>
        <time>2015-12-18T09:37:18Z</time>
      </trkpt>
      <trkpt lat="30.85640000" lon="34.80154000">
        <ele>475.00000</ele>
        <time>2015-12-18T09:37:21Z</time>
      </trkpt>
      <trkpt lat="30.85644000" lon="34.80135000">
        <ele>475.00000</ele>
        <time>2015-12-18T09:37:24Z</time>
      </trkpt>
      <trkpt lat="30.85648000" lon="34.80116000">
        <ele>475.00000</ele>
        <time>2015-12-18T09:37:27Z</time>
      </trkpt>
      <trkpt lat="30.85653000" lon="34.80097000">
        <ele>475.00000</ele>
        <time>2015-12-18T09:37:30Z</time>
      </trkpt>
      <trkpt lat="30.85658000" lon="34.80078000">
        <ele>474.00000</ele>
        <time>2015-12-18T09:37:33Z</time>
      </trkpt>
      <trkpt lat="30.85662000" lon="34.80059000">
        <ele>473.00000</ele>
        <time>2015-12-18T09:37:36Z</time>
      </trkpt>
      <trkpt lat="30.85667000" lon="34.80040000">
        <ele>473.00000</ele>
        <time>2015-12-18T09:37:39Z</time>
      </trkpt>
      <trkpt lat="30.85671000" lon="34.80021000">
        <ele>473.00000</ele>
        <time>2015-12-18T09:37:42Z</time>
      </trkpt>
      <trkpt lat="30.85675000" lon="34.80003000">
        <ele>473.00000</ele>
        <time>2015-12-18T09:37:45Z</time>
      </trkpt>
      <trkpt lat="30.85679000" lon="34.79986000">
        <ele>474.00000</ele>
        <time>2015-12-18T09:37:48Z</time>
      </trkpt>
      <trkpt lat="30.85683000" lon="34.79970000">
        <ele>474.00000</ele>
        <time>2015-12-18T09:37:51Z</time>
      </trkpt>
      <trkpt lat="30.85687000" lon="34.79953000">
        <ele>474.00000</ele>
        <time>2015-12-18T09:37:54Z</time>
      </trkpt>
      <trkpt lat="30.85691000" lon="34.79937000">
        <ele>474.00000</ele>
        <time>2015-12-18T09:37:57Z</time>
      </trkpt>
      <trkpt lat="30.85693000" lon="34.79920000">
        <ele>474.00000</ele>
        <time>2015-12-18T09:38:00Z</time>
      </trkpt>
      <trkpt lat="30.85694000" lon="34.79902000">
        <ele>475.00000</ele>
        <time>2015-12-18T09:38:03Z</time>
      </trkpt>
      <trkpt lat="30.85696000" lon="34.79885000">
        <ele>475.00000</ele>
        <time>2015-12-18T09:38:06Z</time>
      </trkpt>
      <trkpt lat="30.85701000" lon="34.79870000">
        <ele>475.00000</ele>
        <time>2015-12-18T09:38:09Z</time>
      </trkpt>
      <trkpt lat="30.85706000" lon="34.79853000">
        <ele>474.00000</ele>
        <time>2015-12-18T09:38:12Z</time>
      </trkpt>
      <trkpt lat="30.85709000" lon="34.79836000">
        <ele>473.00000</ele>
        <time>2015-12-18T09:38:15Z</time>
      </trkpt>
      <trkpt lat="30.85710000" lon="34.79818000">
        <ele>472.00000</ele>
        <time>2015-12-18T09:38:18Z</time>
      </trkpt>
      <trkpt lat="30.85712000" lon="34.79800000">
        <ele>472.00000</ele>
        <time>2015-12-18T09:38:21Z</time>
      </trkpt>
      <trkpt lat="30.85710000" lon="34.79781000">
        <ele>471.00000</ele>
        <time>2015-12-18T09:38:24Z</time>
      </trkpt>
      <trkpt lat="30.85706000" lon="34.79763000">
        <ele>471.00000</ele>
        <time>2015-12-18T09:38:27Z</time>
      </trkpt>
      <trkpt lat="30.85703000" lon="34.79744000">
        <ele>472.00000</ele>
        <time>2015-12-18T09:38:30Z</time>
      </trkpt>
      <trkpt lat="30.85701000" lon="34.79726000">
        <ele>472.00000</ele>
        <time>2015-12-18T09:38:33Z</time>
      </trkpt>
      <trkpt lat="30.85699000" lon="34.79707000">
        <ele>472.00000</ele>
        <time>2015-12-18T09:38:36Z</time>
      </trkpt>
      <trkpt lat="30.85696000" lon="34.79689000">
        <ele>473.00000</ele>
        <time>2015-12-18T09:38:39Z</time>
      </trkpt>
      <trkpt lat="30.85690000" lon="34.79671000">
        <ele>474.00000</ele>
        <time>2015-12-18T09:38:42Z</time>
      </trkpt>
      <trkpt lat="30.85682000" lon="34.79654000">
        <ele>474.00000</ele>
        <time>2015-12-18T09:38:45Z</time>
      </trkpt>
      <trkpt lat="30.85673000" lon="34.79637000">
        <ele>475.00000</ele>
        <time>2015-12-18T09:38:48Z</time>
      </trkpt>
      <trkpt lat="30.85667000" lon="34.79620000">
        <ele>475.00000</ele>
        <time>2015-12-18T09:38:51Z</time>
      </trkpt>
      <trkpt lat="30.85662000" lon="34.79605000">
        <ele>474.00000</ele>
        <time>2015-12-18T09:38:54Z</time>
      </trkpt>
      <trkpt lat="30.85653000" lon="34.79593000">
        <ele>474.00000</ele>
        <time>2015-12-18T09:38:57Z</time>
      </trkpt>
      <trkpt lat="30.85645000" lon="34.79580000">
        <ele>473.00000</ele>
        <time>2015-12-18T09:39:00Z</time>
      </trkpt>
      <trkpt lat="30.85638000" lon="34.79565000">
        <ele>473.00000</ele>
        <time>2015-12-18T09:39:03Z</time>
      </trkpt>
      <trkpt lat="30.85630000" lon="34.79550000">
        <ele>472.00000</ele>
        <time>2015-12-18T09:39:06Z</time>
      </trkpt>
      <trkpt lat="30.85622000" lon="34.79535000">
        <ele>472.00000</ele>
        <time>2015-12-18T09:39:09Z</time>
      </trkpt>
      <trkpt lat="30.85614000" lon="34.79518000">
        <ele>473.00000</ele>
        <time>2015-12-18T09:39:12Z</time>
      </trkpt>
      <trkpt lat="30.85605000" lon="34.79503000">
        <ele>473.00000</ele>
        <time>2015-12-18T09:39:15Z</time>
      </trkpt>
      <trkpt lat="30.85597000" lon="34.79487000">
        <ele>473.00000</ele>
        <time>2015-12-18T09:39:18Z</time>
      </trkpt>
      <trkpt lat="30.85589000" lon="34.79471000">
        <ele>474.00000</ele>
        <time>2015-12-18T09:39:21Z</time>
      </trkpt>
      <trkpt lat="30.85581000" lon="34.79455000">
        <ele>474.00000</ele>
        <time>2015-12-18T09:39:24Z</time>
      </trkpt>
      <trkpt lat="30.85572000" lon="34.79439000">
        <ele>475.00000</ele>
        <time>2015-12-18T09:39:27Z</time>
      </trkpt>
      <trkpt lat="30.85564000" lon="34.79422000">
        <ele>476.00000</ele>
        <time>2015-12-18T09:39:30Z</time>
      </trkpt>
      <trkpt lat="30.85556000" lon="34.79405000">
        <ele>477.00000</ele>
        <time>2015-12-18T09:39:33Z</time>
      </trkpt>
      <trkpt lat="30.85547000" lon="34.79389000">
        <ele>478.00000</ele>
        <time>2015-12-18T09:39:36Z</time>
      </trkpt>
      <trkpt lat="30.85539000" lon="34.79374000">
        <ele>479.00000</ele>
        <time>2015-12-18T09:39:39Z</time>
      </trkpt>
      <trkpt lat="30.85530000" lon="34.79358000">
        <ele>478.00000</ele>
        <time>2015-12-18T09:39:42Z</time>
      </trkpt>
      <trkpt lat="30.85522000" lon="34.79342000">
        <ele>477.00000</ele>
        <time>2015-12-18T09:39:45Z</time>
      </trkpt>
      <trkpt lat="30.85513000" lon="34.79326000">
        <ele>477.00000</ele>
        <time>2015-12-18T09:39:48Z</time>
      </trkpt>
      <trkpt lat="30.85505000" lon="34.79310000">
        <ele>478.00000</ele>
        <time>2015-12-18T09:39:51Z</time>
      </trkpt>
      <trkpt lat="30.85498000" lon="34.79294000">
        <ele>478.00000</ele>
        <time>2015-12-18T09:39:54Z</time>
      </trkpt>
      <trkpt lat="30.85492000" lon="34.79277000">
        <ele>478.00000</ele>
        <time>2015-12-18T09:39:57Z</time>
      </trkpt>
      <trkpt lat="30.85488000" lon="34.79260000">
        <ele>478.00000</ele>
        <time>2015-12-18T09:40:00Z</time>
      </trkpt>
      <trkpt lat="30.85485000" lon="34.79241000">
        <ele>477.00000</ele>
        <time>2015-12-18T09:40:03Z</time>
      </trkpt>
      <trkpt lat="30.85484000" lon="34.79222000">
        <ele>477.00000</ele>
        <time>2015-12-18T09:40:06Z</time>
      </trkpt>
      <trkpt lat="30.85484000" lon="34.79203000">
        <ele>476.00000</ele>
        <time>2015-12-18T09:40:09Z</time>
      </trkpt>
      <trkpt lat="30.85485000" lon="34.79184000">
        <ele>477.00000</ele>
        <time>2015-12-18T09:40:12Z</time>
      </trkpt>
      <trkpt lat="30.85488000" lon="34.79166000">
        <ele>477.00000</ele>
        <time>2015-12-18T09:40:15Z</time>
      </trkpt>
      <trkpt lat="30.85493000" lon="34.79148000">
        <ele>478.00000</ele>
        <time>2015-12-18T09:40:18Z</time>
      </trkpt>
      <trkpt lat="30.85497000" lon="34.79131000">
        <ele>478.00000</ele>
        <time>2015-12-18T09:40:21Z</time>
      </trkpt>
      <trkpt lat="30.85497000" lon="34.79115000">
        <ele>479.00000</ele>
        <time>2015-12-18T09:40:24Z</time>
      </trkpt>
      <trkpt lat="30.85495000" lon="34.79102000">
        <ele>479.00000</ele>
        <time>2015-12-18T09:40:27Z</time>
      </trkpt>
      <trkpt lat="30.85498000" lon="34.79089000">
        <ele>480.00000</ele>
        <time>2015-12-18T09:40:30Z</time>
      </trkpt>
      <trkpt lat="30.85499000" lon="34.79072000">
        <ele>481.00000</ele>
        <time>2015-12-18T09:40:33Z</time>
      </trkpt>
      <trkpt lat="30.85498000" lon="34.79054000">
        <ele>482.00000</ele>
        <time>2015-12-18T09:40:36Z</time>
      </trkpt>
      <trkpt lat="30.85497000" lon="34.79035000">
        <ele>482.00000</ele>
        <time>2015-12-18T09:40:39Z</time>
      </trkpt>
      <trkpt lat="30.85496000" lon="34.79016000">
        <ele>482.00000</ele>
        <time>2015-12-18T09:40:42Z</time>
      </trkpt>
      <trkpt lat="30.85497000" lon="34.78996000">
        <ele>482.00000</ele>
        <time>2015-12-18T09:40:45Z</time>
      </trkpt>
      <trkpt lat="30.85498000" lon="34.78976000">
        <ele>481.00000</ele>
        <time>2015-12-18T09:40:48Z</time>
      </trkpt>
      <trkpt lat="30.85497000" lon="34.78957000">
        <ele>481.00000</ele>
        <time>2015-12-18T09:40:51Z</time>
      </trkpt>
      <trkpt lat="30.85495000" lon="34.78938000">
        <ele>481.00000</ele>
        <time>2015-12-18T09:40:54Z</time>
      </trkpt>
      <trkpt lat="30.85492000" lon="34.78922000">
        <ele>482.00000</ele>
        <time>2015-12-18T09:40:57Z</time>
      </trkpt>
      <trkpt lat="30.85489000" lon="34.78910000">
        <ele>482.00000</ele>
        <time>2015-12-18T09:41:00Z</time>
      </trkpt>
      <trkpt lat="30.85485000" lon="34.78902000">
        <ele>482.00000</ele>
        <time>2015-12-18T09:41:03Z</time>
      </trkpt>
      <trkpt lat="30.85475000" lon="34.78896000">
        <ele>482.00000</ele>
        <time>2015-12-18T09:41:06Z</time>
      </trkpt>
      <trkpt lat="30.85461000" lon="34.78892000">
        <ele>482.00000</ele>
        <time>2015-12-18T09:41:09Z</time>
      </trkpt>
      <trkpt lat="30.85450000" lon="34.78889000">
        <ele>481.00000</ele>
        <time>2015-12-18T09:41:12Z</time>
      </trkpt>
      <trkpt lat="30.85435000" lon="34.78888000">
        <ele>480.00000</ele>
        <time>2015-12-18T09:41:15Z</time>
      </trkpt>
      <trkpt lat="30.85419000" lon="34.78881000">
        <ele>479.00000</ele>
        <time>2015-12-18T09:41:18Z</time>
      </trkpt>
      <trkpt lat="30.85406000" lon="34.78870000">
        <ele>478.00000</ele>
        <time>2015-12-18T09:41:21Z</time>
      </trkpt>
      <trkpt lat="30.85393000" lon="34.78859000">
        <ele>477.00000</ele>
        <time>2015-12-18T09:41:24Z</time>
      </trkpt>
      <trkpt lat="30.85381000" lon="34.78847000">
        <ele>477.00000</ele>
        <time>2015-12-18T09:41:27Z</time>
      </trkpt>
      <trkpt lat="30.85368000" lon="34.78834000">
        <ele>477.00000</ele>
        <time>2015-12-18T09:41:30Z</time>
      </trkpt>
      <trkpt lat="30.85355000" lon="34.78822000">
        <ele>477.00000</ele>
        <time>2015-12-18T09:41:33Z</time>
      </trkpt>
      <trkpt lat="30.85342000" lon="34.78811000">
        <ele>477.00000</ele>
        <time>2015-12-18T09:41:36Z</time>
      </trkpt>
      <trkpt lat="30.85329000" lon="34.78799000">
        <ele>477.00000</ele>
        <time>2015-12-18T09:41:39Z</time>
      </trkpt>
      <trkpt lat="30.85315000" lon="34.78788000">
        <ele>477.00000</ele>
        <time>2015-12-18T09:41:42Z</time>
      </trkpt>
      <trkpt lat="30.85301000" lon="34.78776000">
        <ele>477.00000</ele>
        <time>2015-12-18T09:41:45Z</time>
      </trkpt>
      <trkpt lat="30.85288000" lon="34.78765000">
        <ele>478.00000</ele>
        <time>2015-12-18T09:41:48Z</time>
      </trkpt>
      <trkpt lat="30.85274000" lon="34.78753000">
        <ele>478.00000</ele>
        <time>2015-12-18T09:41:51Z</time>
      </trkpt>
      <trkpt lat="30.85260000" lon="34.78741000">
        <ele>478.00000</ele>
        <time>2015-12-18T09:41:54Z</time>
      </trkpt>
      <trkpt lat="30.85246000" lon="34.78730000">
        <ele>479.00000</ele>
        <time>2015-12-18T09:41:57Z</time>
      </trkpt>
      <trkpt lat="30.85232000" lon="34.78718000">
        <ele>479.00000</ele>
        <time>2015-12-18T09:42:00Z</time>
      </trkpt>
      <trkpt lat="30.85219000" lon="34.78705000">
        <ele>479.00000</ele>
        <time>2015-12-18T09:42:03Z</time>
      </trkpt>
      <trkpt lat="30.85207000" lon="34.78692000">
        <ele>479.00000</ele>
        <time>2015-12-18T09:42:06Z</time>
      </trkpt>
      <trkpt lat="30.85198000" lon="34.78676000">
        <ele>480.00000</ele>
        <time>2015-12-18T09:42:09Z</time>
      </trkpt>
      <trkpt lat="30.85193000" lon="34.78658000">
        <ele>480.00000</ele>
        <time>2015-12-18T09:42:12Z</time>
      </trkpt>
      <trkpt lat="30.85190000" lon="34.78639000">
        <ele>480.00000</ele>
        <time>2015-12-18T09:42:15Z</time>
      </trkpt>
      <trkpt lat="30.85187000" lon="34.78620000">
        <ele>480.00000</ele>
        <time>2015-12-18T09:42:18Z</time>
      </trkpt>
      <trkpt lat="30.85184000" lon="34.78601000">
        <ele>481.00000</ele>
        <time>2015-12-18T09:42:21Z</time>
      </trkpt>
      <trkpt lat="30.85181000" lon="34.78585000">
        <ele>481.00000</ele>
        <time>2015-12-18T09:42:24Z</time>
      </trkpt>
      <trkpt lat="30.85178000" lon="34.78572000">
        <ele>481.00000</ele>
        <time>2015-12-18T09:42:27Z</time>
      </trkpt>
      <trkpt lat="30.85176000" lon="34.78559000">
        <ele>482.00000</ele>
        <time>2015-12-18T09:42:30Z</time>
      </trkpt>
      <trkpt lat="30.85171000" lon="34.78548000">
        <ele>482.00000</ele>
        <time>2015-12-18T09:42:33Z</time>
      </trkpt>
      <trkpt lat="30.85165000" lon="34.78539000">
        <ele>482.00000</ele>
        <time>2015-12-18T09:42:36Z</time>
      </trkpt>
      <trkpt lat="30.85160000" lon="34.78532000">
        <ele>482.00000</ele>
        <time>2015-12-18T09:42:39Z</time>
      </trkpt>
      <trkpt lat="30.85159000" lon="34.78519000">
        <ele>482.00000</ele>
        <time>2015-12-18T09:42:42Z</time>
      </trkpt>
      <trkpt lat="30.85157000" lon="34.78505000">
        <ele>482.00000</ele>
        <time>2015-12-18T09:42:45Z</time>
      </trkpt>
      <trkpt lat="30.85154000" lon="34.78490000">
        <ele>482.00000</ele>
        <time>2015-12-18T09:42:48Z</time>
      </trkpt>
      <trkpt lat="30.85150000" lon="34.78475000">
        <ele>481.00000</ele>
        <time>2015-12-18T09:42:51Z</time>
      </trkpt>
      <trkpt lat="30.85147000" lon="34.78459000">
        <ele>481.00000</ele>
        <time>2015-12-18T09:42:54Z</time>
      </trkpt>
      <trkpt lat="30.85149000" lon="34.78440000">
        <ele>481.00000</ele>
        <time>2015-12-18T09:42:57Z</time>
      </trkpt>
      <trkpt lat="30.85147000" lon="34.78420000">
        <ele>481.00000</ele>
        <time>2015-12-18T09:43:00Z</time>
      </trkpt>
      <trkpt lat="30.85143000" lon="34.78400000">
        <ele>480.00000</ele>
        <time>2015-12-18T09:43:03Z</time>
      </trkpt>
      <trkpt lat="30.85139000" lon="34.78379000">
        <ele>480.00000</ele>
        <time>2015-12-18T09:43:06Z</time>
      </trkpt>
      <trkpt lat="30.85135000" lon="34.78359000">
        <ele>480.00000</ele>
        <time>2015-12-18T09:43:09Z</time>
      </trkpt>
      <trkpt lat="30.85132000" lon="34.78341000">
        <ele>480.00000</ele>
        <time>2015-12-18T09:43:12Z</time>
      </trkpt>
      <trkpt lat="30.85131000" lon="34.78325000">
        <ele>480.00000</ele>
        <time>2015-12-18T09:43:15Z</time>
      </trkpt>
      <trkpt lat="30.85129000" lon="34.78313000">
        <ele>479.00000</ele>
        <time>2015-12-18T09:43:18Z</time>
      </trkpt>
      <trkpt lat="30.85126000" lon="34.78302000">
        <ele>479.00000</ele>
        <time>2015-12-18T09:43:21Z</time>
      </trkpt>
      <trkpt lat="30.85123000" lon="34.78290000">
        <ele>479.00000</ele>
        <time>2015-12-18T09:43:24Z</time>
      </trkpt>
      <trkpt lat="30.85121000" lon="34.78275000">
        <ele>480.00000</ele>
        <time>2015-12-18T09:43:27Z</time>
      </trkpt>
      <trkpt lat="30.85119000" lon="34.78260000">
        <ele>480.00000</ele>
        <time>2015-12-18T09:43:30Z</time>
      </trkpt>
      <trkpt lat="30.85115000" lon="34.78245000">
        <ele>481.00000</ele>
        <time>2015-12-18T09:43:33Z</time>
      </trkpt>
      <trkpt lat="30.85103000" lon="34.78241000">
        <ele>481.00000</ele>
        <time>2015-12-18T09:43:36Z</time>
      </trkpt>
      <trkpt lat="30.85087000" lon="34.78245000">
        <ele>481.00000</ele>
        <time>2015-12-18T09:43:39Z</time>
      </trkpt>
      <trkpt lat="30.85070000" lon="34.78250000">
        <ele>481.00000</ele>
        <time>2015-12-18T09:43:42Z</time>
      </trkpt>
      <trkpt lat="30.85053000" lon="34.78255000">
        <ele>481.00000</ele>
        <time>2015-12-18T09:43:45Z</time>
      </trkpt>
      <trkpt lat="30.85036000" lon="34.78261000">
        <ele>481.00000</ele>
        <time>2015-12-18T09:43:48Z</time>
      </trkpt>
      <trkpt lat="30.85020000" lon="34.78266000">
        <ele>481.00000</ele>
        <time>2015-12-18T09:43:51Z</time>
      </trkpt>
      <trkpt lat="30.85004000" lon="34.78270000">
        <ele>480.00000</ele>
        <time>2015-12-18T09:43:54Z</time>
      </trkpt>
      <trkpt lat="30.84993000" lon="34.78280000">
        <ele>480.00000</ele>
        <time>2015-12-18T09:43:57Z</time>
      </trkpt>
      <trkpt lat="30.84991000" lon="34.78293000">
        <ele>480.00000</ele>
        <time>2015-12-18T09:44:00Z</time>
      </trkpt>
      <trkpt lat="30.84993000" lon="34.78294000">
        <ele>480.00000</ele>
        <time>2015-12-18T09:44:06Z</time>
      </trkpt>
    </trkseg>
  </trk>
</gpx>

